# Wetter Temperatur Luftdruck Luftfeuchtigkeit Sichtweite Windgeschwindigkeit Windrichtung Zeit
1 Snow -1 992 92 5000 2.06 20 15:23 01.02.2023
2 Snow -1 991 92 4500 1.03 0 13:20 01.02.2023
3 Snow -1 991 92 4500 1.54 70 12:59 01.02.2023
4 Snow -1 990 95 3700 1.03 0 11:57 01.02.2023
5 Snow -2 990 95 3000 0 0 09:38 01.02.2023
6 Clouds -4 990 92 10000 0 0 03:18 01.02.2023
7 Clear -3 991 84 10000 0 0 21:44 31.01.2023
8 Clear -3 990 82 10000 1.54 0 19:57 31.01.2023
9 Clear -2 990 80 10000 2.06 230 18:50 31.01.2023
10 Clear 0 992 66 10000 2.06 240 16:20 31.01.2023
11 Clear 1 992 63 10000 3.6 250 15:36 31.01.2023
12 Clear 1 993 62 10000 4.12 250 15:18 31.01.2023
13 Clear 2 995 61 10000 5.14 250 12:24 31.01.2023
14 Clear 1 995 66 10000 4.63 250 11:20 31.01.2023
15 Clear 0 995 72 10000 4.12 260 09:53 31.01.2023
16 Clear 0 995 75 10000 4.12 260 08:59 31.01.2023
17 Clear 0 995 75 10000 4.12 260 08:35 31.01.2023
18 Clear 1 994 73 10000 6.17 280 05:44 31.01.2023
19 Clouds 3 990 64 10000 9.77 290 23:57 30.01.2023
20 Clouds 3 989 66 10000 7.72 290 22:51 30.01.2023
21 Clouds 3 988 66 10000 6.69 290 22:31 30.01.2023
22 Clouds 3 987 66 10000 7.2 290 21:22 30.01.2023
23 Clouds 3 986 67 10000 6.17 290 20:34 30.01.2023
24 Rain 4 981 74 10000 6.69 300 17:54 30.01.2023
25 Clouds 4 979 77 10000 6.69 290 16:33 30.01.2023
26 Clouds 4 976 69 10000 7.2 270 14:27 30.01.2023
27 Clear 4 976 68 10000 8.75 270 12:44 30.01.2023
28 Clear 4 976 69 10000 8.23 260 11:27 30.01.2023
29 Clear 4 976 73 10000 8.75 250 09:54 30.01.2023
30 Clouds 3 976 76 10000 6.69 250 08:56 30.01.2023
31 Clear 4 976 74 10000 8.23 250 06:55 30.01.2023
32 Clouds 6 980 86 10000 8.23 240 01:39 30.01.2023
33 Clouds 6 983 85 10000 8.75 240 23:35 29.01.2023
34 Clouds 5 985 85 10000 6.69 240 22:37 29.01.2023
35 Clouds 5 986 86 10000 7.72 240 21:40 29.01.2023
36 Clouds 5 988 87 10000 6.17 240 20:41 29.01.2023
37 Rain 5 989 87 10000 6.17 230 19:48 29.01.2023
38 Clouds 5 990 85 10000 6.17 230 19:27 29.01.2023
39 Clouds 4 993 86 10000 4.12 220 17:48 29.01.2023
40 Clouds 4 995 87 10000 3.6 210 16:21 29.01.2023
41 Clouds 3 998 89 10000 4.12 220 14:48 29.01.2023
42 Clear 3 1000 88 10000 2.57 210 13:30 29.01.2023
43 Clear 2 1001 91 10000 3.09 220 12:42 29.01.2023
44 Clear 2 1001 91 10000 3.09 230 12:22 29.01.2023
45 Clear 1 1002 93 10000 2.57 230 11:51 29.01.2023
46 Clouds 1 1002 93 10000 2.06 230 11:26 29.01.2023
47 Clouds 0 1004 96 10000 2.57 240 09:57 29.01.2023
48 Clouds 0 1006 97 10000 2.57 230 07:19 29.01.2023
49 Clouds 0 1009 94 10000 1.54 0 03:39 29.01.2023
50 Clouds 0 1011 96 10000 3.09 240 23:27 28.01.2023
51 Clouds 0 1012 96 10000 2.06 230 20:38 28.01.2023
52 Clouds 0 1012 93 10000 3.09 260 19:52 28.01.2023
53 Clouds 0 1012 93 10000 2.06 240 18:32 28.01.2023
54 Clear 1 1012 90 10000 2.06 250 17:20 28.01.2023
55 Clear 2 1012 89 10000 3.09 260 16:20 28.01.2023
56 Clear 2 1012 87 10000 3.6 260 15:49 28.01.2023
57 Clouds 3 1012 87 10000 3.09 260 14:26 28.01.2023
58 Clouds 3 1012 87 10000 4.12 250 12:57 28.01.2023
59 Clouds 1 1012 89 10000 4.12 230 11:54 28.01.2023
60 Clouds 1 1012 89 10000 4.12 230 11:54 28.01.2023
61 Clouds 0 1014 89 10000 4.12 220 10:34 28.01.2023
62 Clouds 0 1015 86 10000 4.63 210 07:21 28.01.2023
63 Clouds -3 1020 89 10000 3.6 210 01:40 28.01.2023
64 Clouds -3 1022 93 10000 3.6 210 00:25 28.01.2023
65 Clear -3 1024 91 10000 2.57 220 21:27 27.01.2023
66 Clear -3 1025 92 10000 1.03 0 18:45 27.01.2023
67 Clear -3 1025 92 10000 1.03 0 17:57 27.01.2023
68 Clear -3 1025 91 10000 1.03 0 17:19 27.01.2023
69 Clear -2 1025 86 10000 1.54 240 16:35 27.01.2023
70 Clear 0 1026 82 10000 1.54 240 14:57 27.01.2023
71 Clear 0 1026 82 10000 2.57 270 14:25 27.01.2023
72 Clear 0 1026 84 10000 2.57 260 13:18 27.01.2023
73 Clear -5 1028 93 10000 1.54 290 08:47 27.01.2023
74 Clear -4 1026 93 10000 1.03 0 06:20 27.01.2023
75 Clear -2 1025 85 10000 3.09 300 22:59 26.01.2023
76 Clear -1 1024 85 10000 2.06 310 21:42 26.01.2023
77 Clear -1 1024 82 10000 3.09 320 20:39 26.01.2023
78 Clear -1 1024 82 10000 3.09 320 19:54 26.01.2023
79 Clear 0 1022 82 10000 2.57 320 17:55 26.01.2023
80 Clear 1 1022 76 10000 3.6 340 16:29 26.01.2023
81 Clear 2 1021 76 10000 4.12 350 15:58 26.01.2023
82 Clear 2 1020 78 10000 3.77 350 15:32 26.01.2023
83 Clouds 3 1020 75 10000 4.63 350 14:59 26.01.2023
84 Clouds 3 1019 80 10000 4.63 350 13:32 26.01.2023
85 Clouds 3 1019 85 10000 5.66 350 12:24 26.01.2023
86 Clouds 3 1017 92 10000 4.63 350 10:33 26.01.2023
87 Clouds 4 1017 92 10000 3.6 350 09:44 26.01.2023
88 Rain 4 1015 97 7000 1.54 290 08:40 26.01.2023
89 Mist 4 1014 97 2500 2.57 300 06:27 26.01.2023
90 Clouds 4 1013 96 9000 4.12 250 23:41 25.01.2023
91 Clouds 4 1012 96 6000 4.12 240 22:43 25.01.2023
92 Clouds 5 1013 92 10000 4.63 240 21:25 25.01.2023
93 Clouds 5 1013 91 10000 4.63 240 20:59 25.01.2023
94 Clouds 5 1012 91 10000 5.14 240 18:24 25.01.2023
95 Clouds 5 1014 93 10000 5.66 240 16:22 25.01.2023
96 Clouds 5 1015 93 10000 6.17 250 14:57 25.01.2023
97 Clouds 6 1014 89 10000 7.2 250 12:29 25.01.2023
98 Clouds 6 1017 94 10000 5.14 260 09:53 25.01.2023
99 Clouds 6 1017 94 10000 6.17 250 09:20 25.01.2023
100 Clouds 5 1019 97 10000 6.17 250 06:26 25.01.2023
101 Clouds 4 1023 97 10000 5.14 240 00:30 25.01.2023
102 Mist 3 1025 97 3300 4.12 240 21:56 24.01.2023
103 Mist 3 1025 97 3200 4.63 240 21:27 24.01.2023
104 Clouds 3 1026 95 10000 3.6 250 19:38 24.01.2023
105 Clouds 3 1027 95 10000 4.63 260 18:30 24.01.2023
106 Clouds 3 1027 95 10000 3.09 250 17:18 24.01.2023
107 Clouds 3 1027 95 9000 3.6 250 16:52 24.01.2023
108 Clouds 3 1028 94 9000 5.14 270 14:27 24.01.2023
109 Clouds 2 1028 97 6000 4.63 260 12:28 24.01.2023
110 Clouds 1 1029 96 10000 4.63 260 10:30 24.01.2023
111 Clouds 0 1029 97 5000 5.14 240 08:20 24.01.2023
112 Clouds 0 1029 96 5000 4.63 230 07:50 24.01.2023
113 Clouds -1 1030 90 10000 4.63 230 02:57 24.01.2023
114 Clouds -2 1031 91 10000 5.66 240 00:44 24.01.2023
115 Clouds -3 1032 93 10000 4.63 230 23:35 23.01.2023
116 Clouds -4 1033 93 10000 4.12 210 21:50 23.01.2023
117 Clouds -4 1035 93 10000 6.69 250 19:30 23.01.2023
118 Clouds -5 1035 93 10000 5.66 240 17:41 23.01.2023
119 Clouds -5 1037 92 10000 4.63 240 15:33 23.01.2023
120 Clouds -5 1037 96 10000 5.14 240 13:58 23.01.2023
121 Clouds -5 1037 96 10000 4.63 250 13:21 23.01.2023
122 Clouds -5 1038 93 10000 4.63 250 12:45 23.01.2023
123 Clouds -6 1038 93 10000 3.09 230 11:42 23.01.2023
124 Clouds -6 1037 94 10000 2.57 260 08:25 23.01.2023
125 Clouds -5 1037 96 10000 2.06 230 02:49 23.01.2023
126 Clouds -5 1038 96 9000 2.06 220 23:22 22.01.2023
127 Mist -5 1038 96 4000 1.54 230 21:19 22.01.2023
128 Mist -5 1038 94 3000 1.54 250 20:48 22.01.2023
129 Mist -5 1038 94 4000 1.54 250 19:47 22.01.2023
130 Mist -5 1038 94 3000 1.54 0 19:18 22.01.2023
131 Clouds -5 1038 96 4600 1.54 0 17:57 22.01.2023
132 Clouds -5 1038 96 5000 1.54 0 17:26 22.01.2023
133 Mist -5 1038 96 2000 1.54 0 16:24 22.01.2023
134 Clouds -5 1037 96 10000 1.03 0 14:55 22.01.2023
135 Clouds -5 1039 93 9000 1.54 180 13:48 22.01.2023
136 Clouds -5 1039 96 7000 1.54 0 12:48 22.01.2023
137 Mist -5 1040 93 4800 1.03 0 11:36 22.01.2023
138 Fog -5 1037 96 550 0 0 09:36 22.01.2023
139 Mist -5 1037 94 500 1.54 0 08:34 22.01.2023
140 Mist -4 1037 96 5000 1.54 150 02:50 22.01.2023
141 Clouds -4 1037 96 10000 2.06 290 23:36 21.01.2023
142 Clouds -4 1036 96 9000 3.09 330 22:35 21.01.2023
143 Mist -3 1036 96 1300 1.54 270 20:21 21.01.2023
144 Mist -3 1035 96 2000 1.54 340 17:59 21.01.2023
145 Clouds -2 1034 94 10000 2.06 260 14:42 21.01.2023
146 Clouds -2 1034 97 10000 3.09 300 12:58 21.01.2023
147 Clouds -2 1034 96 10000 3.09 300 12:36 21.01.2023
148 Clouds -2 1034 97 8000 2.57 300 11:27 21.01.2023
149 Clouds -1 1033 94 10000 2.57 320 09:56 21.01.2023
150 Clouds -1 1028 97 10000 3.09 280 04:41 21.01.2023
151 Fog 0 1024 97 600 2.06 310 22:31 20.01.2023
152 Fog 0 1024 97 600 2.06 310 22:31 20.01.2023
153 Clouds 0 1023 97 4500 1.54 280 21:58 20.01.2023
154 Clouds 0 1023 97 4500 1.54 280 21:33 20.01.2023
155 Mist 0 1022 97 8000 1.03 290 20:39 20.01.2023
156 Clouds 0 1018 98 10000 0 0 17:54 20.01.2023
157 Rain 1 1015 95 7000 2.06 140 14:47 20.01.2023
158 Clouds 1 1015 93 10000 2.06 130 13:51 20.01.2023
159 Clouds 0 1012 93 10000 2.06 110 10:48 20.01.2023
160 Clear -2 1011 94 10000 1.54 110 08:58 20.01.2023
161 Clear -3 1009 95 10000 0 0 06:40 20.01.2023
162 Clouds -3 1008 92 10000 0 0 02:32 20.01.2023
163 Clouds -3 1006 96 10000 0 0 22:37 19.01.2023
164 Clouds -2 1006 96 10000 0 0 21:39 19.01.2023
165 Clear -3 1005 96 10000 1.03 100 19:38 19.01.2023
166 Clear -3 1005 94 10000 0.51 150 18:56 19.01.2023
167 Clear 1 1001 87 10000 1.54 180 14:26 19.01.2023
168 Clouds -1 999 97 10000 1.54 240 10:26 19.01.2023
169 Clouds -2 998 97 10000 2.06 220 08:58 19.01.2023
170 Clouds -1 995 93 10000 1.03 0 22:41 18.01.2023
171 Clear 0 994 90 10000 2.06 160 20:22 18.01.2023
172 Clear 0 994 90 10000 2.57 170 19:46 18.01.2023
173 Clear 1 994 90 10000 3.09 160 19:28 18.01.2023
174 Clouds 2 993 83 10000 3.09 170 16:46 18.01.2023
175 Clouds 3 993 77 10000 5.66 160 14:21 18.01.2023
176 Clouds 3 992 78 10000 5.14 180 12:43 18.01.2023
177 Clouds 2 991 85 10000 3.6 160 10:28 18.01.2023
178 Clouds 2 987 87 10000 4.63 180 06:47 18.01.2023
179 Clouds 4 982 92 10000 5.14 140 01:25 18.01.2023
180 Clouds 4 983 93 10000 5.14 120 22:21 17.01.2023
181 Clouds 3 983 95 10000 5.66 120 19:44 17.01.2023
182 Rain 2 983 95 7000 5.14 110 18:59 17.01.2023
183 Drizzle 2 983 95 8000 5.14 110 17:41 17.01.2023
184 Snow 1 984 94 6000 4.63 100 15:28 17.01.2023
185 Snow 1 984 94 3000 4.63 90 14:50 17.01.2023
186 Snow 1 984 94 39 0.89 45 13:33 17.01.2023
187 Clouds 3 987 87 10000 6.69 110 11:49 17.01.2023
188 Clouds 2 989 89 10000 7.2 110 10:34 17.01.2023
189 Clouds 3 989 89 10000 5.66 100 09:26 17.01.2023
190 Clouds 3 990 87 10000 6.17 120 07:34 17.01.2023
191 Clouds 3 990 90 10000 5.66 130 03:50 17.01.2023
192 Clouds 2 991 94 10000 2.57 130 00:49 17.01.2023
193 Clouds 2 991 92 10000 2.06 130 22:39 16.01.2023
194 Clear 2 991 91 10000 3.09 150 21:46 16.01.2023
195 Clouds 2 991 87 10000 2.57 200 19:56 16.01.2023
196 Clouds 2 990 87 10000 2.57 180 19:25 16.01.2023
197 Clouds 3 990 87 10000 1.54 170 18:48 16.01.2023
198 Clouds 3 989 87 10000 2.57 190 18:19 16.01.2023
199 Clouds 2 989 87 10000 2.57 210 17:20 16.01.2023
200 Clear 4 986 80 10000 5.14 240 14:28 16.01.2023
201 Clouds 4 985 79 10000 5.66 250 13:37 16.01.2023
202 Clouds 2 982 86 10000 4.63 230 10:27 16.01.2023
203 Clouds 2 979 87 10000 5.66 240 08:44 16.01.2023
204 Rain 4 975 91 10000 6.69 170 22:58 15.01.2023
205 Rain 4 978 86 10000 6.69 170 21:25 15.01.2023
206 Clouds 3 979 85 10000 6.69 180 20:31 15.01.2023
207 Clouds 4 979 84 10000 6.17 190 19:34 15.01.2023
208 Clear 3 980 90 10000 5.14 160 17:38 15.01.2023
209 Clouds 4 980 87 10000 5.66 170 15:18 15.01.2023
210 Clouds 4 980 89 10000 5.66 190 12:29 15.01.2023
211 Clouds 3 981 93 10000 5.14 190 11:29 15.01.2023
212 Clouds 3 981 93 10000 5.14 190 11:29 15.01.2023
213 Clouds 3 980 92 10000 4.12 190 10:27 15.01.2023
214 Clouds 4 979 91 10000 5.14 220 08:54 15.01.2023
215 Clouds 4 991 94 10000 4.63 140 00:35 15.01.2023
216 Clouds 3 995 94 10000 3.09 140 22:44 14.01.2023
217 Clouds 3 996 94 10000 2.57 170 21:54 14.01.2023
218 Clouds 3 996 94 10000 2.57 170 21:36 14.01.2023
219 Clouds 3 996 94 10000 2.57 170 21:36 14.01.2023
220 Clouds 2 996 96 10000 2.06 170 21:18 14.01.2023
221 Clouds 2 996 96 10000 2.06 170 21:18 14.01.2023
222 Clouds 2 996 96 10000 1.54 160 20:28 14.01.2023
223 Mist 2 996 94 4600 2.06 240 18:19 14.01.2023
224 Clouds 3 996 93 10000 4.63 260 15:43 14.01.2023
225 Clouds 3 995 94 10000 4.63 270 15:24 14.01.2023
226 Clouds 4 995 93 10000 4.12 250 14:22 14.01.2023
227 Drizzle 4 994 94 7000 5.14 250 13:25 14.01.2023
228 Clouds 5 993 95 7000 2.57 220 10:50 14.01.2023
229 Clouds 5 993 95 6000 2.06 180 09:43 14.01.2023
230 Rain 5 992 95 10000 3.09 160 02:39 14.01.2023
231 Rain 5 992 94 10000 3.6 160 23:21 13.01.2023
232 Clouds 5 992 94 10000 3.6 170 22:42 13.01.2023
233 Drizzle 5 992 94 10000 3.6 170 21:58 13.01.2023
234 Clouds 5 992 93 10000 3.6 170 20:49 13.01.2023
235 Clouds 5 992 93 10000 3.6 200 19:28 13.01.2023
236 Rain 5 992 93 10000 4.63 180 17:42 13.01.2023
237 Clouds 4 992 97 10000 3.09 180 16:22 13.01.2023
238 Mist 4 991 98 4000 3.6 150 12:33 13.01.2023
239 Drizzle 4 991 98 4000 4.12 130 11:57 13.01.2023
240 Drizzle 3 991 97 3600 4.12 120 10:23 13.01.2023
241 Rain 3 992 97 7000 4.63 130 09:44 13.01.2023
242 Rain 3 993 97 10000 3.09 130 08:52 13.01.2023
243 Rain 2 993 97 5000 3.09 150 07:43 13.01.2023
244 Clear 1 993 97 10000 2.57 140 06:49 13.01.2023
245 Clouds 2 994 94 10000 1.03 0 03:21 13.01.2023
246 Clouds 4 993 94 10000 1.54 230 22:57 12.01.2023
247 Clouds 4 993 94 10000 2.06 210 22:31 12.01.2023
248 Clouds 4 993 94 10000 3.09 0 20:55 12.01.2023
249 Clouds 4 993 94 10000 3.09 190 18:52 12.01.2023
250 Clouds 4 992 94 10000 0.45 225 17:33 12.01.2023
251 Clouds 5 993 92 10000 3.6 190 15:53 12.01.2023
252 Clouds 5 993 92 10000 3.09 190 14:44 12.01.2023
253 Clouds 5 993 92 10000 3.09 180 14:21 12.01.2023
254 Clouds 5 993 95 7000 4.12 180 12:44 12.01.2023
255 Clouds 4 995 92 10000 4.12 160 10:30 12.01.2023
256 Clouds 3 996 95 10000 2.57 200 08:21 12.01.2023
257 Clouds 4 998 94 10000 3.6 190 01:49 12.01.2023
258 Clouds 4 998 93 10000 3.6 190 23:59 11.01.2023
259 Clouds 4 998 93 10000 3.6 190 23:39 11.01.2023
260 Clouds 5 998 93 10000 3.6 190 23:20 11.01.2023
261 Clouds 5 998 94 10000 4.63 190 21:41 11.01.2023
262 Clouds 5 998 94 10000 4.12 190 19:47 11.01.2023
263 Clouds 5 998 94 10000 4.12 180 18:35 11.01.2023
264 Clouds 5 997 93 10000 4.12 180 16:42 11.01.2023
265 Clouds 5 996 93 10000 5.66 180 14:44 11.01.2023
266 Rain 4 996 93 10000 8.23 180 12:38 11.01.2023
267 Rain 4 997 94 9000 8.75 180 11:54 11.01.2023
268 Rain 4 998 92 8000 8.75 160 10:20 11.01.2023
269 Clouds 5 1001 86 10000 6.69 160 07:38 11.01.2023
270 Clouds 5 1001 88 10000 7.2 160 07:20 11.01.2023
271 Clouds 4 1007 92 10000 3.6 200 23:58 10.01.2023
272 Clouds 4 1007 94 10000 4.12 180 22:45 10.01.2023
273 Clouds 4 1007 94 10000 3.09 200 21:30 10.01.2023
274 Clouds 4 1007 92 10000 3.09 180 20:37 10.01.2023
275 Clouds 4 1007 92 10000 3.09 210 19:37 10.01.2023
276 Clouds 4 1007 94 10000 3.6 220 18:47 10.01.2023
277 Clouds 4 1007 94 10000 2.57 210 17:54 10.01.2023
278 Clouds 4 1006 95 10000 3.09 220 15:56 10.01.2023
279 Clouds 4 1005 95 10000 3.09 230 15:24 10.01.2023
280 Clouds 4 1005 95 8000 3.09 220 14:30 10.01.2023
281 Clouds 4 1005 95 9000 3.09 230 12:21 10.01.2023
282 Mist 3 1003 98 4000 2.06 190 08:58 10.01.2023
283 Mist 2 1003 98 3000 2.06 140 08:29 10.01.2023
284 Mist 2 1002 98 5000 3.09 130 07:26 10.01.2023
285 Snow 1 1000 97 10000 3.09 120 04:53 10.01.2023
286 Rain 2 1001 95 10000 5.14 120 22:59 09.01.2023
287 Rain 2 1000 95 6000 5.66 120 21:49 09.01.2023
288 Mist 3 1000 97 2200 6.17 120 20:43 09.01.2023
289 Drizzle 3 1000 97 3000 5.66 130 18:44 09.01.2023
290 Mist 4 1000 97 4000 5.14 140 17:53 09.01.2023
291 Clouds 4 1000 97 5000 5.14 140 17:19 09.01.2023
292 Drizzle 4 1000 98 3300 5.14 130 16:32 09.01.2023
293 Clouds 4 999 98 1400 3.6 130 15:23 09.01.2023
294 Fog 4 999 98 900 3.09 140 14:43 09.01.2023
295 Clouds 4 999 97 4700 3.09 110 12:56 09.01.2023
296 Clouds 4 999 97 4700 3.09 110 12:35 09.01.2023
297 Clouds 4 999 97 3000 2.06 110 11:21 09.01.2023
298 Mist 4 999 98 2000 1.54 0 08:42 09.01.2023
299 Fog 4 998 98 400 1.54 120 06:37 09.01.2023
300 Mist 4 998 96 3600 3.09 150 02:53 09.01.2023
301 Rain 4 999 95 10000 5.14 140 22:53 08.01.2023
302 Rain 4 999 95 10000 5.14 140 21:23 08.01.2023
303 Rain 4 1000 95 10000 5.14 140 20:57 08.01.2023
304 Rain 4 1000 96 6000 5.66 140 19:44 08.01.2023
305 Rain 4 1001 98 2300 5.66 140 17:41 08.01.2023
306 Mist 4 1001 98 2300 5.14 150 17:19 08.01.2023
307 Drizzle 4 1002 98 3500 5.66 150 15:39 08.01.2023
308 Drizzle 4 1002 98 3900 5.14 150 14:20 08.01.2023
309 Rain 4 1003 98 4000 5.66 150 13:55 08.01.2023
310 Mist 4 1003 98 3600 5.14 150 13:21 08.01.2023
311 Drizzle 4 1004 98 1500 4.63 150 11:49 08.01.2023
312 Clouds 3 1005 98 2400 3.6 130 09:38 08.01.2023
313 Clouds 3 1005 98 9000 5.14 140 08:33 08.01.2023
314 Clouds 2 1007 97 7000 6.17 140 04:26 08.01.2023
315 Rain 1 1011 98 2800 6.17 140 23:24 07.01.2023
316 Drizzle 1 1011 98 2000 5.66 150 22:39 07.01.2023
317 Mist 1 1011 97 2100 5.66 150 21:59 07.01.2023
318 Mist 1 1012 97 1900 6.17 140 21:29 07.01.2023
319 Clouds 1 1012 97 8000 5.14 140 20:25 07.01.2023
320 Mist 1 1012 97 2300 5.14 150 19:25 07.01.2023
321 Clouds 1 1012 95 10000 1.34 113 18:18 07.01.2023
322 Mist 1 1013 95 4000 4.63 140 17:40 07.01.2023
323 Clouds 1 1013 95 4500 5.66 150 16:47 07.01.2023
324 Clouds 1 1012 95 5170 0.89 135 16:20 07.01.2023
325 Clouds 1 1013 94 5000 5.66 150 15:38 07.01.2023
326 Snow 1 1013 94 6000 5.14 150 15:18 07.01.2023
327 Mist 0 1013 94 4000 5.14 140 13:59 07.01.2023
328 Mist 0 1013 94 4000 5.14 140 13:41 07.01.2023
329 Clouds 0 1014 93 7000 4.63 160 12:50 07.01.2023
330 Clouds 0 1014 93 8000 6.17 150 12:20 07.01.2023
331 Snow 0 1014 91 7000 5.66 140 10:28 07.01.2023
332 Snow -1 1014 91 10000 5.66 140 08:52 07.01.2023
333 Clouds -1 1014 93 9000 5.66 150 07:58 07.01.2023
334 Clouds -1 1014 93 9000 5.66 150 07:40 07.01.2023
335 Rain -2 1014 91 9000 6.69 130 05:21 07.01.2023
336 Snow -4 1016 92 1700 6.69 120 22:58 06.01.2023
337 Snow -4 1016 89 3000 6.69 120 22:21 06.01.2023
338 Snow -4 1016 89 3000 6.69 120 22:21 06.01.2023
339 Snow -4 1017 89 4000 6.69 120 21:44 06.01.2023
340 Snow -4 1017 86 5000 7.72 120 20:33 06.01.2023
341 Clouds -4 1017 84 10000 8.23 130 19:54 06.01.2023
342 Snow -4 1017 84 10000 8.23 130 19:36 06.01.2023
343 Clouds -4 1017 85 7000 7.72 130 19:18 06.01.2023
344 Clouds -4 1018 83 10000 8.23 120 17:44 06.01.2023
345 Snow -4 1018 85 7000 7.2 120 16:52 06.01.2023
346 Snow -4 1018 85 4500 8.23 120 16:22 06.01.2023
347 Snow -4 1018 85 8000 8.23 130 15:51 06.01.2023
348 Snow -4 1018 84 10000 8.75 130 15:27 06.01.2023
349 -273 0 0 0 0 0 13:31 06.01.2023
350 Snow -4 1021 85 10000 7.72 120 11:49 06.01.2023
351 Snow -4 1022 91 2900 6.17 130 10:33 06.01.2023
352 Snow -5 1022 93 8000 1.54 0 08:34 06.01.2023
353 Snow -7 1024 89 10000 2.57 50 03:44 06.01.2023
354 Clouds -7 1022 88 10000 2.06 10 22:56 05.01.2023
355 Snow -6 1021 88 8000 3.09 20 21:56 05.01.2023
356 Clouds -6 1021 85 10000 2.57 10 20:24 05.01.2023
357 Snow -5 1018 89 5000 3.09 10 17:29 05.01.2023
358 Snow -5 1017 89 7000 3.09 20 16:37 05.01.2023
359 Snow -4 1016 90 6000 4.12 20 15:48 05.01.2023
360 Snow -4 1015 90 7000 4.12 10 14:53 05.01.2023
361 Clouds -4 1014 89 7000 3.6 10 13:28 05.01.2023
362 Snow -4 1013 90 7000 4.63 20 12:38 05.01.2023
363 Snow -3 1010 89 6000 4.63 30 09:57 05.01.2023
364 Snow -2 1009 87 7000 5.66 40 09:33 05.01.2023
365 Clouds -1 1006 85 10000 4.63 70 07:21 05.01.2023
366 Clouds -1 1006 82 10000 7.2 70 06:37 05.01.2023
367 Snow -1 1002 98 1300 5.66 70 00:28 05.01.2023
368 Snow 0 1002 96 2000 6.17 70 22:23 04.01.2023
369 Snow 0 1003 98 1500 5.14 80 21:29 04.01.2023
370 Snow 0 1004 95 2400 5.14 70 19:58 04.01.2023
371 Snow 0 1004 95 2400 5.14 70 19:36 04.01.2023
372 Snow 0 1004 95 1700 5.14 70 19:18 04.01.2023
373 Snow -1 1007 94 4500 4.63 70 16:32 04.01.2023
374 Snow -1 1008 94 10000 5.14 70 15:56 04.01.2023
375 Clouds -2 1010 96 7000 4.63 70 14:47 04.01.2023
376 Clouds -4 1016 97 7000 2.57 70 11:45 04.01.2023
377 Clouds -4 1017 97 10000 2.57 80 11:22 04.01.2023
378 Clouds -4 1017 93 8000 2.06 80 10:43 04.01.2023
379 Clouds -5 1017 97 8000 2.06 70 10:23 04.01.2023
380 Mist -7 1019 100 1700 2.06 40 08:55 04.01.2023
381 Clouds -8 1020 100 10000 0 0 05:37 04.01.2023
382 Clear -5 1021 93 10000 2.57 270 00:39 04.01.2023
383 Clear -5 1021 93 10000 2.57 270 23:36 03.01.2023
384 Clear -5 1021 93 10000 2.06 260 22:55 03.01.2023
385 Clear -4 1020 93 10000 3.09 260 20:58 03.01.2023
386 Clear -4 1020 93 10000 2.57 270 19:50 03.01.2023
387 Clear -3 1017 89 10000 2.57 260 17:38 03.01.2023
388 Clear -4 1017 90 10000 3.6 280 16:39 03.01.2023
389 Clear -3 1015 86 10000 5.14 290 13:58 03.01.2023
390 Clear -3 1015 86 10000 4.63 290 13:31 03.01.2023
391 Clear -3 1014 86 10000 4.63 290 12:58 03.01.2023
392 Clear -3 1014 86 10000 4.63 290 12:30 03.01.2023
393 Clouds -3 1013 89 10000 6.69 290 11:32 03.01.2023
394 Clouds -1 1010 94 8000 5.14 310 07:50 03.01.2023
395 Clouds -1 1006 94 10000 4.63 300 04:23 03.01.2023
396 Clouds -1 1006 96 10000 4.63 310 03:44 03.01.2023
397 Clouds -1 1006 97 10000 5.14 300 02:50 03.01.2023
398 Rain 2 1004 95 7000 4.12 340 22:43 02.01.2023
399 Rain 2 1003 97 7000 4.63 340 22:23 02.01.2023
400 Rain 4 1003 97 450 1.54 320 20:40 02.01.2023
401 Mist 4 1004 97 2500 0 0 19:53 02.01.2023
402 Rain 4 1004 97 4500 0 0 18:26 02.01.2023
403 Drizzle 5 1006 97 4000 1.54 170 15:28 02.01.2023
404 Clouds 5 1007 95 9000 2.06 140 13:31 02.01.2023
405 Clouds 4 1008 97 5000 2.57 150 11:59 02.01.2023
406 Clouds 4 1009 97 4000 2.57 140 10:52 02.01.2023
407 Drizzle 3 1010 95 6000 4.63 140 07:34 02.01.2023
408 Clouds -4 1013 98 10000 1.03 140 01:39 02.01.2023
409 Clouds -5 1012 100 10000 0.51 0 22:38 01.01.2023
410 Clouds -4 1012 97 10000 1.03 230 21:33 01.01.2023
411 Clouds -4 1011 93 7000 1.03 350 20:48 01.01.2023
412 Clouds -4 1010 100 7000 0.51 260 19:48 01.01.2023
413 Clouds -3 1009 97 10000 1.03 290 18:24 01.01.2023
414 Clouds -2 1008 93 10000 1.03 270 17:21 01.01.2023
415 Clouds -2 1006 93 10000 1.03 0 16:33 01.01.2023
416 Clouds -1 1004 91 10000 1.03 0 14:59 01.01.2023
417 Clouds -1 1003 91 10000 1.54 10 13:41 01.01.2023
418 Clouds 0 1002 91 10000 1.54 10 12:41 01.01.2023
419 Clouds 0 1004 93 10000 0 0 11:38 01.01.2023
420 Fog -1 1003 97 9000 1.54 340 10:36 01.01.2023
421 Clouds -1 1000 93 10000 0 0 08:54 01.01.2023
422 Clouds -1 999 93 10000 1.03 280 08:22 01.01.2023
423 Clouds 0 999 93 10000 0.51 0 07:23 01.01.2023
424 Clouds 1 997 90 10000 1.54 240 03:21 01.01.2023
425 Clouds 3 994 83 10000 3.6 240 23:43 31.12.2022
426 Clouds 4 994 80 10000 3.09 250 22:33 31.12.2022
427 Clouds 5 993 82 10000 4.63 240 21:37 31.12.2022
428 Clouds 5 993 80 10000 4.12 240 21:18 31.12.2022
429 Clouds 6 991 81 10000 5.14 220 19:41 31.12.2022
430 Clouds 6 991 80 10000 5.14 220 18:44 31.12.2022
431 Clouds 6 990 80 10000 5.66 220 18:19 31.12.2022
432 Clouds 6 990 81 10000 6.17 220 17:48 31.12.2022
433 Clouds 6 990 83 10000 5.14 210 16:59 31.12.2022
434 Clouds 6 990 86 10000 4.12 190 16:24 31.12.2022
435 Clouds 6 990 85 10000 4.63 190 14:40 31.12.2022
436 Clouds 6 990 86 10000 5.14 200 13:43 31.12.2022
437 Clouds 6 990 87 10000 5.66 190 12:40 31.12.2022
438 Clouds 6 991 87 10000 6.17 190 12:19 31.12.2022
439 Clear 6 991 88 10000 5.66 210 11:50 31.12.2022
440 Clear 5 990 88 10000 5.66 210 10:37 31.12.2022
441 Clouds 5 990 91 10000 4.63 190 09:55 31.12.2022
442 Clouds 5 990 91 10000 4.63 190 09:35 31.12.2022
443 Clouds 5 989 92 10000 4.63 190 07:49 31.12.2022
444 Clouds 4 996 90 10000 7.72 160 00:37 31.12.2022
445 Clouds 4 997 89 10000 5.14 150 23:47 30.12.2022
446 Clouds 3 999 91 10000 3.6 150 22:50 30.12.2022
447 Clouds 3 999 90 10000 2.57 170 21:45 30.12.2022
448 Clouds 3 1000 90 10000 2.57 190 21:26 30.12.2022
449 Clouds 4 1000 87 10000 3.09 210 18:59 30.12.2022
450 Clouds 5 1000 86 10000 3.09 220 17:51 30.12.2022
451 Clouds 5 1000 86 10000 3.09 220 17:32 30.12.2022
452 Clouds 5 998 87 10000 2.57 230 15:57 30.12.2022
453 Clouds 5 998 87 10000 3.09 230 14:53 30.12.2022
454 Clouds 5 996 88 10000 3.09 200 11:58 30.12.2022
455 Clouds 5 993 89 10000 4.63 210 08:21 30.12.2022
456 Clouds 5 991 93 10000 3.6 210 03:39 30.12.2022
457 Clouds 5 991 94 10000 3.6 190 01:53 30.12.2022
458 Clouds 5 990 97 10000 3.09 180 22:54 29.12.2022
459 Clouds 5 990 95 10000 3.6 170 21:31 29.12.2022
460 Clouds 5 990 95 10000 3.6 180 20:54 29.12.2022
461 Clouds 5 990 95 10000 3.6 190 20:25 29.12.2022
462 Clouds 6 989 95 9000 4.12 190 18:30 29.12.2022
463 Drizzle 6 989 95 8000 3.6 170 17:32 29.12.2022
464 Rain 5 988 95 10000 5.42 191 16:55 29.12.2022
465 Rain 5 990 97 9000 4.12 160 16:21 29.12.2022
466 Rain 5 990 97 10000 4.12 150 15:33 29.12.2022
467 Mist 5 991 97 4700 5.66 140 13:33 29.12.2022
468 Rain 4 993 97 5000 5.66 130 11:29 29.12.2022
469 Clouds 3 996 97 4100 4.63 120 07:45 29.12.2022
470 Mist 1 1000 97 3900 1.54 90 00:18 29.12.2022
471 Mist 1 1000 96 2200 2.57 70 23:27 28.12.2022
472 Clouds 0 1001 96 6000 2.06 40 21:21 28.12.2022
473 Clouds 0 1001 94 2500 2.06 60 20:25 28.12.2022
474 Clouds -1 1001 96 5000 2.57 40 19:23 28.12.2022
475 Clouds -2 1002 90 7000 2.06 60 16:56 28.12.2022
476 Clear -2 1003 87 10000 1.54 100 14:42 28.12.2022
477 Clear -3 1006 92 10000 1.03 0 12:55 28.12.2022
478 Clear -4 1007 92 10000 1.03 150 11:55 28.12.2022
479 Clear -5 1007 93 10000 1.03 0 10:43 28.12.2022
480 Clear -4 1008 87 10000 2.06 210 08:43 28.12.2022
481 Clear -3 1006 82 10000 2.06 260 06:50 28.12.2022
482 Clouds -1 1006 81 10000 4.12 260 03:46 28.12.2022
483 Clouds 0 1005 77 10000 6.17 260 23:36 27.12.2022
484 Clear 1 1002 81 10000 6.17 270 20:23 27.12.2022
485 Clear 1 1002 83 10000 6.69 270 19:30 27.12.2022
486 Clear 2 999 83 10000 6.17 270 17:26 27.12.2022
487 Clear 2 999 84 10000 5.66 270 16:42 27.12.2022
488 Clouds 3 997 83 10000 6.69 270 15:28 27.12.2022
489 Clouds 3 996 89 10000 4.63 240 12:34 27.12.2022
490 Clouds 2 995 91 10000 2.24 248 11:28 27.12.2022
491 Clouds 2 996 89 10000 6.17 250 09:46 27.12.2022
492 Clouds 2 996 89 10000 5.66 250 09:23 27.12.2022
493 Rain 2 995 91 10000 4.63 240 06:49 27.12.2022
494 Clouds 1 994 96 10000 4.63 250 04:30 27.12.2022
495 Rain 1 1000 93 9000 3.09 110 22:21 26.12.2022
496 Drizzle 2 999 96 5000 5.14 120 20:55 26.12.2022
497 Rain 2 1000 97 5000 5.14 120 20:34 26.12.2022
498 Clouds 2 1001 94 6000 5.14 120 18:44 26.12.2022
499 Clouds 2 1003 94 5000 6.17 130 17:44 26.12.2022
500 Clouds 3 1004 94 8000 5.66 140 16:20 26.12.2022
501 Clouds 3 1006 94 10000 6.69 150 13:46 26.12.2022
502 Mist 3 1007 94 5000 6.17 140 11:56 26.12.2022
503 Clouds 2 1010 94 10000 6.17 150 07:29 26.12.2022
504 Clouds 1 1013 94 10000 4.12 140 23:56 25.12.2022
505 Clouds 1 1013 94 10000 4.12 140 23:35 25.12.2022
506 Clouds 1 1014 94 10000 4.12 140 22:27 25.12.2022
507 Clouds 0 1014 94 10000 4.12 140 21:37 25.12.2022
508 Clouds -2 1017 94 10000 3.09 130 18:49 25.12.2022
509 Clouds -3 1018 93 10000 1.54 130 17:52 25.12.2022
510 Clouds -4 1018 93 10000 1.54 140 17:33 25.12.2022
511 Clouds -5 1018 92 10000 2.06 130 15:21 25.12.2022
512 Clouds -4 1019 92 7000 1.03 0 12:26 25.12.2022
513 Clouds -4 1017 93 10000 1.54 220 08:39 25.12.2022
514 Clouds -6 1016 97 10000 3.09 270 23:30 24.12.2022
515 Clouds -6 1015 93 10000 2.06 260 21:41 24.12.2022
516 Clear -8 1013 93 9000 1.54 230 18:18 24.12.2022
517 Clear -7 1013 93 10000 1.03 220 16:38 24.12.2022
518 Clear -5 1012 93 10000 1.03 240 14:52 24.12.2022
519 Clear -5 1011 89 10000 1.54 250 12:43 24.12.2022
520 Clear -7 1010 93 10000 1.54 240 10:45 24.12.2022
521 Clear -9 1010 92 10000 0.51 260 10:20 24.12.2022
522 Clear -8 1009 93 10000 0 0 09:36 24.12.2022
523 Clear -11 1008 76 10000 2.56 296 05:48 24.12.2022
524 Clear -7 1006 93 10000 3 299 02:24 24.12.2022
525 Clear -6 1002 93 10000 3.4 271 23:37 23.12.2022
526 Clear -6 1001 93 10000 0.45 248 22:27 23.12.2022
527 Clear -6 1001 93 10000 2.57 270 20:40 23.12.2022
528 Clear -5 1000 93 10000 2.06 270 19:39 23.12.2022
529 Clear -5 1000 93 10000 2.06 270 19:39 23.12.2022
530 Clear -5 1000 93 10000 2.57 280 19:21 23.12.2022
531 Clear -5 1000 93 10000 2.06 280 18:39 23.12.2022
532 Clear -5 1000 92 10000 2.57 280 18:19 23.12.2022
533 Clear -5 999 92 10000 2.06 300 16:33 23.12.2022
534 Clear -3 998 89 10000 4.12 300 14:51 23.12.2022
535 Clouds -1 996 90 10000 5.14 320 11:47 23.12.2022
536 Clouds 0 994 91 10000 4.63 340 09:37 23.12.2022
537 Clouds 0 994 91 10000 4.63 340 09:37 23.12.2022
538 Clouds 0 992 96 9000 5.14 340 07:55 23.12.2022
539 Clouds 0 991 96 3300 4.12 340 06:52 23.12.2022
540 Rain 1 990 93 4100 5.14 340 05:45 23.12.2022
541 Clouds 3 991 94 10000 2.06 190 23:22 22.12.2022
542 Rain 3 992 93 6000 2.57 190 22:35 22.12.2022
543 Drizzle 3 992 93 10000 2.06 200 20:27 22.12.2022
544 Clouds 4 993 91 10000 2.57 200 19:24 22.12.2022
545 Clouds 4 993 91 10000 3.09 200 18:40 22.12.2022
546 Clouds 4 993 91 10000 2.57 190 17:23 22.12.2022
547 Clouds 4 994 91 10000 2.06 190 16:38 22.12.2022
548 Rain 4 994 91 10000 2.06 210 15:33 22.12.2022
549 Clouds 3 994 93 10000 2.57 200 14:46 22.12.2022
550 Clouds 3 994 91 10000 2.57 210 13:33 22.12.2022
551 Clouds 4 996 86 10000 3.09 220 12:46 22.12.2022
552 Clouds 3 994 93 10000 3.6 220 10:35 22.12.2022
553 Clouds 3 994 91 10000 3.09 190 09:59 22.12.2022
554 Clouds 3 995 91 10000 3.09 210 09:20 22.12.2022
555 Clouds 3 995 91 10000 3.6 210 08:25 22.12.2022
556 Clouds 3 995 90 10000 3.6 190 05:27 22.12.2022
557 Clouds 3 996 91 10000 3.09 180 04:18 22.12.2022
558 Clouds 4 999 89 10000 3.6 210 22:57 21.12.2022
559 Clouds 4 999 89 10000 4.12 230 21:54 21.12.2022
560 Clouds 4 999 90 10000 4.12 220 21:21 21.12.2022
561 Clouds 4 999 89 10000 4.63 220 20:49 21.12.2022
562 Clouds 4 1000 89 10000 3.6 220 19:59 21.12.2022
563 Clouds 4 1000 89 10000 3.6 220 19:41 21.12.2022
564 Clouds 4 1000 89 10000 3.09 220 19:22 21.12.2022
565 Clouds 4 1000 89 10000 2.57 230 18:44 21.12.2022
566 Clouds 4 1000 89 10000 3.6 230 17:35 21.12.2022
567 Clouds 6 998 87 10000 4.63 240 14:32 21.12.2022
568 Clouds 6 998 90 10000 4.63 240 12:57 21.12.2022
569 Clouds 4 998 93 10000 2.57 240 11:42 21.12.2022
570 Clouds 4 998 93 10000 3.09 230 11:19 21.12.2022
571 Clouds 4 998 90 10000 5.66 260 08:53 21.12.2022
572 Clouds 5 997 93 10000 5.66 250 06:59 21.12.2022
573 Clouds 5 998 97 10000 2.06 210 00:48 21.12.2022
574 Rain 5 999 97 10000 3.09 190 22:41 20.12.2022
575 Drizzle 4 1000 97 4500 1.54 170 21:19 20.12.2022
576 Mist 4 1000 97 4500 1.54 0 20:19 20.12.2022
577 Fog 4 1001 97 600 1.54 0 18:49 20.12.2022
578 Fog 4 1001 97 800 1.54 0 18:28 20.12.2022
579 Drizzle 4 1001 96 2500 1.54 0 17:51 20.12.2022
580 Mist 4 1002 96 2500 1.54 180 17:28 20.12.2022
581 Clouds 4 1002 96 7000 3.09 210 16:32 20.12.2022
582 Clouds 4 1002 94 10000 3.09 210 15:27 20.12.2022
583 Clouds 4 1002 94 10000 3.09 210 14:37 20.12.2022
584 Mist 3 1002 96 4500 3.6 210 13:56 20.12.2022
585 Mist 3 1002 94 5000 3.09 210 12:44 20.12.2022
586 Clouds 3 1002 94 6000 2.06 180 12:23 20.12.2022
587 Clouds 2 1003 96 6000 1.54 190 11:28 20.12.2022
588 Drizzle 1 1003 96 6000 1.54 170 08:23 20.12.2022
589 Mist 2 1007 96 3300 2.57 180 00:27 20.12.2022
590 Clouds 2 1009 96 7000 3.6 180 22:36 19.12.2022
591 Drizzle 2 1009 93 8000 2.57 150 21:39 19.12.2022
592 Drizzle 2 1011 90 10000 3.6 170 19:53 19.12.2022
593 Drizzle 2 1011 89 10000 3.6 180 19:31 19.12.2022
594 Clouds 2 1012 85 10000 4.12 180 18:24 19.12.2022
595 Clouds 2 1014 86 10000 3.6 160 16:35 19.12.2022
596 Clouds 2 1014 86 10000 3.6 160 16:35 19.12.2022
597 Clouds 1 1017 90 10000 2.06 140 13:24 19.12.2022
598 Clear 0 1018 89 10000 4.63 160 11:55 19.12.2022
599 Clouds 1 1021 94 10000 2.57 140 09:19 19.12.2022
600 Clouds 1 1022 94 9000 2.57 200 07:32 19.12.2022
601 Clouds -1 1023 93 10000 2.06 240 02:22 19.12.2022
602 Clear 1 1021 86 10000 5.66 260 21:51 18.12.2022
603 Clear 1 1021 89 10000 6.17 260 21:31 18.12.2022
604 Clear 2 1020 90 10000 5.14 250 20:58 18.12.2022
605 Clouds 2 1019 90 10000 4.63 240 19:45 18.12.2022
606 Clouds 2 1019 90 10000 4.63 250 19:24 18.12.2022
607 Clouds 3 1018 87 10000 5.14 240 17:53 18.12.2022
608 Clouds 2 1017 87 10000 5.14 230 16:27 18.12.2022
609 Clouds 2 1017 88 10000 5.66 230 15:39 18.12.2022
610 Clouds 2 1017 88 10000 6.17 230 15:18 18.12.2022
611 Rain 2 1017 87 10000 4.63 210 13:36 18.12.2022
612 Clouds 1 1017 88 10000 5.14 210 12:51 18.12.2022
613 Clouds 1 1017 89 10000 4.63 200 11:54 18.12.2022
614 Clouds 0 1018 90 10000 5.14 220 10:19 18.12.2022
615 Clouds -1 1018 90 10000 4.12 200 08:47 18.12.2022
616 Clouds -1 1018 90 10000 4.63 200 07:20 18.12.2022
617 Clouds -1 1020 88 10000 4.12 210 06:20 18.12.2022
618 Clouds -1 1019 93 10000 3.6 230 02:59 18.12.2022
619 Clouds -2 1019 93 10000 4.12 220 23:40 17.12.2022
620 Clouds -2 1019 91 10000 4.12 210 21:47 17.12.2022
621 Clouds -3 1019 88 10000 2.57 210 18:54 17.12.2022
622 Clear -2 1018 84 10000 3.6 190 16:41 17.12.2022
623 Clouds -1 1018 91 10000 3.6 170 14:23 17.12.2022
624 Clear -3 1019 94 10000 2.57 170 11:36 17.12.2022
625 Clear -3 1019 96 10000 2.06 170 10:46 17.12.2022
626 Clear -4 1019 96 10000 2.06 170 09:41 17.12.2022
627 Clouds -6 1020 93 10000 1.54 160 07:28 17.12.2022
628 Clouds -7 1020 97 10000 1.03 130 06:45 17.12.2022
629 Clouds -11 1020 87 10000 0 0 23:49 16.12.2022
630 Clouds -9 1019 92 10000 1.03 190 20:56 16.12.2022
631 Clouds -11 1017 92 6000 1.03 0 19:36 16.12.2022
632 Clouds -11 1015 89 10000 0 0 16:40 16.12.2022
633 Clouds -10 1014 91 10000 1.54 240 14:48 16.12.2022
634 Clouds -9 1015 92 10000 2.06 250 13:45 16.12.2022
635 Clouds -9 1014 89 10000 1.03 250 11:58 16.12.2022
636 Clouds -10 1014 92 5000 1.54 260 09:53 16.12.2022
637 Mist -10 1012 92 4000 1.03 230 09:24 16.12.2022
638 Mist -10 1011 92 3500 2.57 280 07:55 16.12.2022
639 Clouds -9 1010 92 9000 2.06 270 07:32 16.12.2022
640 Clouds -12 1008 91 10000 1.03 210 23:30 15.12.2022
641 Clouds -12 1008 88 10000 1.03 220 22:27 15.12.2022
642 Clouds -10 1005 92 10000 2.06 270 20:36 15.12.2022
643 Clouds -9 1005 92 10000 2.06 270 19:36 15.12.2022
644 Clouds -10 1004 92 10000 2.57 260 18:20 15.12.2022
645 Clouds -11 1004 89 10000 1.54 0 17:24 15.12.2022
646 Clouds -10 1004 89 10000 1.54 240 15:35 15.12.2022
647 Clouds -10 1004 91 10000 2.06 240 15:35 15.12.2022
648 Clouds -10 1004 91 10000 2.06 240 15:35 15.12.2022
649 Clear -9 1003 92 10000 1.54 250 13:36 15.12.2022
650 Clouds -9 1003 92 10000 1.54 0 12:33 15.12.2022
651 Clear -12 1003 85 10000 1.03 0 09:41 15.12.2022
652 Clear -13 1003 88 10000 0.51 0 08:53 15.12.2022
653 Clouds -14 1002 92 10000 0.51 220 06:19 15.12.2022
654 Clouds -13 1001 87 10000 0 0 04:41 15.12.2022
655 Clouds -7 997 92 10000 1.54 320 21:25 14.12.2022
656 Clouds -8 996 92 10000 1.54 290 20:59 14.12.2022
657 Clouds -8 996 92 10000 1.54 0 20:29 14.12.2022
658 Snow -8 995 91 7000 2.57 320 18:26 14.12.2022
659 Clouds -7 995 91 10000 2.06 20 16:57 14.12.2022
660 Snow -7 994 92 5000 3.09 10 15:40 14.12.2022
661 Clouds -6 995 92 10000 2.06 360 13:52 14.12.2022
662 Snow -5 995 94 6000 2.57 10 11:31 14.12.2022
663 Snow -5 995 93 1900 1.03 0 10:34 14.12.2022
664 Snow -6 996 92 5000 2.06 20 08:51 14.12.2022
665 Clouds -10 1000 88 10000 3.09 260 22:50 13.12.2022
666 Clear -10 1000 86 10000 4.12 260 21:48 13.12.2022
667 Clear -10 1000 80 10000 3.6 280 20:48 13.12.2022
668 Clear -10 1000 82 10000 4.12 280 20:19 13.12.2022
669 Clouds -9 999 81 10000 6.69 280 17:50 13.12.2022
670 Clouds -9 999 80 10000 4.63 280 15:55 13.12.2022
671 Clouds -9 999 79 10000 6.69 290 14:52 13.12.2022
672 Clouds -9 999 79 10000 6.69 290 14:52 13.12.2022
673 Clouds -8 999 81 10000 7.72 300 11:32 13.12.2022
674 Clouds -7 999 80 10000 7.72 310 10:36 13.12.2022
675 Clouds -7 999 80 10000 8.75 320 09:23 13.12.2022
676 Clouds -7 999 88 3400 8.23 310 06:20 13.12.2022
677 Clouds -3 1003 80 10000 8.75 350 22:23 12.12.2022
678 Clouds -3 1003 80 10000 8.75 350 21:22 12.12.2022
679 Clear -3 1005 83 10000 6.17 350 18:34 12.12.2022
680 Clouds -3 1005 85 10000 6.17 350 17:19 12.12.2022
681 Clouds -3 1006 86 10000 5.66 350 15:22 12.12.2022
682 Clouds -3 1008 88 10000 4.63 360 12:24 12.12.2022
683 Clouds -4 1010 90 10000 3.6 330 09:19 12.12.2022
684 Clouds -4 1011 89 10000 4.12 350 04:55 12.12.2022
685 Clouds -4 1011 89 10000 4.12 340 03:21 12.12.2022
686 Clouds -5 1012 93 10000 3.6 360 22:54 11.12.2022
687 Snow -7 1012 93 10000 3.6 340 20:48 11.12.2022
688 Clouds -6 1012 93 10000 3.09 350 19:43 11.12.2022
689 Clear -6 1012 93 10000 3.09 340 19:22 11.12.2022
690 Clouds -6 1012 93 10000 3.09 350 18:18 11.12.2022
691 Clouds -6 1012 93 10000 3.09 350 18:18 11.12.2022
692 Clouds -6 1012 93 10000 3.6 350 17:31 11.12.2022
693 Clouds -6 1012 93 9000 3.6 350 16:52 11.12.2022
694 Clouds -6 1013 95 6000 3.09 340 15:46 11.12.2022
695 Mist -6 1013 94 4000 2.57 340 14:50 11.12.2022
696 Mist -6 1013 94 3000 3.09 330 12:44 11.12.2022
697 Clouds -5 1012 92 1500 3.09 340 11:53 11.12.2022
698 Mist -5 1012 93 1400 2.06 320 08:29 11.12.2022
699 Clouds -5 1010 93 10000 2.57 320 00:34 11.12.2022
700 Clouds -5 1010 92 6000 1.54 280 23:20 10.12.2022
701 Snow -5 1010 92 6000 2.57 300 22:33 10.12.2022
702 Snow -5 1010 92 4300 3.09 290 21:19 10.12.2022
703 Snow -5 1009 92 3400 3.6 300 20:35 10.12.2022
704 Clouds -4 1009 90 10000 4.12 290 18:58 10.12.2022
705 Clouds -4 1009 90 10000 4.12 290 16:57 10.12.2022
706 Clouds -3 1009 90 10000 4.12 290 16:33 10.12.2022
707 Clouds -3 1009 89 10000 4.12 290 15:38 10.12.2022
708 Clouds -3 1009 89 10000 4.12 290 14:48 10.12.2022
709 Clouds -3 1009 90 10000 3.6 320 12:53 10.12.2022
710 Clouds -3 1009 90 10000 3.6 320 12:53 10.12.2022
711 Clouds -3 1008 90 10000 3.09 310 11:37 10.12.2022
712 Clouds -4 1008 92 9000 3.6 290 10:41 10.12.2022
713 Clouds -4 1008 93 10000 3.6 300 08:58 10.12.2022
714 Clouds -4 1008 93 10000 3.6 290 07:19 10.12.2022
715 Clouds -5 1007 96 10000 2.06 320 00:40 10.12.2022
716 Clouds -5 1007 93 10000 1.54 300 23:18 09.12.2022
717 Clouds -6 1007 96 10000 1.54 330 22:37 09.12.2022
718 Clouds -5 1006 93 10000 3.09 290 21:24 09.12.2022
719 Clouds -5 1006 93 9000 2.06 320 20:42 09.12.2022
720 Snow -5 1006 93 10000 1.54 340 18:52 09.12.2022
721 Clouds -5 1005 93 9000 2.57 340 17:53 09.12.2022
722 Clouds -4 1005 90 7000 1.54 340 16:31 09.12.2022
723 Clouds -4 1005 90 10000 2.06 330 15:42 09.12.2022
724 Clouds -4 1005 93 10000 2.57 320 15:18 09.12.2022
725 Clouds -4 1004 93 10000 1.03 0 11:32 09.12.2022
726 Clouds -4 1004 93 10000 1.03 350 10:34 09.12.2022
727 Clouds -5 1004 93 10000 1.54 30 08:36 09.12.2022
728 Clouds -7 1005 92 10000 1.03 260 03:19 09.12.2022
729 Clouds -8 1005 96 10000 0 0 00:18 09.12.2022
730 Clouds -7 1003 93 10000 2.06 250 21:23 08.12.2022
731 Clouds -7 1002 95 10000 1.54 240 20:21 08.12.2022
732 Clouds -7 1002 95 10000 1.54 240 20:21 08.12.2022
733 Clouds -6 1002 93 9000 2.57 290 17:32 08.12.2022
734 Clouds -7 1001 92 10000 1.54 280 14:52 08.12.2022
735 Clear -6 1001 92 10000 2.06 280 14:24 08.12.2022
736 Clear -7 1000 90 10000 1.03 280 11:18 08.12.2022
737 Clear -9 1002 92 10000 1.54 280 09:45 08.12.2022
738 Clear -9 1002 92 10000 1.54 270 09:20 08.12.2022
739 Clouds -7 1001 91 10000 3.09 310 22:56 07.12.2022
740 Clear -7 1001 89 10000 2.57 310 22:19 07.12.2022
741 Clear -6 1001 91 10000 2.06 310 21:47 07.12.2022
742 Clear -6 1001 90 10000 2.57 330 20:36 07.12.2022
743 Clear -6 1002 93 10000 2.57 340 19:24 07.12.2022
744 Clear -5 1003 90 10000 2.57 330 16:21 07.12.2022
745 Clear -4 1003 90 10000 2.06 330 14:40 07.12.2022
746 Clouds -5 1007 93 10000 3.09 350 11:38 07.12.2022
747 Clear -6 1007 93 10000 1.03 0 10:38 07.12.2022
748 Clear -6 1007 93 10000 1.03 300 09:37 07.12.2022
749 Clear -6 1006 94 10000 1.54 330 08:44 07.12.2022
750 Clear -6 1007 93 10000 1.03 0 06:46 07.12.2022
751 Clouds -7 1008 100 10000 1.03 290 04:35 07.12.2022
752 Clouds -5 1007 93 10000 0 0 22:37 06.12.2022
753 Clear -4 1008 93 10000 1.03 270 20:20 06.12.2022
754 Clear -3 1008 92 10000 1.54 290 17:52 06.12.2022
755 Clear -3 1009 90 10000 2.06 290 16:41 06.12.2022
756 Clear -3 1009 92 10000 1.54 290 15:49 06.12.2022
757 Clear -3 1008 89 10000 1.54 260 14:55 06.12.2022
758 Clear -3 1008 89 10000 2.06 250 14:24 06.12.2022
759 Clear -3 1009 89 10000 2.06 260 12:51 06.12.2022
760 Clear -3 1009 93 10000 2.57 270 12:28 06.12.2022
761 Clear -5 1012 93 10000 1.54 280 07:59 06.12.2022
762 Clouds -4 1013 87 10000 2.57 270 04:54 06.12.2022
763 Clouds -1 1015 81 10000 2.06 240 01:24 06.12.2022
764 Clouds -1 1018 88 10000 1.54 250 22:26 05.12.2022
765 Clouds -1 1019 89 10000 0 0 20:55 05.12.2022
766 Clouds -1 1020 90 10000 0 0 20:25 05.12.2022
767 Clouds -1 1022 89 10000 1.03 0 19:43 05.12.2022
768 Clouds -1 1023 89 10000 1.03 40 16:57 05.12.2022
769 Clouds -1 1024 90 10000 1.03 340 16:26 05.12.2022
770 Clouds -1 1024 90 10000 2.06 20 15:22 05.12.2022
771 Clouds -1 1026 90 10000 1.54 310 12:59 05.12.2022
772 Clouds -1 1026 90 10000 1.54 310 12:40 05.12.2022
773 Clouds -1 1027 90 10000 1.03 340 11:46 05.12.2022
774 Clouds -1 1028 91 10000 1.03 0 10:53 05.12.2022
775 Clouds -2 1032 94 10000 2.06 20 00:19 05.12.2022
776 Clouds -2 1032 94 10000 1.54 260 22:44 04.12.2022
777 Clouds -2 1032 94 10000 1.03 0 22:20 04.12.2022
778 Clouds -2 1032 94 10000 1.03 0 21:53 04.12.2022
779 Clouds -3 1032 96 10000 1.54 350 20:30 04.12.2022
780 Clouds -3 1032 96 10000 2.57 20 19:27 04.12.2022
781 Clouds -2 1032 94 10000 3.09 10 18:40 04.12.2022
782 Clouds -2 1032 93 10000 2.57 20 17:23 04.12.2022
783 Clouds -2 1032 93 10000 2.57 20 16:37 04.12.2022
784 Clouds -2 1032 93 10000 2.06 10 16:19 04.12.2022
785 Clouds -2 1032 93 10000 2.06 20 15:57 04.12.2022
786 Clouds -2 1032 93 10000 2.06 10 14:43 04.12.2022
787 Clouds -2 1032 93 10000 1.54 330 13:26 04.12.2022
788 Clear -3 1032 95 10000 4.63 350 12:42 04.12.2022
789 Clear -2 1032 90 10000 1.54 360 11:51 04.12.2022
790 Clouds -3 1032 92 10000 1.03 10 09:20 04.12.2022
791 Clouds -3 1032 90 10000 1.03 0 07:27 04.12.2022
792 Clouds -1 1032 81 10000 1.54 20 00:45 04.12.2022
793 Clouds -1 1032 81 10000 2.06 20 23:33 03.12.2022
794 Clouds -1 1032 79 10000 2.06 350 21:59 03.12.2022
795 Clouds -1 1032 79 10000 1.54 40 21:21 03.12.2022
796 Clouds -1 1032 79 10000 2.24 45 20:22 03.12.2022
797 Clouds -1 1032 79 10000 2.06 20 18:39 03.12.2022
798 Clouds -1 1032 77 10000 3.6 50 15:54 03.12.2022
799 Clouds -1 1032 79 10000 2.57 50 14:23 03.12.2022
800 Clouds -1 1033 79 10000 3.09 50 12:54 03.12.2022
801 Clouds -1 1033 79 10000 2.57 70 12:22 03.12.2022
802 Clouds -1 1033 80 10000 2.57 50 10:21 03.12.2022
803 Clouds -2 1033 87 10000 2.57 20 07:22 03.12.2022
804 Clouds 0 1034 79 10000 2.57 30 01:29 03.12.2022
805 Clouds 0 1034 86 10000 2.57 10 22:41 02.12.2022
806 Clouds 1 1034 87 10000 2.57 10 20:54 02.12.2022
807 Clouds 1 1034 87 10000 2.57 10 20:54 02.12.2022
808 Clouds 1 1034 87 10000 2.57 10 20:54 02.12.2022
809 Clouds 1 1034 87 10000 2.57 10 20:54 02.12.2022
810 Clouds 1 1034 90 10000 4.12 20 19:26 02.12.2022
811 Clouds 1 1033 90 10000 3.09 20 15:59 02.12.2022
812 Clouds 1 1032 93 10000 2.57 20 14:43 02.12.2022
813 Clouds 1 1032 89 10000 2.57 10 14:24 02.12.2022
814 Clouds 2 1033 91 10000 3.09 30 12:56 02.12.2022
815 Clouds 2 1033 94 10000 3.6 20 11:40 02.12.2022
816 Drizzle 2 1033 95 6000 4.12 20 08:35 02.12.2022
817 Clouds 2 1032 95 10000 3.09 10 07:24 02.12.2022
818 Snow 2 1033 94 10000 2.57 20 23:49 01.12.2022
819 Clouds 2 1034 94 10000 1.54 10 21:49 01.12.2022
820 Clouds 2 1034 94 10000 2.06 20 21:31 01.12.2022
821 Clouds 2 1033 92 10000 1.54 60 19:48 01.12.2022
822 Clouds 3 1033 94 10000 2.06 80 17:50 01.12.2022
823 Rain 3 1033 94 10000 3.09 80 15:44 01.12.2022
824 Clouds 2 1034 97 10000 1.54 80 11:55 01.12.2022
825 Clouds 1 1034 97 7000 0.51 0 10:25 01.12.2022
826 Snow 1 1035 97 7000 0 0 09:54 01.12.2022
827 Clouds 1 1035 97 7000 0 0 09:36 01.12.2022
828 Clouds 0 1035 97 8000 0 0 00:18 01.12.2022
829 Clouds 0 1034 97 8000 0 0 22:38 30.11.2022
830 Clear 0 1034 97 10000 0 0 21:19 30.11.2022
831 Clear 0 1034 98 10000 1.54 290 20:45 30.11.2022
832 Clear -1 1034 98 10000 1.03 290 20:22 30.11.2022
833 Clear -2 1033 97 10000 0 0 18:33 30.11.2022
834 Fog -1 1033 93 10000 0 0 17:36 30.11.2022
835 Fog -1 1033 97 10000 0 0 16:19 30.11.2022
836 Clear 2 1033 89 10000 1.03 0 14:27 30.11.2022
837 Clear 2 1032 89 10000 2.06 70 13:48 30.11.2022
838 Clouds 1 1033 93 10000 1.03 80 10:42 30.11.2022
839 Clouds 1 1030 93 10000 1.54 90 08:39 30.11.2022
840 Clouds 2 1030 93 10000 1.03 100 07:56 30.11.2022
841 Rain 3 1029 94 10000 2.57 130 23:36 29.11.2022
842 Clouds 3 1029 94 10000 3.09 120 22:51 29.11.2022
843 Drizzle 3 1029 96 6000 2.06 140 21:36 29.11.2022
844 Rain 3 1028 94 4000 2.57 140 20:37 29.11.2022
845 Rain 3 1027 94 6000 3.6 80 18:59 29.11.2022
846 Rain 2 1027 91 10000 4.63 90 17:18 29.11.2022
847 Rain 3 1028 90 10000 3.09 100 16:25 29.11.2022
848 Rain 3 1027 89 10000 3.6 90 14:50 29.11.2022
849 Drizzle 3 1027 89 10000 3.09 100 13:20 29.11.2022
850 Clouds 3 1027 91 10000 2.57 100 11:44 29.11.2022
851 Clouds 3 1027 91 10000 3.09 110 10:56 29.11.2022
852 Clouds 3 1027 91 9000 3.09 100 09:38 29.11.2022
853 Clouds 2 1027 91 10000 2.57 80 08:38 29.11.2022
854 Clouds 2 1026 93 10000 0.45 68 00:36 29.11.2022
855 Clouds 3 1025 94 10000 3.05 105 00:36 29.11.2022
856 Rain 3 1026 93 10000 0.45 68 23:35 28.11.2022
857 Clouds 3 1026 93 10000 0.45 68 22:52 28.11.2022
858 Clouds 3 1026 91 10000 2.06 80 21:44 28.11.2022
859 Clouds 3 1026 91 10000 2.57 70 20:50 28.11.2022
860 Clouds 3 1026 91 10000 3.6 70 19:38 28.11.2022
861 Clouds 3 1026 90 10000 4.12 80 18:29 28.11.2022
862 Clouds 3 1026 88 10000 3.6 80 17:50 28.11.2022
863 Clouds 3 1026 87 10000 4.12 100 15:37 28.11.2022
864 Clouds 3 1026 88 10000 5.14 120 14:24 28.11.2022
865 Clouds 3 1026 88 10000 3.6 110 13:49 28.11.2022
866 Clouds 3 1026 89 10000 3.09 130 12:35 28.11.2022
867 Clouds 3 1025 92 10000 5.14 120 09:27 28.11.2022
868 Clouds 2 1025 96 10000 3.2 124 07:19 28.11.2022
869 Clouds 2 1024 94 10000 2.29 116 04:42 28.11.2022
870 Mist 1 1025 96 2700 1.03 280 03:58 28.11.2022
871 Clouds 2 1024 94 10000 1.45 123 01:27 28.11.2022
872 Clouds 2 1024 94 10000 1.45 123 01:27 28.11.2022
873 Clouds 2 1027 94 10000 1.4 128 22:42 27.11.2022
874 Clouds 1 1025 96 6000 1.03 20 21:28 27.11.2022
875 Clouds 1 1025 96 7000 1.03 10 19:30 27.11.2022
876 Clouds 1 1025 96 10000 1.03 10 16:47 27.11.2022
877 Clouds 2 1025 96 9000 1.54 350 14:30 27.11.2022
878 Clouds 2 1026 96 10000 2.57 270 12:32 27.11.2022
879 Clouds 2 1028 92 10000 0.98 77 10:40 27.11.2022
880 Clouds 1 1026 93 10000 1.03 0 07:57 27.11.2022
881 Clouds 1 1026 93 10000 1.03 0 07:57 27.11.2022
882 Clouds 0 1027 96 10000 1.03 280 23:43 26.11.2022
883 Clouds 1 1027 96 7000 1.54 340 21:52 26.11.2022
884 Clouds 1 1026 96 10000 1.54 340 20:36 26.11.2022
885 Clouds 1 1026 96 10000 1.54 0 19:22 26.11.2022
886 Clouds 2 1026 94 10000 1.54 10 16:50 26.11.2022
887 Clouds 2 1026 94 7000 1.54 360 15:38 26.11.2022
888 Rain 2 1026 94 3900 1.54 360 12:55 26.11.2022
889 Mist 2 1025 94 5000 1.54 0 11:24 26.11.2022
890 Clouds 2 1025 94 10000 1.54 10 09:44 26.11.2022
891 Clouds 2 1025 94 10000 1.54 0 08:46 26.11.2022
892 Rain 2 1022 94 6000 1.03 20 23:23 25.11.2022
893 Clouds 2 1022 94 10000 1.54 20 21:41 25.11.2022
894 Clouds 2 1022 93 9000 1.54 10 21:19 25.11.2022
895 Clouds 2 1020 94 97 2.56 77 19:36 25.11.2022
896 Clouds 2 1021 90 10000 2.06 60 15:51 25.11.2022
897 Clouds 2 1020 91 10000 2.27 101 12:28 25.11.2022
898 Clouds 1 1019 93 10000 1.54 20 08:56 25.11.2022
899 Clouds 1 1019 93 10000 1.54 20 08:37 25.11.2022
900 Clouds 1 1019 94 10000 2.06 80 06:48 25.11.2022
901 Clouds 1 1020 93 10000 1.54 10 01:54 25.11.2022
902 Clouds 1 1019 93 10000 1.54 40 23:43 24.11.2022
903 Clouds 1 1019 92 10000 2.06 80 22:37 24.11.2022
904 Clouds 2 1019 89 10000 2.57 50 21:42 24.11.2022
905 Clouds 2 1018 84 10000 1.54 70 19:48 24.11.2022
906 Clouds 2 1018 88 10000 3.09 90 17:48 24.11.2022
907 Clouds 2 1017 88 10000 3.09 90 17:24 24.11.2022
908 Clouds 2 1017 88 10000 3.09 100 16:40 24.11.2022
909 Clouds 3 1015 87 10000 3.6 90 14:24 24.11.2022
910 Clouds 3 1014 88 10000 3.6 90 12:41 24.11.2022
911 Clouds 3 1014 88 10000 4.12 100 11:38 24.11.2022
912 Clouds 2 1014 89 10000 3.09 80 08:59 24.11.2022
913 Clouds 1 1013 91 10000 2.57 80 06:22 24.11.2022
914 Snow 1 1011 91 10000 2.57 90 00:41 24.11.2022
915 Rain 1 1011 87 10000 3.6 90 23:32 23.11.2022
916 Snow 1 1012 88 10000 2.06 70 21:48 23.11.2022
917 Snow 1 1012 88 10000 2.06 70 21:48 23.11.2022
918 Clouds 1 1012 88 10000 1.54 120 20:52 23.11.2022
919 Clouds 1 1012 88 10000 4.12 100 19:40 23.11.2022
920 Clouds 1 1012 88 10000 4.63 100 18:56 23.11.2022
921 Snow 1 1012 88 10000 5.66 120 17:35 23.11.2022
922 Rain 1 1011 93 10000 2.57 20 14:19 23.11.2022
923 Rain 1 1011 93 10000 3.09 30 13:24 23.11.2022
924 Rain 1 1011 93 9000 3.09 50 12:23 23.11.2022
925 Rain 1 1011 91 10000 2.57 50 11:46 23.11.2022
926 Rain 1 1012 93 10000 3.09 70 10:48 23.11.2022
927 Snow 1 1012 93 6000 4.12 70 10:18 23.11.2022
928 Rain 1 1012 93 10000 3.09 70 09:28 23.11.2022
929 Clouds 1 1012 93 8000 3.6 70 08:58 23.11.2022
930 Clouds 1 1012 92 8000 3.6 70 08:36 23.11.2022
931 Clouds 1 1011 81 10000 6.17 100 05:19 23.11.2022
932 Rain 1 1012 86 10000 4.12 80 01:42 23.11.2022
933 Rain 2 1011 91 10000 2.06 40 22:37 22.11.2022
934 Rain 2 1011 91 10000 2.06 40 21:49 22.11.2022
935 Rain 1 1011 91 10000 2.06 50 21:23 22.11.2022
936 Rain 1 1011 91 10000 2.06 40 20:43 22.11.2022
937 Drizzle 1 1011 91 10000 2.57 50 19:47 22.11.2022
938 Clouds 2 1011 88 10000 4.12 80 17:54 22.11.2022
939 Clear 1 1010 88 10000 3.09 80 16:39 22.11.2022
940 Clouds 2 1010 82 10000 3.09 80 14:31 22.11.2022
941 Clouds 2 1010 83 10000 3.6 100 12:51 22.11.2022
942 Clouds 1 1009 85 10000 2.57 100 09:28 22.11.2022
943 Clouds 1 1009 85 10000 3.6 80 08:57 22.11.2022
944 Clouds 1 1007 82 10000 4.12 90 06:44 22.11.2022
945 Clouds 1 1006 88 10000 5.66 100 00:54 22.11.2022
946 Clouds 0 1006 95 10000 2.57 90 22:57 21.11.2022
947 Clouds 0 1005 96 10000 3.6 100 22:24 21.11.2022
948 Clouds 0 1005 96 3600 1.54 70 21:32 21.11.2022
949 Snow 0 1005 97 550 2.57 90 20:31 21.11.2022
950 Snow 0 1005 97 450 1.54 80 19:39 21.11.2022
951 Snow 0 1005 96 10000 1.03 0 18:52 21.11.2022
952 Snow -1 1006 96 10000 2.06 20 17:32 21.11.2022
953 Clouds 0 1005 96 10000 2.06 60 16:43 21.11.2022
954 Clouds 0 1005 96 2500 1.54 60 16:19 21.11.2022
955 Clouds 0 1006 96 2000 2.06 30 15:23 21.11.2022
956 Clouds 0 1008 97 7000 2.57 60 13:54 21.11.2022
957 Snow 0 1008 98 500 2.57 70 13:18 21.11.2022
958 Snow 0 1008 97 1300 4.12 90 09:43 21.11.2022
959 Snow 0 1008 96 2500 3.09 90 07:52 21.11.2022
960 Snow 0 1008 96 2500 3.09 90 07:52 21.11.2022
961 Snow 0 1004 96 350 3.6 80 00:36 21.11.2022
962 Snow 0 1004 96 1500 4.12 90 21:47 20.11.2022
963 Snow 0 1004 96 9000 0.51 50 20:47 20.11.2022
964 Snow -1 1004 96 3000 3.6 20 19:21 20.11.2022
965 Snow -1 1005 96 9000 4.12 20 17:24 20.11.2022
966 Snow 0 1006 95 4000 3.6 50 15:44 20.11.2022
967 Snow 0 1006 95 2000 4.12 50 15:23 20.11.2022
968 Snow 0 1007 96 900 3.6 20 14:18 20.11.2022
969 Snow 0 1008 96 5000 2.57 20 13:32 20.11.2022
970 Snow 0 1008 96 5000 2.57 20 13:32 20.11.2022
971 Snow 0 1008 96 5000 2.57 20 13:32 20.11.2022
972 Snow 0 1009 93 5000 3.09 10 12:23 20.11.2022
973 Snow 0 1010 90 10000 3.6 20 10:58 20.11.2022
974 Snow 0 1010 90 10000 3.6 20 10:58 20.11.2022
975 Clouds 0 1010 91 10000 3.09 20 09:44 20.11.2022
976 Clouds 0 1010 91 10000 3.09 20 09:44 20.11.2022
977 Clouds 0 1011 91 10000 3.6 20 08:55 20.11.2022
978 Clouds 0 1011 91 10000 3.09 20 08:32 20.11.2022
979 Clouds 0 1011 91 10000 3.6 10 07:26 20.11.2022
980 Snow 0 1015 95 1000 3.09 30 01:29 20.11.2022
981 Snow 0 1015 96 450 2.57 20 00:55 20.11.2022
982 Snow 0 1016 96 450 2.57 20 00:36 20.11.2022
983 Snow 0 1016 93 1900 2.57 20 00:18 20.11.2022
984 Snow 0 1016 90 1600 2.57 360 23:26 19.11.2022
985 Snow 0 1016 89 10000 2.06 10 22:48 19.11.2022
986 Clouds 0 1017 89 10000 2.06 20 21:57 19.11.2022
987 Clouds 0 1017 88 10000 2.06 20 21:25 19.11.2022
988 Clouds 0 1017 88 10000 2.06 60 20:41 19.11.2022
989 Clouds 0 1017 86 10000 3.6 70 19:51 19.11.2022
990 Clouds 0 1016 84 10000 4.63 90 18:53 19.11.2022
991 Clouds 0 1016 90 10000 4.63 80 17:38 19.11.2022
992 Clouds 0 1016 91 10000 4.63 80 17:18 19.11.2022
993 Snow -1 1015 95 1100 5.14 20 14:58 19.11.2022
994 Snow 0 1015 87 4000 6.17 20 13:34 19.11.2022
995 Clouds 0 1016 85 8000 5.66 10 11:54 19.11.2022
996 Clouds 0 1017 81 10000 4.12 10 09:45 19.11.2022
997 Clouds 0 1017 77 10000 4.63 20 07:53 19.11.2022
998 Clouds 0 1018 77 10000 5.66 10 04:45 19.11.2022
999 Clouds 0 1019 78 10000 4.63 360 00:48 19.11.2022
1000 Clouds 1 1019 77 10000 4.12 10 23:34 18.11.2022
1001 Clouds 1 1019 77 10000 4.12 10 23:34 18.11.2022
1002 Clouds 1 1019 77 10000 4.12 10 23:34 18.11.2022
1003 Clouds 1 1019 77 10000 4.12 20 22:23 18.11.2022
1004 Clouds 1 1019 77 10000 3.6 10 21:35 18.11.2022
1005 Clouds 1 1019 77 10000 3.6 20 20:57 18.11.2022
1006 Clouds 1 1019 76 10000 3.6 20 20:25 18.11.2022
1007 Clouds 1 1019 77 10000 4.63 30 19:36 18.11.2022
1008 Clouds 1 1018 82 10000 3.09 10 17:45 18.11.2022
1009 Clouds 1 1018 80 10000 3.6 40 16:27 18.11.2022
1010 Clouds 2 1018 87 10000 3.09 20 11:57 18.11.2022
1011 Clouds 1 1018 90 10000 3.09 30 10:25 18.11.2022
1012 Clouds 1 1017 94 10000 2.57 30 07:52 18.11.2022
1013 Clouds 1 1016 94 10000 2.57 20 05:27 18.11.2022
1014 Snow 1 1015 94 2800 2.57 20 02:49 18.11.2022
1015 Snow 0 1017 93 10000 3.09 20 23:38 17.11.2022
1016 Clouds 0 1014 93 5000 2.57 20 20:48 17.11.2022
1017 Snow 0 1017 86 10000 3.09 30 19:54 17.11.2022
1018 Snow 0 1015 89 10000 3.09 20 19:27 17.11.2022
1019 Clouds 0 1015 88 10000 3.09 20 18:29 17.11.2022
1020 Clouds 1 1015 85 10000 3.6 20 17:30 17.11.2022
1021 Clouds 2 1015 83 10000 3.6 30 16:31 17.11.2022
1022 Clouds 2 1016 82 10000 3.6 40 12:20 17.11.2022
1023 Snow 1 1016 89 10000 2.57 20 10:35 17.11.2022
1024 Clouds 0 1018 93 4900 2.57 20 07:35 17.11.2022
1025 Clouds 0 1018 93 4900 2.57 20 07:35 17.11.2022
1026 Clouds 1 1018 87 10000 3.09 20 01:30 17.11.2022
1027 Clouds 2 1018 81 10000 2.57 20 23:31 16.11.2022
1028 Clouds 3 1018 78 10000 3.09 20 22:19 16.11.2022
1029 Clouds 3 1019 76 10000 2.57 40 20:32 16.11.2022
1030 Clouds 3 1019 77 10000 3.09 70 18:49 16.11.2022
1031 Clouds 3 1019 77 10000 3.09 70 18:49 16.11.2022
1032 Clouds 3 1019 77 10000 3.09 70 18:49 16.11.2022
1033 Clouds 4 1019 75 10000 4.12 70 18:30 16.11.2022
1034 Clouds 4 1019 78 10000 4.12 60 15:41 16.11.2022
1035 Clouds 4 1020 79 10000 3.6 30 11:54 16.11.2022
1036 Clouds 4 1020 83 10000 2.57 20 07:45 16.11.2022
1037 Clouds 4 1020 84 10000 2.57 30 01:42 16.11.2022
1038 Clouds 5 1020 80 10000 2.57 40 23:36 15.11.2022
1039 Clouds 5 1020 82 10000 3.09 30 21:42 15.11.2022
1040 Clouds 5 1020 82 10000 3.6 40 19:48 15.11.2022
1041 Clouds 5 1020 81 10000 3.09 40 18:53 15.11.2022
1042 Clouds 5 1019 81 10000 4.12 30 17:36 15.11.2022
1043 Clouds 6 1019 80 10000 4.12 20 16:20 15.11.2022
1044 Clouds 6 1019 79 10000 4.12 20 15:39 15.11.2022
1045 Clouds 6 1019 80 10000 4.12 10 14:41 15.11.2022
1046 Clouds 6 1018 74 10000 4.63 20 12:54 15.11.2022
1047 Clouds 6 1018 78 10000 4.63 20 11:22 15.11.2022
1048 Clouds 6 1017 84 10000 3.6 350 09:39 15.11.2022
1049 Clouds 7 1016 93 10000 3.09 310 00:44 15.11.2022
1050 Clouds 7 1016 93 9000 2.57 290 00:24 15.11.2022
1051 Clouds 7 1016 93 10000 2.57 260 22:33 14.11.2022
1052 Clouds 7 1018 93 10000 2.06 260 20:44 14.11.2022
1053 Clouds 7 1018 93 10000 1.54 250 19:46 14.11.2022
1054 Clouds 7 1020 93 10000 1.54 250 18:27 14.11.2022
1055 Clouds 8 1022 91 10000 3.6 240 13:20 14.11.2022
1056 Clouds 7 1023 96 10000 2.57 220 11:49 14.11.2022
1057 Clouds 7 1024 96 10000 2.06 220 10:59 14.11.2022
1058 Mist 6 1025 96 3000 0.51 0 08:34 14.11.2022
1059 Mist 6 1025 96 1600 1.03 0 07:52 14.11.2022
1060 Clouds 5 1027 96 4000 1.54 120 02:32 14.11.2022
1061 Fog 4 1030 97 300 1.54 0 22:50 13.11.2022
1062 Fog 4 1030 97 100 0 0 21:42 13.11.2022
1063 Mist 3 1030 100 4000 1.54 230 20:48 13.11.2022
1064 Clear 2 1030 100 10000 0 0 18:54 13.11.2022
1065 Clear 4 1030 92 10000 0 0 17:50 13.11.2022
1066 Clear 6 1029 89 10000 0.51 130 15:48 13.11.2022
1067 Clear 8 1029 87 10000 0 0 14:31 13.11.2022
1068 Clouds 7 1029 96 10000 0.45 113 12:56 13.11.2022
1069 Fog 5 1031 100 10000 0 0 11:43 13.11.2022
1070 Fog 3 1031 100 350 0 0 10:38 13.11.2022
1071 Fog 2 1029 100 150 0 0 05:53 13.11.2022
1072 Fog 5 1028 93 200 0 0 23:55 12.11.2022
1073 Fog 6 1028 97 10000 1.54 250 21:40 12.11.2022
1074 Clouds 7 1027 92 10000 1.54 260 20:57 12.11.2022
1075 Clouds 8 1026 91 10000 1.03 0 19:28 12.11.2022
1076 Clear 12 1024 82 10000 3.6 280 16:58 12.11.2022
1077 Clear 13 1021 79 10000 5.14 280 15:55 12.11.2022
1078 Clear 14 1021 78 10000 5.14 270 14:45 12.11.2022
1079 Clear 14 1017 84 10000 6.69 270 09:43 12.11.2022
1080 Clouds 13 1014 85 10000 7.2 260 07:48 12.11.2022
1081 Clouds 15 1010 82 10000 7.72 250 00:40 12.11.2022
1082 Clouds 15 1009 84 10000 7.2 250 21:21 11.11.2022
1083 Clouds 14 1009 86 10000 7.2 250 20:44 11.11.2022
1084 Clouds 14 1009 90 10000 6.69 250 19:27 11.11.2022
1085 Clouds 14 1009 90 10000 6.69 250 18:34 11.11.2022
1086 Clouds 14 1009 84 10000 5.14 260 17:40 11.11.2022
1087 Clouds 14 1009 84 10000 5.14 260 17:40 11.11.2022
1088 Clouds 15 1009 84 10000 5.14 260 17:40 11.11.2022
1089 Clouds 14 1009 85 10000 4.12 250 17:40 11.11.2022
1090 Clouds 14 1009 85 10000 4.12 250 17:40 11.11.2022
1091 Clouds 15 1008 80 10000 5.14 260 15:21 11.11.2022
1092 Clouds 15 1007 80 10000 7.2 260 13:57 11.11.2022
1093 Clouds 15 1007 83 10000 5.66 260 12:45 11.11.2022
1094 Clouds 14 1005 83 10000 8.23 240 09:32 11.11.2022
1095 Clouds 14 1005 83 10000 8.23 240 09:32 11.11.2022
1096 Clouds 14 1005 83 10000 8.23 240 08:27 11.11.2022
1097 Clouds 10 1007 90 10000 4.63 200 00:40 11.11.2022
1098 Clouds 10 1009 91 10000 3.6 200 22:54 10.11.2022
1099 Rain 9 1009 87 10000 4.63 200 21:51 10.11.2022
1100 Clouds 9 1009 87 10000 4.63 210 21:28 10.11.2022
1101 Clouds 9 1009 88 10000 3.6 200 20:46 10.11.2022
1102 Clear 9 1009 88 10000 3.6 190 20:20 10.11.2022
1103 Clear 8 1010 89 10000 3.09 220 18:59 10.11.2022
1104 Clear 8 1010 88 10000 3.09 230 17:59 10.11.2022
1105 Clouds 9 1010 86 10000 3.6 230 16:25 10.11.2022
1106 Clouds 11 1008 84 10000 4.63 240 13:39 10.11.2022
1107 Clouds 9 1006 93 10000 2.57 220 10:26 10.11.2022
1108 Clouds 8 1006 97 10000 3.09 220 08:21 10.11.2022
1109 Clouds 8 1002 96 10000 3.09 220 01:25 10.11.2022
1110 Clouds 8 1002 94 10000 3.09 230 23:21 09.11.2022
1111 Clouds 9 1001 94 10000 2.06 230 21:57 09.11.2022
1112 Clear 9 1001 92 10000 3.09 210 20:47 09.11.2022
1113 Clear 9 1001 92 10000 3.6 210 20:28 09.11.2022
1114 Clear 9 1001 92 10000 2.57 200 19:29 09.11.2022
1115 Clear 9 1001 92 10000 2.57 200 18:30 09.11.2022
1116 Clear 11 1000 89 10000 2.06 190 15:45 09.11.2022
1117 Clouds 11 1000 89 10000 2.06 180 14:41 09.11.2022
1118 Clear 11 1000 88 10000 2.57 200 14:22 09.11.2022
1119 Clouds 11 1000 89 10000 3.6 200 12:57 09.11.2022
1120 Clouds 10 1000 94 10000 3.09 190 09:52 09.11.2022
1121 Clouds 10 1000 94 10000 2.57 210 07:47 09.11.2022
1122 Clouds 10 1000 95 10000 3.09 210 06:55 09.11.2022
1123 Clouds 10 1001 97 10000 2.06 140 23:27 08.11.2022
1124 Clouds 10 1002 97 10000 2.06 180 21:43 08.11.2022
1125 Clouds 9 1002 97 10000 1.03 0 21:22 08.11.2022
1126 Clouds 9 1002 97 10000 1.54 140 20:39 08.11.2022
1127 Clouds 8 1002 97 6000 2.57 130 19:35 08.11.2022
1128 Mist 8 1002 97 5000 2.57 120 18:20 08.11.2022
1129 Rain 7 1003 94 10000 1.54 140 16:19 08.11.2022
1130 Rain 8 1005 89 10000 1.54 160 14:55 08.11.2022
1131 Clouds 8 1005 89 10000 2.06 210 13:36 08.11.2022
1132 Clouds 8 1005 90 10000 2.57 250 12:38 08.11.2022
1133 Drizzle 7 1003 94 4000 3.09 260 08:32 08.11.2022
1134 Clouds 7 1002 93 9000 4.63 270 07:25 08.11.2022
1135 Clouds 9 997 94 10000 4.63 250 00:22 08.11.2022
1136 Rain 9 996 94 10000 5.14 220 22:24 07.11.2022
1137 Rain 9 996 94 10000 4.63 190 21:21 07.11.2022
1138 Rain 8 996 94 10000 3.6 180 20:33 07.11.2022
1139 Clouds 10 997 89 10000 4.12 160 17:51 07.11.2022
1140 Clouds 10 998 88 10000 3.6 180 16:32 07.11.2022
1141 Clouds 10 999 88 10000 3.6 180 15:34 07.11.2022
1142 Rain 9 999 91 10000 3.6 180 14:31 07.11.2022
1143 Clouds 10 1000 86 10000 5.66 190 12:34 07.11.2022
1144 Clouds 10 1001 85 10000 4.63 170 10:48 07.11.2022
1145 Clouds 10 1001 88 10000 3.09 150 09:29 07.11.2022
1146 Clouds 10 1002 91 10000 4.12 170 07:31 07.11.2022
1147 Clouds 8 1004 94 10000 3.09 160 03:39 07.11.2022
1148 Clouds 8 1005 94 10000 2.57 210 01:19 07.11.2022
1149 Clear 9 1005 91 10000 4.63 210 22:18 06.11.2022
1150 Clouds 9 1005 91 10000 4.12 200 21:19 06.11.2022
1151 Clouds 9 1004 91 10000 3.09 190 20:23 06.11.2022
1152 Clouds 9 1004 90 10000 3.6 210 19:33 06.11.2022
1153 Clouds 10 1004 89 10000 4.12 210 18:39 06.11.2022
1154 Clouds 10 1004 89 10000 4.12 210 18:19 06.11.2022
1155 Clouds 10 1004 89 10000 4.12 200 17:20 06.11.2022
1156 Clouds 10 1004 89 10000 5.66 190 16:40 06.11.2022
1157 Clouds 9 1004 91 10000 4.12 180 15:43 06.11.2022
1158 Clouds 10 1005 87 10000 4.63 180 12:48 06.11.2022
1159 Clouds 10 1006 87 10000 3.6 160 11:58 06.11.2022
1160 Clouds 9 1006 90 10000 4.63 190 10:45 06.11.2022
1161 Clouds 6 1007 93 10000 3.09 190 07:45 06.11.2022
1162 Clouds 7 1007 95 10000 3.6 210 00:50 06.11.2022
1163 Clouds 7 1006 95 10000 3.09 210 22:54 05.11.2022
1164 Clouds 7 1006 96 10000 2.57 220 19:28 05.11.2022
1165 Clouds 8 1006 96 10000 2.57 190 17:45 05.11.2022
1166 Rain 8 1006 94 10000 5.66 130 15:53 05.11.2022
1167 Rain 8 1006 94 8000 4.63 130 14:33 05.11.2022
1168 Rain 8 1007 93 10000 5.14 110 12:51 05.11.2022
1169 Rain 9 1008 83 10000 5.66 120 10:31 05.11.2022
1170 Clouds 9 1009 81 10000 5.14 130 08:24 05.11.2022
1171 Clouds 9 1009 82 10000 5.66 130 06:57 05.11.2022
1172 Clouds 9 1009 83 10000 5.14 130 02:35 05.11.2022
1173 Clouds 9 1010 84 10000 6.69 130 23:34 04.11.2022
1174 Clouds 9 1010 85 10000 5.66 130 22:21 04.11.2022
1175 Clear 8 1010 90 10000 5.14 110 19:54 04.11.2022
1176 Clouds 9 1010 88 10000 4.63 120 17:45 04.11.2022
1177 Clouds 9 1011 87 10000 5.14 110 16:33 04.11.2022
1178 Clouds 10 1011 83 10000 6.69 140 13:39 04.11.2022
1179 Clouds 10 1011 81 10000 8.75 130 12:23 04.11.2022
1180 Clouds 9 1011 89 10000 4.12 120 09:40 04.11.2022
1181 Clouds 8 1011 94 10000 3.09 110 08:21 04.11.2022
1182 Clouds 8 1011 94 10000 3.09 110 07:41 04.11.2022
1183 Clouds 8 1011 94 10000 3.09 140 01:35 04.11.2022
1184 Clouds 9 1011 94 10000 3.09 150 22:30 03.11.2022
1185 Clouds 8 1011 96 10000 2.57 140 20:48 03.11.2022
1186 Clouds 9 1011 94 10000 2.06 150 19:43 03.11.2022
1187 Clouds 9 1011 92 10000 4.12 160 18:46 03.11.2022
1188 Clouds 9 1011 92 10000 4.12 160 17:40 03.11.2022
1189 Clear 9 1012 89 10000 3.09 160 15:49 03.11.2022
1190 Clear 10 1012 86 10000 3.09 160 13:51 03.11.2022
1191 Clear 9 1013 90 10000 2.06 160 12:35 03.11.2022
1192 Clear 9 1013 92 10000 3.09 210 11:43 03.11.2022
1193 Fog 5 1013 97 10000 1.03 120 08:51 03.11.2022
1194 Clouds 5 1012 97 10000 1.54 210 06:47 03.11.2022
1195 Clouds 10 1009 96 9000 1.54 140 20:57 02.11.2022
1196 Rain 10 1009 96 7000 1.03 0 20:33 02.11.2022
1197 Rain 10 1009 94 10000 1.03 0 19:47 02.11.2022
1198 Clear 11 1009 92 10000 3.09 140 16:34 02.11.2022
1199 Clouds 11 1009 92 10000 2.57 140 15:35 02.11.2022
1200 Clouds 12 1009 91 10000 3.09 150 13:42 02.11.2022
1201 Clouds 11 1009 92 10000 2.06 150 12:35 02.11.2022
1202 Clouds 11 1010 95 9000 2.57 130 10:45 02.11.2022
1203 Clouds 10 1009 98 7000 2.06 150 08:43 02.11.2022
1204 Clouds 10 1012 97 10000 2.06 160 03:32 02.11.2022
1205 Rain 9 1013 97 10000 3.09 130 22:53 01.11.2022
1206 Mist 9 1013 97 4100 3.09 130 22:18 01.11.2022
1207 Mist 9 1014 97 2900 2.57 140 21:20 01.11.2022
1208 Clouds 9 1014 93 8000 3.6 120 20:23 01.11.2022
1209 Clouds 9 1014 93 9000 3.6 120 19:41 01.11.2022
1210 Clouds 9 1014 89 10000 3.09 130 18:30 01.11.2022
1211 Clouds 9 1015 89 10000 1.54 130 16:56 01.11.2022
1212 Clouds 10 1013 86 10000 1.54 170 15:19 01.11.2022
1213 Clouds 10 1014 88 10000 2.06 230 13:24 01.11.2022
1214 Clouds 10 1014 90 10000 1.54 210 12:26 01.11.2022
1215 Clouds 9 1015 91 10000 1.54 0 11:21 01.11.2022
1216 Clouds 8 1015 95 10000 1.54 270 09:25 01.11.2022
1217 Clouds 8 1015 96 10000 2.06 270 08:26 01.11.2022
1218 Clouds 7 1016 98 10000 0 0 07:29 01.11.2022
1219 Mist 7 1016 98 4600 0 0 06:46 01.11.2022
1220 Clouds 7 1015 97 7000 0 0 05:52 01.11.2022
1221 Clouds 9 1015 96 10000 2.06 250 22:52 31.10.2022
1222 Clear 10 1015 94 10000 3.6 250 21:34 31.10.2022
1223 Clouds 11 1015 94 10000 3.6 240 19:58 31.10.2022
1224 Clouds 11 1015 94 10000 3.09 230 18:45 31.10.2022
1225 Clouds 11 1015 91 10000 2.57 220 16:45 31.10.2022
1226 Clouds 12 1015 94 10000 2.57 220 15:45 31.10.2022
1227 Clouds 11 1015 97 10000 2.57 230 12:49 31.10.2022
1228 Mist 9 1015 97 1500 1.54 170 09:46 31.10.2022
1229 Fog 8 1015 97 300 1.54 160 08:20 31.10.2022
1230 Clouds 1 1017 93 10000 1.03 110 02:50 31.10.2022
1231 Clear 0 1017 100 10000 0 0 01:49 31.10.2022
1232 Clear 2 1017 92 10000 0 0 22:33 30.10.2022
1233 Clear 2 1017 92 10000 1.03 0 20:45 30.10.2022
1234 Clear 2 1017 91 10000 0 0 19:54 30.10.2022
1235 Clear 5 1015 77 10000 1.54 230 16:48 30.10.2022
1236 Clear 8 1015 65 10000 2.57 270 15:28 30.10.2022
1237 Clear 9 1015 63 10000 1.54 0 13:51 30.10.2022
1238 Clear 8 1015 63 10000 2.06 340 12:30 30.10.2022
1239 Clear 8 1014 68 10000 2.57 310 10:49 30.10.2022
1240 Clear 8 1014 67 10000 2.57 310 10:49 30.10.2022
1241 Clouds 6 1014 75 10000 2.57 280 09:36 30.10.2022
1242 Clouds 4 1014 81 10000 1.03 290 08:20 30.10.2022
1243 Clear 7 1010 78 10000 2.57 310 00:30 30.10.2022
1244 Clear 9 1010 79 10000 3.09 310 23:48 29.10.2022
1245 Clear 10 1009 81 10000 4.12 310 22:52 29.10.2022
1246 Clouds 12 1007 79 10000 5.66 280 20:52 29.10.2022
1247 Clouds 13 1004 74 10000 7.2 270 17:34 29.10.2022
1248 Clear 14 1003 70 10000 7.72 260 15:51 29.10.2022
1249 Clear 14 1003 70 10000 8.23 260 15:24 29.10.2022
1250 Clear 14 1003 70 10000 7.72 260 14:43 29.10.2022
1251 Clear 14 1002 69 10000 8.75 260 12:34 29.10.2022
1252 Clouds 13 1001 81 10000 8.75 260 10:36 29.10.2022
1253 Clouds 13 1000 96 10000 4.12 220 07:37 29.10.2022
1254 Drizzle 12 1001 97 10000 5.14 210 05:56 29.10.2022
1255 Clouds 12 1003 93 10000 4.12 220 03:54 29.10.2022
1256 Clouds 13 1008 95 10000 2.06 240 22:34 28.10.2022
1257 Clouds 13 1008 95 10000 1.54 220 20:46 28.10.2022
1258 Clouds 13 1008 95 10000 2.57 240 19:26 28.10.2022
1259 Clouds 13 1009 94 10000 2.57 240 18:31 28.10.2022
1260 Clouds 13 1010 94 10000 2.57 210 15:31 28.10.2022
1261 Clouds 13 1010 94 10000 2.57 210 14:43 28.10.2022
1262 Clouds 13 1012 94 10000 2.06 230 12:31 28.10.2022
1263 Clouds 12 1012 94 10000 3.6 190 11:34 28.10.2022
1264 Clouds 12 1012 94 10000 2.57 210 10:47 28.10.2022
1265 Drizzle 11 1013 96 9000 3.6 220 09:47 28.10.2022
1266 Drizzle 11 1013 94 8000 3.6 210 08:21 28.10.2022
1267 Clouds 11 1014 93 10000 2.57 220 03:43 28.10.2022
1268 Clouds 12 1015 89 10000 3.09 230 23:49 27.10.2022
1269 Clouds 12 1015 91 10000 3.09 220 22:40 27.10.2022
1270 Clouds 12 1016 90 10000 3.09 230 21:35 27.10.2022
1271 Clouds 12 1015 90 10000 2.06 250 20:28 27.10.2022
1272 Clouds 12 1014 90 10000 2.06 240 18:22 27.10.2022
1273 Clouds 14 1015 83 10000 6.69 250 14:23 27.10.2022
1274 Clouds 9 1014 94 10000 2.57 190 09:24 27.10.2022
1275 Clouds 9 1015 94 10000 1.54 180 06:24 27.10.2022
1276 Clouds 8 1015 92 10000 2.57 250 00:22 27.10.2022
1277 Clouds 8 1015 92 10000 2.06 260 23:43 26.10.2022
1278 Clouds 8 1015 90 10000 2.57 240 22:37 26.10.2022
1279 Clouds 8 1013 91 10000 4.12 280 19:53 26.10.2022
1280 Clouds 9 1012 90 10000 4.63 270 16:52 26.10.2022
1281 Clouds 9 1011 89 10000 4.63 260 14:52 26.10.2022
1282 Clouds 9 1010 91 10000 3.6 270 12:39 26.10.2022
1283 Drizzle 8 1009 93 5000 4.63 280 11:26 26.10.2022
1284 Clouds 8 1008 96 8000 4.63 290 09:18 26.10.2022
1285 Drizzle 8 1007 96 5000 4.63 280 08:43 26.10.2022
1286 Mist 10 1003 95 4000 3.09 240 00:48 26.10.2022
1287 Clouds 11 1003 92 10000 3.09 230 00:29 26.10.2022
1288 Clouds 12 1002 93 7000 2.57 240 21:56 25.10.2022
1289 Clouds 12 1002 94 10000 2.57 220 21:24 25.10.2022
1290 Clouds 12 1002 94 10000 3.09 190 19:57 25.10.2022
1291 Clouds 12 1002 94 10000 3.09 160 18:28 25.10.2022
1292 Clouds 12 1002 93 10000 2.57 190 14:58 25.10.2022
1293 Clouds 12 1002 97 10000 2.57 180 11:40 25.10.2022
1294 Clouds 12 1002 97 8000 2.06 170 10:44 25.10.2022
1295 Clouds 12 1001 98 7000 1.54 160 10:25 25.10.2022
1296 Clouds 11 1002 97 3500 2.06 130 08:19 25.10.2022
1297 Clouds 11 1002 97 4500 2.06 140 07:54 25.10.2022
1298 Mist 11 1002 97 4500 2.57 170 07:26 25.10.2022
1299 Clouds 11 1002 97 7000 2.57 120 04:26 25.10.2022
1300 Clouds 10 1005 95 4000 5.14 100 00:40 25.10.2022
1301 Rain 9 1005 95 10000 5.66 100 23:50 24.10.2022
1302 Rain 9 1006 94 5000 6.17 100 22:24 24.10.2022
1303 Rain 9 1008 94 5000 6.69 100 21:33 24.10.2022
1304 Drizzle 9 1009 94 10000 6.17 100 20:44 24.10.2022
1305 Rain 9 1008 92 10000 6.17 100 18:53 24.10.2022
1306 Mist 9 1009 93 4000 4.63 100 17:51 24.10.2022
1307 Mist 9 1009 93 4000 5.14 110 16:45 24.10.2022
1308 Clouds 9 1010 91 10000 5.66 110 14:23 24.10.2022
1309 Clouds 9 1011 89 10000 4.12 100 13:40 24.10.2022
1310 Clouds 9 1011 86 10000 3.09 100 11:55 24.10.2022
1311 Clouds 8 1012 88 10000 3.6 90 08:50 24.10.2022
1312 Drizzle 6 1013 92 10000 1.54 70 00:52 24.10.2022
1313 Clouds 6 1012 87 10000 0.51 360 21:23 23.10.2022
1314 Clear 6 1011 86 10000 0 0 19:51 23.10.2022
1315 Clear 7 1011 79 10000 1.03 330 17:59 23.10.2022
1316 Clear 8 1011 77 10000 1.54 0 17:27 23.10.2022
1317 Clear 9 1011 70 10000 1.54 0 15:21 23.10.2022
1318 Clear 7 1010 77 10000 1.54 0 13:22 23.10.2022
1319 Clouds 4 1010 92 10000 1.03 0 11:18 23.10.2022
1320 Clouds 3 1009 93 10000 2.06 310 08:19 23.10.2022
1321 Clouds 8 1008 93 10000 4.12 300 23:56 22.10.2022
1322 Clouds 9 1007 94 1400 1.03 280 22:31 22.10.2022
1323 Clouds 9 1007 94 1200 0.51 0 21:42 22.10.2022
1324 Mist 9 1007 94 1200 0 0 20:55 22.10.2022
1325 Mist 9 1007 93 3600 0.51 160 19:45 22.10.2022
1326 Mist 9 1007 93 3500 1.03 150 19:24 22.10.2022
1327 Drizzle 9 1007 91 6000 1.54 150 17:37 22.10.2022
1328 Drizzle 9 1007 91 6000 1.54 150 17:37 22.10.2022
1329 Clouds 10 1007 87 10000 1.54 140 15:57 22.10.2022
1330 Clouds 9 1008 88 10000 1.54 130 14:42 22.10.2022
1331 Rain 9 1008 86 10000 2.06 120 13:45 22.10.2022
1332 Clouds 8 1010 89 10000 1.54 110 10:25 22.10.2022
1333 Clouds 7 1010 90 10000 1.03 0 09:36 22.10.2022
1334 Clouds 6 1010 94 10000 1.54 90 07:58 22.10.2022
1335 Clouds 5 1011 94 10000 0.51 0 02:59 22.10.2022
1336 Clouds 6 1013 92 10000 2.06 70 23:49 21.10.2022
1337 Clouds 7 1013 88 10000 2.06 70 21:35 21.10.2022
1338 Clouds 6 1013 90 10000 2.57 90 20:59 21.10.2022
1339 Clouds 7 1014 85 10000 2.57 100 19:33 21.10.2022
1340 Clouds 9 1014 80 10000 2.06 140 16:51 21.10.2022
1341 Clear 10 1015 72 10000 2.06 140 13:57 21.10.2022
1342 Clear 10 1015 73 10000 1.03 0 12:57 21.10.2022
1343 Clear 7 1016 87 10000 0 0 10:59 21.10.2022
1344 Clear 4 1018 93 10000 0 0 09:50 21.10.2022
1345 Clouds 4 1018 93 10000 0 0 08:39 21.10.2022
1346 Clouds 4 1018 93 10000 1.03 0 07:26 21.10.2022
1347 Clouds 4 1019 96 10000 1.03 0 00:59 21.10.2022
1348 Clear 2 1021 92 10000 0.51 120 22:26 20.10.2022
1349 Clear 2 1021 94 10000 0.51 0 20:37 20.10.2022
1350 Clear 3 1021 90 10000 0 0 19:35 20.10.2022
1351 Clear 7 1020 76 10000 1.54 250 17:53 20.10.2022
1352 Clear 8 1020 72 10000 2.06 240 17:33 20.10.2022
1353 Clear 7 1021 79 10000 2.57 250 12:37 20.10.2022
1354 Clear 7 1021 79 10000 2.57 250 12:18 20.10.2022
1355 Clear 5 1021 87 10000 4.12 280 10:59 20.10.2022
1356 Clear 4 1022 89 10000 3.09 270 10:29 20.10.2022
1357 Clear 1 1021 93 10000 1.54 280 08:18 20.10.2022
1358 Clouds 2 1021 93 10000 1.54 280 05:38 20.10.2022
1359 Clouds 3 1021 89 10000 2.06 270 01:49 20.10.2022
1360 Clouds 3 1022 88 10000 2.57 260 22:45 19.10.2022
1361 Clear 3 1023 84 10000 1.54 250 21:56 19.10.2022
1362 Clear 4 1022 83 10000 1.54 270 20:52 19.10.2022
1363 Clear 6 1022 76 10000 3.09 280 18:49 19.10.2022
1364 Clouds 7 1022 73 10000 3.6 290 17:38 19.10.2022
1365 Clouds 8 1022 68 10000 4.63 290 15:47 19.10.2022
1366 Clear 8 1022 69 10000 4.63 330 13:51 19.10.2022
1367 Clear 4 1021 82 10000 4.12 320 09:34 19.10.2022
1368 Clear 2 1021 88 10000 3.6 320 08:29 19.10.2022
1369 Clouds 3 1019 85 10000 4.63 320 05:19 19.10.2022
1370 Clouds 5 1018 84 10000 3.6 320 01:25 19.10.2022
1371 Clouds 5 1017 92 10000 3.6 310 23:18 18.10.2022
1372 Clear 6 1016 93 10000 2.57 310 21:45 18.10.2022
1373 Clear 6 1015 92 10000 2.57 320 20:59 18.10.2022
1374 Clouds 7 1015 91 10000 3.09 330 19:58 18.10.2022
1375 Clouds 8 1014 91 10000 2.06 310 17:44 18.10.2022
1376 Clouds 9 1014 86 10000 2.57 280 16:49 18.10.2022
1377 Clouds 9 1014 85 10000 3.09 250 14:26 18.10.2022
1378 Clouds 9 1014 89 10000 2.57 240 12:33 18.10.2022
1379 Clouds 9 1014 91 10000 3.09 240 11:22 18.10.2022
1380 Clouds 8 1014 96 10000 2.57 260 09:45 18.10.2022
1381 Mist 8 1013 94 4500 3.09 320 07:56 18.10.2022
1382 Drizzle 8 1011 94 10000 1.54 0 03:19 18.10.2022
1383 Rain 9 1015 93 10000 2.57 150 22:24 17.10.2022
1384 Rain 10 1016 88 10000 2.06 210 20:55 17.10.2022
1385 Rain 10 1016 87 10000 2.06 200 20:31 17.10.2022
1386 Rain 10 1016 86 10000 1.54 180 19:52 17.10.2022
1387 Rain 10 1017 85 10000 1.54 0 18:52 17.10.2022
1388 Rain 12 1018 78 10000 3.09 230 16:52 17.10.2022
1389 Clear 12 1018 72 10000 3.09 240 15:29 17.10.2022
1390 Clear 12 1018 73 10000 3.09 240 15:29 17.10.2022
1391 Clear 12 1018 73 10000 3.09 240 15:29 17.10.2022
1392 Clear 13 1018 69 10000 4.63 250 14:35 17.10.2022
1393 Clear 11 1017 77 10000 5.66 260 11:24 17.10.2022
1394 Clear 10 1011 81 10000 6.69 260 06:36 17.10.2022
1395 Clouds 9 1005 86 10000 4.63 230 23:33 16.10.2022
1396 Clouds 9 1004 90 10000 5.14 230 21:56 16.10.2022
1397 Clear 9 1003 90 10000 4.63 230 20:47 16.10.2022
1398 Clouds 10 1002 88 10000 6.17 230 19:46 16.10.2022
1399 Thunderstorm 11 1002 86 10000 4.63 180 17:57 16.10.2022
1400 Thunderstorm 13 1002 83 10000 4.63 180 17:33 16.10.2022
1401 Clouds 14 1002 79 10000 4.12 170 15:58 16.10.2022
1402 Clouds 14 1003 80 10000 3.09 190 14:33 16.10.2022
1403 Clouds 13 1004 85 10000 3.6 230 12:23 16.10.2022
1404 Clouds 12 1004 89 10000 3.6 220 10:27 16.10.2022
1405 Clouds 12 1003 94 10000 4.12 190 08:47 16.10.2022
1406 Clouds 13 1004 95 6000 3.09 170 01:30 16.10.2022
1407 Mist 13 1004 94 5000 2.57 170 23:41 15.10.2022
1408 Mist 13 1004 94 5000 3.09 160 21:26 15.10.2022
1409 Clouds 13 1004 94 6000 2.57 160 20:56 15.10.2022
1410 Clouds 13 1004 94 7000 2.06 150 18:50 15.10.2022
1411 Clouds 13 1004 92 10000 3.6 170 15:49 15.10.2022
1412 Clouds 13 1004 92 10000 3.6 170 15:49 15.10.2022
1413 Drizzle 13 1004 93 8000 4.12 170 15:31 15.10.2022
1414 Clouds 13 1004 91 10000 3.6 170 11:58 15.10.2022
1415 Clouds 13 1004 91 10000 3.6 160 11:18 15.10.2022
1416 Clouds 11 1004 97 5000 2.57 130 08:54 15.10.2022
1417 Clouds 9 1007 96 8000 1.54 160 03:21 15.10.2022
1418 Clouds 9 1007 93 10000 2.06 170 00:23 15.10.2022
1419 Clouds 9 1008 91 10000 2.06 150 22:24 14.10.2022
1420 Clouds 10 1010 89 10000 2.06 160 21:36 14.10.2022
1421 Clear 10 1008 87 10000 2.06 160 20:25 14.10.2022
1422 Clear 12 1009 78 10000 2.06 190 16:59 14.10.2022
1423 Clouds 13 1009 74 10000 3.6 180 14:25 14.10.2022
1424 Clear 12 1010 80 10000 2.06 200 12:44 14.10.2022
1425 Clouds 8 1009 98 9000 0.51 0 09:46 14.10.2022
1426 Fog 6 1011 96 5000 1.03 0 07:57 14.10.2022
1427 Fog 8 1012 94 150 1.54 150 06:18 14.10.2022
1428 Fog 7 1012 96 200 1.54 150 05:42 14.10.2022
1429 Fog 8 1012 94 100 1.54 160 04:42 14.10.2022
1430 Clouds 10 1012 89 10000 1.54 160 00:41 14.10.2022
1431 Clouds 11 1012 87 10000 2.57 160 22:32 13.10.2022
1432 Clear 11 1013 86 10000 2.57 170 21:29 13.10.2022
1433 Clear 11 1013 86 10000 2.57 180 20:19 13.10.2022
1434 Clear 11 1013 85 10000 3.09 170 19:38 13.10.2022
1435 Clear 11 1014 82 10000 3.09 160 18:43 13.10.2022
1436 Clouds 12 1014 79 10000 3.6 180 17:24 13.10.2022
1437 Clear 12 1014 78 10000 3.6 190 15:48 13.10.2022
1438 Clear 13 1015 76 10000 4.12 190 14:28 13.10.2022
1439 Clear 12 1015 76 10000 3.6 190 12:51 13.10.2022
1440 Clear 12 1016 79 10000 3.6 210 11:37 13.10.2022
1441 Clear 9 1016 91 10000 2.57 210 09:46 13.10.2022
1442 Clear 8 1016 94 10000 2.57 190 08:32 13.10.2022
1443 Clear 7 1016 94 10000 2.06 200 07:35 13.10.2022
1444 Clouds 6 1017 93 10000 1.54 200 01:56 13.10.2022
1445 Clouds 5 1018 94 10000 1.03 0 00:59 13.10.2022
1446 Clouds 5 1017 89 10000 1.03 0 22:57 12.10.2022
1447 Clouds 5 1017 88 10000 1.03 0 22:36 12.10.2022
1448 Clear 4 1020 87 10000 1.03 0 21:22 12.10.2022
1449 Clear 4 1020 86 10000 1.03 170 20:52 12.10.2022
1450 Clear 5 1020 83 10000 0 0 20:23 12.10.2022
1451 Clear 7 1020 70 10000 1.03 0 18:26 12.10.2022
1452 Clear 8 1018 68 10000 1.54 0 17:50 12.10.2022
1453 Clear 11 1019 58 10000 3.09 270 15:50 12.10.2022
1454 Clear 11 1019 61 10000 3.09 240 13:57 12.10.2022
1455 Clear 10 1019 66 10000 2.06 230 13:29 12.10.2022
1456 Clear 5 1017 92 10000 0 0 09:48 12.10.2022
1457 Clear 2 1019 95 10000 0 0 07:59 12.10.2022
1458 Clear 2 1019 95 10000 0 0 07:41 12.10.2022
1459 Clear 2 1018 92 10000 0 0 06:43 12.10.2022
1460 Clouds 4 1016 88 10000 1.03 260 01:32 12.10.2022
1461 Clear 6 1014 81 10000 2.06 260 22:40 11.10.2022
1462 Clear 7 1013 75 10000 2.57 230 20:55 11.10.2022
1463 Clear 8 1012 72 10000 3.09 240 19:56 11.10.2022
1464 Clear 11 1010 63 10000 6.17 270 17:28 11.10.2022
1465 Clouds 12 1008 65 10000 7.72 270 14:48 11.10.2022
1466 Clouds 11 1007 66 10000 6.69 260 13:23 11.10.2022
1467 Clouds 9 1005 82 10000 7.2 250 10:29 11.10.2022
1468 Clouds 9 1005 85 10000 6.69 250 09:50 11.10.2022
1469 Clouds 9 1003 89 10000 6.17 250 08:22 11.10.2022
1470 Clouds 10 1003 90 10000 2.06 180 02:39 11.10.2022
1471 Rain 12 1005 83 10000 3.6 200 00:33 11.10.2022
1472 Clouds 11 1008 81 10000 5.14 170 21:40 10.10.2022
1473 Clouds 11 1009 81 10000 5.14 170 20:30 10.10.2022
1474 Clouds 11 1009 80 10000 5.66 160 18:44 10.10.2022
1475 Clouds 12 1010 76 10000 7.2 180 17:24 10.10.2022
1476 Clouds 13 1011 75 10000 8.23 180 16:20 10.10.2022
1477 Clouds 13 1013 72 10000 6.69 180 13:31 10.10.2022
1478 Clouds 13 1014 71 10000 5.66 200 12:22 10.10.2022
1479 Clear 9 1015 85 10000 3.6 200 09:23 10.10.2022
1480 Clouds 8 1016 90 10000 3.6 210 05:53 10.10.2022
1481 Clouds 7 1016 88 10000 2.57 210 05:32 10.10.2022
1482 Clouds 9 1018 84 10000 4.12 210 00:41 10.10.2022
1483 Clouds 9 1018 85 10000 3.09 220 23:36 09.10.2022
1484 Clear 9 1018 82 10000 3.6 220 22:25 09.10.2022
1485 Clear 9 1018 78 10000 3.09 210 21:27 09.10.2022
1486 Clear 9 1018 77 10000 3.09 220 20:42 09.10.2022
1487 Clear 10 1018 69 10000 3.09 210 19:47 09.10.2022
1488 Clear 10 1018 65 10000 3.6 240 18:49 09.10.2022
1489 Clear 12 1017 62 10000 4.63 240 17:39 09.10.2022
1490 Clear 12 1017 57 10000 5.66 260 16:44 09.10.2022
1491 Clear 12 1017 56 10000 4.12 250 16:19 09.10.2022
1492 Clear 12 1016 56 10000 5.14 250 14:54 09.10.2022
1493 Clear 12 1016 58 10000 5.14 260 14:26 09.10.2022
1494 Clear 11 1016 63 10000 4.63 250 12:49 09.10.2022
1495 Clear 9 1016 75 10000 3.09 270 11:27 09.10.2022
1496 Clear 4 1014 93 9000 1.03 220 08:32 09.10.2022
1497 Clear 4 1011 92 10000 1.54 250 05:44 09.10.2022
1498 Clear 6 1010 90 10000 2.57 260 03:25 09.10.2022
1499 Clouds 7 1008 91 10000 1.54 250 00:47 09.10.2022
1500 Clouds 7 1007 88 10000 2.06 250 23:33 08.10.2022
1501 Clouds 7 1007 88 10000 2.06 250 23:33 08.10.2022
1502 Clouds 8 1007 87 10000 2.57 250 22:38 08.10.2022
1503 Clouds 10 1005 78 10000 3.09 250 20:43 08.10.2022
1504 Clouds 10 1005 75 10000 3.6 240 19:38 08.10.2022
1505 Clouds 12 1003 66 10000 4.12 260 17:44 08.10.2022
1506 Clear 14 1002 61 10000 6.17 250 15:36 08.10.2022
1507 Clouds 13 1002 66 10000 7.2 240 13:53 08.10.2022
1508 Clouds 13 1002 73 10000 7.2 240 12:30 08.10.2022
1509 Clouds 12 1002 81 10000 6.69 240 10:35 08.10.2022
1510 Clouds 11 1002 85 10000 5.14 240 09:42 08.10.2022
1511 Clouds 11 1001 92 10000 4.63 220 07:29 08.10.2022
1512 Clouds 13 1001 83 10000 6.17 190 02:41 08.10.2022
1513 Clouds 13 1004 82 10000 7.72 210 23:52 07.10.2022
1514 Clouds 13 1004 82 10000 6.17 200 23:20 07.10.2022
1515 Clear 13 1004 80 10000 4.63 220 22:19 07.10.2022
1516 Clear 13 1004 80 10000 4.63 220 22:19 07.10.2022
1517 Clouds 13 1005 81 10000 3.6 200 20:35 07.10.2022
1518 Rain 14 1006 83 8000 4.63 230 18:40 07.10.2022
1519 Clouds 16 1007 73 10000 7.2 210 16:58 07.10.2022
1520 Clouds 16 1007 75 10000 7.2 210 15:50 07.10.2022
1521 Clouds 15 1008 80 10000 6.17 210 14:35 07.10.2022
1522 Clouds 14 1010 80 10000 4.63 210 11:48 07.10.2022
1523 Clouds 13 1011 80 10000 5.14 210 09:26 07.10.2022
1524 Clouds 12 1011 80 10000 4.63 220 08:49 07.10.2022
1525 Clouds 12 1011 80 10000 5.14 240 05:51 07.10.2022
1526 Clouds 13 1009 73 10000 7.2 240 00:41 07.10.2022
1527 Clouds 13 1009 73 10000 8.75 250 22:50 06.10.2022
1528 Clouds 13 1008 72 10000 8.23 240 21:42 06.10.2022
1529 Clouds 13 1008 71 10000 7.72 240 21:21 06.10.2022
1530 Clear 13 1008 68 10000 7.72 240 19:50 06.10.2022
1531 Clouds 14 1007 66 10000 7.72 250 18:37 06.10.2022
1532 Clear 15 1005 63 10000 9.26 250 17:26 06.10.2022
1533 Clear 14 1003 66 10000 9.26 250 14:19 06.10.2022
1534 Clouds 14 1001 71 10000 8.75 250 11:24 06.10.2022
1535 Clouds 15 996 81 10000 5.14 200 05:47 06.10.2022
1536 Clouds 15 997 80 10000 5.66 210 03:29 06.10.2022
1537 Clouds 15 1000 85 10000 5.14 200 22:55 05.10.2022
1538 Clouds 15 1001 88 10000 3.6 180 19:57 05.10.2022
1539 Clouds 15 1002 89 10000 3.6 170 17:58 05.10.2022
1540 Clouds 15 1002 89 10000 3.09 180 17:33 05.10.2022
1541 Clouds 15 1002 89 10000 3.6 170 17:33 05.10.2022
1542 Rain 15 1003 87 10000 3.09 190 15:54 05.10.2022
1543 Clouds 16 1003 84 10000 4.12 220 14:46 05.10.2022
1544 Clouds 15 1003 85 10000 4.12 220 13:52 05.10.2022
1545 Clouds 14 1004 86 10000 4.12 210 12:19 05.10.2022
1546 Clouds 13 1004 87 10000 3.6 200 08:49 05.10.2022
1547 Clouds 12 1004 89 10000 3.09 210 07:29 05.10.2022
1548 Clouds 12 1005 88 10000 3.09 210 05:35 05.10.2022
1549 Drizzle 11 1007 88 10000 3.09 190 02:42 05.10.2022
1550 Rain 12 1008 87 10000 2.57 210 00:41 05.10.2022
1551 Drizzle 12 1008 86 10000 3.09 210 00:23 05.10.2022
1552 Clouds 12 1009 82 10000 3.09 230 21:48 04.10.2022
1553 Clear 11 1010 82 10000 2.06 230 20:22 04.10.2022
1554 Clear 10 1010 83 10000 1.54 0 18:56 04.10.2022
1555 Clear 10 1010 81 10000 1.54 0 18:34 04.10.2022
1556 Clear 14 1010 65 10000 2.57 230 17:41 04.10.2022
1557 Clear 14 1010 62 10000 3.09 260 16:26 04.10.2022
1558 Clear 12 1012 70 10000 4.12 290 12:24 04.10.2022
1559 Clear 7 1010 91 10000 1.54 270 08:42 04.10.2022
1560 Clouds 6 1011 94 10000 2.06 300 06:25 04.10.2022
1561 Clouds 8 1011 94 10000 3.09 310 01:24 04.10.2022
1562 Clouds 9 1012 95 10000 2.57 290 23:36 03.10.2022
1563 Clouds 9 1012 93 10000 3.6 320 21:46 03.10.2022
1564 Clouds 9 1012 93 10000 2.57 290 20:51 03.10.2022
1565 Clear 10 1012 90 10000 2.57 280 18:57 03.10.2022
1566 Clouds 12 1012 87 10000 3.09 280 17:39 03.10.2022
1567 Clouds 12 1012 86 10000 4.12 300 16:41 03.10.2022
1568 Clouds 12 1012 89 10000 3.09 300 15:27 03.10.2022
1569 Clouds 12 1012 86 10000 3.09 280 13:44 03.10.2022
1570 Clouds 11 1012 88 10000 2.57 290 11:47 03.10.2022
1571 Clouds 10 1012 94 10000 1.03 0 10:25 03.10.2022
1572 Fog 7 1012 97 300 0 0 08:59 03.10.2022
1573 Fog 6 1010 96 100 0 0 04:51 03.10.2022
1574 Mist 8 1011 96 1800 1.54 300 02:27 03.10.2022
1575 Clear 9 1007 94 10000 1.03 10 22:24 02.10.2022
1576 Clear 9 1007 94 10000 1.03 10 22:24 02.10.2022
1577 Clouds 10 1006 93 10000 1.54 30 20:32 02.10.2022
1578 Clouds 12 1005 88 10000 2.57 70 18:27 02.10.2022
1579 Clouds 12 1004 87 10000 3.09 70 17:32 02.10.2022
1580 Clouds 13 1004 87 10000 2.06 80 16:33 02.10.2022
1581 Clouds 13 1003 86 10000 1.03 0 15:40 02.10.2022
1582 Clouds 12 1003 92 10000 1.54 190 13:51 02.10.2022
1583 Rain 13 1002 88 10000 2.57 0 12:48 02.10.2022
1584 Clouds 13 1002 89 10000 3.09 100 12:24 02.10.2022
1585 Clouds 12 1002 90 10000 1.54 70 11:35 02.10.2022
1586 Clouds 11 1002 91 10000 1.54 100 10:36 02.10.2022
1587 Rain 11 1001 93 10000 2.06 90 08:40 02.10.2022
1588 Clouds 11 1001 94 10000 1.54 100 06:38 02.10.2022
1589 Clouds 10 1001 95 9000 2.06 100 02:54 02.10.2022
1590 Clouds 10 1001 93 10000 3.09 110 00:45 02.10.2022
1591 Clouds 10 1001 91 10000 2.57 110 23:42 01.10.2022
1592 Clouds 10 1002 89 10000 2.06 110 22:31 01.10.2022
1593 Clouds 11 1002 90 10000 3.09 120 19:58 01.10.2022
1594 Clouds 13 1002 81 10000 3.6 130 17:49 01.10.2022
1595 Clouds 14 1003 76 10000 4.63 160 16:29 01.10.2022
1596 Clouds 14 1003 85 10000 4.12 140 14:19 01.10.2022
1597 Clouds 13 1004 90 8000 3.6 150 12:57 01.10.2022
1598 Rain 13 1006 85 10000 3.6 150 12:29 01.10.2022
1599 Clouds 12 1004 88 10000 4.63 150 11:19 01.10.2022
1600 Clouds 11 1005 92 10000 3.6 140 10:31 01.10.2022
1601 Clear 10 1005 92 10000 2.57 130 09:27 01.10.2022
1602 Clouds 9 1005 94 10000 2.57 140 08:41 01.10.2022
1603 Clouds 9 1006 94 10000 3.09 140 03:59 01.10.2022
1604 Clouds 9 1006 93 10000 2.57 140 03:28 01.10.2022
1605 Clouds 8 1007 93 10000 2.57 140 23:47 30.09.2022
1606 Clouds 7 1008 92 10000 1.54 130 22:32 30.09.2022
1607 Clear 8 1009 89 10000 1.54 140 21:22 30.09.2022
1608 Clear 8 1009 87 10000 1.54 130 20:43 30.09.2022
1609 Clouds 8 1009 87 10000 1.54 160 19:32 30.09.2022
1610 Clouds 11 1009 72 10000 2.06 220 17:28 30.09.2022
1611 Clear 11 1009 73 10000 2.06 230 15:32 30.09.2022
1612 Clear 11 1009 73 10000 2.57 260 13:29 30.09.2022
1613 Clear 10 1008 76 10000 2.57 300 11:57 30.09.2022
1614 Clear 8 1008 85 10000 2.57 280 10:23 30.09.2022
1615 Clear 7 1008 90 10000 2.06 290 08:23 30.09.2022
1616 Clouds 7 1006 89 10000 2.57 310 05:47 30.09.2022
1617 Clouds 7 1006 88 10000 1.54 240 02:31 30.09.2022
1618 Clear 7 1005 86 10000 2.06 310 22:26 29.09.2022
1619 Clear 7 1004 86 10000 2.57 310 21:26 29.09.2022
1620 Clear 7 1004 86 10000 2.06 300 20:35 29.09.2022
1621 Clear 9 1004 77 10000 2.57 350 18:32 29.09.2022
1622 Clouds 10 1003 72 10000 3.6 360 17:23 29.09.2022
1623 Clouds 11 1004 71 10000 4.63 10 16:28 29.09.2022
1624 Clouds 11 1003 72 10000 4.12 20 15:35 29.09.2022
1625 Clouds 11 1002 74 10000 5.14 20 14:25 29.09.2022
1626 Clouds 9 1001 91 10000 3.09 20 09:45 29.09.2022
1627 Clouds 7 1002 94 10000 2.06 20 06:45 29.09.2022
1628 Clouds 9 1003 91 10000 3.6 20 02:47 29.09.2022
1629 Clouds 9 1003 89 10000 2.57 10 23:54 28.09.2022
1630 Clouds 9 1003 86 10000 2.57 10 22:32 28.09.2022
1631 Clouds 10 1003 83 10000 2.57 20 21:29 28.09.2022
1632 Clouds 10 1003 82 10000 4.12 40 20:22 28.09.2022
1633 Clouds 12 1003 72 10000 6.17 60 18:20 28.09.2022
1634 Clouds 13 1003 74 10000 5.66 70 14:52 28.09.2022
1635 Clouds 13 1003 77 10000 6.17 70 12:56 28.09.2022
1636 Clouds 13 1003 79 10000 6.69 80 10:51 28.09.2022
1637 Clouds 12 1003 85 10000 4.63 80 08:33 28.09.2022
1638 Clouds 12 1002 90 10000 0.89 45 06:50 28.09.2022
1639 Clouds 13 1002 88 10000 0.45 90 01:56 28.09.2022
1640 Clouds 13 1002 89 10000 0.45 45 01:31 28.09.2022
1641 Clouds 13 1003 86 10000 5.14 100 23:20 27.09.2022
1642 Clouds 13 1003 88 10000 5.14 100 21:42 27.09.2022
1643 Clouds 13 1001 90 10000 4.63 90 20:37 27.09.2022
1644 Clouds 13 1002 88 10000 4.63 90 19:47 27.09.2022
1645 Clouds 13 1002 86 10000 4.63 100 18:40 27.09.2022
1646 Clouds 14 1001 86 10000 5.66 110 17:44 27.09.2022
1647 Clouds 14 1001 87 10000 5.14 110 15:31 27.09.2022
1648 Clouds 14 1001 87 10000 5.66 100 14:55 27.09.2022
1649 Clouds 13 1001 89 10000 5.14 110 12:42 27.09.2022
1650 Clouds 13 1001 87 10000 3.6 100 11:32 27.09.2022
1651 Clear 11 1000 90 10000 3.09 100 08:49 27.09.2022
1652 Clouds 10 1000 91 10000 2.57 120 06:45 27.09.2022
1653 Clouds 10 999 95 10000 2.06 120 01:57 27.09.2022
1654 Clouds 10 999 95 10000 1.54 110 01:29 27.09.2022
1655 Clouds 10 999 94 10000 1.54 160 23:26 26.09.2022
1656 Clouds 11 999 93 10000 1.54 140 22:38 26.09.2022
1657 Clear 11 998 93 10000 2.57 130 20:46 26.09.2022
1658 Clouds 11 998 89 10000 4.12 130 19:31 26.09.2022
1659 Rain 12 997 91 10000 3.09 140 18:32 26.09.2022
1660 Clouds 13 997 89 10000 2.57 140 16:34 26.09.2022
1661 Clouds 12 998 90 10000 4.12 110 14:37 26.09.2022
1662 Clouds 12 999 94 10000 2.06 140 11:30 26.09.2022
1663 Rain 11 999 93 10000 3.6 120 10:39 26.09.2022
1664 Rain 11 999 93 8000 2.06 140 10:20 26.09.2022
1665 Rain 10 1001 97 10000 3.09 130 09:55 26.09.2022
1666 Rain 10 999 93 10000 2.06 0 09:24 26.09.2022
1667 Clouds 10 999 93 10000 3.09 120 07:56 26.09.2022
1668 Clouds 10 1001 92 10000 3.09 140 02:54 26.09.2022
1669 Clouds 10 1003 93 10000 2.57 150 23:57 25.09.2022
1670 Clouds 9 1004 91 10000 2.06 150 22:45 25.09.2022
1671 Clear 10 1004 89 10000 2.06 140 21:35 25.09.2022
1672 Clear 10 1005 87 10000 2.57 140 20:48 25.09.2022
1673 Clear 11 1005 83 10000 2.06 150 19:43 25.09.2022
1674 Clear 13 1006 74 10000 2.57 170 18:43 25.09.2022
1675 Clear 14 1006 72 10000 3.09 180 18:20 25.09.2022
1676 Clouds 16 1007 64 10000 3.09 200 16:36 25.09.2022
1677 Clouds 16 1009 68 10000 2.06 220 15:45 25.09.2022
1678 Clouds 16 1008 67 10000 2.57 200 14:22 25.09.2022
1679 Clouds 15 1009 69 10000 2.57 190 12:55 25.09.2022
1680 Clouds 12 1010 82 10000 1.54 180 10:36 25.09.2022
1681 Clouds 8 1013 94 10000 0 0 08:25 25.09.2022
1682 Clouds 7 1011 95 8000 0 0 06:23 25.09.2022
1683 Clouds 8 1012 93 10000 0 0 02:57 25.09.2022
1684 Clouds 10 1013 89 10000 0 0 22:50 24.09.2022
1685 Clouds 11 1013 88 10000 1.03 210 21:19 24.09.2022
1686 Clouds 12 1012 85 10000 0 0 19:23 24.09.2022
1687 Clouds 15 1012 73 10000 0.51 0 17:50 24.09.2022
1688 Clouds 16 1012 69 10000 1.54 0 16:36 24.09.2022
1689 Clouds 16 1013 69 10000 1.54 250 15:22 24.09.2022
1690 Clouds 16 1012 66 10000 2.57 220 13:35 24.09.2022
1691 Clouds 16 1013 69 10000 2.57 200 12:58 24.09.2022
1692 Clear 16 1013 75 10000 2.57 200 11:42 24.09.2022
1693 Clear 12 1012 91 10000 1.54 150 09:54 24.09.2022
1694 Clear 11 1012 96 10000 0 0 08:47 24.09.2022
1695 Clouds 10 1012 94 10000 0 0 07:39 24.09.2022
1696 Clouds 10 1012 95 10000 1.03 120 04:48 24.09.2022
1697 Clouds 10 1012 93 10000 1.03 140 03:42 24.09.2022
1698 Clouds 10 1013 92 10000 1.54 140 22:39 23.09.2022
1699 Clear 10 1013 89 10000 1.54 130 21:31 23.09.2022
1700 Clear 11 1013 87 10000 1.54 0 20:57 23.09.2022
1701 Clear 10 1013 88 10000 2.06 150 20:20 23.09.2022
1702 Clear 13 1013 77 10000 2.06 170 18:51 23.09.2022
1703 Clear 16 1014 63 10000 2.57 170 14:55 23.09.2022
1704 Clouds 13 1015 84 10000 0.51 0 10:55 23.09.2022
1705 Clouds 12 1015 87 10000 2.06 210 09:33 23.09.2022
1706 Clouds 10 1015 92 10000 1.54 200 05:58 23.09.2022
1707 Clouds 10 1017 92 10000 1.03 0 00:32 23.09.2022
1708 Clouds 9 1017 91 10000 1.54 210 23:21 22.09.2022
1709 Clouds 10 1018 88 10000 2.06 210 22:26 22.09.2022
1710 Clear 9 1018 90 10000 1.54 170 21:18 22.09.2022
1711 Clear 10 1018 84 10000 1.54 180 19:56 22.09.2022
1712 Clouds 16 1018 59 10000 3.6 250 17:26 22.09.2022
1713 Clear 14 1020 71 10000 2.57 270 12:46 22.09.2022
1714 Clear 12 1020 73 10000 2.57 230 10:32 22.09.2022
1715 Clear 7 1021 96 10000 0 0 08:56 22.09.2022
1716 Fog 3 1023 98 10000 0 0 06:57 22.09.2022
1717 Fog 4 1024 95 600 0 0 03:46 22.09.2022
1718 Clouds 6 1023 92 10000 1.54 130 23:31 21.09.2022
1719 Clear 7 1023 89 10000 1.54 150 21:50 21.09.2022
1720 Clear 9 1023 85 10000 2.06 140 20:34 21.09.2022
1721 Clouds 13 1022 61 10000 1.54 340 17:49 21.09.2022
1722 Clear 14 1022 58 10000 2.06 290 16:51 21.09.2022
1723 Clear 14 1022 57 10000 1.54 0 14:37 21.09.2022
1724 Clouds 13 1022 61 10000 1.03 0 12:54 21.09.2022
1725 Clear 12 1022 69 10000 1.03 0 11:29 21.09.2022
1726 Clear 11 1022 76 10000 2.57 250 10:29 21.09.2022
1727 Clear 8 1022 86 10000 1.03 0 09:21 21.09.2022
1728 Clear 4 1023 100 10000 0 0 07:41 21.09.2022
1729 Clouds 4 1022 92 10000 1.03 290 02:48 21.09.2022
1730 Clear 4 1022 94 10000 1.03 270 02:28 21.09.2022
1731 Clear 4 1022 93 10000 1.54 290 00:34 21.09.2022
1732 Clear 5 1021 90 10000 1.03 310 23:18 20.09.2022
1733 Clear 7 1019 86 10000 1.54 290 20:52 20.09.2022
1734 Clouds 9 1017 75 10000 2.57 320 19:32 20.09.2022
1735 Clouds 12 1017 69 10000 4.63 350 16:28 20.09.2022
1736 Clouds 11 1016 75 10000 5.66 350 14:46 20.09.2022
1737 Clouds 12 1015 74 10000 6.69 340 13:28 20.09.2022
1738 Clouds 10 1013 85 10000 4.63 330 09:50 20.09.2022
1739 Clouds 9 1012 92 10000 4.12 320 08:27 20.09.2022
1740 Clouds 10 1010 90 10000 3.6 320 05:24 20.09.2022
1741 Clouds 10 1009 90 10000 4.63 310 04:27 20.09.2022
1742 Drizzle 10 1007 89 10000 5.14 320 22:59 19.09.2022
1743 Rain 10 1007 87 10000 4.63 320 22:18 19.09.2022
1744 Clouds 10 1007 86 10000 4.63 320 20:51 19.09.2022
1745 Clouds 10 1007 86 10000 5.66 320 20:31 19.09.2022
1746 Clouds 11 1006 83 10000 5.14 320 17:45 19.09.2022
1747 Clouds 12 1005 85 10000 5.66 320 15:37 19.09.2022
1748 Clouds 11 1004 88 9000 6.17 320 13:33 19.09.2022
1749 Clouds 11 1003 88 10000 5.14 340 11:28 19.09.2022
1750 Clouds 10 1002 90 10000 5.14 330 08:51 19.09.2022
1751 Clouds 10 1002 92 10000 5.14 320 07:25 19.09.2022
1752 Clouds 10 1002 89 10000 4.12 310 01:55 19.09.2022
1753 Rain 11 1002 86 10000 2.57 340 23:22 18.09.2022
1754 Clouds 11 1002 83 10000 1.54 320 21:45 18.09.2022
1755 Clear 11 1002 82 10000 1.54 290 20:29 18.09.2022
1756 Clear 13 1001 74 10000 2.57 350 18:33 18.09.2022
1757 Clouds 13 1001 70 10000 3.09 320 17:39 18.09.2022
1758 Clouds 13 1000 69 10000 4.63 340 15:46 18.09.2022
1759 Clouds 13 1000 76 10000 4.12 330 13:51 18.09.2022
1760 Clouds 13 999 80 10000 3.6 280 12:35 18.09.2022
1761 Clouds 12 999 90 10000 2.06 300 11:24 18.09.2022
1762 Fog 7 998 97 300 1.03 280 04:28 18.09.2022
1763 Clouds 9 996 94 10000 2.06 290 01:26 18.09.2022
1764 Clouds 9 996 94 10000 1.54 280 00:24 18.09.2022
1765 Clouds 10 995 93 10000 1.54 270 21:44 17.09.2022
1766 Clouds 11 994 94 10000 1.54 250 19:44 17.09.2022
1767 Clouds 12 996 93 10000 1.54 280 18:59 17.09.2022
1768 Clouds 12 994 92 10000 4.12 300 16:52 17.09.2022
1769 Clouds 13 994 83 10000 6.17 300 13:57 17.09.2022
1770 Clouds 13 992 80 10000 5.14 310 11:55 17.09.2022
1771 Clouds 12 990 82 10000 5.66 300 09:37 17.09.2022
1772 Clouds 10 989 89 10000 5.66 300 06:25 17.09.2022
1773 Clouds 10 989 89 10000 3.6 290 01:51 17.09.2022
1774 Clouds 11 989 87 10000 5.14 290 22:56 16.09.2022
1775 Clear 11 989 90 10000 3.6 290 21:29 16.09.2022
1776 Clouds 11 989 92 10000 3.09 290 20:24 16.09.2022
1777 Rain 13 988 86 10000 4.63 320 17:50 16.09.2022
1778 Clouds 12 987 89 10000 5.66 330 15:34 16.09.2022
1779 Rain 15 986 73 10000 4.12 300 13:57 16.09.2022
1780 Clouds 13 986 83 10000 3.6 320 11:45 16.09.2022
1781 Clouds 11 985 93 10000 3.09 310 08:53 16.09.2022
1782 Clouds 10 984 96 10000 3.6 310 07:19 16.09.2022
1783 Clouds 10 984 96 10000 3.09 310 06:47 16.09.2022
1784 Clouds 10 986 95 10000 2.06 270 02:52 16.09.2022
1785 Clouds 10 986 95 10000 3.09 250 23:48 15.09.2022
1786 Rain 11 985 89 10000 2.06 320 21:19 15.09.2022
1787 Clouds 11 985 88 10000 3.09 240 19:57 15.09.2022
1788 Clouds 12 985 90 10000 3.6 240 18:30 15.09.2022
1789 Clouds 12 985 86 10000 5.66 250 17:33 15.09.2022
1790 Clouds 13 986 81 10000 4.63 250 16:52 15.09.2022
1791 Clouds 13 986 79 10000 5.14 270 14:41 15.09.2022
1792 Clouds 12 985 79 10000 4.63 270 12:48 15.09.2022
1793 Clouds 12 986 81 10000 4.12 250 10:21 15.09.2022
1794 Clouds 10 986 94 10000 3.09 240 07:51 15.09.2022
1795 Clouds 9 987 92 10000 3.6 230 03:58 15.09.2022
1796 Clouds 10 988 89 10000 2.57 240 01:57 15.09.2022
1797 Clear 12 989 86 10000 2.57 230 22:26 14.09.2022
1798 Clear 14 989 81 10000 3.09 230 19:59 14.09.2022
1799 Clear 15 989 79 10000 3.09 230 19:26 14.09.2022
1800 Clouds 15 990 78 10000 5.14 270 17:25 14.09.2022
1801 Clouds 15 990 75 10000 4.12 270 15:56 14.09.2022
1802 Clouds 14 992 72 10000 4.63 260 14:34 14.09.2022
1803 Clouds 13 992 79 10000 3.6 230 11:40 14.09.2022
1804 Clouds 12 991 86 10000 5.14 260 09:48 14.09.2022
1805 Clouds 12 991 86 10000 5.14 260 09:48 14.09.2022
1806 Clouds 10 991 93 10000 2.57 250 07:39 14.09.2022
1807 Clouds 11 989 93 10000 4.12 240 06:47 14.09.2022
1808 Drizzle 12 989 94 10000 2.06 200 04:33 14.09.2022
1809 Clouds 12 990 94 10000 1.54 160 01:51 14.09.2022
1810 Clouds 12 990 94 10000 2.06 160 01:29 14.09.2022
1811 Clouds 12 991 93 10000 1.54 170 00:50 14.09.2022
1812 Clouds 12 991 92 10000 2.06 160 23:54 13.09.2022
1813 Clouds 12 991 93 10000 2.06 160 23:36 13.09.2022
1814 Clouds 12 991 93 10000 1.54 150 23:18 13.09.2022
1815 Clouds 13 992 91 10000 2.57 120 22:20 13.09.2022
1816 Clouds 13 993 92 10000 2.06 140 20:21 13.09.2022
1817 Clouds 15 994 87 10000 2.57 170 18:20 13.09.2022
1818 Rain 14 995 93 6000 7.2 140 15:55 13.09.2022
1819 Rain 15 996 90 10000 8.75 140 14:36 13.09.2022
1820 Rain 14 997 89 10000 8.23 130 13:20 13.09.2022
1821 Rain 15 1001 86 10000 6.17 140 09:23 13.09.2022
1822 Clouds 14 1003 88 10000 4.63 140 06:59 13.09.2022
1823 Clouds 12 1009 87 10000 3.09 140 00:23 13.09.2022
1824 Clouds 13 1010 87 10000 2.57 150 22:51 12.09.2022
1825 Clear 13 1011 86 10000 2.57 150 22:18 12.09.2022
1826 Clear 13 1011 83 10000 2.06 170 20:39 12.09.2022
1827 Clear 16 1012 73 10000 3.09 200 18:51 12.09.2022
1828 Clouds 17 1012 67 10000 2.57 180 17:25 12.09.2022
1829 Clouds 18 1013 64 10000 3.09 240 14:39 12.09.2022
1830 Clear 17 1014 68 10000 2.06 240 11:31 12.09.2022
1831 Clear 14 1014 79 10000 1.54 160 09:56 12.09.2022
1832 Fog 6 1016 98 2200 0 0 04:54 12.09.2022
1833 Fog 7 1016 98 200 0 0 04:25 12.09.2022
1834 Clear 9 1015 93 10000 0 0 23:47 11.09.2022
1835 Clear 10 1015 90 10000 0 0 22:43 11.09.2022
1836 Clear 12 1015 85 10000 1.03 270 20:51 11.09.2022
1837 Clouds 13 1015 82 10000 0.51 280 20:18 11.09.2022
1838 Clear 15 1015 75 10000 1.54 280 19:25 11.09.2022
1839 Clear 15 1015 71 10000 2.06 270 18:36 11.09.2022
1840 Clear 16 1015 67 10000 2.57 280 16:47 11.09.2022
1841 Clear 16 1015 71 10000 1.54 360 14:53 11.09.2022
1842 Clouds 15 1015 74 10000 2.57 330 12:53 11.09.2022
1843 Clouds 14 1015 81 10000 1.81 33 09:28 11.09.2022
1844 Clouds 12 1014 87 10000 1.57 28 07:21 11.09.2022
1845 Clouds 12 1015 85 10000 1.7 76 01:18 11.09.2022
1846 Clouds 13 1015 83 10000 1.57 91 23:27 10.09.2022
1847 Clouds 13 1012 82 10000 1.89 103 21:33 10.09.2022
1848 Clouds 14 1015 77 10000 2.18 105 19:49 10.09.2022
1849 Clouds 14 1015 76 10000 2.32 107 19:29 10.09.2022
1850 Clouds 14 1015 74 10000 2.32 107 18:58 10.09.2022
1851 Clouds 15 1016 69 10000 3.09 100 16:57 10.09.2022
1852 Clouds 15 1016 67 10000 4.12 110 14:45 10.09.2022
1853 Clouds 15 1017 65 10000 4.12 100 12:55 10.09.2022
1854 Clear 15 1017 73 10000 3.6 80 11:36 10.09.2022
1855 Clear 14 1017 78 10000 2.57 80 10:24 10.09.2022
1856 Clouds 12 1017 86 10000 1.54 30 08:37 10.09.2022
1857 Clouds 11 1017 86 10000 1.54 40 07:57 10.09.2022
1858 Clear 7 1020 93 10000 0 0 02:47 10.09.2022
1859 Clear 8 1020 86 10000 0 0 23:34 09.09.2022
1860 Clear 9 1021 83 10000 1.54 70 22:20 09.09.2022
1861 Clear 11 1019 75 10000 2.06 90 20:48 09.09.2022
1862 Clouds 13 1019 67 10000 5.14 100 19:25 09.09.2022
1863 Clouds 14 1018 60 10000 5.14 100 18:53 09.09.2022
1864 Clouds 15 1019 60 10000 5.66 110 16:34 09.09.2022
1865 Clouds 15 1020 60 10000 6.17 100 14:27 09.09.2022
1866 Clouds 15 1020 57 10000 7.72 110 12:56 09.09.2022
1867 Clear 14 1020 56 10000 7.72 120 10:22 09.09.2022
1868 Clouds 12 1020 77 10000 3.6 80 07:18 09.09.2022
1869 Clouds 10 1021 81 10000 2.06 90 03:28 09.09.2022
1870 Clear 10 1023 77 10000 2.06 90 22:19 08.09.2022
1871 Clear 10 1021 78 10000 2.06 80 21:43 08.09.2022
1872 Clear 11 1022 75 10000 3.09 110 20:46 08.09.2022
1873 Clear 12 1022 71 10000 4.12 130 20:21 08.09.2022
1874 Clouds 14 1022 64 10000 4.12 150 18:34 08.09.2022
1875 Clear 15 1022 65 10000 3.09 160 16:38 08.09.2022
1876 Clouds 15 1022 66 10000 3.6 80 14:41 08.09.2022
1877 Clouds 15 1023 65 10000 3.6 60 13:27 08.09.2022
1878 Clouds 14 1022 65 10000 3.09 90 12:33 08.09.2022
1879 Clouds 14 1023 70 10000 3.09 30 10:58 08.09.2022
1880 Clear 12 1023 76 10000 3.09 20 09:20 08.09.2022
1881 Clear 5 1024 91 10000 0 0 06:43 08.09.2022
1882 Clouds 7 1024 90 10000 1.03 0 02:37 08.09.2022
1883 Clouds 8 1024 90 10000 1.03 0 02:19 08.09.2022
1884 Clouds 7 1024 88 10000 1.54 360 01:58 08.09.2022
1885 Clouds 10 1022 77 10000 2.06 50 22:55 07.09.2022
1886 Clear 10 1022 73 10000 2.57 50 21:43 07.09.2022
1887 Clear 11 1022 67 10000 2.57 40 21:18 07.09.2022
1888 Clear 12 1021 61 10000 2.06 40 20:19 07.09.2022
1889 Clear 14 1021 62 10000 2.06 30 18:40 07.09.2022
1890 Clouds 16 1020 58 10000 2.57 40 15:21 07.09.2022
1891 Clear 15 1021 65 10000 3.09 70 10:50 07.09.2022
1892 Clear 14 1021 67 10000 3.6 50 10:24 07.09.2022
1893 Clear 9 1022 89 10000 1.03 0 07:36 07.09.2022
1894 Clouds 8 1019 90 10000 1.54 20 04:39 07.09.2022
1895 Clouds 10 1019 90 10000 2.57 50 00:25 07.09.2022
1896 Clear 12 1019 82 10000 0.51 290 21:45 06.09.2022
1897 Clear 13 1019 81 10000 0.51 290 21:27 06.09.2022
1898 Clear 19 1021 56 10000 4.12 260 18:55 06.09.2022
1899 Clear 19 1020 53 10000 4.63 270 18:27 06.09.2022
1900 Clear 20 1020 53 10000 5.14 280 17:23 06.09.2022
1901 Clear 20 1021 54 10000 4.63 280 16:40 06.09.2022
1902 Clouds 19 1021 53 10000 5.14 270 15:23 06.09.2022
1903 Clear 18 1022 58 10000 5.14 270 13:46 06.09.2022
1904 Clear 18 1022 59 10000 5.66 250 13:25 06.09.2022
1905 Clear 18 1023 60 10000 5.14 260 12:37 06.09.2022
1906 Clear 16 1023 61 10000 5.14 260 10:46 06.09.2022
1907 Clear 12 1025 79 10000 2.57 240 08:54 06.09.2022
1908 Clear 9 1025 95 10000 3.09 230 07:51 06.09.2022
1909 Clear 5 1028 95 10000 0 0 04:48 06.09.2022
1910 Clear 7 1028 91 10000 0 0 23:42 05.09.2022
1911 Clear 8 1028 86 10000 0 0 22:40 05.09.2022
1912 Clear 11 1029 78 10000 2.06 150 20:58 05.09.2022
1913 Clear 13 1028 66 10000 2.57 120 19:50 05.09.2022
1914 Clear 15 1030 58 10000 2.06 110 18:49 05.09.2022
1915 Clear 16 1029 56 10000 3.09 290 18:22 05.09.2022
1916 Clear 16 1029 53 10000 2.06 350 17:30 05.09.2022
1917 Clear 15 1030 49 10000 2.06 10 15:52 05.09.2022
1918 Clouds 16 1030 51 10000 1.54 0 13:39 05.09.2022
1919 Clouds 14 1031 59 10000 3.09 330 12:29 05.09.2022
1920 Clear 13 1031 70 10000 2.57 350 10:30 05.09.2022
1921 Clear 6 1033 92 10000 1.03 290 07:36 05.09.2022
1922 Clear 6 1031 91 10000 0.51 270 02:50 05.09.2022
1923 Clouds 9 1030 84 10000 2.06 70 23:40 04.09.2022
1924 Clear 10 1030 83 10000 0 0 22:28 04.09.2022
1925 Clear 11 1030 80 10000 1.03 160 21:40 04.09.2022
1926 Clouds 13 1029 71 10000 0.51 0 19:39 04.09.2022
1927 Clouds 15 1028 58 10000 2.57 80 18:21 04.09.2022
1928 Clouds 15 1028 60 10000 3.6 60 17:22 04.09.2022
1929 Clouds 15 1028 59 10000 2.06 40 14:56 04.09.2022
1930 Clouds 15 1028 58 10000 2.57 20 14:18 04.09.2022
1931 Clouds 15 1028 61 10000 2.06 10 12:24 04.09.2022
1932 Clouds 13 1028 68 10000 2.57 70 10:51 04.09.2022
1933 Clouds 10 1027 89 10000 1.03 0 08:21 04.09.2022
1934 Clouds 8 1026 94 10000 1.03 350 06:21 04.09.2022
1935 Clouds 10 1025 92 10000 0 0 01:31 04.09.2022
1936 Clouds 10 1025 90 10000 1.03 0 22:26 03.09.2022
1937 Clouds 10 1025 87 10000 1.54 170 21:24 03.09.2022
1938 Clouds 11 1024 82 10000 1.54 180 20:26 03.09.2022
1939 Clouds 13 1024 69 10000 2.06 220 17:35 03.09.2022
1940 Clouds 13 1023 63 10000 2.57 220 16:34 03.09.2022
1941 Clouds 13 1023 62 10000 1.03 0 14:47 03.09.2022
1942 Clouds 13 1024 65 10000 2.06 140 14:26 03.09.2022
1943 Clouds 13 1024 66 10000 2.06 110 13:39 03.09.2022
1944 Clear 12 1024 73 10000 2.57 60 11:18 03.09.2022
1945 Clouds 10 1024 91 10000 1.03 0 08:41 03.09.2022
1946 Clouds 7 1024 95 10000 0 0 06:59 03.09.2022
1947 Clouds 6 1024 95 10000 0 0 04:43 03.09.2022
1948 Clouds 5 1025 93 10000 0 0 00:46 03.09.2022
1949 Clouds 7 1025 90 10000 1.03 290 23:28 02.09.2022
1950 Clear 8 1024 84 10000 1.54 10 21:33 02.09.2022
1951 Clear 10 1024 79 10000 1.03 0 20:39 02.09.2022
1952 Clouds 12 1023 73 10000 2.06 50 19:35 02.09.2022
1953 Clouds 13 1023 67 10000 2.06 10 18:43 02.09.2022
1954 Clouds 14 1023 62 10000 2.57 360 18:24 02.09.2022
1955 Clouds 13 1024 66 10000 1.54 260 16:51 02.09.2022
1956 Clouds 13 1024 69 10000 2.57 100 15:48 02.09.2022
1957 Rain 13 1025 67 10000 3.6 10 12:56 02.09.2022
1958 Clear 12 1025 69 10000 5.14 350 10:25 02.09.2022
1959 Clear 12 1025 69 10000 4.63 340 09:41 02.09.2022
1960 Clear 10 1025 79 10000 3.6 340 08:42 02.09.2022
1961 Clear 7 1025 87 10000 2.57 300 06:43 02.09.2022
1962 Clouds 8 1023 87 10000 2.06 310 04:58 02.09.2022
1963 Clouds 9 1023 84 10000 2.06 320 22:54 01.09.2022
1964 Clear 10 1023 83 10000 3.09 320 21:45 01.09.2022
1965 Clear 10 1023 81 10000 3.09 330 21:26 01.09.2022
1966 Clear 11 1023 77 10000 3.6 330 20:48 01.09.2022
1967 Clouds 13 1022 68 10000 5.14 340 19:23 01.09.2022
1968 Clouds 14 1022 66 10000 2.57 350 17:49 01.09.2022
1969 Clouds 13 1023 69 10000 3.6 320 16:41 01.09.2022
1970 Clouds 15 1022 59 10000 4.12 350 14:34 01.09.2022
1971 Clouds 14 1023 74 10000 4.63 340 12:59 01.09.2022
1972 Clouds 13 1023 76 10000 3.09 330 11:55 01.09.2022
1973 Clouds 13 1023 78 10000 3.09 330 11:36 01.09.2022
1974 Clouds 13 1023 76 10000 4.63 360 11:18 01.09.2022
1975 Clear 12 1022 81 10000 3.09 350 08:53 01.09.2022
1976 Clouds 9 1022 88 10000 2.06 310 06:26 01.09.2022
1977 Clouds 9 1023 84 10000 2.06 300 01:45 01.09.2022
1978 Clouds 10 1023 81 10000 2.57 290 00:19 01.09.2022
1979 Clear 10 1023 80 10000 2.57 310 21:45 31.08.2022
1980 Clouds 13 1023 71 10000 3.09 350 19:59 31.08.2022
1981 Clouds 15 1022 66 10000 5.14 350 18:19 31.08.2022
1982 Clouds 15 1023 70 10000 4.63 330 16:31 31.08.2022
1983 Clouds 17 1022 60 10000 5.14 320 14:44 31.08.2022
1984 Clouds 16 1023 64 10000 4.63 320 12:25 31.08.2022
1985 Clouds 16 1024 67 10000 4.63 330 11:37 31.08.2022
1986 Clouds 13 1024 84 10000 3.09 320 09:25 31.08.2022
1987 Clouds 9 1024 88 10000 2.06 320 06:19 31.08.2022
1988 Clear 12 1023 84 10000 3.6 330 23:25 30.08.2022
1989 Clear 13 1023 80 10000 4.12 350 21:49 30.08.2022
1990 Clouds 14 1023 79 10000 4.12 350 20:59 30.08.2022
1991 Clouds 16 1022 70 10000 6.17 340 18:52 30.08.2022
1992 Clouds 16 1022 73 10000 5.14 340 15:29 30.08.2022
1993 Rain 16 1021 74 10000 5.66 320 13:25 30.08.2022
1994 Clouds 17 1021 69 10000 4.63 340 11:22 30.08.2022
1995 Clouds 16 1021 70 10000 5.66 360 10:57 30.08.2022
1996 Clear 12 1020 86 10000 4.12 330 07:50 30.08.2022
1997 Clouds 11 1020 85 10000 3.6 320 02:55 30.08.2022
1998 Clouds 12 1019 81 10000 4.63 350 23:28 29.08.2022
1999 Clear 13 1019 78 10000 4.12 340 22:32 29.08.2022
2000 Clear 13 1019 76 10000 4.63 350 21:27 29.08.2022
2001 Clear 13 1019 76 10000 4.63 350 21:27 29.08.2022
2002 Clouds 14 1019 74 10000 4.12 360 20:19 29.08.2022
2003 Clouds 16 1019 64 10000 5.66 360 17:58 29.08.2022
2004 Clouds 16 1019 63 10000 5.14 360 17:25 29.08.2022
2005 Clouds 16 1019 65 10000 7.2 360 16:43 29.08.2022
2006 Clouds 17 1018 65 10000 5.14 360 15:18 29.08.2022
2007 Clouds 17 1018 70 10000 5.66 360 13:26 29.08.2022
2008 Clouds 17 1017 78 10000 6.17 360 11:30 29.08.2022
2009 Clouds 15 1017 85 10000 5.14 340 10:21 29.08.2022
2010 Clouds 13 1017 88 10000 4.63 330 08:38 29.08.2022
2011 Clouds 12 1016 90 10000 5.14 350 05:58 29.08.2022
2012 Rain 12 1016 93 10000 3.09 350 01:25 29.08.2022
2013 Drizzle 12 1016 93 10000 2.06 10 22:50 28.08.2022
2014 Rain 12 1016 93 8000 2.06 360 21:44 28.08.2022
2015 Rain 11 1016 94 5000 3.6 360 20:56 28.08.2022
2016 Rain 12 1016 90 9000 4.63 10 19:44 28.08.2022
2017 Clouds 12 1015 91 10000 3.6 360 18:21 28.08.2022
2018 Rain 12 1015 89 6000 4.12 20 17:40 28.08.2022
2019 Rain 13 1014 92 10000 5.66 20 16:32 28.08.2022
2020 Rain 16 1015 83 10000 5.14 350 14:44 28.08.2022
2021 Clouds 18 1014 82 10000 5.66 30 12:48 28.08.2022
2022 Clouds 18 1013 81 10000 4.12 20 10:51 28.08.2022
2023 Clouds 18 1013 82 10000 5.14 20 09:56 28.08.2022
2024 Clouds 18 1012 85 10000 4.63 20 08:38 28.08.2022
2025 Clouds 18 1012 86 10000 3.6 20 07:45 28.08.2022
2026 Clouds 18 1012 86 10000 2.06 10 03:31 28.08.2022
2027 Clouds 19 1012 86 10000 5.14 320 00:31 28.08.2022
2028 Clouds 20 1012 89 10000 1.54 0 22:38 27.08.2022
2029 Clouds 21 1011 86 10000 1.03 0 21:40 27.08.2022
2030 Clouds 22 1011 82 10000 2.06 30 20:19 27.08.2022
2031 Clouds 24 1013 77 10000 3.09 330 18:41 27.08.2022
2032 Clouds 25 1012 72 10000 1.03 0 15:53 27.08.2022
2033 Clouds 25 1012 70 10000 0.51 0 15:25 27.08.2022
2034 Clouds 23 1012 82 10000 1.03 0 12:31 27.08.2022
2035 Clouds 22 1014 85 10000 1.54 0 11:53 27.08.2022
2036 Clouds 21 1012 88 10000 2.06 110 09:51 27.08.2022
2037 Clouds 21 1012 88 10000 2.06 110 08:53 27.08.2022
2038 Clouds 18 1013 92 10000 1.03 0 04:39 27.08.2022
2039 Clouds 17 1015 91 10000 3.09 110 00:25 27.08.2022
2040 Clouds 17 1015 90 10000 3.09 110 23:24 26.08.2022
2041 Clear 17 1016 86 10000 2.57 120 21:43 26.08.2022
2042 Clear 19 1016 73 10000 4.12 100 19:25 26.08.2022
2043 Clear 21 1016 65 10000 4.12 120 17:29 26.08.2022
2044 Clear 22 1017 61 10000 3.09 90 15:37 26.08.2022
2045 Clear 22 1017 61 10000 3.6 50 14:44 26.08.2022
2046 Clouds 21 1018 63 10000 3.6 120 12:54 26.08.2022
2047 Clouds 21 1019 66 10000 3.6 120 11:42 26.08.2022
2048 Clouds 20 1019 67 10000 3.09 100 11:21 26.08.2022
2049 Clouds 14 1021 95 10000 0.51 0 07:37 26.08.2022
2050 Clouds 11 1022 92 10000 0 0 02:43 26.08.2022
2051 Clear 12 1022 85 10000 1.03 290 23:45 25.08.2022
2052 Clear 16 1022 69 10000 2.57 140 21:46 25.08.2022
2053 Clear 18 1021 59 10000 3.09 110 20:51 25.08.2022
2054 Clear 21 1023 56 10000 4.12 80 19:25 25.08.2022
2055 Clear 22 1023 56 10000 3.09 70 18:28 25.08.2022
2056 Clear 23 1022 51 10000 2.06 110 17:31 25.08.2022
2057 Clear 24 1023 48 10000 1.54 0 16:27 25.08.2022
2058 Clear 23 1023 48 10000 1.54 0 15:28 25.08.2022
2059 Clear 22 1024 54 10000 0.51 0 12:56 25.08.2022
2060 Clear 20 1025 63 10000 1.54 10 10:49 25.08.2022
2061 Clear 19 1025 71 10000 1.54 0 09:46 25.08.2022
2062 Clear 13 1024 95 10000 0 0 07:31 25.08.2022
2063 Clear 11 1026 89 10000 0 0 02:29 25.08.2022
2064 Clear 13 1024 85 10000 0.51 250 23:29 24.08.2022
2065 Clear 13 1024 82 10000 0 0 22:46 24.08.2022
2066 Clear 15 1024 74 10000 1.03 0 21:39 24.08.2022
2067 Clear 16 1023 70 10000 2.06 80 21:20 24.08.2022
2068 Clear 20 1024 59 10000 3.09 80 19:43 24.08.2022
2069 Clear 22 1022 54 10000 2.06 0 16:50 24.08.2022
2070 Clear 22 1023 56 10000 1.54 340 15:52 24.08.2022
2071 Clear 21 1023 58 10000 2.06 30 13:49 24.08.2022
2072 Clear 20 1023 62 10000 3.09 350 12:24 24.08.2022
2073 Clear 19 1022 62 10000 4.12 350 11:18 24.08.2022
2074 Clear 16 1022 76 10000 2.57 20 08:38 24.08.2022
2075 Clouds 11 1021 90 10000 1.03 320 03:54 24.08.2022
2076 Clouds 16 1020 79 10000 2.57 80 23:53 23.08.2022
2077 Rain 16 1020 84 10000 2.57 70 22:35 23.08.2022
2078 Clear 17 1020 84 10000 1.54 0 21:49 23.08.2022
2079 Rain 17 1020 82 10000 2.06 70 20:40 23.08.2022
2080 Rain 18 1019 75 10000 0 0 18:55 23.08.2022
2081 Rain 19 1019 64 10000 1.54 350 17:53 23.08.2022
2082 Clear 20 1019 64 10000 1.03 0 17:18 23.08.2022
2083 Clouds 20 1019 61 10000 2.57 330 15:52 23.08.2022
2084 Clouds 21 1020 63 10000 1.54 0 13:50 23.08.2022
2085 Clouds 21 1020 64 10000 1.54 80 12:45 23.08.2022
2086 Clear 20 1021 74 10000 0.51 0 10:57 23.08.2022
2087 Clear 19 1021 77 10000 0.51 0 10:32 23.08.2022
2088 Clear 19 1020 76 10000 0.51 0 10:32 23.08.2022
2089 Clear 16 1020 88 10000 1.54 270 08:55 23.08.2022
2090 Clear 16 1020 90 10000 0.51 0 08:22 23.08.2022
2091 Clear 14 1020 93 10000 0.51 270 07:52 23.08.2022
2092 Clear 13 1020 93 10000 0 0 07:22 23.08.2022
2093 Clouds 13 1020 91 10000 0 0 06:19 23.08.2022
2094 Clouds 13 1019 89 10000 0 0 01:43 23.08.2022
2095 Clouds 14 1019 85 10000 2.06 140 00:26 23.08.2022
2096 Clouds 14 1018 85 10000 0 0 23:30 22.08.2022
2097 Clear 15 1018 81 10000 0.51 170 22:19 22.08.2022
2098 Clear 19 1017 62 10000 0.51 0 19:51 22.08.2022
2099 Clouds 20 1017 57 10000 1.54 230 19:30 22.08.2022
2100 Clear 21 1016 51 10000 2.06 250 18:36 22.08.2022
2101 Clear 21 1017 52 10000 3.09 280 15:45 22.08.2022
2102 Clear 21 1016 52 10000 4.63 270 14:48 22.08.2022
2103 Clear 19 1015 62 10000 4.63 270 11:20 22.08.2022
2104 Clouds 17 1014 76 10000 4.63 270 09:20 22.08.2022
2105 Clouds 15 1011 84 10000 3.09 270 04:45 22.08.2022
2106 Clouds 17 1010 83 10000 2.57 180 00:54 22.08.2022
2107 Clouds 17 1010 83 10000 2.57 180 00:35 22.08.2022
2108 Clouds 17 1010 81 10000 2.06 200 22:56 21.08.2022
2109 Clear 17 1010 76 10000 1.54 170 21:50 21.08.2022
2110 Clear 18 1010 73 10000 1.54 180 21:18 21.08.2022
2111 Clear 20 1010 60 10000 1.54 210 19:40 21.08.2022
2112 Clear 22 1009 53 10000 2.57 220 18:28 21.08.2022
2113 Clear 22 1009 56 10000 3.09 240 16:29 21.08.2022
2114 Clear 21 1009 58 10000 4.63 260 15:46 21.08.2022
2115 Clear 21 1010 60 10000 3.09 250 14:41 21.08.2022
2116 Clear 20 1009 69 10000 3.6 270 13:44 21.08.2022
2117 Clouds 20 1009 73 10000 4.12 270 12:47 21.08.2022
2118 Clouds 18 1010 86 10000 3.09 260 09:57 21.08.2022
2119 Clouds 17 1010 87 10000 3.09 270 08:56 21.08.2022
2120 Clouds 17 1010 87 10000 3.09 270 08:38 21.08.2022
2121 Clouds 16 1010 90 10000 2.06 250 07:50 21.08.2022
2122 Clouds 15 1010 90 10000 1.54 240 04:28 21.08.2022
2123 Clouds 17 1010 81 10000 2.57 270 00:53 21.08.2022
2124 Clouds 18 1010 88 10000 1.54 260 22:59 20.08.2022
2125 Clouds 20 1010 87 10000 2.57 260 21:46 20.08.2022
2126 Clouds 21 1009 92 8000 0 0 20:48 20.08.2022
2127 Clouds 21 1009 93 9000 1.54 130 19:42 20.08.2022
2128 Clouds 21 1009 93 10000 2.06 130 18:44 20.08.2022
2129 Rain 21 1009 92 1600 4.12 240 18:25 20.08.2022
2130 Clouds 22 1008 93 10000 2.06 180 17:20 20.08.2022
2131 Clouds 23 1009 88 10000 4.12 160 15:52 20.08.2022
2132 Clouds 22 1007 92 10000 5.66 140 13:48 20.08.2022
2133 Clouds 21 1007 92 8000 5.66 140 11:53 20.08.2022
2134 Clouds 21 1007 92 10000 5.14 130 11:24 20.08.2022
2135 Clouds 20 1008 91 10000 5.14 110 09:20 20.08.2022
2136 Rain 21 1009 89 10000 3.09 140 06:40 20.08.2022
2137 Clouds 21 1009 83 10000 4.12 130 04:42 20.08.2022
2138 Clouds 21 1012 84 10000 3.6 120 00:55 20.08.2022
2139 Clouds 22 1013 84 10000 3.6 110 23:25 19.08.2022
2140 Clouds 23 1013 82 10000 3.09 110 22:44 19.08.2022
2141 Clear 24 1013 73 10000 4.63 110 20:47 19.08.2022
2142 Clear 27 1013 54 10000 5.14 110 18:55 19.08.2022
2143 Clear 30 1013 50 10000 5.66 140 15:55 19.08.2022
2144 Clear 29 1012 54 10000 4.12 140 13:42 19.08.2022
2145 Clear 27 1012 65 10000 3.09 120 11:46 19.08.2022
2146 Clear 25 1013 73 10000 2.06 100 10:31 19.08.2022
2147 Clouds 21 1012 89 8000 2.06 140 08:31 19.08.2022
2148 Clouds 19 1013 94 6000 2.06 100 03:39 19.08.2022
2149 Clouds 19 1013 89 10000 3.6 60 00:38 19.08.2022
2150 Clouds 19 1013 89 10000 3.6 80 23:56 18.08.2022
2151 Clouds 19 1013 88 10000 0.89 45 22:54 18.08.2022
2152 Clouds 20 1014 87 10000 3.6 60 22:22 18.08.2022
2153 Clouds 20 1014 86 10000 3.6 60 21:47 18.08.2022
2154 Clouds 20 1014 86 10000 3.09 70 20:45 18.08.2022
2155 Clouds 21 1013 83 10000 3.6 50 19:34 18.08.2022
2156 Clear 22 1013 79 10000 3.6 80 18:34 18.08.2022
2157 Clear 24 1013 74 10000 4.63 70 17:32 18.08.2022
2158 Clear 25 1014 67 10000 4.63 80 15:51 18.08.2022
2159 Clear 26 1014 61 10000 3.6 70 14:21 18.08.2022
2160 Clear 26 1014 61 10000 3.6 60 13:42 18.08.2022
2161 Clear 25 1014 61 10000 3.09 70 12:28 18.08.2022
2162 Clear 24 1014 64 10000 3.6 50 11:18 18.08.2022
2163 Clear 22 1014 72 10000 2.57 30 09:43 18.08.2022
2164 Clear 18 1014 91 10000 0 0 07:27 18.08.2022
2165 Clouds 16 1013 92 6000 1.03 300 05:33 18.08.2022
2166 Clouds 18 1013 91 7000 1.03 270 01:43 18.08.2022
2167 Clouds 20 1011 85 10000 1.54 0 22:32 17.08.2022
2168 Clear 23 1010 71 10000 2.57 190 20:21 17.08.2022
2169 Clouds 24 1010 65 10000 3.6 180 19:34 17.08.2022
2170 Clear 26 1009 57 10000 3.6 230 18:32 17.08.2022
2171 Clear 27 1009 58 10000 4.63 190 16:50 17.08.2022
2172 Clear 28 1009 59 10000 4.12 230 15:41 17.08.2022
2173 Clouds 28 1009 56 10000 4.12 240 14:36 17.08.2022
2174 Clouds 26 1009 66 10000 2.06 0 12:22 17.08.2022
2175 Clouds 24 1009 77 9000 2.57 240 10:25 17.08.2022
2176 Clouds 21 1009 89 8000 2.57 230 08:26 17.08.2022
2177 Clouds 20 1008 92 10000 2.57 190 05:35 17.08.2022
2178 Clouds 21 1008 85 10000 4.12 130 00:49 17.08.2022
2179 Clouds 22 1009 82 10000 3.09 140 22:59 16.08.2022
2180 Clear 23 1009 77 10000 4.12 140 21:21 16.08.2022
2181 Clear 25 1009 69 10000 5.66 140 19:56 16.08.2022
2182 Clear 26 1008 65 10000 5.66 140 19:22 16.08.2022
2183 Clear 26 1009 61 10000 8.75 140 17:55 16.08.2022
2184 Clear 27 1009 61 10000 9.26 130 16:47 16.08.2022
2185 Clear 27 1009 60 10000 7.2 120 15:45 16.08.2022
2186 Clear 28 1011 55 10000 6.17 150 14:54 16.08.2022
2187 Clear 28 1011 54 10000 6.17 150 14:36 16.08.2022
2188 Clear 26 1010 66 10000 5.14 140 12:19 16.08.2022
2189 Clear 26 1009 70 10000 5.14 110 10:23 16.08.2022
2190 Clear 24 1009 79 10000 4.12 120 08:53 16.08.2022
2191 Clear 23 1009 83 10000 4.12 130 08:21 16.08.2022
2192 Clouds 19 1009 90 10000 1.54 110 05:55 16.08.2022
2193 Clouds 20 1011 87 10000 2.57 70 23:37 15.08.2022
2194 Clear 21 1010 84 10000 2.57 80 22:23 15.08.2022
2195 Clouds 22 1010 84 10000 2.47 102 21:50 15.08.2022
2196 Clear 23 1011 79 10000 5.14 110 20:32 15.08.2022
2197 Clear 25 1011 72 10000 5.66 110 19:22 15.08.2022
2198 Clear 26 1012 66 10000 6.69 110 17:59 15.08.2022
2199 Clear 27 1011 63 10000 5.14 120 16:25 15.08.2022
2200 Clear 27 1012 63 10000 3.6 110 15:27 15.08.2022
2201 Clear 25 1012 72 10000 1.54 20 13:45 15.08.2022
2202 Clear 24 1013 73 10000 4.12 110 10:38 15.08.2022
2203 Clear 23 1012 79 10000 3.6 100 09:40 15.08.2022
2204 Clear 20 1013 90 10000 1.54 90 07:32 15.08.2022
2205 Clouds 16 1013 94 10000 1.54 70 04:34 15.08.2022
2206 Clouds 17 1014 87 10000 2.06 90 00:22 15.08.2022
2207 Clear 19 1015 79 10000 4.12 120 22:29 14.08.2022
2208 Clear 20 1015 74 10000 4.12 120 21:35 14.08.2022
2209 Clear 24 1016 43 10000 3.6 130 19:46 14.08.2022
2210 Clear 25 1015 50 10000 4.63 140 18:53 14.08.2022
2211 Clear 26 1015 51 10000 5.14 130 17:48 14.08.2022
2212 Clear 27 1015 45 10000 4.12 150 16:32 14.08.2022
2213 Clear 27 1015 42 10000 4.12 170 15:48 14.08.2022
2214 Clear 27 1016 40 10000 4.12 130 14:19 14.08.2022
2215 Clear 27 1016 42 10000 4.12 120 13:49 14.08.2022
2216 Clear 27 1016 43 10000 4.12 120 13:18 14.08.2022
2217 Clear 26 1017 49 10000 3.09 140 11:50 14.08.2022
2218 Clouds 24 1017 57 10000 2.57 150 10:27 14.08.2022
2219 Clouds 22 1016 62 10000 2.06 170 08:50 14.08.2022
2220 Clouds 15 1017 92 10000 1.54 120 06:21 14.08.2022
2221 Clouds 15 1018 88 10000 1.54 140 02:47 14.08.2022
2222 Clouds 17 1018 78 10000 1.54 140 23:49 13.08.2022
2223 Clouds 19 1018 71 10000 2.06 150 22:52 13.08.2022
2224 Clouds 22 1017 57 10000 3.09 150 20:58 13.08.2022
2225 Clouds 23 1017 53 10000 3.09 160 20:28 13.08.2022
2226 Clouds 25 1018 49 10000 3.09 160 19:24 13.08.2022
2227 Clouds 27 1019 48 10000 4.12 220 17:36 13.08.2022
2228 Clear 27 1019 49 10000 4.63 210 15:23 13.08.2022
2229 Clear 27 1019 53 10000 4.63 200 14:26 13.08.2022
2230 Clear 27 1019 55 10000 4.12 140 13:38 13.08.2022
2231 Clear 26 1020 59 10000 3.6 140 11:52 13.08.2022
2232 Clear 23 1020 69 10000 3.09 150 09:58 13.08.2022
2233 Clouds 19 1020 88 10000 3.09 110 07:51 13.08.2022
2234 Clouds 16 1021 90 10000 3.6 120 04:21 13.08.2022
2235 Clouds 17 1021 84 10000 3.6 90 23:47 12.08.2022
2236 Clear 19 1021 79 10000 4.63 90 21:42 12.08.2022
2237 Clear 20 1021 76 10000 4.63 80 20:40 12.08.2022
2238 Clear 21 1022 72 10000 4.63 80 19:36 12.08.2022
2239 Clear 23 1022 68 10000 5.14 60 18:38 12.08.2022
2240 Clear 27 1020 50 10000 3.09 300 16:37 12.08.2022
2241 Clear 27 1020 53 10000 2.57 280 15:40 12.08.2022
2242 Clear 25 1022 57 10000 4.12 280 14:27 12.08.2022
2243 Clear 24 1022 60 10000 3.09 240 12:53 12.08.2022
2244 Clear 21 1021 63 10000 3.6 270 09:52 12.08.2022
2245 Clear 18 1021 72 10000 3.09 240 07:47 12.08.2022
2246 Clear 15 1021 80 10000 1.54 220 06:31 12.08.2022
2247 Clear 16 1018 80 10000 1.54 220 02:33 12.08.2022
2248 Clear 18 1018 69 10000 2.57 260 00:24 12.08.2022
2249 Clear 19 1018 65 10000 2.57 240 23:35 11.08.2022
2250 Clear 19 1018 61 10000 2.06 240 22:24 11.08.2022
2251 Clear 21 1018 54 10000 2.57 250 21:39 11.08.2022
2252 Clear 23 1020 44 10000 3.6 270 20:45 11.08.2022
2253 Clear 24 1017 42 10000 4.12 270 20:18 11.08.2022
2254 Clear 26 1017 35 10000 4.12 260 19:32 11.08.2022
2255 Clear 27 1017 35 10000 5.14 270 17:48 11.08.2022
2256 Clear 27 1017 37 10000 5.66 260 16:34 11.08.2022
2257 Clear 27 1017 41 10000 5.14 270 15:21 11.08.2022
2258 Clear 25 1018 53 10000 6.17 250 12:41 11.08.2022
2259 Clear 22 1018 67 10000 4.63 240 10:18 11.08.2022
2260 Clear 18 1018 81 10000 3.6 240 07:19 11.08.2022
2261 Clouds 17 1018 80 10000 3.09 230 03:46 11.08.2022
2262 Clouds 17 1019 78 10000 2.06 220 00:35 11.08.2022
2263 Clear 19 1019 71 10000 3.09 210 22:32 10.08.2022
2264 Clear 20 1019 66 10000 3.09 190 21:25 10.08.2022
2265 Clear 21 1019 65 10000 3.09 200 20:54 10.08.2022
2266 Clear 24 1020 54 10000 4.63 200 19:24 10.08.2022
2267 Clear 25 1020 51 10000 4.12 200 17:55 10.08.2022
2268 Clear 25 1020 53 10000 4.12 220 16:35 10.08.2022
2269 Clear 22 1022 58 10000 3.6 220 13:35 10.08.2022
2270 Clear 22 1022 60 10000 3.09 210 12:41 10.08.2022
2271 Clear 18 1023 74 10000 3.6 230 09:25 10.08.2022
2272 Clear 17 1023 78 10000 2.57 220 08:33 10.08.2022
2273 Clear 16 1023 82 10000 2.57 210 07:18 10.08.2022
2274 Clouds 14 1023 84 10000 2.06 210 03:25 10.08.2022
2275 Clouds 16 1024 73 10000 2.57 200 23:34 09.08.2022
2276 Clouds 16 1024 73 10000 2.06 190 22:56 09.08.2022
2277 Clear 18 1024 69 10000 2.57 200 21:36 09.08.2022
2278 Clear 20 1024 63 10000 3.6 200 20:30 09.08.2022
2279 Clear 22 1024 56 10000 4.63 220 18:44 09.08.2022
2280 Clear 23 1024 50 10000 2.57 270 17:28 09.08.2022
2281 Clear 24 1024 46 10000 1.54 190 16:40 09.08.2022
2282 Clear 24 1024 47 10000 3.09 290 15:58 09.08.2022
2283 Clear 23 1025 47 10000 1.54 0 12:52 09.08.2022
2284 Clear 20 1025 67 10000 0.51 0 09:39 09.08.2022
2285 Clear 19 1025 73 10000 0 0 08:50 09.08.2022
2286 Clear 17 1025 80 10000 0 0 07:52 09.08.2022
2287 Clear 11 1024 92 10000 0 0 04:22 09.08.2022
2288 Clouds 14 1023 81 10000 1.03 250 23:27 08.08.2022
2289 Clouds 15 1023 76 10000 1.54 210 22:55 08.08.2022
2290 Clear 16 1022 71 10000 2.57 220 22:18 08.08.2022
2291 Clear 17 1022 63 10000 2.06 230 21:18 08.08.2022
2292 Clear 21 1023 40 10000 2.57 280 19:51 08.08.2022
2293 Clear 22 1021 41 10000 3.09 240 18:45 08.08.2022
2294 Clear 22 1020 47 10000 3.6 250 16:40 08.08.2022
2295 Clear 22 1020 45 10000 4.12 260 15:40 08.08.2022
2296 Clear 21 1020 50 10000 2.57 270 13:50 08.08.2022
2297 Clear 20 1020 54 10000 3.09 300 12:19 08.08.2022
2298 Clear 18 1019 71 10000 3.09 250 09:46 08.08.2022
2299 Clouds 13 1018 87 10000 1.54 250 05:54 08.08.2022
2300 Clouds 13 1018 80 10000 2.06 220 02:55 08.08.2022
2301 Clouds 13 1019 72 10000 2.06 230 22:32 07.08.2022
2302 Clear 16 1018 62 10000 2.06 260 21:39 07.08.2022
2303 Clear 18 1018 52 10000 4.12 270 20:26 07.08.2022
2304 Clear 18 1018 52 10000 4.12 270 20:26 07.08.2022
2305 Clear 19 1018 51 10000 4.12 260 19:55 07.08.2022
2306 Clear 19 1018 50 10000 4.12 260 19:34 07.08.2022
2307 Clear 20 1018 50 10000 4.63 280 18:23 07.08.2022
2308 Clouds 21 1018 52 10000 5.14 280 16:54 07.08.2022
2309 Clouds 21 1018 52 10000 5.14 280 16:35 07.08.2022
2310 Clouds 20 1016 54 10000 4.12 260 15:20 07.08.2022
2311 Clouds 20 1017 64 10000 4.63 270 13:24 07.08.2022
2312 Clouds 19 1017 68 10000 3.6 240 11:27 07.08.2022
2313 Clouds 19 1017 69 10000 2.06 230 10:34 07.08.2022
2314 Clouds 13 1017 85 10000 2.57 240 06:52 07.08.2022
2315 Clouds 10 1016 87 10000 1.54 210 03:20 07.08.2022
2316 Clouds 12 1016 82 10000 2.57 230 00:31 07.08.2022
2317 Clouds 13 1015 79 10000 1.03 0 22:24 06.08.2022
2318 Clouds 15 1014 73 10000 1.54 220 20:42 06.08.2022
2319 Clouds 17 1014 64 10000 2.57 260 19:41 06.08.2022
2320 Clouds 17 1014 60 10000 6.69 310 18:28 06.08.2022
2321 Clear 18 1013 58 10000 3.6 310 17:31 06.08.2022
2322 Clouds 19 1011 56 10000 6.69 290 14:35 06.08.2022
2323 Clouds 19 1011 57 10000 7.2 270 13:44 06.08.2022
2324 Clouds 19 1009 58 10000 8.75 260 11:33 06.08.2022
2325 Clouds 17 1009 78 10000 5.66 220 09:51 06.08.2022
2326 Clouds 15 1008 85 10000 4.63 220 08:32 06.08.2022
2327 Clear 13 1007 87 10000 3.09 230 03:52 06.08.2022
2328 Rain 17 1007 92 10000 2.06 230 23:36 05.08.2022
2329 Drizzle 17 1008 91 10000 2.06 240 22:23 05.08.2022
2330 Clouds 19 1008 91 10000 3.09 180 19:33 05.08.2022
2331 Clouds 19 1007 92 10000 3.09 160 18:46 05.08.2022
2332 Rain 19 1008 92 10000 3.09 160 18:22 05.08.2022
2333 Rain 19 1007 93 3300 2.57 230 16:49 05.08.2022
2334 Rain 20 1007 89 8000 2.57 200 15:22 05.08.2022
2335 Rain 22 1007 78 10000 2.57 200 14:31 05.08.2022
2336 Clouds 25 1008 67 10000 3.09 220 13:24 05.08.2022
2337 Clouds 26 1008 63 10000 5.66 200 12:29 05.08.2022
2338 Clouds 24 1009 75 10000 2.57 200 10:51 05.08.2022
2339 Clouds 19 1009 91 10000 3.09 120 08:27 05.08.2022
2340 Rain 19 1009 89 10000 1.54 0 06:56 05.08.2022
2341 Rain 19 1009 89 10000 1.54 0 06:56 05.08.2022
2342 Clouds 20 1011 78 10000 2.06 250 00:46 05.08.2022
2343 Clouds 22 1010 71 10000 5.66 160 22:32 04.08.2022
2344 Clear 22 1010 73 10000 4.63 140 21:27 04.08.2022
2345 Clear 23 1011 70 10000 4.12 140 20:44 04.08.2022
2346 Clear 24 1010 61 10000 4.63 140 19:48 04.08.2022
2347 Clear 26 1011 55 10000 6.17 140 18:42 04.08.2022
2348 Clear 26 1012 56 10000 4.63 130 18:23 04.08.2022
2349 Clear 26 1013 49 10000 4.63 230 14:38 04.08.2022
2350 Clear 25 1012 51 10000 5.14 240 13:18 04.08.2022
2351 Clouds 24 1012 61 10000 5.14 270 11:20 04.08.2022
2352 Clouds 21 1012 81 10000 3.09 230 07:55 04.08.2022
2353 Clouds 20 1012 85 10000 2.57 220 06:41 04.08.2022
2354 Clear 20 1011 82 10000 2.06 200 02:35 04.08.2022
2355 Clouds 20 1010 76 10000 1.54 180 23:46 03.08.2022
2356 Clouds 20 1010 75 10000 2.06 150 23:27 03.08.2022
2357 Clear 22 1010 67 10000 4.12 200 20:57 03.08.2022
2358 Clouds 22 1010 64 10000 5.14 180 19:56 03.08.2022
2359 Clouds 23 1010 65 10000 6.17 180 18:40 03.08.2022
2360 Clouds 24 1011 68 10000 5.14 210 16:26 03.08.2022
2361 Clouds 24 1012 66 10000 5.14 190 15:47 03.08.2022
2362 Clouds 23 1012 66 10000 5.14 190 13:24 03.08.2022
2363 Clouds 19 1013 75 10000 3.09 180 09:51 03.08.2022
2364 Clouds 15 1012 79 10000 3.6 190 06:29 03.08.2022
2365 Clouds 15 1013 81 10000 4.12 220 04:22 03.08.2022
2366 Clouds 15 1013 84 10000 1.03 170 02:35 03.08.2022
2367 Rain 17 1013 82 10000 1.54 170 23:54 02.08.2022
2368 Clear 18 1013 69 10000 3.6 170 21:59 02.08.2022
2369 Clear 18 1013 68 10000 3.6 170 21:41 02.08.2022
2370 Clear 19 1013 62 10000 3.6 200 20:25 02.08.2022
2371 Clear 22 1012 52 10000 2.06 270 16:51 02.08.2022
2372 Clear 21 1013 53 10000 3.09 240 13:55 02.08.2022
2373 Clouds 18 1012 71 10000 2.06 290 10:44 02.08.2022
2374 Clouds 14 1012 84 10000 3.09 300 08:36 02.08.2022
2375 Clouds 14 1011 86 10000 2.57 340 07:51 02.08.2022
2376 Clouds 13 1010 91 10000 0.51 0 04:56 02.08.2022
2377 Clouds 14 1009 86 10000 1.54 220 02:30 02.08.2022
2378 Clouds 16 1009 74 10000 1.54 170 23:25 01.08.2022
2379 Clear 18 1009 63 10000 2.06 190 21:48 01.08.2022
2380 Clouds 20 1008 58 10000 3.47 179 20:27 01.08.2022
2381 Clear 22 1008 50 10000 3.09 200 18:56 01.08.2022
2382 Clear 23 1009 49 10000 4.12 200 17:22 01.08.2022
2383 Clear 23 1008 46 10000 3.09 170 16:48 01.08.2022
2384 Clear 24 1008 45 10000 3.6 200 15:45 01.08.2022
2385 Clear 23 1009 50 10000 4.12 220 14:57 01.08.2022
2386 Clouds 23 1009 54 10000 3.09 220 13:32 01.08.2022
2387 Clear 22 1009 56 10000 3.6 150 11:18 01.08.2022
2388 Clear 20 1010 65 10000 3.09 150 09:34 01.08.2022
2389 Clear 18 1010 78 10000 3.09 150 07:37 01.08.2022
2390 Clouds 14 1011 85 10000 2.57 150 04:37 01.08.2022
2391 Clouds 15 1011 83 10000 2.06 140 02:24 01.08.2022
2392 Clouds 17 1012 73 10000 3.09 160 22:54 31.07.2022
2393 Clouds 17 1012 71 10000 3.09 160 22:35 31.07.2022
2394 Clear 19 1013 55 10000 3.09 170 20:44 31.07.2022
2395 Clear 22 1013 40 10000 4.63 210 18:42 31.07.2022
2396 Clear 23 1013 36 10000 5.14 190 17:29 31.07.2022
2397 Clear 24 1014 35 10000 4.63 180 14:44 31.07.2022
2398 Clear 24 1014 40 10000 5.14 180 13:19 31.07.2022
2399 Clear 24 1014 47 10000 4.63 190 11:44 31.07.2022
2400 Clouds 20 1015 61 10000 2.06 180 08:47 31.07.2022
2401 Clear 14 1015 71 10000 0.51 0 05:38 31.07.2022
2402 Clear 15 1015 63 10000 3.6 220 02:31 31.07.2022
2403 Clouds 18 1017 50 10000 3.6 210 22:50 30.07.2022
2404 Clouds 19 1017 53 10000 3.09 190 21:55 30.07.2022
2405 Clouds 19 1017 53 10000 3.09 190 21:37 30.07.2022
2406 Clouds 21 1017 51 10000 3.6 200 20:38 30.07.2022
2407 Clouds 22 1017 47 10000 4.12 190 19:57 30.07.2022
2408 Clouds 24 1017 45 10000 5.14 190 18:23 30.07.2022
2409 Clear 24 1017 51 10000 1.54 0 16:44 30.07.2022
2410 Clear 23 1018 51 10000 2.57 210 15:34 30.07.2022
2411 Clear 24 1018 49 10000 4.12 240 14:26 30.07.2022
2412 Clear 22 1019 49 10000 1.03 0 12:33 30.07.2022
2413 Clear 22 1019 49 10000 1.03 0 11:55 30.07.2022
2414 Clear 19 1019 63 10000 2.06 160 10:20 30.07.2022
2415 Clear 19 1020 69 10000 1.54 0 09:42 30.07.2022
2416 Clouds 17 1020 76 10000 1.03 0 07:44 30.07.2022
2417 Clouds 13 1019 81 10000 0 0 02:34 30.07.2022
2418 Clouds 16 1019 72 10000 2.57 220 00:32 30.07.2022
2419 Clear 17 1021 56 10000 2.06 190 21:39 29.07.2022
2420 Clear 18 1021 56 10000 2.57 190 20:57 29.07.2022
2421 Clear 20 1019 51 10000 4.12 190 19:48 29.07.2022
2422 Clear 22 1020 47 10000 3.6 290 17:39 29.07.2022
2423 Clear 21 1020 46 10000 2.06 30 14:51 29.07.2022
2424 Clear 21 1021 45 10000 2.57 330 12:58 29.07.2022
2425 Clear 19 1021 53 10000 1.03 0 09:35 29.07.2022
2426 Clear 17 1021 60 10000 1.03 0 08:46 29.07.2022
2427 Clear 15 1021 77 10000 0 0 07:30 29.07.2022
2428 Clouds 11 1022 84 10000 1.54 70 01:46 29.07.2022
2429 Clear 15 1020 72 10000 4.12 130 21:55 28.07.2022
2430 Clear 17 1019 63 10000 3.6 0 20:55 28.07.2022
2431 Clear 18 1019 58 10000 3.09 280 20:22 28.07.2022
2432 Clear 18 1019 52 10000 2.06 250 19:41 28.07.2022
2433 Clear 19 1019 53 10000 1.54 0 18:26 28.07.2022
2434 Clear 19 1018 50 10000 2.57 330 17:42 28.07.2022
2435 Clear 18 1018 46 10000 3.09 300 16:41 28.07.2022
2436 Clear 18 1018 51 10000 4.12 330 14:58 28.07.2022
2437 Clouds 18 1018 55 10000 4.12 310 12:49 28.07.2022
2438 Clear 15 1015 65 10000 3.6 330 09:45 28.07.2022
2439 Rain 12 1014 73 10000 4.12 340 06:21 28.07.2022
2440 Clouds 12 1013 73 10000 3.6 330 05:26 28.07.2022
2441 Clouds 11 1013 89 10000 1.03 0 00:44 28.07.2022
2442 Clear 14 1010 81 10000 0.51 0 22:31 27.07.2022
2443 Clouds 17 1009 68 10000 4.12 360 20:25 27.07.2022
2444 Clouds 17 1008 66 10000 3.09 320 19:34 27.07.2022
2445 Clouds 18 1008 65 10000 4.12 330 17:23 27.07.2022
2446 Clouds 19 1007 61 10000 3.09 340 15:52 27.07.2022
2447 Clouds 19 1006 64 10000 3.6 320 14:48 27.07.2022
2448 Clouds 19 1006 63 10000 3.6 300 14:30 27.07.2022
2449 Clouds 19 1005 65 10000 4.63 300 12:48 27.07.2022
2450 Clouds 15 1002 82 10000 4.12 250 07:53 27.07.2022
2451 Clouds 15 1002 81 10000 3.6 240 06:18 27.07.2022
2452 Clouds 16 1001 75 10000 3.6 220 00:46 27.07.2022
2453 Clouds 17 1000 68 10000 5.14 240 22:25 26.07.2022
2454 Clouds 18 999 64 10000 5.66 230 21:20 26.07.2022
2455 Clouds 19 999 62 10000 6.17 250 19:59 26.07.2022
2456 Clouds 20 999 61 10000 6.17 240 18:41 26.07.2022
2457 Clouds 20 999 64 10000 5.14 230 17:57 26.07.2022
2458 Clouds 21 998 73 10000 4.63 190 15:50 26.07.2022
2459 Rain 20 999 75 10000 5.66 220 14:49 26.07.2022
2460 Clouds 20 998 75 10000 4.63 240 12:50 26.07.2022
2461 Clouds 19 998 85 10000 5.14 250 10:58 26.07.2022
2462 Clouds 18 997 93 10000 3.6 200 08:43 26.07.2022
2463 Rain 18 998 93 10000 3.6 160 05:30 26.07.2022
2464 Clouds 19 1003 82 10000 4.12 170 00:27 26.07.2022
2465 Clouds 19 1004 80 10000 3.6 150 22:51 25.07.2022
2466 Rain 19 1004 81 10000 3.09 150 22:22 25.07.2022
2467 Clear 19 1005 82 10000 2.06 190 21:38 25.07.2022
2468 Clear 21 1005 71 10000 5.14 190 20:40 25.07.2022
2469 Clear 21 1004 73 10000 2.57 160 19:27 25.07.2022
2470 Clear 22 1004 71 10000 5.14 170 18:18 25.07.2022
2471 Clear 22 1005 72 10000 4.63 180 17:27 25.07.2022
2472 Clouds 21 1005 73 10000 4.12 210 14:32 25.07.2022
2473 Clouds 21 1006 70 10000 3.6 190 11:50 25.07.2022
2474 Clouds 20 1008 74 10000 3.6 180 09:18 25.07.2022
2475 Clouds 15 1010 81 10000 2.06 160 03:23 25.07.2022
2476 Clouds 16 1011 79 10000 1.54 230 23:54 24.07.2022
2477 Clouds 17 1011 72 10000 2.57 250 22:56 24.07.2022
2478 Clear 18 1011 70 10000 3.6 250 22:26 24.07.2022
2479 Clear 19 1011 70 10000 4.63 260 21:19 24.07.2022
2480 Clouds 20 1011 68 10000 7.2 250 20:47 24.07.2022
2481 Clear 21 1011 65 10000 6.17 270 20:19 24.07.2022
2482 Clear 23 1010 53 10000 4.63 250 18:38 24.07.2022
2483 Clear 24 1011 46 10000 3.6 250 16:29 24.07.2022
2484 Clear 24 1011 47 10000 3.09 300 15:45 24.07.2022
2485 Clear 23 1011 50 10000 4.63 290 14:19 24.07.2022
2486 Clouds 22 1012 55 10000 3.09 320 12:54 24.07.2022
2487 Clouds 22 1012 48 10000 3.6 280 11:40 24.07.2022
2488 Clouds 21 1011 58 10000 2.06 280 11:00 24.07.2022
2489 Clouds 18 1011 77 10000 3.09 320 08:32 24.07.2022
2490 Clouds 17 1011 79 10000 4.12 300 07:52 24.07.2022
2491 Clouds 15 1011 85 10000 2.57 270 05:44 24.07.2022
2492 Clouds 15 1011 83 10000 2.57 310 00:28 24.07.2022
2493 Clouds 16 1011 80 10000 1.54 280 21:37 23.07.2022
2494 Clouds 16 1011 84 10000 2.57 280 20:19 23.07.2022
2495 Clouds 17 1011 80 10000 1.03 0 18:50 23.07.2022
2496 Clouds 17 1011 80 10000 2.06 20 17:28 23.07.2022
2497 Clouds 17 1011 79 10000 2.06 20 16:35 23.07.2022
2498 Clouds 17 1011 80 10000 3.09 20 15:22 23.07.2022
2499 Clouds 16 1011 82 10000 4.12 350 14:59 23.07.2022
2500 Clouds 16 1011 83 10000 3.09 360 14:28 23.07.2022
2501 Clouds 17 1010 80 10000 3.09 360 13:26 23.07.2022
2502 Clouds 17 1010 80 10000 3.6 340 10:49 23.07.2022
2503 Clouds 17 1010 80 10000 3.6 340 10:21 23.07.2022
2504 Clouds 15 1009 85 10000 2.57 320 08:39 23.07.2022
2505 Clouds 16 1009 88 6000 3.09 330 03:39 23.07.2022
2506 Clouds 17 1010 90 10000 2.06 350 01:27 23.07.2022
2507 Clouds 18 1010 85 10000 4.12 80 22:42 22.07.2022
2508 Clouds 19 1011 83 10000 4.12 70 20:52 22.07.2022
2509 Clouds 19 1010 82 10000 3.6 50 19:35 22.07.2022
2510 Clouds 20 1010 81 10000 0.45 45 18:28 22.07.2022
2511 Clouds 20 1011 79 10000 4.63 60 16:49 22.07.2022
2512 Clouds 21 1011 78 10000 4.63 30 14:54 22.07.2022
2513 Clear 23 1011 70 10000 4.12 360 11:22 22.07.2022
2514 Clear 23 1011 71 10000 3.09 20 09:26 22.07.2022
2515 Clear 22 1010 75 10000 1.54 0 08:32 22.07.2022
2516 Clouds 19 1009 83 10000 1.03 310 05:19 22.07.2022
2517 Clouds 21 1008 75 10000 2.06 140 00:48 22.07.2022
2518 Clear 23 1009 66 10000 3.09 130 22:25 21.07.2022
2519 Clear 25 1009 59 10000 4.12 140 21:29 21.07.2022
2520 Clear 30 1011 42 10000 5.14 180 19:27 21.07.2022
2521 Clear 31 1012 42 10000 4.63 170 17:41 21.07.2022
2522 Clear 32 1011 41 10000 4.63 210 17:19 21.07.2022
2523 Clear 32 1012 36 10000 4.63 190 14:55 21.07.2022
2524 Clear 31 1012 37 10000 5.14 200 14:31 21.07.2022
2525 Clear 31 1012 47 10000 3.09 240 12:28 21.07.2022
2526 Clear 29 1013 52 10000 2.06 180 11:19 21.07.2022
2527 Clear 26 1013 62 10000 1.54 200 09:33 21.07.2022
2528 Clear 25 1012 62 10000 2.06 210 08:50 21.07.2022
2529 Clear 22 1012 73 10000 1.03 0 07:42 21.07.2022
2530 Clouds 17 1014 90 10000 0 0 05:47 21.07.2022
2531 Clouds 19 1015 77 10000 2.06 170 00:43 21.07.2022
2532 Clear 21 1016 71 10000 1.54 180 22:22 20.07.2022
2533 Clear 23 1016 61 10000 2.57 170 20:55 20.07.2022
2534 Clear 25 1016 55 10000 3.6 170 19:52 20.07.2022
2535 Clear 25 1016 55 10000 4.12 170 19:24 20.07.2022
2536 Clear 26 1016 54 10000 3.6 190 18:34 20.07.2022
2537 Clear 26 1017 52 10000 4.63 200 18:00 20.07.2022
2538 Clear 27 1017 49 10000 5.14 180 16:45 20.07.2022
2539 Clear 27 1018 52 10000 4.12 190 15:32 20.07.2022
2540 Clear 27 1018 57 10000 3.6 170 14:20 20.07.2022
2541 Clear 27 1018 57 10000 3.6 170 14:20 20.07.2022
2542 Clear 27 1018 57 10000 3.6 170 14:20 20.07.2022
2543 Clear 25 1019 60 10000 2.57 180 11:34 20.07.2022
2544 Clear 22 1019 73 10000 2.06 210 09:41 20.07.2022
2545 Clouds 13 1018 89 10000 0 0 03:49 20.07.2022
2546 Clouds 14 1018 76 10000 1.03 160 00:51 20.07.2022
2547 Clouds 15 1018 66 10000 2.06 150 23:41 19.07.2022
2548 Clouds 16 1018 61 10000 2.57 140 22:33 19.07.2022
2549 Clouds 17 1017 58 10000 2.7 143 21:35 19.07.2022
2550 Clear 19 1017 51 10000 5.14 110 20:33 19.07.2022
2551 Clear 21 1017 53 10000 4.12 110 18:58 19.07.2022
2552 Clear 21 1017 55 10000 4.63 100 18:28 19.07.2022
2553 Clear 22 1016 58 10000 4.12 100 17:46 19.07.2022
2554 Clouds 23 1016 60 10000 2.57 310 14:57 19.07.2022
2555 Clear 22 1015 67 10000 3.09 350 11:44 19.07.2022
2556 Clouds 21 1014 70 10000 3.6 30 10:55 19.07.2022
2557 Clear 20 1014 75 10000 2.57 350 09:25 19.07.2022
2558 Clear 19 1014 78 10000 2.06 330 08:39 19.07.2022
2559 Clear 17 1013 86 10000 2.57 290 07:19 19.07.2022
2560 Clouds 14 1013 92 10000 0.51 230 05:30 19.07.2022
2561 Clouds 14 1013 92 10000 0 0 04:56 19.07.2022
2562 Clouds 15 1012 88 10000 1.54 240 01:50 19.07.2022
2563 Clouds 17 1012 82 10000 2.06 250 23:49 18.07.2022
2564 Clouds 18 1013 78 10000 2.06 260 23:18 18.07.2022
2565 Clear 19 1013 78 10000 4.12 270 22:18 18.07.2022
2566 Clouds 19 1012 83 10000 1.54 200 20:51 18.07.2022
2567 Clear 20 1012 81 10000 1.03 150 19:33 18.07.2022
2568 Clouds 20 1013 73 10000 4.63 260 17:52 18.07.2022
2569 Clouds 22 1013 60 10000 5.14 230 15:57 18.07.2022
2570 Clouds 21 1012 57 10000 3.6 220 15:18 18.07.2022
2571 Clouds 21 1014 63 10000 4.63 260 13:24 18.07.2022
2572 Clouds 21 1014 67 10000 4.63 250 11:31 18.07.2022
2573 Clear 20 1014 72 10000 3.6 240 09:43 18.07.2022
2574 Clear 17 1014 80 10000 3.6 250 07:45 18.07.2022
2575 Clouds 13 1015 78 10000 0 0 02:21 18.07.2022
2576 Clouds 16 1015 62 10000 2.06 260 22:52 17.07.2022
2577 Clear 17 1014 56 10000 2.57 260 22:25 17.07.2022
2578 Clear 18 1015 53 10000 4.63 280 21:26 17.07.2022
2579 Clear 19 1016 46 10000 6.17 280 20:44 17.07.2022
2580 Clear 20 1014 49 10000 5.14 270 19:49 17.07.2022
2581 Clear 20 1014 47 10000 6.17 290 19:19 17.07.2022
2582 Clear 20 1014 46 10000 5.66 270 17:39 17.07.2022
2583 Clear 21 1014 44 10000 5.14 270 16:51 17.07.2022
2584 Clear 20 1015 44 10000 4.63 270 16:27 17.07.2022
2585 Clear 20 1015 47 10000 5.14 300 15:27 17.07.2022
2586 Clear 18 1015 51 10000 5.66 280 13:34 17.07.2022
2587 Clear 18 1015 52 10000 5.14 260 12:22 17.07.2022
2588 Clouds 16 1015 60 10000 4.63 280 09:31 17.07.2022
2589 Clouds 13 1014 68 10000 3.09 290 06:37 17.07.2022
2590 Clouds 13 1014 65 10000 3.6 300 02:33 17.07.2022
2591 Clouds 14 1012 63 10000 2.57 300 23:22 16.07.2022
2592 Clouds 14 1012 63 10000 2.57 300 23:22 16.07.2022
2593 Clouds 15 1012 62 10000 4.63 300 21:57 16.07.2022
2594 Clouds 15 1011 64 10000 4.63 300 20:28 16.07.2022
2595 Clouds 15 1011 65 10000 5.66 310 18:42 16.07.2022
2596 Clouds 16 1009 54 10000 7.2 300 17:24 16.07.2022
2597 Clouds 15 1010 48 10000 6.69 280 15:41 16.07.2022
2598 Clouds 15 1008 55 10000 6.69 280 11:55 16.07.2022
2599 Clouds 15 1006 60 10000 5.14 280 09:37 16.07.2022
2600 Clear 14 1006 64 10000 5.14 300 08:58 16.07.2022
2601 Clear 13 1006 65 10000 5.14 300 08:33 16.07.2022
2602 Clouds 12 1006 74 10000 4.12 280 06:47 16.07.2022
2603 Clouds 12 1006 72 10000 3.09 260 03:31 16.07.2022
2604 Clouds 11 1006 77 10000 3.09 260 23:52 15.07.2022
2605 Clouds 11 1006 76 10000 2.57 250 22:44 15.07.2022
2606 Clear 12 1006 71 10000 4.12 290 21:52 15.07.2022
2607 Clear 14 1006 71 10000 4.12 270 20:32 15.07.2022
2608 Rain 14 1006 62 10000 7.72 280 18:46 15.07.2022
2609 Clear 15 1005 59 10000 7.2 290 17:51 15.07.2022
2610 Clouds 16 1005 57 10000 8.75 290 16:23 15.07.2022
2611 Clouds 16 1004 56 10000 7.72 290 13:48 15.07.2022
2612 Clouds 15 1003 58 10000 7.2 290 12:22 15.07.2022
2613 Clouds 15 1004 63 10000 6.17 290 10:52 15.07.2022
2614 Clear 13 1003 70 10000 5.14 300 07:47 15.07.2022
2615 Clouds 12 1002 87 10000 3.6 290 02:47 15.07.2022
2616 Clouds 13 1002 89 10000 2.57 260 00:39 15.07.2022
2617 Clouds 13 1002 88 10000 3.09 230 22:56 14.07.2022
2618 Clear 14 1002 84 10000 2.06 260 21:59 14.07.2022
2619 Clear 14 1002 84 10000 2.06 250 21:37 14.07.2022
2620 Clear 15 1002 83 10000 2.06 250 21:18 14.07.2022
2621 Clear 15 1002 83 10000 5.66 290 20:41 14.07.2022
2622 Clear 15 1003 79 10000 4.63 270 20:18 14.07.2022
2623 Clouds 17 1004 79 10000 1.03 0 17:25 14.07.2022
2624 Rain 16 1004 73 10000 1.03 0 16:18 14.07.2022
2625 Rain 19 1002 58 10000 5.66 220 14:44 14.07.2022
2626 Rain 19 1002 58 10000 5.66 220 14:44 14.07.2022
2627 Clear 20 1002 51 10000 5.14 250 13:39 14.07.2022
2628 Clouds 19 1003 52 10000 5.14 260 12:23 14.07.2022
2629 Clear 19 1003 54 10000 6.17 270 11:26 14.07.2022
2630 Clear 18 1003 57 10000 5.14 270 10:49 14.07.2022
2631 Clear 15 1003 65 10000 5.66 330 08:28 14.07.2022
2632 Clear 14 1002 77 10000 2.06 280 03:42 14.07.2022
2633 Clear 16 1002 72 10000 6.17 270 00:55 14.07.2022
2634 Clear 17 1002 72 10000 6.17 260 23:41 13.07.2022
2635 Clear 18 1002 72 10000 5.14 240 22:27 13.07.2022
2636 Clear 19 1002 70 10000 2.57 230 21:37 13.07.2022
2637 Rain 19 1002 67 10000 3.6 240 20:38 13.07.2022
2638 Clear 22 1003 56 10000 5.14 240 18:22 13.07.2022
2639 Clouds 23 1003 60 10000 7.72 280 17:22 13.07.2022
2640 Clouds 24 1003 60 10000 6.69 270 15:59 13.07.2022
2641 Clear 24 1004 60 10000 4.12 270 13:50 13.07.2022
2642 Clear 24 1006 63 10000 3.09 260 11:30 13.07.2022
2643 Clear 23 1006 67 10000 4.12 270 10:44 13.07.2022
2644 Clear 21 1007 73 10000 3.09 240 09:29 13.07.2022
2645 Clear 19 1007 77 10000 3.09 270 08:23 13.07.2022
2646 Clouds 16 1009 82 10000 1.54 0 04:36 13.07.2022
2647 Clouds 17 1011 66 10000 2.57 270 00:47 13.07.2022
2648 Clouds 18 1012 69 10000 1.54 190 22:46 12.07.2022
2649 Clear 20 1014 49 10000 1.54 80 21:49 12.07.2022
2650 Clear 23 1014 42 10000 2.57 330 20:53 12.07.2022
2651 Clear 25 1014 37 10000 3.6 310 19:54 12.07.2022
2652 Clear 26 1013 38 10000 4.63 320 18:43 12.07.2022
2653 Clear 26 1013 38 10000 4.63 300 17:23 12.07.2022
2654 Clear 25 1014 42 10000 3.09 340 15:32 12.07.2022
2655 Clear 24 1017 45 10000 4.12 340 13:43 12.07.2022
2656 Clear 23 1016 49 10000 5.14 340 11:55 12.07.2022
2657 Clear 22 1016 53 10000 4.63 340 10:45 12.07.2022
2658 Clear 20 1017 62 10000 2.57 340 08:59 12.07.2022
2659 Clear 17 1017 71 10000 2.06 330 07:55 12.07.2022
2660 Clouds 12 1017 91 10000 1.54 300 05:53 12.07.2022
2661 Clouds 11 1017 92 10000 1.54 290 05:34 12.07.2022
2662 Clear 12 1017 93 8000 0 0 01:32 12.07.2022
2663 Clear 14 1017 89 250 0 0 22:48 11.07.2022
2664 Clear 16 1018 89 10000 1.54 240 21:34 11.07.2022
2665 Clear 18 1018 77 10000 0 0 20:33 11.07.2022
2666 Clouds 19 1016 74 10000 0.51 0 19:28 11.07.2022
2667 Rain 18 1016 78 10000 2.57 70 18:30 11.07.2022
2668 Clouds 19 1016 73 10000 2.57 340 16:34 11.07.2022
2669 Rain 21 1014 61 10000 5.14 320 15:33 11.07.2022
2670 Clouds 21 1015 56 10000 3.09 320 13:37 11.07.2022
2671 Clouds 20 1015 60 10000 4.12 330 11:33 11.07.2022
2672 Clouds 19 1014 66 10000 3.6 340 10:18 11.07.2022
2673 Clouds 18 1014 69 10000 3.6 10 09:40 11.07.2022
2674 Clouds 16 1014 79 10000 3.6 330 08:33 11.07.2022
2675 Clouds 11 1013 92 10000 1.54 300 02:59 11.07.2022
2676 Clear 12 1013 92 10000 1.54 290 00:20 11.07.2022
2677 Clouds 14 1012 90 10000 1.03 0 22:55 10.07.2022
2678 Clouds 15 1012 83 10000 2.06 280 21:39 10.07.2022
2679 Clouds 16 1012 82 10000 2.06 270 20:41 10.07.2022
2680 Clouds 16 1011 80 10000 2.06 290 19:48 10.07.2022
2681 Clouds 16 1011 77 10000 1.03 0 18:43 10.07.2022
2682 Rain 17 1011 68 10000 2.57 290 17:37 10.07.2022
2683 Rain 18 1010 65 10000 3.09 330 16:45 10.07.2022
2684 Clouds 17 1010 64 10000 3.6 330 15:25 10.07.2022
2685 Clouds 17 1010 64 10000 4.12 310 14:21 10.07.2022
2686 Clouds 16 1009 64 10000 4.63 290 12:27 10.07.2022
2687 Clouds 16 1008 64 10000 4.12 310 10:20 10.07.2022
2688 Clouds 15 1008 73 10000 1.54 330 08:45 10.07.2022
2689 Clouds 14 1008 77 10000 2.06 340 07:30 10.07.2022
2690 Clouds 13 1008 76 10000 1.03 0 01:33 10.07.2022
2691 Clouds 15 1009 61 10000 2.57 300 22:43 09.07.2022
2692 Clouds 15 1009 61 10000 4.12 290 22:24 09.07.2022
2693 Clouds 18 1006 53 10000 4.63 280 20:46 09.07.2022
2694 Clouds 19 1007 48 10000 3.6 290 18:38 09.07.2022
2695 Clouds 19 1007 52 10000 5.66 310 17:45 09.07.2022
2696 Clear 21 1006 44 10000 5.66 290 16:44 09.07.2022
2697 Clear 21 1006 43 10000 5.66 280 15:41 09.07.2022
2698 Clear 21 1007 46 10000 4.63 280 14:43 09.07.2022
2699 Clear 21 1007 50 10000 6.17 280 13:50 09.07.2022
2700 Clouds 20 1007 54 10000 5.14 260 12:47 09.07.2022
2701 Clouds 19 1007 61 10000 5.14 270 11:31 09.07.2022
2702 Clouds 18 1007 76 10000 4.63 270 10:22 09.07.2022
2703 Clouds 16 1008 82 10000 2.57 230 07:53 09.07.2022
2704 Clouds 15 1009 86 10000 1.54 210 05:24 09.07.2022
2705 Clouds 15 1011 84 10000 2.06 180 02:34 09.07.2022
2706 Clouds 15 1013 83 10000 1.03 150 22:59 08.07.2022
2707 Clear 17 1013 77 10000 1.54 180 21:59 08.07.2022
2708 Clear 18 1015 71 10000 2.06 220 20:55 08.07.2022
2709 Clear 19 1016 71 10000 3.6 210 20:24 08.07.2022
2710 Clear 19 1016 67 10000 3.09 120 18:29 08.07.2022
2711 Clear 19 1016 67 10000 3.09 120 18:29 08.07.2022
2712 Clouds 19 1016 68 10000 3.6 110 17:21 08.07.2022
2713 Clouds 19 1016 68 10000 3.6 110 17:21 08.07.2022
2714 Clouds 19 1014 72 10000 0.45 158 14:54 08.07.2022
2715 Clouds 19 1015 64 10000 3.6 120 13:45 08.07.2022
2716 Rain 20 1015 67 10000 3.6 320 12:28 08.07.2022
2717 Clear 20 1014 67 10000 0.89 293 10:37 08.07.2022
2718 Clear 17 1014 81 10000 1.03 0 08:44 08.07.2022
2719 Clear 14 1014 93 10000 0 0 06:50 08.07.2022
2720 Fog 10 1014 92 2100 0.51 290 01:49 08.07.2022
2721 Clear 12 1013 91 10000 0 0 23:41 07.07.2022
2722 Clear 13 1013 90 10000 1.03 260 22:38 07.07.2022
2723 Clear 16 1012 83 10000 2.57 70 20:40 07.07.2022
2724 Clouds 16 1011 86 10000 2.06 60 18:23 07.07.2022
2725 Clouds 16 1011 89 10000 3.09 30 17:19 07.07.2022
2726 Rain 14 1010 90 8000 1.54 40 15:18 07.07.2022
2727 Rain 14 1009 91 4000 2.06 20 13:25 07.07.2022
2728 Rain 14 1008 89 3600 2.57 350 12:37 07.07.2022
2729 Rain 14 1008 90 2900 1.54 340 12:18 07.07.2022
2730 Drizzle 14 1008 88 4800 1.54 0 11:29 07.07.2022
2731 Drizzle 14 1006 88 6000 1.54 200 10:42 07.07.2022
2732 Clouds 14 1006 88 10000 2.06 210 10:24 07.07.2022
2733 Rain 13 1008 84 10000 2.57 240 07:22 07.07.2022
2734 Clouds 13 1008 71 10000 4.12 240 02:55 07.07.2022
2735 Clear 15 1009 68 10000 3.12 251 23:37 06.07.2022
2736 Clear 16 1008 63 10000 3.6 250 23:18 06.07.2022
2737 Clear 16 1008 63 10000 3.6 250 22:56 06.07.2022
2738 Clear 17 1008 63 10000 3.6 250 22:38 06.07.2022
2739 Clear 18 1008 72 10000 2.06 150 20:54 06.07.2022
2740 Clear 19 1009 72 10000 3.6 150 19:35 06.07.2022
2741 Clouds 19 1009 67 10000 2.06 180 17:32 06.07.2022
2742 Rain 19 1010 66 10000 4.63 200 15:59 06.07.2022
2743 Clouds 21 1010 58 10000 5.14 250 14:33 06.07.2022
2744 Clouds 20 1010 61 10000 4.12 240 12:35 06.07.2022
2745 Clouds 19 1010 61 10000 3.6 220 11:48 06.07.2022
2746 Clouds 18 1011 69 10000 3.6 220 10:18 06.07.2022
2747 Clouds 15 1011 79 10000 3.6 230 07:44 06.07.2022
2748 Clouds 15 1011 80 10000 4.63 230 07:20 06.07.2022
2749 Clouds 13 1011 82 10000 3.09 220 02:55 06.07.2022
2750 Clouds 16 1011 69 10000 3.09 240 22:45 05.07.2022
2751 Clear 17 1011 65 10000 4.12 240 21:36 05.07.2022
2752 Clear 18 1011 62 10000 5.14 250 20:38 05.07.2022
2753 Clouds 19 1011 60 10000 5.66 250 19:41 05.07.2022
2754 Clear 19 1011 61 10000 5.14 250 19:21 05.07.2022
2755 Clouds 19 1009 63 10000 5.66 240 17:46 05.07.2022
2756 Clouds 19 1009 63 10000 5.66 240 16:39 05.07.2022
2757 Clouds 17 1010 72 10000 4.12 240 15:24 05.07.2022
2758 Clouds 19 1010 60 10000 5.14 210 13:47 05.07.2022
2759 Clouds 19 1010 61 10000 5.66 230 12:42 05.07.2022
2760 Clouds 18 1009 63 10000 5.66 250 11:24 05.07.2022
2761 Clouds 18 1009 64 10000 5.66 250 10:31 05.07.2022
2762 Clouds 16 1009 77 10000 5.14 240 08:25 05.07.2022
2763 Clear 15 1009 82 10000 4.63 240 07:31 05.07.2022
2764 Clouds 13 1009 91 10000 3.09 220 04:46 05.07.2022
2765 Clouds 13 1009 90 10000 2.06 230 02:48 05.07.2022
2766 Clouds 15 1009 91 10000 0 0 23:42 04.07.2022
2767 Clouds 16 1009 91 10000 1.03 0 22:59 04.07.2022
2768 Clouds 16 1009 91 10000 1.54 160 22:20 04.07.2022
2769 Clear 17 1009 87 10000 1.54 170 21:18 04.07.2022
2770 Clear 18 1009 86 10000 1.54 150 20:50 04.07.2022
2771 Clear 18 1009 86 10000 1.54 150 20:50 04.07.2022
2772 Clear 18 1009 86 10000 1.54 150 20:32 04.07.2022
2773 Clear 17 1009 88 10000 1.03 0 19:44 04.07.2022
2774 Clear 17 1009 88 10000 2.57 170 19:25 04.07.2022
2775 Rain 16 1010 87 10000 2.57 210 17:42 04.07.2022
2776 Clear 20 1008 76 10000 2.57 150 15:44 04.07.2022
2777 Rain 17 1012 82 10000 4.63 120 14:42 04.07.2022
2778 Rain 18 1013 79 10000 4.12 170 13:27 04.07.2022
2779 Rain 20 1011 69 10000 4.63 160 11:43 04.07.2022
2780 Rain 20 1011 69 10000 5.66 140 10:33 04.07.2022
2781 Clouds 21 1012 70 10000 5.14 150 09:40 04.07.2022
2782 Clear 18 1013 84 10000 4.12 150 06:53 04.07.2022
2783 Clear 15 1014 88 10000 3.6 140 03:30 04.07.2022
2784 Clouds 16 1015 81 10000 2.57 130 00:27 04.07.2022
2785 Clouds 18 1016 72 10000 3.09 160 22:58 03.07.2022
2786 Clouds 21 1018 63 10000 3.19 188 20:47 03.07.2022
2787 Clouds 21 1018 58 10000 3.2 197 20:21 03.07.2022
2788 Clear 22 1017 52 10000 4.63 180 19:26 03.07.2022
2789 Clear 22 1016 54 10000 3.6 180 18:32 03.07.2022
2790 Clear 22 1017 53 10000 4.63 190 17:43 03.07.2022
2791 Clear 24 1017 49 10000 4.63 240 15:28 03.07.2022
2792 Clear 23 1017 49 10000 4.63 250 14:57 03.07.2022
2793 Clear 23 1017 47 10000 4.12 240 13:50 03.07.2022
2794 Clear 23 1017 50 10000 4.63 260 13:27 03.07.2022
2795 Clear 22 1017 52 10000 4.63 210 12:22 03.07.2022
2796 Clouds 21 1017 57 10000 4.63 220 10:55 03.07.2022
2797 Clouds 22 1017 56 10000 4.63 220 10:36 03.07.2022
2798 Clouds 20 1018 64 10000 3.6 210 08:48 03.07.2022
2799 Clear 18 1018 73 10000 3.6 230 07:34 03.07.2022
2800 Clear 13 1017 85 10000 2.06 220 01:39 03.07.2022
2801 Clear 16 1017 73 10000 1.54 250 23:50 02.07.2022
2802 Clear 18 1018 64 10000 3.6 260 22:32 02.07.2022
2803 Clouds 21 1017 58 10000 4.63 240 20:37 02.07.2022
2804 Clouds 22 1015 54 10000 5.14 250 19:50 02.07.2022
2805 Clouds 22 1015 54 10000 5.14 240 19:19 02.07.2022
2806 Clouds 22 1015 55 10000 5.66 260 17:40 02.07.2022
2807 Clear 22 1015 59 10000 6.17 250 16:35 02.07.2022
2808 Clouds 20 1014 74 10000 6.17 250 13:51 02.07.2022
2809 Clouds 21 1014 78 10000 5.66 260 11:52 02.07.2022
2810 Clouds 23 1013 77 10000 4.63 170 10:53 02.07.2022
2811 Clouds 23 1012 81 10000 4.63 170 10:32 02.07.2022
2812 Clouds 21 1012 87 10000 6.69 150 08:39 02.07.2022
2813 Clouds 21 1010 88 10000 6.69 150 08:19 02.07.2022
2814 Clouds 20 1010 93 10000 4.12 100 05:59 02.07.2022
2815 Clouds 19 1012 90 10000 1.54 100 00:47 02.07.2022
2816 Clear 20 1012 89 10000 2.06 130 23:31 01.07.2022
2817 Clear 20 1013 88 10000 3.09 120 22:36 01.07.2022
2818 Clear 22 1013 84 10000 4.63 130 21:39 01.07.2022
2819 Clear 23 1013 82 10000 6.17 110 20:59 01.07.2022
2820 Clear 23 1012 82 10000 6.17 110 20:37 01.07.2022
2821 Clouds 23 1013 79 10000 6.17 130 19:41 01.07.2022
2822 Clouds 24 1012 76 10000 4.63 160 17:45 01.07.2022
2823 Clouds 23 1013 80 10000 5.66 130 15:21 01.07.2022
2824 Clouds 23 1013 85 10000 3.09 160 13:54 01.07.2022
2825 Clouds 20 1014 94 10000 5.14 150 11:49 01.07.2022
2826 Clouds 20 1013 94 8000 6.69 130 10:19 01.07.2022
2827 Drizzle 20 1012 93 10000 6.17 120 08:46 01.07.2022
2828 Clouds 19 1016 89 10000 2.57 150 02:49 01.07.2022
2829 Clouds 20 1016 87 10000 4.12 110 00:25 01.07.2022
2830 Clouds 21 1016 83 10000 3.6 110 22:54 30.06.2022
2831 Clouds 21 1013 82 10000 3.6 110 22:32 30.06.2022
2832 Clouds 22 1016 83 10000 4.63 110 21:59 30.06.2022
2833 Clouds 22 1016 83 10000 4.63 110 21:34 30.06.2022
2834 Clouds 23 1014 80 10000 5.14 110 20:22 30.06.2022
2835 Clouds 24 1016 73 10000 5.14 110 19:53 30.06.2022
2836 Clouds 24 1013 76 10000 6.17 110 19:18 30.06.2022
2837 Clouds 25 1014 74 10000 7.72 120 18:35 30.06.2022
2838 Clouds 26 1016 71 10000 5.14 110 17:38 30.06.2022
2839 Clouds 25 1015 71 10000 5.66 70 16:48 30.06.2022
2840 Clouds 27 1016 63 10000 4.63 100 14:47 30.06.2022
2841 Clouds 27 1017 54 10000 4.63 70 13:30 30.06.2022
2842 Clouds 26 1017 69 10000 3.09 100 12:35 30.06.2022
2843 Clouds 25 1016 71 10000 2.57 70 11:28 30.06.2022
2844 Clouds 24 1016 78 10000 2.06 80 09:53 30.06.2022
2845 Clouds 23 1016 79 10000 2.06 80 09:32 30.06.2022
2846 Clouds 21 1016 87 10000 2.57 70 07:51 30.06.2022
2847 Clouds 20 1016 92 8000 1.54 0 05:57 30.06.2022
2848 Clouds 20 1017 83 10000 2.57 100 00:32 30.06.2022
2849 Clouds 21 1015 81 10000 1.54 0 23:21 29.06.2022
2850 Clouds 21 1017 78 10000 1.03 240 22:39 29.06.2022
2851 Clouds 22 1016 76 10000 2.06 280 21:34 29.06.2022
2852 Clouds 23 1015 76 10000 2.06 250 20:33 29.06.2022
2853 Clouds 23 1015 74 10000 0.51 0 19:37 29.06.2022
2854 Clouds 23 1015 75 10000 1.03 0 17:45 29.06.2022
2855 Clouds 23 1016 72 10000 1.03 0 16:38 29.06.2022
2856 Clouds 23 1016 71 10000 1.03 0 14:56 29.06.2022
2857 Clouds 23 1016 69 10000 2.57 300 12:40 29.06.2022
2858 Clouds 21 1015 77 10000 3.6 340 11:19 29.06.2022
2859 Clouds 18 1015 88 10000 3.09 280 09:33 29.06.2022
2860 Clouds 18 1016 88 10000 2.57 320 07:44 29.06.2022
2861 Clouds 18 1016 88 10000 3.6 290 04:55 29.06.2022
2862 Clouds 18 1015 84 10000 4.12 270 00:58 29.06.2022
2863 Clouds 19 1015 83 10000 4.12 270 00:36 29.06.2022
2864 Clouds 19 1014 81 10000 4.12 270 22:54 28.06.2022
2865 Clouds 20 1017 77 10000 4.12 270 22:34 28.06.2022
2866 Rain 20 1016 78 10000 5.14 280 21:55 28.06.2022
2867 Clear 20 1016 77 10000 5.14 280 21:33 28.06.2022
2868 Clear 21 1013 73 10000 5.66 280 20:44 28.06.2022
2869 Clear 25 1014 66 10000 6.17 280 19:34 28.06.2022
2870 Clear 27 1015 58 10000 5.14 130 18:53 28.06.2022
2871 Clear 28 1013 55 10000 5.14 140 17:40 28.06.2022
2872 Clear 28 1014 52 10000 7.2 140 15:59 28.06.2022
2873 Clear 28 1014 51 10000 7.2 140 15:38 28.06.2022
2874 Clear 30 1014 49 10000 7.72 130 14:21 28.06.2022
2875 Clear 30 1014 49 10000 7.72 130 14:21 28.06.2022
2876 Clear 29 1014 50 10000 8.75 140 13:52 28.06.2022
2877 Clear 30 1014 48 10000 7.2 120 12:57 28.06.2022
2878 Clear 29 1014 53 10000 7.72 120 11:18 28.06.2022
2879 Clear 28 1014 58 10000 5.14 120 09:30 28.06.2022
2880 Clear 26 1014 61 10000 5.66 110 08:44 28.06.2022
2881 Clear 24 1015 71 10000 4.63 120 07:42 28.06.2022
2882 Clear 23 1015 78 10000 3.09 120 06:56 28.06.2022
2883 Clear 20 1015 77 10000 3.6 130 00:58 28.06.2022
2884 Clouds 21 1016 75 10000 3.6 130 23:37 27.06.2022
2885 Clouds 22 1015 70 10000 3.6 130 22:52 27.06.2022
2886 Clear 25 1017 53 10000 4.12 140 21:38 27.06.2022
2887 Clear 26 1017 52 10000 5.66 140 20:52 27.06.2022
2888 Clear 27 1016 55 10000 5.66 140 19:33 27.06.2022
2889 Clear 28 1016 53 10000 6.69 140 18:25 27.06.2022
2890 Clear 29 1017 50 10000 7.72 140 16:20 27.06.2022
2891 Clear 30 1017 49 10000 6.69 140 15:23 27.06.2022
2892 Clear 30 1017 49 10000 5.66 130 13:37 27.06.2022
2893 Clear 29 1017 50 10000 6.17 140 12:56 27.06.2022
2894 Clear 28 1018 50 10000 5.14 150 10:34 27.06.2022
2895 Clear 27 1018 59 10000 4.12 150 09:20 27.06.2022
2896 Clear 24 1018 66 10000 3.09 150 08:29 27.06.2022
2897 Clear 22 1018 75 10000 1.54 140 06:38 27.06.2022
2898 Clouds 18 1018 86 10000 1.54 0 03:55 27.06.2022
2899 Clear 20 1018 82 10000 2.06 140 00:56 27.06.2022
2900 Clear 23 1016 71 10000 3.09 150 22:18 26.06.2022
2901 Clear 26 1018 50 10000 4.12 140 20:44 26.06.2022
2902 Clear 27 1018 55 10000 4.63 150 19:40 26.06.2022
2903 Clear 28 1016 52 10000 5.14 150 18:31 26.06.2022
2904 Clear 29 1018 49 10000 4.12 170 16:47 26.06.2022
2905 Clear 29 1017 49 10000 5.14 140 15:26 26.06.2022
2906 Clear 29 1017 49 10000 5.14 150 13:41 26.06.2022
2907 Clear 29 1017 47 10000 5.14 140 13:20 26.06.2022
2908 Clouds 27 1017 51 10000 2.57 90 11:26 26.06.2022
2909 Clouds 27 1018 49 10000 1.54 0 10:27 26.06.2022
2910 Clouds 26 1018 53 10000 1.54 120 09:34 26.06.2022
2911 Clouds 23 1017 65 10000 1.54 130 07:44 26.06.2022
2912 Clear 16 1017 83 10000 1.03 150 02:28 26.06.2022
2913 Clear 18 1016 74 10000 2.06 140 00:21 26.06.2022
2914 Clear 19 1016 72 10000 2.57 150 23:49 25.06.2022
2915 Clear 19 1016 70 10000 3.09 140 23:23 25.06.2022
2916 Clear 21 1015 64 10000 3.6 150 22:27 25.06.2022
2917 Clear 23 1017 53 10000 3.6 150 21:41 25.06.2022
2918 Clear 23 1017 60 10000 4.12 140 21:18 25.06.2022
2919 Clouds 24 1015 56 10000 4.12 140 20:28 25.06.2022
2920 Clouds 26 1015 51 10000 4.12 160 19:21 25.06.2022
2921 Clouds 27 1015 48 10000 5.14 150 17:57 25.06.2022
2922 Clear 27 1015 48 10000 5.14 160 17:22 25.06.2022
2923 Clear 27 1015 47 10000 7.2 140 15:36 25.06.2022
2924 Clear 27 1015 47 10000 6.17 140 13:41 25.06.2022
2925 Clear 27 1015 46 10000 5.14 150 12:38 25.06.2022
2926 Clear 26 1015 54 10000 5.14 130 10:45 25.06.2022
2927 Clear 24 1015 61 10000 4.12 140 09:20 25.06.2022
2928 Clear 23 1015 66 10000 3.6 140 08:41 25.06.2022
2929 Clear 22 1015 68 10000 3.6 140 08:19 25.06.2022
2930 Clear 15 1014 89 10000 1.03 120 04:18 25.06.2022
2931 Clear 17 1013 84 10000 2.06 140 00:38 25.06.2022
2932 Clear 18 1013 74 10000 3.09 150 22:55 24.06.2022
2933 Clear 20 1012 68 10000 3.6 150 21:44 24.06.2022
2934 Clear 22 1014 57 10000 5.14 150 20:57 24.06.2022
2935 Clear 22 1012 60 10000 4.63 160 20:19 24.06.2022
2936 Clear 24 1012 54 10000 5.14 160 19:22 24.06.2022
2937 Clear 24 1012 53 10000 5.66 140 18:49 24.06.2022
2938 Clear 25 1012 53 10000 5.14 150 18:30 24.06.2022
2939 Clear 26 1012 51 10000 4.63 210 17:21 24.06.2022
2940 Clear 26 1012 47 10000 4.12 190 15:51 24.06.2022
2941 Clear 26 1012 49 10000 3.6 240 14:28 24.06.2022
2942 Clear 26 1013 49 10000 3.6 210 13:55 24.06.2022
2943 Clear 25 1013 54 10000 3.09 210 11:44 24.06.2022
2944 Clear 24 1013 57 10000 3.6 180 11:22 24.06.2022
2945 Clear 23 1013 60 10000 3.09 190 10:19 24.06.2022
2946 Clear 23 1013 62 10000 3.09 220 09:40 24.06.2022
2947 Clear 20 1013 71 10000 3.09 250 08:52 24.06.2022
2948 Clear 17 1013 81 10000 2.57 240 06:49 24.06.2022
2949 Clouds 17 1013 83 10000 2.06 240 06:31 24.06.2022
2950 Clouds 16 1013 84 10000 2.06 220 05:55 24.06.2022
2951 Clouds 16 1012 83 10000 1.54 230 01:36 24.06.2022
2952 Clear 19 1011 71 10000 2.06 220 22:55 23.06.2022
2953 Clear 20 1012 68 10000 2.06 220 22:33 23.06.2022
2954 Clear 24 1011 50 10000 3.6 210 20:56 23.06.2022
2955 Clear 24 1011 52 10000 3.6 210 20:32 23.06.2022
2956 Clear 25 1011 56 10000 4.63 190 18:59 23.06.2022
2957 Clear 25 1009 53 10000 5.14 200 17:50 23.06.2022
2958 Clear 25 1009 55 10000 6.17 240 16:50 23.06.2022
2959 Clear 25 1009 55 10000 5.66 240 15:43 23.06.2022
2960 Clear 25 1009 55 10000 4.63 240 15:23 23.06.2022
2961 Clear 23 1009 58 10000 4.63 220 13:32 23.06.2022
2962 Clear 20 1009 66 10000 4.12 210 11:23 23.06.2022
2963 Clear 18 1009 71 10000 3.6 200 10:31 23.06.2022
2964 Clear 16 1009 79 10000 4.12 220 08:35 23.06.2022
2965 Clouds 13 1008 89 10000 1.54 200 02:38 23.06.2022
2966 Clouds 15 1008 84 10000 3.09 230 00:26 23.06.2022
2967 Clouds 16 1007 84 10000 2.06 180 23:27 22.06.2022
2968 Clear 16 1007 79 10000 2.06 180 22:31 22.06.2022
2969 Clear 18 1006 75 10000 2.57 200 21:21 22.06.2022
2970 Clear 19 1006 72 10000 2.57 180 20:34 22.06.2022
2971 Clouds 20 1007 72 10000 3.09 190 19:52 22.06.2022
2972 Clear 21 1008 60 10000 2.57 200 18:21 22.06.2022
2973 Clear 21 1006 64 10000 3.09 270 17:26 22.06.2022
2974 Clouds 21 1006 65 10000 3.6 250 16:18 22.06.2022
2975 Clouds 20 1005 64 10000 3.6 280 15:26 22.06.2022
2976 Clouds 20 1006 65 10000 3.09 270 14:18 22.06.2022
2977 Clouds 20 1005 65 10000 2.57 280 13:37 22.06.2022
2978 Clouds 20 1005 60 10000 3.6 270 13:18 22.06.2022
2979 Clouds 19 1008 63 10000 1.54 260 11:48 22.06.2022
2980 Clouds 18 1008 72 10000 1.54 0 10:54 22.06.2022
2981 Clouds 17 1006 79 10000 1.03 0 09:54 22.06.2022
2982 Clouds 15 1006 89 10000 1.03 0 07:58 22.06.2022
2983 Rain 15 1005 79 10000 1.54 210 03:40 22.06.2022
2984 Clouds 16 1006 71 10000 2.06 180 01:23 22.06.2022
2985 Clouds 16 1006 69 10000 4.63 220 23:42 21.06.2022
2986 Clear 17 1005 58 10000 3.09 180 21:49 21.06.2022
2987 Clear 21 1006 49 10000 4.12 200 19:50 21.06.2022
2988 Clear 22 1006 49 10000 5.14 200 18:32 21.06.2022
2989 Clear 23 1005 47 10000 4.63 220 17:25 21.06.2022
2990 Clear 21 1006 46 10000 3.09 280 13:45 21.06.2022
2991 Clear 20 1006 52 10000 2.57 200 11:31 21.06.2022
2992 Clear 19 1006 59 10000 1.03 0 09:48 21.06.2022
2993 Clear 17 1006 71 10000 1.54 0 08:37 21.06.2022
2994 Clear 13 1006 87 10000 0 0 06:35 21.06.2022
2995 Clear 10 1006 89 10000 1.03 260 00:44 21.06.2022
2996 Clear 12 1006 85 10000 0 0 23:18 20.06.2022
2997 Clear 15 1005 75 10000 2.57 90 21:52 20.06.2022
2998 Clear 16 1008 70 10000 2.57 100 20:50 20.06.2022
2999 Clear 17 1007 67 10000 3.6 120 19:39 20.06.2022
3000 Clouds 17 1006 67 10000 2.57 100 18:46 20.06.2022
3001 Clouds 17 1007 69 10000 3.09 100 17:59 20.06.2022
3002 Clouds 17 1007 70 10000 3.09 70 17:32 20.06.2022
3003 Clouds 17 1007 73 10000 2.06 70 15:57 20.06.2022
3004 Rain 15 1008 77 10000 3.6 360 12:56 20.06.2022
3005 Clouds 15 1007 77 10000 4.12 280 11:18 20.06.2022
3006 Clouds 15 1008 77 10000 4.63 340 09:41 20.06.2022
3007 Clouds 14 1008 79 10000 2.06 330 08:44 20.06.2022
3008 Clear 13 1007 83 10000 2.57 350 06:37 20.06.2022
3009 Clear 10 1007 83 10000 1.03 340 02:56 20.06.2022
3010 Clear 12 1005 69 10000 2.06 50 00:32 20.06.2022
3011 Clouds 15 1007 48 10000 2.57 40 23:18 19.06.2022
3012 Clear 18 1006 42 10000 2.06 250 21:59 19.06.2022
3013 Clear 18 1006 42 10000 2.06 250 21:40 19.06.2022
3014 Clear 20 1006 32 10000 4.12 260 20:44 19.06.2022
3015 Clear 20 1004 38 10000 4.12 260 19:48 19.06.2022
3016 Clear 20 1004 38 10000 4.12 260 19:23 19.06.2022
3017 Clear 20 1004 37 10000 5.14 290 18:31 19.06.2022
3018 Clear 20 1004 37 10000 5.14 280 17:34 19.06.2022
3019 Clear 20 1004 39 10000 5.14 280 16:38 19.06.2022
3020 Clear 20 1004 42 10000 6.17 300 15:44 19.06.2022
3021 Clear 20 1004 42 10000 5.14 250 15:25 19.06.2022
3022 Clear 19 1004 48 10000 5.66 280 14:20 19.06.2022
3023 Clouds 19 1004 51 10000 5.66 290 13:43 19.06.2022
3024 Clear 18 1004 54 10000 3.09 240 11:52 19.06.2022
3025 Clouds 18 1004 53 10000 2.57 260 10:49 19.06.2022
3026 Clouds 16 1004 58 10000 3.6 280 08:55 19.06.2022
3027 Clouds 15 1004 59 10000 3.09 290 08:30 19.06.2022
3028 Clouds 13 1004 70 10000 3.09 310 06:41 19.06.2022
3029 Clouds 12 1003 75 10000 1.54 360 03:19 19.06.2022
3030 Clouds 15 1002 58 10000 7.2 250 00:27 19.06.2022
3031 Clouds 16 1002 55 10000 6.69 260 23:37 18.06.2022
3032 Clouds 16 1002 54 10000 6.69 260 23:19 18.06.2022
3033 Clear 18 1001 51 10000 6.17 270 21:54 18.06.2022
3034 Clear 19 1001 50 10000 5.66 270 20:50 18.06.2022
3035 Clouds 20 1001 43 10000 7.72 260 19:50 18.06.2022
3036 Clouds 21 1001 45 10000 7.2 260 18:54 18.06.2022
3037 Clouds 21 1001 48 10000 6.69 250 18:30 18.06.2022
3038 Clouds 21 1001 59 10000 6.69 250 17:28 18.06.2022
3039 Clouds 19 1004 69 10000 5.14 240 15:39 18.06.2022
3040 Clouds 18 1004 68 10000 6.17 250 14:50 18.06.2022
3041 Clouds 18 1004 76 10000 6.17 250 13:54 18.06.2022
3042 Clouds 17 1002 87 10000 3.6 230 12:25 18.06.2022
3043 Clouds 16 1004 88 9000 4.12 220 10:59 18.06.2022
3044 Clouds 15 1004 92 6000 4.12 210 09:31 18.06.2022
3045 Clouds 15 1005 92 10000 3.6 210 08:37 18.06.2022
3046 Drizzle 15 1005 92 8000 3.09 200 07:33 18.06.2022
3047 Rain 14 1007 91 10000 3.09 190 05:19 18.06.2022
3048 Clouds 17 1010 71 10000 3.6 240 01:47 18.06.2022
3049 Clouds 17 1010 70 10000 3.6 250 01:21 18.06.2022
3050 Clouds 18 1011 68 10000 4.63 250 00:23 18.06.2022
3051 Clouds 18 1012 69 10000 5.14 250 23:36 17.06.2022
3052 Clear 18 1012 72 10000 3.6 210 22:27 17.06.2022
3053 Clear 19 1012 65 10000 5.14 170 20:29 17.06.2022
3054 Clouds 20 1013 60 10000 3.6 200 19:20 17.06.2022
3055 Clear 22 1012 48 10000 3.09 190 17:56 17.06.2022
3056 Clear 23 1013 44 10000 2.57 220 16:44 17.06.2022
3057 Clear 22 1015 35 10000 3.6 260 16:25 17.06.2022
3058 Clear 22 1016 43 10000 3.6 220 15:37 17.06.2022
3059 Clear 22 1015 49 10000 4.12 290 14:23 17.06.2022
3060 Clear 22 1015 49 10000 4.12 290 14:23 17.06.2022
3061 Clear 23 1015 47 10000 2.57 270 13:58 17.06.2022
3062 Clear 23 1015 49 10000 2.57 270 13:38 17.06.2022
3063 Clear 22 1015 51 10000 3.09 290 12:24 17.06.2022
3064 Clouds 22 1015 57 10000 2.06 280 11:55 17.06.2022
3065 Clouds 21 1015 58 10000 2.06 280 11:33 17.06.2022
3066 Clear 18 1015 76 10000 1.54 0 08:58 17.06.2022
3067 Clear 17 1015 79 10000 2.06 300 08:25 17.06.2022
3068 Clear 14 1015 93 10000 1.54 280 06:44 17.06.2022
3069 Clouds 11 1014 94 3100 1.03 250 03:45 17.06.2022
3070 Fog 12 1016 92 2600 0.51 210 01:56 17.06.2022
3071 Clouds 13 1014 91 10000 1.54 250 23:35 16.06.2022
3072 Clouds 14 1014 88 10000 0.51 240 22:42 16.06.2022
3073 Clear 16 1014 83 10000 1.54 230 21:22 16.06.2022
3074 Clouds 16 1014 86 10000 1.54 0 20:51 16.06.2022
3075 Clouds 16 1014 86 10000 1.54 200 20:32 16.06.2022
3076 Thunderstorm 16 1014 83 10000 3.09 100 19:32 16.06.2022
3077 Rain 18 1012 61 10000 5.66 210 18:24 16.06.2022
3078 Rain 20 1014 46 10000 3.6 140 17:35 16.06.2022
3079 Clouds 20 1014 58 10000 4.12 260 16:30 16.06.2022
3080 Clouds 20 1014 53 10000 4.12 300 15:21 16.06.2022
3081 Clouds 21 1013 55 10000 5.66 300 14:30 16.06.2022
3082 Clouds 21 1012 51 10000 5.14 330 13:19 16.06.2022
3083 Clouds 21 1012 57 10000 4.12 350 12:35 16.06.2022
3084 Clouds 20 1012 62 10000 3.09 300 11:49 16.06.2022
3085 Clouds 20 1012 66 10000 2.57 260 10:54 16.06.2022
3086 Clear 19 1012 68 10000 2.06 320 09:43 16.06.2022
3087 Clear 18 1012 70 10000 2.57 270 09:20 16.06.2022
3088 Clear 17 1012 74 10000 2.06 260 07:57 16.06.2022
3089 Clear 16 1012 79 10000 2.06 310 07:24 16.06.2022
3090 Clouds 14 1012 87 10000 0 0 04:33 16.06.2022
3091 Drizzle 14 1012 86 10000 1.03 220 02:19 16.06.2022
3092 Clouds 14 1012 85 10000 0 0 01:34 16.06.2022
3093 Clouds 14 1012 85 10000 0 0 01:34 16.06.2022
3094 Clouds 15 1012 82 10000 1.03 260 00:38 16.06.2022
3095 Clouds 15 1012 80 10000 2.06 220 23:33 15.06.2022
3096 Clouds 16 1013 77 10000 2.06 230 22:35 15.06.2022
3097 Clear 17 1013 71 10000 0.51 0 21:21 15.06.2022
3098 Clear 17 1012 71 10000 1.54 210 20:38 15.06.2022
3099 Clear 17 1012 69 10000 3.09 230 20:19 15.06.2022
3100 Clouds 19 1013 66 10000 5.66 230 19:19 15.06.2022
3101 Clouds 22 1012 42 10000 3.6 240 17:55 15.06.2022
3102 Clear 22 1013 48 10000 4.12 300 16:40 15.06.2022
3103 Clear 21 1013 51 10000 6.17 300 15:36 15.06.2022
3104 Clear 21 1013 51 10000 4.12 280 13:44 15.06.2022
3105 Clear 20 1014 50 10000 3.6 270 12:54 15.06.2022
3106 Clear 19 1014 52 10000 4.12 300 11:52 15.06.2022
3107 Clear 19 1014 51 10000 2.06 330 10:24 15.06.2022
3108 Clear 18 1013 55 10000 2.06 20 09:39 15.06.2022
3109 Clear 16 1013 64 10000 3.09 30 08:30 15.06.2022
3110 Clear 14 1013 81 10000 1.54 0 06:33 15.06.2022
3111 Clouds 9 1012 92 10000 0 0 03:59 15.06.2022
3112 Clouds 10 1012 91 10000 1.03 290 01:54 15.06.2022
3113 Clouds 11 1012 90 10000 1.54 270 00:50 15.06.2022
3114 Clouds 12 1012 89 10000 2.06 240 23:39 14.06.2022
3115 Clouds 12 1012 89 10000 1.03 0 23:18 14.06.2022
3116 Clouds 13 1012 82 10000 0 0 22:18 14.06.2022
3117 Clouds 15 1012 78 10000 0 0 21:33 14.06.2022
3118 Rain 16 1012 64 10000 1.54 310 20:48 14.06.2022
3119 Clouds 18 1011 61 10000 2.57 290 20:28 14.06.2022
3120 Clouds 19 1010 60 10000 1.54 0 18:54 14.06.2022
3121 Clouds 19 1010 64 10000 0 0 17:40 14.06.2022
3122 Clouds 17 1010 78 10000 1.54 0 16:43 14.06.2022
3123 Clouds 18 1010 68 10000 2.57 40 15:50 14.06.2022
3124 Clouds 18 1010 67 10000 3.09 40 15:22 14.06.2022
3125 Clouds 18 1009 71 10000 3.09 110 14:32 14.06.2022
3126 Clouds 17 1010 75 10000 1.54 110 13:41 14.06.2022
3127 Thunderstorm 16 1011 77 10000 1.54 60 12:42 14.06.2022
3128 Clouds 19 1009 63 10000 5.66 310 11:31 14.06.2022
3129 Clouds 19 1009 63 10000 5.14 310 10:47 14.06.2022
3130 Clouds 18 1008 63 10000 4.12 310 09:48 14.06.2022
3131 Clear 17 1008 69 10000 2.57 310 08:46 14.06.2022
3132 Clear 15 1007 76 10000 2.57 300 07:33 14.06.2022
3133 Clouds 12 1007 83 10000 1.54 260 05:19 14.06.2022
3134 Clouds 11 1006 85 10000 0 0 02:49 14.06.2022
3135 Clouds 12 1006 77 10000 0.51 240 00:32 14.06.2022
3136 Clouds 14 1006 70 10000 2.06 270 23:27 13.06.2022
3137 Clear 15 1006 67 10000 2.06 220 22:26 13.06.2022
3138 Clear 15 1006 67 10000 2.06 210 21:49 13.06.2022
3139 Clear 17 1005 59 10000 3.09 240 20:31 13.06.2022
3140 Clear 18 1005 55 10000 4.63 240 19:34 13.06.2022
3141 Clear 18 1005 57 10000 3.6 240 18:25 13.06.2022
3142 Clear 18 1005 58 10000 4.12 260 17:46 13.06.2022
3143 Clouds 18 1005 54 10000 5.66 250 16:52 13.06.2022
3144 Clouds 18 1005 56 10000 7.72 260 15:38 13.06.2022
3145 Clouds 18 1005 62 10000 4.12 270 14:43 13.06.2022
3146 Clouds 19 1005 57 10000 5.66 240 13:53 13.06.2022
3147 Clouds 19 1005 59 10000 5.14 230 12:48 13.06.2022
3148 Clouds 17 1006 64 10000 5.14 240 11:26 13.06.2022
3149 Clouds 16 1006 69 10000 5.14 250 10:27 13.06.2022
3150 Clouds 16 1006 72 10000 4.63 260 09:38 13.06.2022
3151 Clouds 14 1006 78 10000 5.14 230 07:51 13.06.2022
3152 Clouds 13 1006 82 10000 3.6 230 06:28 13.06.2022
3153 Clouds 12 1006 84 10000 3.09 220 03:18 13.06.2022
3154 Clouds 13 1006 82 10000 2.57 220 01:38 13.06.2022
3155 Clouds 13 1007 80 10000 3.6 220 00:22 13.06.2022
3156 Clouds 14 1007 79 10000 3.6 220 23:25 12.06.2022
3157 Clear 14 1007 78 10000 3.09 220 22:22 12.06.2022
3158 Clear 15 1007 74 10000 4.12 210 21:28 12.06.2022
3159 Clouds 16 1007 74 10000 3.6 200 20:34 12.06.2022
3160 Clear 17 1007 71 10000 5.14 210 19:36 12.06.2022
3161 Rain 18 1008 61 10000 6.17 210 18:39 12.06.2022
3162 Clear 20 1008 52 10000 6.17 250 16:42 12.06.2022
3163 Clear 20 1009 49 10000 5.14 250 15:24 12.06.2022
3164 Clear 20 1009 50 10000 5.14 240 14:31 12.06.2022
3165 Clear 20 1010 53 10000 5.66 260 13:55 12.06.2022
3166 Clouds 19 1010 55 10000 6.69 260 12:46 12.06.2022
3167 Clouds 19 1011 59 10000 5.66 240 11:40 12.06.2022
3168 Clouds 18 1011 61 10000 6.17 260 10:45 12.06.2022
3169 Clouds 17 1011 67 10000 6.17 250 09:25 12.06.2022
3170 Clouds 16 1012 71 10000 6.17 240 08:48 12.06.2022
3171 Clouds 14 1012 75 10000 5.14 250 07:39 12.06.2022
3172 Clouds 13 1013 76 10000 4.63 240 05:38 12.06.2022
3173 Clouds 11 1014 82 10000 1.54 220 03:38 12.06.2022
3174 Clear 13 1014 78 10000 1.54 230 01:43 12.06.2022
3175 Clouds 12 1014 78 10000 1.54 200 00:58 12.06.2022
3176 Clouds 12 1014 76 10000 1.03 200 00:26 12.06.2022
3177 Clouds 13 1014 74 10000 1.54 210 23:53 11.06.2022
3178 Clouds 16 1013 66 10000 2.06 240 22:40 11.06.2022
3179 Clouds 16 1013 62 10000 2.06 260 22:21 11.06.2022
3180 Clouds 19 1014 54 10000 4.63 260 20:50 11.06.2022
3181 Clouds 20 1012 52 10000 5.14 270 20:21 11.06.2022
3182 Clouds 21 1012 56 10000 3.6 210 19:26 11.06.2022
3183 Clouds 20 1012 66 10000 3.6 200 18:36 11.06.2022
3184 Clouds 21 1012 66 10000 4.12 200 17:52 11.06.2022
3185 Clear 21 1012 65 10000 4.63 200 17:29 11.06.2022
3186 Clear 21 1012 65 10000 4.63 210 16:58 11.06.2022
3187 Clouds 20 1013 66 10000 5.14 210 16:30 11.06.2022
3188 Clear 20 1013 65 10000 5.66 200 15:43 11.06.2022
3189 Clouds 19 1013 72 10000 4.12 190 13:53 11.06.2022
3190 Clouds 19 1015 72 10000 4.12 210 13:24 11.06.2022
3191 Clouds 19 1013 67 10000 3.6 220 10:58 11.06.2022
3192 Clear 19 1013 68 10000 3.6 220 10:20 11.06.2022
3193 Clouds 18 1013 73 10000 2.06 210 09:29 11.06.2022
3194 Clouds 16 1015 79 10000 3.6 250 07:46 11.06.2022
3195 Clear 14 1015 84 10000 2.57 240 06:30 11.06.2022
3196 Clear 12 1015 86 10000 2.57 230 05:21 11.06.2022
3197 Clouds 14 1014 86 10000 1.54 230 01:53 11.06.2022
3198 Clouds 14 1014 86 10000 1.54 230 01:33 11.06.2022
3199 Clouds 15 1014 84 10000 2.06 260 00:22 11.06.2022
3200 Clouds 17 1014 83 10000 4.12 270 22:33 10.06.2022
3201 Clouds 18 1013 79 10000 5.14 280 21:53 10.06.2022
3202 Clouds 19 1013 80 10000 2.06 190 20:43 10.06.2022
3203 Rain 19 1013 77 10000 2.06 250 20:23 10.06.2022
3204 Clouds 19 1013 77 10000 4.12 260 19:48 10.06.2022
3205 Clouds 20 1013 73 10000 4.12 230 19:18 10.06.2022
3206 Clouds 21 1013 68 10000 4.12 210 18:19 10.06.2022
3207 Clouds 22 1013 67 10000 4.12 210 17:36 10.06.2022
3208 Clouds 22 1013 64 10000 4.63 160 16:56 10.06.2022
3209 Clouds 22 1013 61 10000 4.12 140 15:48 10.06.2022
3210 Clear 23 1013 60 10000 2.57 140 15:19 10.06.2022
3211 Clouds 23 1013 61 10000 2.57 150 13:44 10.06.2022
3212 Clear 19 1015 59 10000 2.57 130 12:28 10.06.2022
3213 Clear 19 1015 67 10000 1.54 0 11:40 10.06.2022
3214 Clear 19 1014 70 10000 1.03 0 10:40 10.06.2022
3215 Clouds 17 1014 74 10000 2.57 140 09:43 10.06.2022
3216 Clear 17 1014 75 10000 2.06 160 08:23 10.06.2022
3217 Clouds 15 1013 81 10000 2.06 130 06:52 10.06.2022
3218 Clouds 15 1013 81 10000 2.06 130 06:32 10.06.2022
3219 Clouds 13 1013 86 10000 2.06 150 05:45 10.06.2022
3220 Clouds 12 1013 85 10000 1.03 150 02:55 10.06.2022
3221 Clouds 13 1013 83 10000 1.03 150 01:37 10.06.2022
3222 Clouds 14 1012 81 10000 1.03 0 23:58 09.06.2022
3223 Clouds 15 1012 78 10000 0 0 23:25 09.06.2022
3224 Clear 17 1011 70 10000 2.57 220 21:47 09.06.2022
3225 Clear 18 1011 68 10000 1.54 240 21:29 09.06.2022
3226 Clear 19 1012 64 10000 2.06 260 20:47 09.06.2022
3227 Clear 20 1012 61 10000 3.09 290 19:55 09.06.2022
3228 Clear 21 1010 59 10000 3.6 290 18:47 09.06.2022
3229 Clouds 21 1010 59 10000 3.09 270 18:21 09.06.2022
3230 Clouds 21 1010 58 10000 4.63 250 16:46 09.06.2022
3231 Clouds 21 1009 60 10000 4.12 240 15:47 09.06.2022
3232 Clear 20 1009 62 10000 5.14 270 14:35 09.06.2022
3233 Clouds 19 1009 64 10000 5.14 280 13:47 09.06.2022
3234 Clouds 19 1009 65 10000 5.14 270 13:26 09.06.2022
3235 Clouds 19 1009 65 10000 5.14 270 11:53 09.06.2022
3236 Clouds 18 1008 70 10000 5.66 270 10:51 09.06.2022
3237 Clouds 16 1008 73 10000 5.66 250 09:42 09.06.2022
3238 Clouds 16 1007 74 10000 5.66 250 09:23 09.06.2022
3239 Clouds 15 1007 80 10000 5.14 270 07:44 09.06.2022
3240 Clear 13 1006 84 10000 2.57 220 05:47 09.06.2022
3241 Clouds 14 1005 83 10000 3.09 210 01:59 09.06.2022
3242 Clouds 15 1005 79 10000 2.57 190 23:34 08.06.2022
3243 Clouds 15 1005 77 10000 3.6 210 22:51 08.06.2022
3244 Clear 15 1004 75 10000 3.09 190 22:26 08.06.2022
3245 Clear 16 1004 74 10000 3.6 190 21:52 08.06.2022
3246 Clear 17 1004 69 10000 3.09 200 20:57 08.06.2022
3247 Clear 17 1004 67 10000 3.6 190 19:50 08.06.2022
3248 Clear 18 1004 65 10000 4.12 200 19:18 08.06.2022
3249 Clear 18 1004 64 10000 5.14 190 18:42 08.06.2022
3250 Clouds 18 1004 64 10000 4.63 200 16:34 08.06.2022
3251 Clear 20 1003 59 10000 5.66 180 15:27 08.06.2022
3252 Clear 20 1004 55 10000 6.17 190 13:36 08.06.2022
3253 Clouds 20 1004 61 10000 4.63 170 11:51 08.06.2022
3254 Clouds 20 1004 64 10000 3.6 190 11:24 08.06.2022
3255 Clouds 19 1005 79 10000 3.6 150 09:47 08.06.2022
3256 Clouds 18 1005 83 10000 3.6 130 09:20 08.06.2022
3257 Clouds 15 1005 88 10000 3.6 140 08:18 08.06.2022
3258 Clouds 13 1006 92 10000 3.09 130 05:36 08.06.2022
3259 Clouds 13 1007 90 10000 1.54 100 02:39 08.06.2022
3260 Clouds 13 1007 86 10000 2.06 100 00:21 08.06.2022
3261 Clouds 13 1007 86 10000 0.45 90 23:25 07.06.2022
3262 Clouds 14 1008 85 10000 2.57 100 22:42 07.06.2022
3263 Clear 14 1008 83 10000 3.6 110 21:59 07.06.2022
3264 Clear 14 1009 83 10000 3.6 110 21:28 07.06.2022
3265 Clear 14 1009 83 10000 3.6 90 20:52 07.06.2022
3266 Clear 14 1009 83 10000 3.09 80 20:31 07.06.2022
3267 Clear 15 1009 84 10000 3.09 80 19:24 07.06.2022
3268 Clear 15 1010 83 10000 3.09 80 17:57 07.06.2022
3269 Clouds 16 1010 82 10000 3.09 90 17:19 07.06.2022
3270 Rain 17 1010 76 10000 4.12 130 16:39 07.06.2022
3271 Clear 19 1011 62 10000 3.6 100 15:43 07.06.2022
3272 Clear 19 1011 61 10000 3.09 80 15:23 07.06.2022
3273 Clear 19 1011 61 10000 4.12 70 14:46 07.06.2022
3274 Rain 19 1011 57 10000 4.12 70 13:58 07.06.2022
3275 Rain 18 1011 58 10000 3.6 70 13:29 07.06.2022
3276 Clear 19 1011 57 10000 4.63 60 12:44 07.06.2022
3277 Clear 18 1012 54 10000 4.12 110 11:31 07.06.2022
3278 Clear 17 1012 55 10000 3.6 90 10:19 07.06.2022
3279 Clear 17 1012 60 10000 3.6 100 08:49 07.06.2022
3280 Clear 17 1012 60 10000 3.6 100 08:49 07.06.2022
3281 Clear 14 1014 71 10000 2.06 80 07:23 07.06.2022
3282 Clouds 11 1015 81 10000 2.06 80 05:56 07.06.2022
3283 Clouds 9 1016 81 10000 2.06 80 03:18 07.06.2022
3284 Clouds 10 1017 74 10000 1.03 0 00:35 07.06.2022
3285 Clouds 11 1017 71 10000 1.54 130 23:35 06.06.2022
3286 Clouds 12 1018 68 10000 1.54 100 22:45 06.06.2022
3287 Clear 13 1018 63 10000 3.09 120 21:43 06.06.2022
3288 Clear 14 1018 58 10000 4.12 110 20:19 06.06.2022
3289 Clear 16 1018 52 10000 4.12 110 19:23 06.06.2022
3290 Clear 16 1018 47 10000 4.63 100 18:46 06.06.2022
3291 Clear 17 1019 45 10000 5.66 110 17:51 06.06.2022
3292 Clear 17 1019 40 10000 5.66 100 16:39 06.06.2022
3293 Clear 17 1020 41 10000 5.14 100 15:40 06.06.2022
3294 Clear 17 1020 43 10000 4.63 110 14:57 06.06.2022
3295 Clear 17 1020 44 10000 6.17 100 13:37 06.06.2022
3296 Clear 17 1021 46 10000 6.69 110 12:44 06.06.2022
3297 Clear 17 1021 47 10000 7.2 110 12:26 06.06.2022
3298 Clear 17 1021 46 10000 6.69 110 11:45 06.06.2022
3299 Clear 16 1021 50 10000 5.66 110 09:43 06.06.2022
3300 Clear 14 1021 55 10000 5.66 110 08:36 06.06.2022
3301 Clear 13 1021 59 10000 5.14 100 07:43 06.06.2022
3302 Clear 13 1021 62 10000 4.12 100 06:43 06.06.2022
3303 Clouds 11 1021 72 10000 3.6 80 04:28 06.06.2022
3304 Clouds 11 1022 75 10000 3.07 110 01:30 06.06.2022
3305 Clouds 11 1022 75 10000 3.04 107 00:47 06.06.2022
3306 Clouds 12 1021 75 10000 3.01 103 00:28 06.06.2022
3307 Clouds 13 1020 62 10000 3.09 70 22:58 05.06.2022
3308 Clear 15 1020 41 10000 4.12 90 21:59 05.06.2022
3309 Clear 16 1019 56 10000 4.63 90 20:23 05.06.2022
3310 Clear 18 1019 55 10000 5.66 90 18:51 05.06.2022
3311 Clouds 19 1018 56 10000 4.63 80 17:59 05.06.2022
3312 Clouds 19 1018 56 10000 4.63 80 17:38 05.06.2022
3313 Clear 19 1018 55 10000 5.14 80 17:19 05.06.2022
3314 Clear 20 1018 52 10000 3.6 30 16:47 05.06.2022
3315 Clear 20 1018 56 10000 4.12 360 15:22 05.06.2022
3316 Clear 20 1018 48 10000 4.63 310 14:18 05.06.2022
3317 Clear 19 1018 61 10000 5.66 260 11:58 05.06.2022
3318 Clouds 19 1018 59 10000 6.17 280 10:45 05.06.2022
3319 Clouds 19 1018 62 10000 4.63 270 10:24 05.06.2022
3320 Clouds 18 1018 64 10000 5.14 240 09:29 05.06.2022
3321 Clouds 17 1018 66 10000 5.14 240 08:23 05.06.2022
3322 Clouds 13 1018 79 10000 1.54 0 05:58 05.06.2022
3323 Clouds 12 1018 81 10000 1.54 220 05:19 05.06.2022
3324 Clouds 11 1018 86 10000 1.03 0 02:43 05.06.2022
3325 Clouds 12 1019 83 10000 1.03 0 01:23 05.06.2022
3326 Clouds 12 1019 83 10000 1.03 0 01:23 05.06.2022
3327 Clouds 14 1018 73 10000 2.57 200 22:49 04.06.2022
3328 Clouds 17 1018 60 10000 2.06 230 21:30 04.06.2022
3329 Clouds 19 1018 42 10000 4.12 300 19:27 04.06.2022
3330 Clear 20 1018 45 10000 3.6 280 16:48 04.06.2022
3331 Clear 20 1016 50 10000 4.63 290 16:20 04.06.2022
3332 Clouds 19 1016 51 10000 4.63 260 15:39 04.06.2022
3333 Clouds 19 1017 61 10000 4.12 290 13:59 04.06.2022
3334 Clouds 17 1017 69 10000 2.57 320 11:41 04.06.2022
3335 Clouds 17 1016 72 10000 3.6 300 10:54 04.06.2022
3336 Clouds 16 1016 76 10000 3.09 330 09:56 04.06.2022
3337 Clouds 16 1016 75 10000 3.09 330 09:38 04.06.2022
3338 Clear 14 1016 82 10000 3.09 340 08:38 04.06.2022
3339 Clouds 12 1015 89 10000 2.57 280 06:32 04.06.2022
3340 Clouds 11 1014 91 10000 1.54 240 03:57 04.06.2022
3341 Clouds 12 1013 91 10000 3.09 240 00:22 04.06.2022
3342 Clouds 12 1013 91 10000 3.09 220 22:57 03.06.2022
3343 Clear 13 1012 88 10000 2.06 230 21:54 03.06.2022
3344 Clear 14 1012 84 10000 2.06 240 20:40 03.06.2022
3345 Clouds 14 1013 85 10000 2.57 210 19:49 03.06.2022
3346 Clouds 17 1011 69 10000 4.63 230 16:59 03.06.2022
3347 Clouds 17 1012 70 10000 5.66 220 15:57 03.06.2022
3348 Clouds 18 1011 68 10000 4.63 250 14:42 03.06.2022
3349 Clouds 16 1012 74 10000 4.63 240 12:26 03.06.2022
3350 Clouds 15 1011 80 10000 4.63 250 09:58 03.06.2022
3351 Clouds 14 1011 84 10000 4.12 250 09:29 03.06.2022
3352 Clouds 12 1011 89 10000 4.12 250 07:50 03.06.2022
3353 Clear 12 1011 90 10000 4.63 240 07:19 03.06.2022
3354 Clouds 11 1011 91 10000 4.12 240 06:29 03.06.2022
3355 Clouds 9 1010 92 10000 2.06 230 04:35 03.06.2022
3356 Clouds 11 1010 94 10000 3.09 220 00:21 03.06.2022
3357 Clouds 12 1009 93 10000 2.06 210 22:34 02.06.2022
3358 Clear 13 1009 90 10000 2.57 250 20:58 02.06.2022
3359 Clear 13 1009 90 10000 4.12 250 19:59 02.06.2022
3360 Clear 13 1009 90 10000 4.12 250 19:40 02.06.2022
3361 Clouds 12 1009 92 10000 4.63 260 18:59 02.06.2022
3362 Rain 11 1008 94 10000 6.69 270 16:30 02.06.2022
3363 Rain 11 1008 93 10000 6.17 270 15:58 02.06.2022
3364 Clouds 11 1006 93 10000 6.69 280 13:38 02.06.2022
3365 Rain 11 1006 93 7000 6.17 280 13:20 02.06.2022
3366 Rain 10 1005 92 7000 6.17 310 10:53 02.06.2022
3367 Rain 10 1005 93 10000 7.2 310 10:19 02.06.2022
3368 Rain 10 1005 93 10000 5.66 310 09:27 02.06.2022
3369 Rain 10 1005 93 6000 5.14 310 08:24 02.06.2022
3370 Rain 10 1006 93 10000 4.12 320 06:26 02.06.2022
3371 Rain 10 1007 92 10000 3.09 340 03:53 02.06.2022
3372 Rain 10 1008 90 10000 2.06 30 01:36 02.06.2022
3373 Rain 11 1009 85 10000 3.09 70 23:36 01.06.2022
3374 Clear 12 1010 75 10000 4.63 120 22:18 01.06.2022
3375 Clear 13 1010 71 10000 4.12 140 21:25 01.06.2022
3376 Clear 13 1010 67 10000 6.17 130 20:39 01.06.2022
3377 Clear 15 1012 66 10000 5.14 150 19:52 01.06.2022
3378 Clear 15 1011 65 10000 7.2 140 18:52 01.06.2022
3379 Clear 16 1011 62 10000 7.72 150 17:38 01.06.2022
3380 Clear 17 1010 58 10000 4.63 180 15:56 01.06.2022
3381 Clouds 18 1010 59 10000 4.63 190 14:51 01.06.2022
3382 Clouds 17 1010 63 10000 5.66 180 13:39 01.06.2022
3383 Clouds 16 1009 69 10000 4.12 200 11:32 01.06.2022
3384 Clouds 13 1009 89 10000 3.09 220 09:34 01.06.2022
3385 Rain 12 1009 92 10000 3.09 210 08:28 01.06.2022
3386 Rain 11 1008 93 9000 3.6 180 07:21 01.06.2022
3387 Drizzle 11 1007 93 10000 2.06 220 04:58 01.06.2022
3388 Clouds 11 1007 92 10000 2.57 230 23:56 31.05.2022
3389 Clouds 11 1006 93 10000 2.57 240 22:51 31.05.2022
3390 Clouds 11 1006 92 10000 2.57 240 22:29 31.05.2022
3391 Clouds 11 1006 91 9000 4.12 280 21:45 31.05.2022
3392 Clouds 12 1006 88 10000 3.6 280 20:44 31.05.2022
3393 Clouds 13 1006 86 10000 4.12 280 19:52 31.05.2022
3394 Drizzle 13 1005 88 10000 3.09 310 18:45 31.05.2022
3395 Drizzle 13 1006 86 9000 2.57 330 17:49 31.05.2022
3396 Rain 13 1006 86 10000 3.6 330 16:48 31.05.2022
3397 Rain 13 1007 87 10000 4.12 320 15:40 31.05.2022
3398 Rain 13 1007 88 10000 4.12 330 13:38 31.05.2022
3399 Rain 13 1007 90 10000 4.63 320 12:19 31.05.2022
3400 Rain 11 1008 91 9000 3.6 330 10:52 31.05.2022
3401 Drizzle 10 1009 92 7000 3.09 330 08:37 31.05.2022
3402 Rain 9 1009 91 10000 3.09 330 06:57 31.05.2022
3403 Drizzle 9 1010 88 10000 3.09 330 04:46 31.05.2022
3404 Clouds 10 1011 81 10000 2.06 20 23:53 30.05.2022
3405 Clouds 10 1011 81 10000 2.57 70 23:25 30.05.2022
3406 Clouds 11 1012 79 10000 3.09 60 22:44 30.05.2022
3407 Clear 12 1014 75 10000 3.6 80 21:51 30.05.2022
3408 Clear 12 1014 71 10000 3.09 90 21:32 30.05.2022
3409 Clear 14 1012 61 10000 3.6 60 19:51 30.05.2022
3410 Clouds 14 1013 60 10000 4.12 70 18:34 30.05.2022
3411 Clouds 15 1013 61 10000 3.6 70 17:23 30.05.2022
3412 Clouds 15 1013 61 10000 3.09 30 16:39 30.05.2022
3413 Clouds 14 1014 62 10000 3.09 90 13:44 30.05.2022
3414 Clouds 14 1014 67 10000 3.6 50 12:21 30.05.2022
3415 Clouds 13 1014 70 10000 3.6 110 10:40 30.05.2022
3416 Clouds 12 1014 74 10000 3.6 100 09:19 30.05.2022
3417 Clouds 8 1013 95 10000 1.54 0 06:30 30.05.2022
3418 Clouds 7 1014 98 10000 0 0 05:47 30.05.2022
3419 Clouds 6 1011 90 10000 0 0 01:33 30.05.2022
3420 Clouds 9 1010 80 10000 2.57 140 22:54 29.05.2022
3421 Clouds 9 1009 78 10000 2.57 140 22:36 29.05.2022
3422 Clear 12 1009 71 10000 3.6 120 20:53 29.05.2022
3423 Clear 14 1009 64 10000 2.06 90 19:31 29.05.2022
3424 Clouds 14 1009 62 10000 2.57 70 18:37 29.05.2022
3425 Clouds 15 1007 58 10000 1.54 0 17:31 29.05.2022
3426 Clouds 14 1007 63 10000 1.54 320 15:48 29.05.2022
3427 Clouds 13 1007 68 10000 2.06 300 14:57 29.05.2022
3428 Clouds 13 1006 69 10000 3.09 290 13:52 29.05.2022
3429 Clouds 12 1006 75 10000 3.09 320 11:41 29.05.2022
3430 Clouds 11 1005 77 10000 3.09 330 10:38 29.05.2022
3431 Clouds 9 1004 82 10000 3.09 310 08:47 29.05.2022
3432 Clouds 8 1003 88 10000 3.6 290 05:54 29.05.2022
3433 Clouds 8 1003 89 10000 2.57 300 04:44 29.05.2022
3434 Clouds 8 1003 90 10000 2.06 270 03:41 29.05.2022
3435 Clouds 9 1003 92 10000 1.54 270 23:49 28.05.2022
3436 Clouds 9 1003 92 10000 1.54 290 23:26 28.05.2022
3437 Clouds 9 1003 92 10000 1.54 290 22:35 28.05.2022
3438 Clouds 10 1002 92 10000 1.54 270 21:38 28.05.2022
3439 Drizzle 10 1001 89 10000 3.09 310 19:41 28.05.2022
3440 Rain 10 1001 91 10000 3.09 330 18:47 28.05.2022
3441 Rain 10 1001 89 10000 2.57 350 17:37 28.05.2022
3442 Rain 10 1000 89 8000 2.57 350 16:38 28.05.2022
3443 Rain 11 1000 87 10000 2.57 330 15:43 28.05.2022
3444 Rain 10 999 89 10000 3.6 320 14:23 28.05.2022
3445 Rain 10 998 90 8000 3.6 350 12:44 28.05.2022
3446 Rain 11 998 86 9000 4.12 340 12:18 28.05.2022
3447 Drizzle 11 997 88 10000 3.6 320 11:21 28.05.2022
3448 Clouds 10 996 88 10000 3.6 330 09:57 28.05.2022
3449 Clouds 10 996 89 10000 4.12 340 08:45 28.05.2022
3450 Clouds 10 995 91 10000 3.6 340 07:23 28.05.2022
3451 Clouds 9 994 94 10000 3.09 300 05:28 28.05.2022
3452 Rain 9 994 93 10000 3.09 300 02:44 28.05.2022
3453 Rain 10 994 88 10000 2.57 280 00:32 28.05.2022
3454 Clouds 10 995 87 10000 3.6 260 22:53 27.05.2022
3455 Clouds 10 994 86 10000 3.6 280 21:44 27.05.2022
3456 Clouds 10 994 87 10000 4.12 280 20:50 27.05.2022
3457 Drizzle 11 994 86 10000 3.6 290 20:24 27.05.2022
3458 Clouds 11 994 84 10000 3.6 280 19:42 27.05.2022
3459 Clouds 11 994 83 10000 4.63 260 19:24 27.05.2022
3460 Clouds 12 994 75 10000 5.66 260 17:54 27.05.2022
3461 Clouds 13 994 72 10000 7.72 280 16:38 27.05.2022
3462 Clouds 13 994 72 10000 6.69 290 15:22 27.05.2022
3463 Clouds 14 994 69 10000 5.14 280 14:25 27.05.2022
3464 Clouds 13 994 75 10000 5.14 270 12:43 27.05.2022
3465 Drizzle 12 995 82 10000 4.63 270 11:34 27.05.2022
3466 Drizzle 11 995 83 10000 4.63 280 10:55 27.05.2022
3467 Rain 11 995 84 10000 3.6 260 10:29 27.05.2022
3468 Rain 11 995 87 10000 3.6 250 09:34 27.05.2022
3469 Rain 10 995 93 10000 3.6 260 07:50 27.05.2022
3470 Drizzle 10 996 90 10000 3.6 260 05:39 27.05.2022
3471 Clouds 10 996 93 10000 3.6 240 02:26 27.05.2022
3472 Rain 11 997 90 7000 3.6 260 00:26 27.05.2022
3473 Clouds 11 998 88 10000 2.06 260 22:35 26.05.2022
3474 Clear 11 998 83 10000 2.57 270 21:37 26.05.2022
3475 Clear 13 997 81 10000 2.57 300 19:58 26.05.2022
3476 Clear 13 997 78 10000 2.57 290 19:19 26.05.2022
3477 Clouds 14 998 75 10000 3.09 260 17:37 26.05.2022
3478 Clouds 14 998 69 10000 3.09 140 16:36 26.05.2022
3479 Clear 15 998 63 10000 2.06 200 15:45 26.05.2022
3480 Clouds 15 999 66 10000 4.63 210 14:24 26.05.2022
3481 Clouds 15 999 67 10000 4.63 150 12:36 26.05.2022
3482 Clouds 16 999 62 10000 2.57 170 11:23 26.05.2022
3483 Clear 15 1000 66 10000 3.09 200 09:40 26.05.2022
3484 Clear 14 1000 68 10000 2.57 200 09:19 26.05.2022
3485 Clear 12 1001 75 10000 2.06 210 07:51 26.05.2022
3486 Clouds 7 1004 91 10000 0.51 180 03:53 26.05.2022
3487 Clear 9 1005 86 10000 1.54 220 00:33 26.05.2022
3488 Clouds 9 1005 86 10000 2.57 220 23:39 25.05.2022
3489 Clouds 12 1005 82 10000 1.03 0 21:47 25.05.2022
3490 Clouds 12 1005 80 10000 0 0 21:28 25.05.2022
3491 Clouds 13 1005 76 10000 3.09 280 20:34 25.05.2022
3492 Clouds 17 1005 63 10000 4.12 180 19:21 25.05.2022
3493 Clear 17 1005 61 10000 4.12 200 17:40 25.05.2022
3494 Clear 18 1005 59 10000 5.14 190 16:37 25.05.2022
3495 Clear 18 1005 60 10000 4.63 210 15:54 25.05.2022
3496 Clouds 18 1005 59 10000 6.17 210 14:51 25.05.2022
3497 Clouds 18 1005 62 10000 5.14 200 14:32 25.05.2022
3498 Clouds 18 1005 62 10000 5.14 200 13:42 25.05.2022
3499 Clouds 18 1005 62 10000 3.09 200 12:37 25.05.2022
3500 Clouds 17 1005 75 10000 3.09 230 10:43 25.05.2022
3501 Clouds 15 1005 82 10000 2.06 200 09:54 25.05.2022
3502 Clouds 13 1004 88 10000 0.45 203 08:23 25.05.2022
3503 Clouds 12 1004 90 10000 3.19 211 07:22 25.05.2022
3504 Clouds 12 1004 81 10000 4.12 140 03:22 25.05.2022
3505 Clouds 13 1005 66 10000 5.14 130 23:56 24.05.2022
3506 Rain 13 1005 63 10000 4.63 140 23:25 24.05.2022
3507 Clear 14 1006 59 10000 5.14 130 22:21 24.05.2022
3508 Clear 14 1006 57 10000 6.17 120 21:40 24.05.2022
3509 Clear 14 1006 56 10000 6.69 130 21:20 24.05.2022
3510 Clear 16 1005 51 10000 6.69 130 19:45 24.05.2022
3511 Clear 17 1006 53 10000 7.72 140 18:53 24.05.2022
3512 Clear 18 1006 48 10000 8.75 140 16:45 24.05.2022
3513 Clear 18 1007 48 10000 9.26 140 16:23 24.05.2022
3514 Clear 18 1007 49 10000 7.2 130 14:56 24.05.2022
3515 Clear 18 1007 47 10000 5.66 120 14:21 24.05.2022
3516 Clouds 17 1008 41 10000 5.14 100 12:49 24.05.2022
3517 Clear 16 1008 42 10000 6.17 110 11:26 24.05.2022
3518 Clear 16 1009 48 10000 6.17 120 09:44 24.05.2022
3519 Clear 14 1009 59 10000 5.14 130 08:50 24.05.2022
3520 Clear 11 1008 75 10000 2.57 120 06:57 24.05.2022
3521 Clouds 5 1011 87 10000 1.54 130 04:20 24.05.2022
3522 Clouds 6 1009 74 10000 2.57 140 01:55 24.05.2022
3523 Clouds 6 1010 74 10000 2.57 140 01:36 24.05.2022
3524 Clouds 8 1010 67 10000 3.09 140 23:31 23.05.2022
3525 Clear 11 1010 51 10000 2.06 180 21:57 23.05.2022
3526 Clear 11 1009 47 10000 2.06 180 21:39 23.05.2022
3527 Clear 13 1011 42 10000 3.09 190 20:41 23.05.2022
3528 Clear 15 1009 44 10000 4.63 200 19:33 23.05.2022
3529 Clear 16 1009 45 10000 5.66 200 18:59 23.05.2022
3530 Clear 17 1009 41 10000 5.14 200 18:31 23.05.2022
3531 Clear 17 1009 39 10000 4.63 140 17:24 23.05.2022
3532 Clear 18 1010 39 10000 3.6 140 15:37 23.05.2022
3533 Clear 17 1011 39 10000 3.6 110 13:32 23.05.2022
3534 Clear 16 1011 38 10000 2.06 130 11:34 23.05.2022
3535 Clear 16 1012 36 10000 1.54 90 10:42 23.05.2022
3536 Clear 15 1012 38 10000 2.57 130 09:39 23.05.2022
3537 Clear 12 1012 44 10000 2.57 140 08:38 23.05.2022
3538 Clear 10 1011 47 10000 0 0 06:47 23.05.2022
3539 Clouds 7 1012 62 10000 0 0 06:22 23.05.2022
3540 Clouds 3 1014 71 10000 0 0 02:35 23.05.2022
3541 Clouds 4 1013 69 10000 0.51 0 01:46 23.05.2022
3542 Clouds 4 1013 65 10000 0 0 00:44 23.05.2022
3543 Clouds 7 1012 46 10000 2.06 160 22:43 22.05.2022
3544 Clear 8 1012 45 10000 1.54 180 22:18 22.05.2022
3545 Clear 9 1012 40 10000 2.06 140 21:49 22.05.2022
3546 Clear 12 1014 19 10000 3.6 140 20:40 22.05.2022
3547 Clear 12 1012 30 10000 4.12 130 20:19 22.05.2022
3548 Clear 13 1012 28 10000 4.63 120 18:58 22.05.2022
3549 Clear 13 1012 28 10000 5.14 120 18:31 22.05.2022
3550 Clear 14 1012 34 10000 5.14 110 17:55 22.05.2022
3551 Clear 14 1012 39 10000 4.12 80 16:51 22.05.2022
3552 Clear 15 1012 41 10000 3.09 70 15:22 22.05.2022
3553 Clear 15 1012 43 10000 3.6 100 14:35 22.05.2022
3554 Clear 15 1012 42 10000 2.57 70 12:54 22.05.2022
3555 Clear 14 1012 42 10000 3.09 90 12:24 22.05.2022
3556 Clouds 13 1014 50 10000 2.06 100 10:38 22.05.2022
3557 Clouds 12 1013 55 10000 2.06 50 09:27 22.05.2022
3558 Clouds 9 1011 70 10000 1.54 0 07:44 22.05.2022
3559 Clouds 8 1011 76 10000 1.54 330 06:41 22.05.2022
3560 Clouds 5 1011 79 10000 0 0 03:53 22.05.2022
3561 Clouds 8 1011 68 10000 1.54 30 00:49 22.05.2022
3562 Clouds 8 1011 68 10000 1.54 30 00:49 22.05.2022
3563 Clouds 8 1011 65 10000 1.54 40 23:56 21.05.2022
3564 Clouds 9 1011 64 10000 2.06 40 23:27 21.05.2022
3565 Clouds 10 1010 59 10000 1.54 10 21:59 21.05.2022
3566 Clouds 11 1010 59 10000 1.54 10 21:34 21.05.2022
3567 Clouds 12 1010 52 10000 1.54 80 20:34 21.05.2022
3568 Clouds 13 1009 49 10000 2.06 60 19:53 21.05.2022
3569 Clouds 13 1009 45 10000 2.57 60 18:54 21.05.2022
3570 Clear 14 1009 43 10000 5.14 70 16:57 21.05.2022
3571 Clear 13 1009 48 10000 5.14 60 14:49 21.05.2022
3572 Clear 13 1008 52 10000 5.14 60 13:55 21.05.2022
3573 Clear 13 1008 54 10000 5.66 70 13:25 21.05.2022
3574 Clear 12 1008 57 10000 4.63 50 12:38 21.05.2022
3575 Rain 11 1008 63 10000 4.63 60 11:25 21.05.2022
3576 Clear 10 1008 66 10000 4.63 50 10:21 21.05.2022
3577 Clear 10 1008 67 10000 4.63 60 08:59 21.05.2022
3578 Clear 10 1008 67 10000 4.63 60 08:38 21.05.2022
3579 Clouds 8 1009 76 10000 0.89 45 06:20 21.05.2022
3580 Clouds 6 1011 82 10000 2.57 50 01:41 21.05.2022
3581 Clouds 7 1012 82 10000 2.57 60 23:35 20.05.2022
3582 Clouds 8 1012 82 10000 3.27 74 22:30 20.05.2022
3583 Clear 8 1013 78 10000 3.09 70 21:58 20.05.2022
3584 Clear 9 1013 74 10000 3.09 50 21:19 20.05.2022
3585 Clear 10 1013 71 10000 4.12 60 20:47 20.05.2022
3586 Clear 11 1013 69 10000 4.12 80 19:45 20.05.2022
3587 Clear 11 1013 68 10000 4.12 70 18:53 20.05.2022
3588 Clear 12 1014 68 10000 5.14 70 18:18 20.05.2022
3589 Clouds 12 1013 75 10000 5.14 60 16:23 20.05.2022
3590 Clouds 12 1013 80 10000 5.14 50 15:54 20.05.2022
3591 Clouds 12 1013 88 10000 3.6 30 14:44 20.05.2022
3592 Clouds 12 1012 88 10000 4.12 40 14:26 20.05.2022
3593 Drizzle 11 1012 90 10000 3.09 40 11:52 20.05.2022
3594 Rain 10 1012 92 10000 3.6 20 10:47 20.05.2022
3595 Rain 10 1011 92 9000 2.06 20 09:27 20.05.2022
3596 Drizzle 10 1011 91 10000 2.06 10 08:24 20.05.2022
3597 Rain 10 1011 90 10000 3.09 100 06:42 20.05.2022
3598 Clouds 10 1011 91 10000 2.57 80 05:39 20.05.2022
3599 Drizzle 11 1013 86 10000 2.06 110 01:30 20.05.2022
3600 Rain 11 1013 83 10000 2.06 130 23:47 19.05.2022
3601 Rain 12 1013 81 10000 2.57 90 22:36 19.05.2022
3602 Rain 13 1014 75 10000 2.57 80 21:50 19.05.2022
3603 Rain 13 1014 73 10000 3.6 70 21:24 19.05.2022
3604 Rain 14 1014 66 10000 4.12 70 20:47 19.05.2022
3605 Rain 15 1015 64 10000 4.63 60 19:54 19.05.2022
3606 Clear 19 1015 45 10000 4.63 120 19:00 19.05.2022
3607 Clear 20 1015 43 10000 5.14 120 17:44 19.05.2022
3608 Clear 22 1013 42 10000 1.54 0 15:51 19.05.2022
3609 Clear 21 1016 49 10000 2.57 310 14:47 19.05.2022
3610 Clear 21 1016 50 10000 1.54 310 14:20 19.05.2022
3611 Clear 19 1015 54 10000 3.09 290 11:54 19.05.2022
3612 Clear 17 1015 59 10000 3.6 240 10:30 19.05.2022
3613 Clear 14 1016 67 10000 5.66 270 08:39 19.05.2022
3614 Clear 14 1016 69 10000 5.14 270 07:18 19.05.2022
3615 Clouds 14 1016 57 10000 1.54 230 03:41 19.05.2022
3616 Clouds 14 1017 60 10000 2.06 230 00:57 19.05.2022
3617 Clouds 14 1017 55 10000 2.57 260 23:40 18.05.2022
3618 Clouds 15 1017 54 10000 4.63 260 22:43 18.05.2022
3619 Clear 16 1018 50 10000 3.09 250 21:43 18.05.2022
3620 Clear 16 1017 49 10000 4.63 250 21:23 18.05.2022
3621 Clear 18 1018 42 10000 5.14 260 20:21 18.05.2022
3622 Clear 18 1018 38 10000 6.17 270 18:56 18.05.2022
3623 Clear 19 1018 35 10000 7.2 260 17:56 18.05.2022
3624 Clear 19 1018 35 10000 7.2 260 17:36 18.05.2022
3625 Clear 20 1018 33 10000 7.72 260 17:18 18.05.2022
3626 Clear 20 1019 31 10000 7.2 280 15:52 18.05.2022
3627 Clear 20 1019 31 10000 7.72 270 15:33 18.05.2022
3628 Clear 19 1020 31 10000 6.17 260 14:21 18.05.2022
3629 Clear 17 1021 37 10000 5.66 260 12:55 18.05.2022
3630 Clear 17 1022 39 10000 5.14 250 12:24 18.05.2022
3631 Clear 16 1023 42 10000 4.63 270 11:33 18.05.2022
3632 Clear 15 1023 44 10000 4.63 240 10:43 18.05.2022
3633 Clear 11 1023 59 10000 4.12 250 08:19 18.05.2022
3634 Clear 9 1023 64 10000 3.6 240 07:27 18.05.2022
3635 Clouds 4 1025 86 10000 2.57 230 03:59 18.05.2022
3636 Clouds 5 1025 83 10000 2.57 220 00:51 18.05.2022
3637 Clouds 6 1025 81 10000 2.06 180 23:41 17.05.2022
3638 Clear 8 1025 59 10000 2.06 80 21:22 17.05.2022
3639 Clear 10 1026 43 10000 2.06 50 20:44 17.05.2022
3640 Clear 11 1026 48 10000 2.06 20 19:41 17.05.2022
3641 Clear 12 1024 45 10000 3.09 10 19:20 17.05.2022
3642 Clear 12 1024 43 10000 3.6 350 17:49 17.05.2022
3643 Clear 12 1024 44 10000 3.09 360 16:57 17.05.2022
3644 Clear 12 1024 44 10000 3.6 10 15:59 17.05.2022
3645 Clear 12 1024 45 10000 4.63 20 14:55 17.05.2022
3646 Clear 12 1024 44 10000 4.63 340 14:28 17.05.2022
3647 Clear 12 1024 43 10000 2.57 360 13:24 17.05.2022
3648 Clear 10 1024 49 10000 3.6 360 10:42 17.05.2022
3649 Clear 9 1023 61 10000 4.12 350 08:51 17.05.2022
3650 Clear 7 1023 66 10000 4.12 350 07:56 17.05.2022
3651 Clear 5 1022 70 10000 4.12 350 06:26 17.05.2022
3652 Clouds 2 1021 83 10000 1.03 280 01:34 17.05.2022
3653 Clouds 4 1021 76 10000 0.51 250 23:46 16.05.2022
3654 Clouds 6 1021 71 10000 1.03 0 22:39 16.05.2022
3655 Clear 8 1020 62 10000 3.6 160 21:31 16.05.2022
3656 Clear 9 1019 57 10000 4.63 140 20:43 16.05.2022
3657 Clear 13 1019 44 10000 4.12 340 18:53 16.05.2022
3658 Clear 13 1019 43 10000 2.57 340 17:26 16.05.2022
3659 Clear 14 1019 42 10000 4.12 310 15:35 16.05.2022
3660 Clear 13 1020 47 10000 5.66 320 13:48 16.05.2022
3661 Clouds 12 1020 48 10000 5.14 310 12:44 16.05.2022
3662 Clear 10 1020 51 10000 4.63 290 10:38 16.05.2022
3663 Clear 8 1019 55 10000 4.63 330 08:32 16.05.2022
3664 Clear 6 1018 61 10000 3.6 310 06:30 16.05.2022
3665 Clear 6 1018 61 10000 3.6 310 06:30 16.05.2022
3666 Clouds 5 1017 79 10000 1.03 0 01:44 16.05.2022
3667 Clouds 9 1015 66 10000 1.54 150 22:52 15.05.2022
3668 Clear 9 1015 65 10000 2.57 110 22:25 15.05.2022
3669 Clear 10 1015 64 10000 2.57 150 21:38 15.05.2022
3670 Clear 11 1015 59 10000 3.09 140 20:53 15.05.2022
3671 Clear 14 1014 42 10000 4.12 300 18:52 15.05.2022
3672 Clear 15 1014 39 10000 6.69 320 17:29 15.05.2022
3673 Clouds 16 1014 36 10000 8.23 280 15:26 15.05.2022
3674 Clear 15 1015 38 10000 8.23 290 13:47 15.05.2022
3675 Clear 14 1014 49 10000 5.66 290 12:21 15.05.2022
3676 Clear 13 1014 50 10000 4.12 280 11:29 15.05.2022
3677 Clear 12 1014 53 10000 3.6 340 09:58 15.05.2022
3678 Clouds 9 1013 67 10000 2.57 320 07:36 15.05.2022
3679 Clouds 7 1013 75 10000 2.57 340 06:57 15.05.2022
3680 Fog 6 1011 94 2700 1.03 0 04:26 15.05.2022
3681 Fog 6 1009 92 5000 0 0 00:47 15.05.2022
3682 Clouds 7 1009 91 7000 0 0 23:38 14.05.2022
3683 Clouds 7 1009 89 10000 1.03 200 22:41 14.05.2022
3684 Clouds 9 1008 87 10000 2.06 220 21:27 14.05.2022
3685 Clouds 11 1007 85 10000 1.03 0 20:32 14.05.2022
3686 Rain 12 1007 72 10000 1.54 10 19:21 14.05.2022
3687 Clouds 12 1006 71 10000 2.06 30 18:59 14.05.2022
3688 Clouds 12 1005 78 10000 2.57 20 17:54 14.05.2022
3689 Clouds 14 1004 66 10000 6.17 330 16:32 14.05.2022
3690 Clouds 15 1003 62 10000 6.69 290 14:56 14.05.2022
3691 Clouds 16 1003 58 10000 5.66 260 14:30 14.05.2022
3692 Clouds 14 1002 67 10000 5.14 250 12:18 14.05.2022
3693 Clouds 13 1002 78 10000 4.63 260 10:53 14.05.2022
3694 Clouds 12 1001 79 10000 4.12 270 10:20 14.05.2022
3695 Clouds 12 1001 82 10000 3.6 260 09:51 14.05.2022
3696 Clouds 10 1001 88 10000 3.09 250 08:22 14.05.2022
3697 Drizzle 9 1000 90 10000 2.57 220 05:26 14.05.2022
3698 Clouds 11 1001 73 10000 3.6 230 01:57 14.05.2022
3699 Clouds 10 1002 72 10000 2.57 220 23:31 13.05.2022
3700 Clouds 11 1002 70 10000 3.09 230 22:57 13.05.2022
3701 Clear 11 1002 66 10000 3.6 230 22:23 13.05.2022
3702 Clear 12 1002 63 10000 3.09 240 21:35 13.05.2022
3703 Clear 13 1002 56 10000 5.14 250 20:44 13.05.2022
3704 Clear 14 1002 53 10000 5.14 250 20:23 13.05.2022
3705 Clear 15 1002 49 10000 5.14 270 19:21 13.05.2022
3706 Clear 15 1003 48 10000 6.17 250 17:50 13.05.2022
3707 Clear 15 1003 48 10000 6.17 240 17:26 13.05.2022
3708 Clear 15 1003 47 10000 6.17 270 15:53 13.05.2022
3709 Clear 15 1003 45 10000 5.66 270 14:51 13.05.2022
3710 Clear 15 1003 48 10000 7.2 240 12:58 13.05.2022
3711 Clear 15 1003 52 10000 6.17 260 12:25 13.05.2022
3712 Clear 13 1003 58 10000 5.14 260 10:42 13.05.2022
3713 Clear 12 1003 69 10000 4.63 240 09:29 13.05.2022
3714 Clear 10 1003 77 10000 5.14 260 08:23 13.05.2022
3715 Clear 9 1003 80 10000 4.12 260 07:31 13.05.2022
3716 Clouds 8 1002 80 10000 4.63 250 05:58 13.05.2022
3717 Clouds 10 1002 72 10000 4.63 250 02:43 13.05.2022
3718 Clouds 11 1001 64 10000 7.72 260 23:44 12.05.2022
3719 Clouds 12 1001 60 10000 5.14 260 22:44 12.05.2022
3720 Clear 13 1000 57 10000 5.66 250 21:46 12.05.2022
3721 Clear 14 999 55 10000 7.2 260 20:23 12.05.2022
3722 Clear 16 998 50 10000 7.72 270 18:31 12.05.2022
3723 Clear 17 997 47 10000 8.23 260 16:57 12.05.2022
3724 Clear 16 996 49 10000 8.75 250 15:49 12.05.2022
3725 Clouds 15 996 55 10000 9.26 270 14:20 12.05.2022
3726 Clouds 14 995 58 10000 9.26 250 13:24 12.05.2022
3727 Clouds 12 994 71 10000 7.72 250 10:40 12.05.2022
3728 Clouds 12 994 75 10000 7.72 250 09:19 12.05.2022
3729 Clouds 11 994 78 10000 6.17 250 08:41 12.05.2022
3730 Clouds 10 994 83 10000 5.66 240 07:37 12.05.2022
3731 Clouds 9 994 91 10000 1.34 248 05:32 12.05.2022
3732 Clouds 8 995 92 10000 0.45 248 02:24 12.05.2022
3733 Clouds 9 997 91 10000 3.6 230 23:56 11.05.2022
3734 Clouds 10 998 89 10000 4.63 230 22:33 11.05.2022
3735 Rain 10 998 90 10000 2.06 150 21:33 11.05.2022
3736 Rain 10 998 89 9000 2.06 210 20:53 11.05.2022
3737 Clouds 14 999 68 10000 3.09 190 18:24 11.05.2022
3738 Clear 16 1000 55 10000 4.63 250 16:50 11.05.2022
3739 Clouds 16 1001 59 10000 4.63 270 14:51 11.05.2022
3740 Clouds 16 1001 59 10000 5.66 250 14:26 11.05.2022
3741 Clouds 16 1002 57 10000 6.17 260 13:51 11.05.2022
3742 Clouds 15 1002 64 10000 7.2 250 11:51 11.05.2022
3743 Clouds 12 1001 71 10000 6.17 240 10:27 11.05.2022
3744 Clouds 11 1002 80 10000 5.14 250 08:33 11.05.2022
3745 Clouds 9 1001 88 10000 5.14 240 05:18 11.05.2022
3746 Drizzle 10 1002 90 10000 4.63 180 00:42 11.05.2022
3747 Rain 10 1004 85 10000 4.63 160 22:30 10.05.2022
3748 Clear 11 1005 85 10000 4.12 160 21:47 10.05.2022
3749 Rain 11 1006 80 10000 4.63 170 20:54 10.05.2022
3750 Drizzle 12 1007 70 10000 4.63 190 19:26 10.05.2022
3751 Rain 14 1008 60 10000 6.69 190 17:49 10.05.2022
3752 Rain 15 1008 54 10000 7.2 190 16:49 10.05.2022
3753 Clear 16 1011 53 10000 6.69 170 14:48 10.05.2022
3754 Clear 14 1013 58 10000 5.14 150 12:39 10.05.2022
3755 Clear 13 1014 56 10000 4.12 170 11:49 10.05.2022
3756 Clear 13 1014 55 10000 4.63 180 11:18 10.05.2022
3757 Clear 13 1015 51 10000 6.17 190 10:22 10.05.2022
3758 Clear 12 1017 50 10000 5.14 200 09:25 10.05.2022
3759 Clear 9 1019 71 10000 4.12 190 06:46 10.05.2022
3760 Clouds 6 1021 79 10000 2.57 180 03:29 10.05.2022
3761 Clouds 6 1022 75 10000 1.54 160 00:34 10.05.2022
3762 Clouds 8 1022 69 10000 2.57 170 22:52 09.05.2022
3763 Clear 9 1023 62 10000 3.09 180 21:50 09.05.2022
3764 Clear 11 1023 54 10000 4.12 180 20:30 09.05.2022
3765 Clear 14 1023 42 10000 6.17 190 18:43 09.05.2022
3766 Clear 15 1024 45 10000 5.66 170 17:44 09.05.2022
3767 Clear 15 1025 48 10000 5.66 200 16:33 09.05.2022
3768 Clear 16 1026 49 10000 6.17 210 15:52 09.05.2022
3769 Clear 16 1026 48 10000 4.63 190 15:21 09.05.2022
3770 Clear 16 1027 45 10000 4.63 200 14:29 09.05.2022
3771 Clear 16 1027 42 10000 4.63 210 13:40 09.05.2022
3772 Clear 15 1028 42 10000 3.6 190 12:21 09.05.2022
3773 Clear 13 1028 44 10000 3.09 210 11:18 09.05.2022
3774 Clear 13 1029 45 10000 3.09 230 10:42 09.05.2022
3775 Clear 10 1029 70 10000 3.09 210 08:45 09.05.2022
3776 Clear 8 1029 76 10000 2.06 210 07:54 09.05.2022
3777 Clouds 3 1030 78 10000 2.06 200 03:21 09.05.2022
3778 Clouds 4 1030 66 10000 1.54 160 23:34 08.05.2022
3779 Clouds 5 1030 63 10000 2.57 170 22:55 08.05.2022
3780 Clear 6 1029 58 10000 3.09 160 21:55 08.05.2022
3781 Clear 6 1029 58 10000 3.09 160 21:55 08.05.2022
3782 Clear 7 1029 52 10000 5.14 150 20:35 08.05.2022
3783 Clear 9 1028 47 10000 5.66 140 19:44 08.05.2022
3784 Clear 10 1028 48 10000 7.72 140 18:54 08.05.2022
3785 Clear 12 1027 37 10000 2.06 290 17:59 08.05.2022
3786 Clear 12 1027 37 10000 3.6 340 16:43 08.05.2022
3787 Clear 12 1027 33 10000 4.63 320 15:31 08.05.2022
3788 Clear 11 1027 34 10000 4.63 350 14:44 08.05.2022
3789 Clear 11 1026 38 10000 6.69 290 12:27 08.05.2022
3790 Clear 10 1025 43 10000 6.17 280 10:31 08.05.2022
3791 Clouds 10 1025 44 10000 4.63 310 09:57 08.05.2022
3792 Clear 8 1023 49 10000 3.6 310 08:56 08.05.2022
3793 Clouds 6 1022 55 10000 2.06 350 06:58 08.05.2022
3794 Clouds 5 1021 70 10000 2.57 10 03:35 08.05.2022
3795 Clouds 4 1020 79 10000 2.57 30 02:45 08.05.2022
3796 Clouds 5 1019 80 10000 2.06 120 00:24 08.05.2022
3797 Clouds 6 1019 77 10000 3.09 70 23:49 07.05.2022
3798 Clouds 7 1018 77 10000 3.6 20 22:46 07.05.2022
3799 Clouds 7 1017 78 10000 1.54 250 21:59 07.05.2022
3800 Clouds 7 1017 76 10000 1.54 250 21:34 07.05.2022
3801 Clouds 10 1017 67 10000 1.54 210 20:28 07.05.2022
3802 Clouds 10 1015 64 10000 2.06 230 19:44 07.05.2022
3803 Clouds 11 1016 62 10000 3.09 320 17:35 07.05.2022
3804 Clouds 9 1016 72 10000 3.6 360 15:46 07.05.2022
3805 Drizzle 7 1014 87 7000 6.17 350 13:39 07.05.2022
3806 Clouds 11 1009 93 4000 4.12 230 10:41 07.05.2022
3807 Rain 11 1010 90 8000 3.09 210 08:57 07.05.2022
3808 Rain 11 1010 88 10000 2.57 210 07:50 07.05.2022
3809 Rain 12 1010 82 10000 3.6 230 06:43 07.05.2022
3810 Clouds 11 1010 81 10000 4.63 240 04:41 07.05.2022
3811 Clouds 9 1012 80 10000 2.06 220 01:19 07.05.2022
3812 Clouds 10 1012 72 10000 2.06 220 23:37 06.05.2022
3813 Clear 11 1012 66 10000 2.57 200 22:27 06.05.2022
3814 Clear 12 1012 62 10000 3.09 190 21:43 06.05.2022
3815 Clear 14 1011 53 10000 4.12 200 20:33 06.05.2022
3816 Clear 17 1013 51 10000 3.6 200 19:29 06.05.2022
3817 Clear 17 1013 51 10000 3.6 200 19:29 06.05.2022
3818 Clear 17 1014 51 10000 4.12 200 18:57 06.05.2022
3819 Clear 18 1015 46 10000 4.12 200 17:38 06.05.2022
3820 Clear 19 1014 45 10000 3.09 220 16:23 06.05.2022
3821 Clear 18 1014 47 10000 4.12 280 15:39 06.05.2022
3822 Clear 18 1015 50 10000 4.12 290 14:33 06.05.2022
3823 Clear 16 1015 55 10000 2.57 230 12:53 06.05.2022
3824 Clear 16 1015 56 10000 2.06 230 12:31 06.05.2022
3825 Clear 15 1016 58 10000 2.06 0 11:38 06.05.2022
3826 Clear 13 1016 64 10000 2.57 250 09:49 06.05.2022
3827 Clear 12 1016 68 10000 3.6 280 09:19 06.05.2022
3828 Clouds 10 1016 75 10000 2.57 250 07:59 06.05.2022
3829 Clear 9 1016 80 10000 2.57 240 06:39 06.05.2022
3830 Clouds 7 1016 87 10000 2.57 200 04:37 06.05.2022
3831 Clouds 7 1015 85 10000 1.54 260 02:43 06.05.2022
3832 Clouds 10 1015 75 10000 3.09 260 23:36 05.05.2022
3833 Clear 12 1014 70 10000 5.14 260 21:52 05.05.2022
3834 Clouds 13 1014 65 10000 5.14 290 20:53 05.05.2022
3835 Clear 14 1013 58 10000 3.6 210 19:49 05.05.2022
3836 Clear 17 1013 49 10000 6.17 190 16:57 05.05.2022
3837 Clear 16 1013 49 10000 5.14 200 16:18 05.05.2022
3838 Clear 17 1013 49 10000 5.14 180 14:43 05.05.2022
3839 Clear 16 1013 50 10000 5.14 190 13:20 05.05.2022
3840 Clear 15 1013 52 10000 5.66 200 12:24 05.05.2022
3841 Clear 14 1014 58 10000 3.6 190 10:33 05.05.2022
3842 Clear 12 1014 63 10000 4.12 210 09:39 05.05.2022
3843 Clear 9 1014 71 10000 3.09 200 07:24 05.05.2022
3844 Clouds 8 1014 67 10000 3.6 200 02:59 05.05.2022
3845 Clouds 8 1015 66 10000 4.12 190 01:48 05.05.2022
3846 Clouds 8 1015 64 10000 3.6 180 01:22 05.05.2022
3847 Clouds 8 1015 60 10000 4.63 180 23:31 04.05.2022
3848 Clouds 7 1015 56 10000 4.12 160 22:25 04.05.2022
3849 Clear 7 1015 50 10000 4.63 170 21:49 04.05.2022
3850 Clear 7 1015 49 10000 4.63 170 21:26 04.05.2022
3851 Clear 8 1016 40 10000 7.2 180 20:22 04.05.2022
3852 Clear 9 1016 41 10000 4.12 180 19:51 04.05.2022
3853 Clear 10 1015 42 10000 5.66 200 18:49 04.05.2022
3854 Clear 11 1016 42 10000 5.14 180 18:21 04.05.2022
3855 Clear 12 1017 33 10000 5.14 200 17:29 04.05.2022
3856 Clear 12 1017 32 10000 6.17 200 15:38 04.05.2022
3857 Clear 12 1018 33 10000 5.66 200 15:00 04.05.2022
3858 Clear 13 1018 34 10000 4.12 190 14:20 04.05.2022
3859 Clear 12 1018 36 10000 3.6 150 13:20 04.05.2022
3860 Clear 11 1019 37 10000 3.09 190 12:29 04.05.2022
3861 Clear 11 1019 37 10000 3.09 190 12:29 04.05.2022
3862 Clear 10 1019 39 10000 2.06 0 10:40 04.05.2022
3863 Clear 9 1019 45 10000 1.54 120 09:38 04.05.2022
3864 Clear 7 1019 54 10000 1.54 0 08:34 04.05.2022
3865 Clouds -1 1020 92 10000 0 0 05:53 04.05.2022
3866 Clouds 0 1019 90 10000 0.51 0 02:49 04.05.2022
3867 Clouds 3 1016 75 10000 1.54 150 23:41 03.05.2022
3868 Clouds 4 1016 68 10000 3.09 130 22:30 03.05.2022
3869 Clear 5 1015 63 10000 4.12 120 21:36 03.05.2022
3870 Clear 6 1015 54 10000 4.12 120 20:53 03.05.2022
3871 Clear 9 1015 38 10000 5.14 320 19:49 03.05.2022
3872 Clear 9 1015 36 10000 6.69 310 18:52 03.05.2022
3873 Clear 10 1014 35 10000 7.2 290 18:20 03.05.2022
3874 Clear 11 1014 30 10000 7.2 290 16:37 03.05.2022
3875 Clear 11 1013 31 10000 6.69 300 15:35 03.05.2022
3876 Clear 9 1013 33 10000 7.2 300 12:47 03.05.2022
3877 Clear 9 1013 33 10000 7.2 300 12:27 03.05.2022
3878 Clear 8 1013 36 10000 6.17 330 10:57 03.05.2022
3879 Clear 7 1012 41 10000 7.2 310 09:29 03.05.2022
3880 Clear 5 1010 52 10000 6.17 300 06:46 03.05.2022
3881 Clouds 4 1010 53 10000 5.14 310 05:58 03.05.2022
3882 Clouds 10 1005 35 10000 4.12 330 00:32 03.05.2022
3883 Clouds 12 1006 37 10000 3.6 310 22:36 02.05.2022
3884 Clouds 12 1006 47 10000 3.09 290 21:52 02.05.2022
3885 Clear 13 1005 41 10000 4.12 260 20:51 02.05.2022
3886 Clear 14 1004 47 10000 6.69 250 18:40 02.05.2022
3887 Clear 14 1004 47 10000 7.2 260 18:21 02.05.2022
3888 Clear 15 1004 45 10000 6.17 250 17:37 02.05.2022
3889 Clear 15 1005 44 10000 8.23 260 16:22 02.05.2022
3890 Clear 15 1005 42 10000 9.26 280 15:30 02.05.2022
3891 Clear 15 1005 42 10000 9.26 280 15:30 02.05.2022
3892 Clear 16 1006 40 10000 8.75 260 13:50 02.05.2022
3893 Clear 15 1007 44 10000 9.77 240 12:19 02.05.2022
3894 Clear 13 1009 46 10000 7.2 240 10:47 02.05.2022
3895 Clear 11 1010 51 10000 4.63 250 09:20 02.05.2022
3896 Clear 8 1012 61 10000 3.6 220 07:51 02.05.2022
3897 Clouds 4 1015 77 10000 2.06 200 03:48 02.05.2022
3898 Clouds 5 1017 72 10000 3.09 210 00:24 02.05.2022
3899 Clouds 5 1018 70 10000 2.57 210 23:48 01.05.2022
3900 Clear 6 1018 64 10000 2.57 180 22:25 01.05.2022
3901 Clear 8 1019 60 10000 3.09 180 21:19 01.05.2022
3902 Clear 11 1017 45 10000 4.12 240 19:51 01.05.2022
3903 Clear 11 1018 44 10000 4.63 280 18:57 01.05.2022
3904 Clear 12 1019 41 10000 3.09 230 18:28 01.05.2022
3905 Clear 13 1019 37 10000 3.6 290 17:26 01.05.2022
3906 Clear 12 1019 40 10000 3.09 360 16:23 01.05.2022
3907 Clear 12 1019 44 10000 3.6 320 15:25 01.05.2022
3908 Clear 12 1020 39 10000 4.12 320 13:42 01.05.2022
3909 Clouds 11 1021 46 10000 3.6 310 11:18 01.05.2022
3910 Clouds 9 1021 55 10000 2.57 360 08:53 01.05.2022
3911 Clouds 8 1020 61 10000 2.57 350 07:55 01.05.2022
3912 Clouds 6 1019 80 10000 0 0 03:35 01.05.2022
3913 Clouds 7 1020 76 10000 1.03 230 00:18 01.05.2022
3914 Clouds 8 1020 70 10000 1.03 0 21:47 30.04.2022
3915 Clouds 8 1020 68 10000 2.06 210 20:58 30.04.2022
3916 Clouds 9 1020 65 10000 3.09 220 19:41 30.04.2022
3917 Clouds 10 1020 61 10000 4.63 210 18:21 30.04.2022
3918 Clear 12 1021 53 10000 3.6 190 16:44 30.04.2022
3919 Clear 11 1021 53 10000 4.12 240 15:46 30.04.2022
3920 Clear 11 1022 50 10000 3.09 270 14:44 30.04.2022
3921 Clear 12 1022 45 10000 4.63 210 12:42 30.04.2022
3922 Clear 12 1023 48 10000 3.6 200 11:34 30.04.2022
3923 Clear 11 1023 53 10000 3.6 220 10:44 30.04.2022
3924 Clear 9 1024 59 10000 2.57 230 09:25 30.04.2022
3925 Clouds 3 1023 84 10000 0 0 06:43 30.04.2022
3926 Clouds 2 1025 75 10000 1.03 0 02:36 30.04.2022
3927 Clouds 3 1025 70 10000 2.06 210 23:37 29.04.2022
3928 Clear 4 1027 65 10000 2.06 170 22:31 29.04.2022
3929 Clear 4 1026 61 10000 3.09 160 21:39 29.04.2022
3930 Clear 5 1024 55 10000 5.14 150 20:49 29.04.2022
3931 Clouds 6 1021 53 10000 1.34 135 19:45 29.04.2022
3932 Clear 10 1025 36 10000 4.12 250 17:55 29.04.2022
3933 Clear 10 1025 35 10000 1.54 0 17:23 29.04.2022
3934 Clear 10 1026 37 10000 3.09 320 15:49 29.04.2022
3935 Clear 9 1026 37 10000 4.12 340 14:22 29.04.2022
3936 Clear 9 1026 38 10000 4.12 330 13:21 29.04.2022
3937 Clear 8 1026 39 10000 4.12 340 11:49 29.04.2022
3938 Clear 5 1028 56 10000 3.6 340 08:51 29.04.2022
3939 Clear 3 1028 68 10000 2.57 350 07:28 29.04.2022
3940 Clear 2 1027 73 10000 2.06 340 06:39 29.04.2022
3941 Clouds -1 1027 84 10000 1.54 320 04:53 29.04.2022
3942 Clouds 2 1026 76 10000 1.03 280 00:45 29.04.2022
3943 Clouds 2 1025 67 10000 0 0 23:28 28.04.2022
3944 Clouds 4 1025 60 10000 0 0 22:41 28.04.2022
3945 Clear 6 1024 53 10000 2.57 30 21:47 28.04.2022
3946 Clear 7 1024 49 10000 3.09 20 21:19 28.04.2022
3947 Clear 8 1024 47 10000 3.09 10 20:35 28.04.2022
3948 Clouds 9 1023 45 10000 2.57 10 19:45 28.04.2022
3949 Clear 10 1022 42 10000 4.12 360 19:22 28.04.2022
3950 Clear 11 1022 37 10000 6.69 330 18:36 28.04.2022
3951 Clear 12 1021 33 10000 8.75 280 17:24 28.04.2022
3952 Clear 12 1021 34 10000 6.17 280 16:40 28.04.2022
3953 Clear 13 1021 35 10000 6.69 280 16:18 28.04.2022
3954 Clear 12 1021 39 10000 7.72 280 15:28 28.04.2022
3955 Clear 12 1022 43 10000 7.72 290 14:19 28.04.2022
3956 Clear 11 1022 49 10000 5.14 260 12:44 28.04.2022
3957 Clear 10 1022 50 10000 4.12 260 11:59 28.04.2022
3958 Clear 8 1023 55 10000 4.12 240 10:46 28.04.2022
3959 Clear 8 1023 57 10000 3.6 240 09:56 28.04.2022
3960 Clear 5 1024 73 10000 3.09 260 08:31 28.04.2022
3961 Clear 3 1024 86 10000 2.06 230 07:19 28.04.2022
3962 Fog 0 1024 88 10000 1.54 200 05:56 28.04.2022
3963 Fog 0 1024 92 10000 1.54 200 05:38 28.04.2022
3964 Clouds 0 1024 94 10000 0.51 170 04:40 28.04.2022
3965 Clouds 1 1026 71 10000 3.6 140 00:30 28.04.2022
3966 Clouds 2 1026 64 10000 4.12 130 22:40 27.04.2022
3967 Clear 2 1026 62 10000 5.14 120 21:55 27.04.2022
3968 Clear 3 1026 61 10000 5.66 110 21:18 27.04.2022
3969 Clear 3 1026 59 10000 4.63 110 20:37 27.04.2022
3970 Clear 5 1025 58 10000 6.17 100 19:38 27.04.2022
3971 Clear 5 1025 57 10000 5.66 100 19:18 27.04.2022
3972 Clear 6 1025 55 10000 4.63 90 18:22 27.04.2022
3973 Clear 6 1025 55 10000 4.63 90 18:22 27.04.2022
3974 Clear 6 1025 55 10000 4.63 90 18:22 27.04.2022
3975 Clear 8 1025 51 10000 3.09 0 17:24 27.04.2022
3976 Clear 9 1026 36 10000 5.14 270 15:21 27.04.2022
3977 Clear 8 1026 40 10000 3.6 270 12:25 27.04.2022
3978 Clear 7 1026 48 10000 3.6 320 11:20 27.04.2022
3979 Clear 6 1026 55 10000 2.06 360 09:45 27.04.2022
3980 Clear 2 1025 75 10000 3.09 290 07:19 27.04.2022
3981 Clouds -1 1024 81 10000 0 0 04:45 27.04.2022
3982 Clouds 1 1023 61 10000 0.51 250 01:35 27.04.2022
3983 Clouds 2 1023 56 10000 0 0 00:38 27.04.2022
3984 Clouds 2 1023 56 10000 0 0 00:38 27.04.2022
3985 Clouds 2 1022 51 10000 0 0 23:40 26.04.2022
3986 Clouds 3 1022 51 10000 1.03 0 23:22 26.04.2022
3987 Clouds 4 1022 49 10000 2.57 80 22:41 26.04.2022
3988 Clear 5 1021 48 10000 2.57 30 21:37 26.04.2022
3989 Clear 6 1020 50 10000 3.09 20 20:53 26.04.2022
3990 Clear 6 1020 49 10000 3.09 20 20:33 26.04.2022
3991 Clear 7 1019 47 10000 3.6 350 19:32 26.04.2022
3992 Clear 8 1018 47 10000 3.6 350 18:45 26.04.2022
3993 Clouds 8 1018 48 10000 5.14 350 17:59 26.04.2022
3994 Clear 9 1018 47 10000 3.09 50 16:58 26.04.2022
3995 Clear 10 1017 42 10000 4.12 340 14:28 26.04.2022
3996 Clear 10 1016 43 10000 5.14 340 13:33 26.04.2022
3997 Clouds 9 1016 48 10000 4.12 330 11:57 26.04.2022
3998 Clear 8 1015 55 10000 4.63 340 10:37 26.04.2022
3999 Clear 7 1015 57 10000 4.12 350 09:25 26.04.2022
4000 Clear 6 1013 61 10000 4.63 350 07:38 26.04.2022
4001 Clouds 6 1012 62 10000 4.12 350 04:33 26.04.2022
4002 Clouds 5 1010 73 10000 1.03 270 01:30 26.04.2022
4003 Clouds 5 1010 72 10000 0.51 0 00:26 26.04.2022
4004 Clouds 6 1010 66 10000 1.03 100 22:46 25.04.2022
4005 Clear 7 1009 63 10000 2.06 130 21:43 25.04.2022
4006 Clear 9 1009 59 10000 5.14 60 20:40 25.04.2022
4007 Clear 13 1007 39 10000 3.6 260 18:58 25.04.2022
4008 Clear 14 1008 40 10000 3.6 300 17:54 25.04.2022
4009 Clear 14 1008 38 10000 2.57 280 17:23 25.04.2022
4010 Clear 13 1009 43 10000 5.14 280 15:29 25.04.2022
4011 Clear 13 1009 44 10000 4.63 270 14:46 25.04.2022
4012 Clear 12 1009 46 10000 4.12 280 13:35 25.04.2022
4013 Clear 10 1009 52 10000 2.57 320 11:43 25.04.2022
4014 Clear 9 1010 55 10000 2.06 300 10:26 25.04.2022
4015 Clear 5 1010 63 10000 3.6 350 08:46 25.04.2022
4016 Clear 1 1011 79 10000 1.54 310 06:45 25.04.2022
4017 Clear 0 1011 81 10000 1.54 330 04:27 25.04.2022
4018 Clear 2 1013 72 10000 3.09 360 00:58 25.04.2022
4019 Clear 3 1013 68 10000 2.57 350 23:51 24.04.2022
4020 Clouds 3 1013 66 10000 2.06 360 22:45 24.04.2022
4021 Clear 4 1014 64 10000 2.06 360 22:26 24.04.2022
4022 Clear 5 1014 62 10000 3.09 10 21:26 24.04.2022
4023 Clear 5 1014 60 10000 3.09 10 20:54 24.04.2022
4024 Clear 6 1014 60 10000 3.09 10 20:35 24.04.2022
4025 Clear 7 1014 56 10000 3.6 360 19:46 24.04.2022
4026 Clear 8 1014 53 10000 5.14 30 18:20 24.04.2022
4027 Clear 8 1014 50 10000 6.17 360 17:29 24.04.2022
4028 Clear 8 1014 50 10000 6.69 350 16:59 24.04.2022
4029 Clear 9 1014 49 10000 6.69 360 16:32 24.04.2022
4030 Clear 9 1014 49 10000 5.66 10 15:54 24.04.2022
4031 Clear 9 1014 49 10000 6.69 360 15:29 24.04.2022
4032 Clear 9 1015 48 10000 6.17 20 13:57 24.04.2022
4033 Clouds 9 1015 48 10000 5.66 40 13:25 24.04.2022
4034 Clouds 7 1016 53 10000 5.66 30 11:56 24.04.2022
4035 Clouds 7 1016 56 10000 5.14 20 11:28 24.04.2022
4036 Clouds 7 1016 66 10000 4.12 30 10:24 24.04.2022
4037 Clouds 6 1016 70 10000 3.6 20 09:23 24.04.2022
4038 Clouds 3 1016 78 10000 3.6 20 06:34 24.04.2022
4039 Clouds 5 1016 80 10000 3.09 20 03:43 24.04.2022
4040 Clouds 5 1016 84 10000 2.06 10 01:38 24.04.2022
4041 Clouds 5 1016 80 10000 4.12 350 00:22 24.04.2022
4042 Clouds 5 1016 78 10000 4.12 350 23:26 23.04.2022
4043 Clouds 5 1016 76 10000 4.63 350 22:55 23.04.2022
4044 Clouds 6 1016 74 10000 3.09 20 21:51 23.04.2022
4045 Clouds 6 1016 72 10000 3.09 360 21:32 23.04.2022
4046 Clouds 7 1016 69 10000 3.09 10 20:36 23.04.2022
4047 Clouds 7 1016 72 10000 3.09 20 19:46 23.04.2022
4048 Clouds 7 1016 72 10000 3.09 20 19:19 23.04.2022
4049 Clouds 7 1016 72 10000 3.09 20 18:46 23.04.2022
4050 Rain 9 1016 60 10000 6.17 20 17:50 23.04.2022
4051 Clear 10 1015 52 10000 5.66 10 16:56 23.04.2022
4052 Clear 10 1016 56 10000 6.17 10 16:23 23.04.2022
4053 Clear 11 1016 56 10000 6.17 360 14:47 23.04.2022
4054 Clear 11 1018 57 10000 6.69 20 12:35 23.04.2022
4055 Clear 10 1016 62 10000 5.14 350 10:41 23.04.2022
4056 Clear 7 1016 75 10000 5.14 360 08:55 23.04.2022
4057 Clouds 3 1016 84 10000 4.12 350 05:47 23.04.2022
4058 Clouds 3 1017 82 10000 3.6 340 03:54 23.04.2022
4059 Clouds 4 1018 74 10000 3.6 350 00:46 23.04.2022
4060 Clouds 5 1019 69 10000 3.6 360 23:27 22.04.2022
4061 Clear 6 1019 68 10000 3.6 20 22:19 22.04.2022
4062 Clear 7 1019 68 10000 4.12 360 21:41 22.04.2022
4063 Clear 9 1019 61 10000 5.14 360 20:45 22.04.2022
4064 Clear 10 1019 60 10000 4.63 360 20:25 22.04.2022
4065 Clear 13 1019 54 10000 5.66 360 19:18 22.04.2022
4066 Clear 14 1020 47 10000 4.12 20 18:35 22.04.2022
4067 Clear 14 1020 46 10000 3.6 70 17:37 22.04.2022
4068 Clear 15 1019 43 10000 3.6 80 16:30 22.04.2022
4069 Clear 15 1019 44 10000 4.12 90 15:32 22.04.2022
4070 Clear 15 1020 46 10000 3.6 70 14:43 22.04.2022
4071 Clear 15 1020 46 10000 4.63 90 13:42 22.04.2022
4072 Clear 14 1020 48 10000 4.12 90 12:55 22.04.2022
4073 Clear 13 1021 50 10000 3.6 80 11:41 22.04.2022
4074 Clear 13 1021 51 10000 4.12 80 11:18 22.04.2022
4075 Clear 12 1021 54 10000 4.63 60 10:47 22.04.2022
4076 Clear 12 1021 53 10000 4.12 60 10:25 22.04.2022
4077 Clear 11 1021 58 10000 2.57 40 09:42 22.04.2022
4078 Clear 9 1021 66 10000 2.06 20 08:49 22.04.2022
4079 Clear 5 1019 81 10000 1.54 350 06:56 22.04.2022
4080 Clear 5 1021 79 10000 1.54 0 01:49 22.04.2022
4081 Clear 7 1021 70 10000 2.57 40 23:49 21.04.2022
4082 Clear 8 1021 66 10000 2.57 20 22:59 21.04.2022
4083 Clear 10 1023 61 10000 2.57 20 21:56 21.04.2022
4084 Clear 11 1021 56 10000 2.57 10 20:34 21.04.2022
4085 Clear 12 1023 47 10000 3.6 80 19:53 21.04.2022
4086 Clear 13 1023 53 10000 5.14 80 18:35 21.04.2022
4087 Clear 13 1023 54 10000 5.66 70 17:49 21.04.2022
4088 Clear 14 1023 50 10000 4.12 70 16:28 21.04.2022
4089 Clear 14 1022 51 10000 4.63 70 15:20 21.04.2022
4090 Clear 14 1022 52 10000 4.63 70 14:38 21.04.2022
4091 Clear 14 1023 50 10000 4.12 60 13:23 21.04.2022
4092 Clear 13 1023 53 10000 4.63 60 12:36 21.04.2022
4093 Clear 12 1023 58 10000 5.14 70 10:45 21.04.2022
4094 Clear 10 1022 65 10000 4.63 60 08:54 21.04.2022
4095 Clear 7 1022 76 10000 3.09 50 06:55 21.04.2022
4096 Clear 7 1022 76 10000 3.09 50 06:55 21.04.2022
4097 Clouds 6 1022 76 10000 3.09 40 04:36 21.04.2022
4098 Clouds 6 1022 75 10000 3.09 20 03:26 21.04.2022
4099 Clouds 6 1022 73 10000 2.57 30 02:46 21.04.2022
4100 Clouds 6 1022 73 10000 2.57 30 02:46 21.04.2022
4101 Clouds 7 1022 70 10000 3.09 10 00:43 21.04.2022
4102 Clouds 7 1022 69 10000 3.09 20 23:49 20.04.2022
4103 Clouds 8 1022 67 10000 3.09 20 23:21 20.04.2022
4104 Clouds 9 1022 64 10000 3.09 50 22:45 20.04.2022
4105 Clear 9 1022 62 10000 3.09 30 22:26 20.04.2022
4106 Clear 9 1022 59 10000 1.54 360 21:24 20.04.2022
4107 Clear 11 1023 49 10000 2.57 60 20:23 20.04.2022
4108 Clear 11 1023 53 10000 2.57 60 20:23 20.04.2022
4109 Clear 12 1023 40 10000 2.57 60 19:51 20.04.2022
4110 Clear 12 1023 50 10000 3.09 50 18:55 20.04.2022
4111 Clear 12 1024 49 10000 5.14 70 17:55 20.04.2022
4112 Clear 12 1022 48 10000 6.17 70 16:40 20.04.2022
4113 Clear 12 1022 49 10000 6.69 90 16:18 20.04.2022
4114 Clear 13 1022 52 10000 5.66 70 13:50 20.04.2022
4115 Clouds 13 1022 57 10000 2.68 45 11:44 20.04.2022
4116 Clear 12 1023 57 10000 4.63 60 10:56 20.04.2022
4117 Clear 11 1023 62 10000 2.57 50 09:46 20.04.2022
4118 Clear 9 1023 69 10000 2.06 20 08:59 20.04.2022
4119 Clear 7 1023 75 10000 1.54 0 08:20 20.04.2022
4120 Clear 4 1022 86 10000 1.03 0 06:56 20.04.2022
4121 Clear 3 1024 82 10000 1.03 310 03:34 20.04.2022
4122 Clear 4 1023 76 10000 1.54 70 00:22 20.04.2022
4123 Clear 5 1023 73 10000 1.54 60 23:37 19.04.2022
4124 Clear 7 1023 69 10000 2.57 80 22:25 19.04.2022
4125 Clear 7 1022 66 10000 2.06 70 21:55 19.04.2022
4126 Clear 8 1022 63 10000 3.09 70 21:22 19.04.2022
4127 Clear 9 1021 60 10000 3.6 90 20:41 19.04.2022
4128 Clear 11 1023 50 10000 4.12 70 19:56 19.04.2022
4129 Clear 12 1023 54 10000 5.14 80 18:47 19.04.2022
4130 Clear 13 1021 52 10000 4.12 70 17:40 19.04.2022
4131 Clear 14 1021 49 10000 4.12 70 16:43 19.04.2022
4132 Clear 14 1021 48 10000 2.57 120 16:23 19.04.2022
4133 Clear 14 1021 44 10000 3.6 110 14:50 19.04.2022
4134 Clear 14 1021 41 10000 4.63 120 13:49 19.04.2022
4135 Clear 13 1021 43 10000 4.12 130 12:50 19.04.2022
4136 Clear 13 1021 45 10000 4.12 130 12:20 19.04.2022
4137 Clear 12 1021 49 10000 2.06 110 10:46 19.04.2022
4138 Clear 10 1021 53 10000 2.57 110 09:19 19.04.2022
4139 Clear 3 1019 76 10000 3.09 130 05:56 19.04.2022
4140 Clouds 4 1018 80 10000 1.03 120 03:26 19.04.2022
4141 Clouds 6 1018 79 10000 3.6 100 00:55 19.04.2022
4142 Clouds 7 1018 74 10000 0 0 23:31 18.04.2022
4143 Clear 11 1018 60 10000 2.57 70 21:30 18.04.2022
4144 Clear 11 1018 58 10000 2.06 90 20:56 18.04.2022
4145 Clear 13 1016 54 10000 3.6 100 20:32 18.04.2022
4146 Clear 15 1019 38 10000 4.12 100 19:51 18.04.2022
4147 Clear 16 1018 43 10000 4.63 100 18:57 18.04.2022
4148 Clear 17 1018 44 10000 3.6 240 17:57 18.04.2022
4149 Clear 17 1018 43 10000 3.6 240 17:34 18.04.2022
4150 Clear 18 1019 41 10000 2.57 240 16:59 18.04.2022
4151 Clear 18 1019 41 10000 2.57 240 16:32 18.04.2022
4152 Clear 17 1020 41 10000 3.09 340 14:59 18.04.2022
4153 Clear 17 1019 42 10000 2.57 250 13:39 18.04.2022
4154 Clear 15 1020 46 10000 3.09 260 12:32 18.04.2022
4155 Clear 14 1020 50 10000 2.57 260 11:35 18.04.2022
4156 Clear 12 1021 56 10000 2.57 250 10:32 18.04.2022
4157 Clear 10 1021 63 10000 2.06 230 09:31 18.04.2022
4158 Clear 6 1021 77 10000 2.06 210 08:18 18.04.2022
4159 Clouds 3 1022 86 10000 0.51 0 05:45 18.04.2022
4160 Clouds 4 1023 76 10000 1.03 160 00:50 18.04.2022
4161 Clouds 6 1024 68 10000 1.03 180 22:43 17.04.2022
4162 Clear 7 1024 64 10000 2.57 210 21:50 17.04.2022
4163 Clear 8 1024 63 10000 3.09 210 21:27 17.04.2022
4164 Clear 9 1024 61 10000 3.09 200 20:50 17.04.2022
4165 Clear 11 1025 51 10000 3.6 200 19:40 17.04.2022
4166 Clear 13 1025 50 10000 4.63 200 18:24 17.04.2022
4167 Clear 15 1025 46 10000 2.57 270 16:32 17.04.2022
4168 Clear 14 1026 45 10000 2.06 300 15:28 17.04.2022
4169 Clear 14 1026 44 10000 2.06 0 14:27 17.04.2022
4170 Clear 14 1027 46 10000 1.54 0 13:20 17.04.2022
4171 Clear 13 1027 49 10000 1.03 0 12:28 17.04.2022
4172 Clouds 12 1028 51 10000 1.54 0 10:47 17.04.2022
4173 Clouds 11 1028 51 10000 1.54 0 10:28 17.04.2022
4174 Clouds 10 1028 55 10000 1.03 0 09:37 17.04.2022
4175 Clouds 8 1028 60 10000 0.51 0 08:54 17.04.2022
4176 Clouds 6 1028 67 10000 1.03 240 07:53 17.04.2022
4177 Clouds 4 1027 65 10000 1.03 150 04:52 17.04.2022
4178 Clouds 5 1028 56 10000 1.03 0 01:39 17.04.2022
4179 Rain 5 1028 50 10000 1.54 160 23:57 16.04.2022
4180 Clouds 6 1029 47 10000 1.54 160 22:41 16.04.2022
4181 Clouds 6 1029 45 10000 2.57 170 21:42 16.04.2022
4182 Clouds 7 1029 45 10000 3.6 190 20:45 16.04.2022
4183 Clouds 9 1029 43 10000 4.12 150 19:20 16.04.2022
4184 Clouds 10 1029 41 10000 4.12 140 18:32 16.04.2022
4185 Clear 12 1028 37 10000 2.57 300 16:41 16.04.2022
4186 Clear 13 1031 35 10000 2.06 240 15:46 16.04.2022
4187 Clear 12 1030 38 10000 2.57 250 14:57 16.04.2022
4188 Clear 12 1031 38 10000 2.06 240 13:58 16.04.2022
4189 Clear 12 1031 40 10000 2.06 240 13:40 16.04.2022
4190 Clear 10 1032 41 10000 2.06 0 12:33 16.04.2022
4191 Clear 8 1032 44 10000 1.54 0 11:19 16.04.2022
4192 Clear 6 1032 49 10000 0.45 270 09:57 16.04.2022
4193 Clear 4 1032 59 10000 0 0 08:59 16.04.2022
4194 Clouds 3 1032 64 10000 0 0 08:31 16.04.2022
4195 Clouds -1 1031 79 10000 0 0 06:59 16.04.2022
4196 Clouds -2 1034 77 10000 1.54 260 03:48 16.04.2022
4197 Clouds 0 1031 69 10000 2.57 300 00:35 16.04.2022
4198 Clouds 0 1031 65 10000 2.06 300 23:34 15.04.2022
4199 Clear 1 1031 62 10000 1.03 350 22:38 15.04.2022
4200 Clear 3 1031 56 10000 2.06 30 21:59 15.04.2022
4201 Clear 4 1031 53 10000 2.06 20 21:18 15.04.2022
4202 Clear 4 1031 53 10000 2.06 20 21:18 15.04.2022
4203 Clear 4 1031 53 10000 2.06 20 21:18 15.04.2022
4204 Clear 5 1030 50 10000 3.6 360 20:31 15.04.2022
4205 Clear 7 1031 46 10000 5.14 360 19:41 15.04.2022
4206 Clear 8 1029 41 10000 5.14 10 18:55 15.04.2022
4207 Clear 8 1029 41 10000 5.66 10 18:26 15.04.2022
4208 Clear 9 1029 41 10000 6.17 20 17:49 15.04.2022
4209 Clear 9 1029 40 10000 5.14 360 17:22 15.04.2022
4210 Clouds 9 1028 42 10000 5.14 350 16:24 15.04.2022
4211 Clouds 9 1028 43 10000 5.66 20 15:37 15.04.2022
4212 Clouds 9 1028 47 10000 6.17 360 13:55 15.04.2022
4213 Clouds 8 1027 54 10000 6.17 10 12:48 15.04.2022
4214 Clouds 7 1027 61 10000 5.14 360 11:59 15.04.2022
4215 Clouds 7 1027 63 10000 5.14 360 11:40 15.04.2022
4216 Clouds 6 1027 68 10000 5.14 360 10:45 15.04.2022
4217 Clouds 4 1026 75 10000 4.63 360 09:57 15.04.2022
4218 Clouds 4 1026 78 10000 4.63 360 09:22 15.04.2022
4219 Clouds 3 1026 82 10000 4.12 360 08:37 15.04.2022
4220 Clouds 2 1024 87 10000 3.6 360 06:47 15.04.2022
4221 Clouds 2 1024 87 10000 3.6 360 06:47 15.04.2022
4222 Clouds 3 1023 85 10000 3.6 10 04:42 15.04.2022
4223 Clouds 4 1020 87 10000 3.09 20 00:32 15.04.2022
4224 Clouds 4 1020 86 10000 3.6 20 23:20 14.04.2022
4225 Clouds 4 1019 86 10000 2.57 10 22:44 14.04.2022
4226 Clouds 4 1019 88 10000 3.09 20 22:25 14.04.2022
4227 Clouds 4 1018 87 10000 3.09 20 21:39 14.04.2022
4228 Clouds 5 1017 88 10000 4.12 30 19:24 14.04.2022
4229 Clouds 6 1016 87 10000 3.6 60 18:38 14.04.2022
4230 Clouds 6 1016 89 10000 2.57 50 17:45 14.04.2022
4231 Clouds 6 1016 91 10000 2.57 70 16:49 14.04.2022
4232 Clouds 5 1015 92 10000 2.57 80 15:50 14.04.2022
4233 Mist 5 1015 92 5000 2.57 50 13:53 14.04.2022
4234 Mist 5 1015 92 4000 2.57 70 13:20 14.04.2022
4235 Mist 5 1015 92 3000 2.57 50 12:32 14.04.2022
4236 Mist 5 1014 92 3000 2.57 60 11:37 14.04.2022
4237 Mist 5 1014 92 3300 2.57 90 10:58 14.04.2022
4238 Mist 4 1014 93 3500 2.57 110 10:31 14.04.2022
4239 Clouds 4 1014 92 7000 3.09 0 09:28 14.04.2022
4240 Clouds 4 1013 91 10000 3.09 100 07:54 14.04.2022
4241 Rain 4 1014 89 10000 4.12 110 05:52 14.04.2022
4242 Rain 4 1019 81 10000 2.06 160 00:29 14.04.2022
4243 Rain 5 1019 78 10000 3.09 140 22:37 13.04.2022
4244 Clear 5 1019 76 10000 2.57 130 21:42 13.04.2022
4245 Clear 5 1020 74 10000 3.09 130 20:39 13.04.2022
4246 Clear 6 1020 72 10000 2.57 150 19:48 13.04.2022
4247 Clear 7 1021 66 10000 3.6 210 18:37 13.04.2022
4248 Clear 8 1021 60 10000 3.6 150 17:25 13.04.2022
4249 Clear 8 1021 59 10000 4.12 130 16:52 13.04.2022
4250 Clear 9 1022 51 10000 4.12 150 15:47 13.04.2022
4251 Clear 9 1022 50 10000 4.63 160 15:27 13.04.2022
4252 Clear 10 1022 48 10000 4.63 140 14:40 13.04.2022
4253 Clear 10 1022 44 10000 4.63 140 13:38 13.04.2022
4254 Clear 11 1022 43 10000 4.63 180 12:51 13.04.2022
4255 Clear 9 1023 46 10000 3.6 150 11:32 13.04.2022
4256 Clear 8 1023 51 10000 2.06 160 10:27 13.04.2022
4257 Clear 5 1022 68 10000 1.54 150 08:45 13.04.2022
4258 Clear 4 1022 73 10000 1.03 160 07:57 13.04.2022
4259 Clear 2 1023 79 10000 1.03 140 06:48 13.04.2022
4260 Clouds 2 1023 79 10000 1.03 150 06:24 13.04.2022
4261 Clouds 2 1023 73 10000 0 0 01:51 13.04.2022
4262 Clouds 2 1023 71 10000 0 0 00:19 13.04.2022
4263 Clouds 3 1022 65 10000 1.03 0 22:33 12.04.2022
4264 Clear 4 1021 64 10000 0 0 21:51 12.04.2022
4265 Clear 6 1020 57 10000 1.54 0 20:48 12.04.2022
4266 Clear 7 1020 55 10000 1.54 250 20:20 12.04.2022
4267 Clear 9 1020 49 10000 2.06 250 19:40 12.04.2022
4268 Clear 10 1020 47 10000 2.06 260 18:56 12.04.2022
4269 Clear 11 1019 44 10000 2.57 220 17:39 12.04.2022
4270 Clear 10 1019 45 10000 3.6 260 16:46 12.04.2022
4271 Clear 10 1019 48 10000 2.57 290 15:34 12.04.2022
4272 Clear 10 1019 47 10000 2.57 300 14:48 12.04.2022
4273 Clear 9 1019 51 10000 3.6 310 13:45 12.04.2022
4274 Clear 9 1019 49 10000 3.6 280 13:24 12.04.2022
4275 Clear 8 1019 50 10000 3.09 250 11:57 12.04.2022
4276 Clear 8 1019 52 10000 3.09 250 11:32 12.04.2022
4277 Clear 5 1018 60 10000 1.54 310 09:47 12.04.2022
4278 Clouds 3 1017 71 10000 2.27 299 08:38 12.04.2022
4279 Clear -1 1018 79 10000 0 0 06:47 12.04.2022
4280 Clouds -1 1018 77 10000 2.23 305 05:40 12.04.2022
4281 Clear -1 1017 71 10000 2.33 309 02:37 12.04.2022
4282 Clouds 1 1014 65 10000 0 0 23:20 11.04.2022
4283 Clear 1 1014 61 10000 0 0 22:32 11.04.2022
4284 Clear 3 1012 56 10000 0 0 21:22 11.04.2022
4285 Clear 5 1012 49 10000 1.03 0 20:34 11.04.2022
4286 Clear 7 1010 41 10000 3.6 280 19:59 11.04.2022
4287 Clear 8 1012 41 10000 3.6 280 19:26 11.04.2022
4288 Clear 9 1012 41 10000 4.12 270 18:53 11.04.2022
4289 Clear 9 1011 40 10000 6.17 280 17:58 11.04.2022
4290 Clear 9 1010 38 10000 5.66 280 17:38 11.04.2022
4291 Clear 10 1010 38 10000 5.66 290 16:33 11.04.2022
4292 Clear 9 1009 40 10000 5.14 260 14:49 11.04.2022
4293 Clear 9 1009 42 10000 5.66 250 13:34 11.04.2022
4294 Clear 9 1009 45 10000 5.14 270 12:38 11.04.2022
4295 Clear 8 1009 46 10000 4.12 280 12:19 11.04.2022
4296 Clear 7 1008 51 10000 4.63 300 10:36 11.04.2022
4297 Clear 6 1008 56 10000 3.6 300 09:49 11.04.2022
4298 Clear 3 1007 70 10000 2.06 240 07:58 11.04.2022
4299 Clouds 2 1005 73 10000 2.06 260 04:18 11.04.2022
4300 Clouds 5 1001 63 10000 4.12 240 23:27 10.04.2022
4301 Clear 6 1001 61 10000 4.63 240 22:26 10.04.2022
4302 Clear 6 1000 61 10000 4.12 240 21:43 10.04.2022
4303 Clear 6 1000 60 10000 3.6 240 20:50 10.04.2022
4304 Clear 7 999 60 10000 4.12 240 19:54 10.04.2022
4305 Clear 7 999 60 10000 4.12 240 19:33 10.04.2022
4306 Clear 8 998 60 10000 4.12 250 18:46 10.04.2022
4307 Clear 8 998 60 10000 4.63 260 18:20 10.04.2022
4308 Clouds 8 998 59 10000 6.17 250 17:41 10.04.2022
4309 Clouds 8 997 58 10000 6.69 260 16:47 10.04.2022
4310 Clouds 8 997 58 10000 7.72 260 15:37 10.04.2022
4311 Clouds 8 996 61 10000 5.66 250 14:37 10.04.2022
4312 Clouds 7 995 63 10000 6.69 250 12:50 10.04.2022
4313 Clouds 6 994 66 10000 5.14 260 12:26 10.04.2022
4314 Clouds 5 993 71 10000 5.14 260 11:29 10.04.2022
4315 Clouds 5 993 73 10000 4.63 280 10:57 10.04.2022
4316 Clouds 4 993 74 10000 5.14 270 10:20 10.04.2022
4317 Clouds 3 992 76 10000 5.14 270 09:40 10.04.2022
4318 Clouds 2 991 82 10000 4.12 260 08:25 10.04.2022
4319 Clouds 1 991 84 10000 2.57 260 07:47 10.04.2022
4320 Clouds 0 989 89 10000 3.09 240 06:19 10.04.2022
4321 Clouds 1 988 89 10000 3.09 230 02:37 10.04.2022
4322 Clouds 1 987 89 10000 4.12 240 00:51 10.04.2022
4323 Clouds 0 987 90 10000 3.6 240 23:50 09.04.2022
4324 Clouds 1 986 91 10000 3.09 230 22:50 09.04.2022
4325 Clouds 1 986 91 10000 3.09 220 21:48 09.04.2022
4326 Clouds 1 986 87 10000 3.09 230 20:57 09.04.2022
4327 Clouds 1 986 87 10000 3.6 240 20:26 09.04.2022
4328 Clouds 2 985 85 10000 3.6 240 19:42 09.04.2022
4329 Clouds 2 985 86 10000 4.63 240 19:18 09.04.2022
4330 Clouds 2 985 86 10000 4.63 240 19:18 09.04.2022
4331 Clouds 3 984 87 10000 4.63 240 18:21 09.04.2022
4332 Clouds 3 984 87 10000 5.14 250 17:39 09.04.2022
4333 Clouds 2 983 89 9000 5.66 250 16:53 09.04.2022
4334 Clouds 2 983 89 5000 5.66 240 15:59 09.04.2022
4335 Clouds 1 983 91 4100 5.66 240 15:41 09.04.2022
4336 Clouds 1 983 93 5000 4.63 230 14:44 09.04.2022
4337 Clouds 1 982 92 1500 4.12 230 14:23 09.04.2022
4338 Clouds 1 981 92 2400 4.63 210 13:20 09.04.2022
4339 Clouds 1 981 89 2400 4.63 220 12:50 09.04.2022
4340 Clouds 1 981 83 4000 5.14 230 11:40 09.04.2022
4341 Clouds 1 980 73 10000 5.66 230 10:21 09.04.2022
4342 Clouds 1 980 72 10000 5.66 230 09:47 09.04.2022
4343 Clouds 0 978 73 10000 5.14 220 08:56 09.04.2022
4344 Clouds -2 977 80 10000 4.63 220 07:29 09.04.2022
4345 Clouds -2 976 82 10000 5.14 230 02:58 09.04.2022
4346 Clouds -2 976 86 10000 5.66 250 00:25 09.04.2022
4347 Clouds -1 976 91 7000 7.2 260 22:57 08.04.2022
4348 Clouds -1 975 93 2000 7.72 250 21:32 08.04.2022
4349 Clouds 0 974 91 2100 6.17 250 20:40 08.04.2022
4350 Clouds 0 973 90 3100 6.69 240 19:39 08.04.2022
4351 Clouds 0 973 82 10000 6.17 240 18:31 08.04.2022
4352 Clouds 0 972 80 10000 6.17 240 17:53 08.04.2022
4353 Clouds 1 972 81 10000 6.69 240 17:26 08.04.2022
4354 Clouds 1 971 80 10000 7.2 250 16:51 08.04.2022
4355 Clouds 0 970 84 10000 8.23 250 15:59 08.04.2022
4356 Clouds 0 970 85 10000 8.23 250 15:27 08.04.2022
4357 Clouds 0 969 86 10000 8.23 250 14:39 08.04.2022
4358 Clouds 1 968 88 10000 7.72 240 13:55 08.04.2022
4359 Snow 1 968 90 7000 8.75 240 13:29 08.04.2022
4360 Clouds 1 966 91 2400 5.14 210 12:32 08.04.2022
4361 Snow 1 964 91 7000 5.14 210 10:38 08.04.2022
4362 Snow 1 964 92 85 0.45 225 09:39 08.04.2022
4363 Snow 1 965 94 5000 3.09 260 08:58 08.04.2022
4364 Rain 4 964 93 7000 3.6 140 07:38 08.04.2022
4365 Clouds 4 964 93 10000 3.09 140 06:38 08.04.2022
4366 Clouds 4 965 92 10000 5.14 180 01:45 08.04.2022
4367 Clouds 4 965 93 10000 5.66 150 00:26 08.04.2022
4368 Clouds 4 966 94 10000 7.72 140 23:38 07.04.2022
4369 Rain 3 967 95 3600 6.69 70 22:40 07.04.2022
4370 Rain 3 968 94 6000 7.2 50 22:22 07.04.2022
4371 Rain 2 969 95 8000 6.17 50 21:56 07.04.2022
4372 Rain 2 971 93 6000 6.17 60 21:19 07.04.2022
4373 Rain 1 972 94 10000 6.17 70 20:41 07.04.2022
4374 Snow 1 975 92 1700 5.66 70 18:54 07.04.2022
4375 Snow 1 977 92 6000 5.66 70 17:27 07.04.2022
4376 Rain 2 978 91 8000 6.17 70 16:45 07.04.2022
4377 Rain 2 978 91 6000 5.66 70 16:25 07.04.2022
4378 Snow 2 978 92 5000 4.63 80 15:37 07.04.2022
4379 Clouds 2 979 87 10000 5.14 80 13:51 07.04.2022
4380 Clouds 2 980 86 10000 5.14 70 13:23 07.04.2022
4381 Clouds 2 980 88 10000 5.14 70 11:49 07.04.2022
4382 Clouds 2 982 90 8000 4.12 80 10:30 07.04.2022
4383 Clouds 1 982 90 10000 3.6 70 08:40 07.04.2022
4384 Clouds 0 984 88 10000 2.57 70 06:58 07.04.2022
4385 Clouds 0 985 87 10000 2.57 70 04:26 07.04.2022
4386 Clouds -1 986 86 10000 1.54 60 02:29 07.04.2022
4387 Clouds -1 987 84 10000 0 0 00:42 07.04.2022
4388 Clouds 0 987 83 10000 1.54 160 23:21 06.04.2022
4389 Clouds 1 988 80 10000 1.54 160 22:44 06.04.2022
4390 Clear 2 988 75 10000 3.09 180 21:47 06.04.2022
4391 Clear 2 988 74 10000 3.09 180 20:43 06.04.2022
4392 Clear 3 988 65 10000 3.09 190 19:59 06.04.2022
4393 Clear 4 988 59 10000 4.12 190 19:19 06.04.2022
4394 Clear 5 988 53 10000 4.63 200 18:47 06.04.2022
4395 Clear 6 989 45 10000 4.12 240 17:35 06.04.2022
4396 Clear 6 989 42 10000 5.14 210 16:39 06.04.2022
4397 Clear 6 990 43 10000 4.63 250 15:57 06.04.2022
4398 Clear 6 990 42 10000 5.14 270 15:39 06.04.2022
4399 Clear 4 990 49 10000 6.17 250 13:31 06.04.2022
4400 Clear 3 991 54 10000 5.66 250 12:28 06.04.2022
4401 Clear 2 991 57 10000 4.63 260 10:57 06.04.2022
4402 Clear 2 991 57 10000 5.14 270 10:32 06.04.2022
4403 Clear 1 991 60 10000 5.14 280 09:46 06.04.2022
4404 Clear -1 991 66 10000 5.14 270 08:39 06.04.2022
4405 Clear -2 990 68 10000 3.6 260 07:57 06.04.2022
4406 Clouds -3 990 72 10000 4.12 260 05:23 06.04.2022
4407 Clouds -2 989 69 10000 4.63 270 23:58 05.04.2022
4408 Clouds -3 989 78 10000 3.6 250 23:33 05.04.2022
4409 Clear -2 989 77 10000 4.63 270 21:48 05.04.2022
4410 Clear -2 989 77 10000 4.63 270 21:48 05.04.2022
4411 Clear -2 989 77 10000 4.63 270 21:48 05.04.2022
4412 Clouds -2 988 85 10000 4.12 260 20:58 05.04.2022
4413 Clouds -2 988 87 10000 4.12 270 20:23 05.04.2022
4414 Clouds 0 988 66 10000 7.72 300 18:28 05.04.2022
4415 Clouds 1 988 57 10000 8.23 290 17:20 05.04.2022
4416 Clouds 2 988 58 10000 8.75 280 16:42 05.04.2022
4417 Clouds 1 988 65 10000 8.23 280 15:50 05.04.2022
4418 Clouds 1 988 68 10000 6.69 280 15:30 05.04.2022
4419 Clouds 1 987 65 10000 9.26 290 13:46 05.04.2022
4420 Clouds 0 986 67 10000 8.23 300 12:29 05.04.2022
4421 Clouds -1 986 70 10000 8.23 310 11:43 05.04.2022
4422 Clouds -1 985 72 10000 6.69 310 11:24 05.04.2022
4423 Clouds -3 984 82 10000 8.75 310 09:31 05.04.2022
4424 Clouds -2 983 83 10000 8.75 310 08:27 05.04.2022
4425 Clouds -1 978 92 4400 7.2 330 03:38 05.04.2022
4426 Snow 0 976 92 2000 6.17 350 23:42 04.04.2022
4427 Snow 0 975 94 2500 5.14 360 22:37 04.04.2022
4428 Snow 1 976 92 4000 2.57 360 21:48 04.04.2022
4429 Snow 0 976 92 5000 2.57 20 21:19 04.04.2022
4430 Rain 1 976 94 6000 2.06 50 20:47 04.04.2022
4431 Rain 2 978 91 8000 2.06 120 19:28 04.04.2022
4432 Rain 2 979 91 8000 2.57 150 18:43 04.04.2022
4433 Rain 3 980 91 9000 3.6 160 17:20 04.04.2022
4434 Rain 3 982 90 9000 4.63 170 16:31 04.04.2022
4435 Rain 4 982 91 9000 3.09 170 15:34 04.04.2022
4436 Rain 4 984 90 9000 2.57 190 14:46 04.04.2022
4437 Drizzle 4 984 89 10000 2.57 190 14:28 04.04.2022
4438 Drizzle 4 986 90 10000 3.09 170 12:59 04.04.2022
4439 Rain 4 988 88 10000 3.09 210 11:29 04.04.2022
4440 Rain 4 989 86 10000 3.09 210 10:29 04.04.2022
4441 Rain 1 992 84 5000 2.06 180 06:58 04.04.2022
4442 Clouds 2 996 68 10000 2.57 210 03:18 04.04.2022
4443 Clouds 0 999 61 10000 2.57 220 23:47 03.04.2022
4444 Clear 0 1000 58 10000 1.54 190 22:24 03.04.2022
4445 Clear 2 1001 54 10000 2.06 230 21:32 03.04.2022
4446 Clear 3 1001 50 10000 2.57 240 20:35 03.04.2022
4447 Clear 5 1002 45 10000 5.14 250 19:29 03.04.2022
4448 Clear 7 1003 42 10000 5.14 260 18:26 03.04.2022
4449 Clear 7 1003 42 10000 4.12 240 17:41 03.04.2022
4450 Clear 7 1004 41 10000 5.14 240 16:50 03.04.2022
4451 Clear 7 1005 41 10000 5.14 270 15:59 03.04.2022
4452 Clear 7 1006 43 10000 6.17 250 14:27 03.04.2022
4453 Clear 7 1006 45 10000 4.63 260 13:38 03.04.2022
4454 Clear 5 1008 53 10000 5.66 250 12:19 03.04.2022
4455 Clouds 3 1009 63 10000 3.6 280 10:32 03.04.2022
4456 Clouds 2 1009 67 10000 2.06 260 09:23 03.04.2022
4457 Clouds -3 1010 78 10000 1.03 220 07:24 03.04.2022
4458 Clouds -3 1011 72 10000 1.03 250 03:46 03.04.2022
4459 Clouds -1 1012 61 10000 1.54 280 00:36 03.04.2022
4460 Clouds -1 1012 62 10000 2.06 230 22:54 02.04.2022
4461 Clouds -1 1013 60 10000 2.06 230 21:57 02.04.2022
4462 Clouds -1 1013 58 10000 2.06 230 21:33 02.04.2022
4463 Clear 0 1013 56 10000 2.06 230 20:51 02.04.2022
4464 Clouds 4 1013 46 10000 4.12 270 18:57 02.04.2022
4465 Clouds 4 1013 45 10000 4.12 270 18:20 02.04.2022
4466 Clouds 4 1013 45 10000 4.12 270 18:20 02.04.2022
4467 Clouds 4 1013 46 10000 4.63 290 17:47 02.04.2022
4468 Clouds 4 1015 46 10000 3.18 284 16:22 02.04.2022
4469 Clear 4 1015 44 10000 4.63 270 15:21 02.04.2022
4470 Clouds 4 1016 48 10000 3.29 281 14:43 02.04.2022
4471 Clear 3 1016 52 10000 3.6 270 13:34 02.04.2022
4472 Clouds 2 1017 54 10000 2.57 240 12:37 02.04.2022
4473 Clear 1 1018 66 10000 1.03 0 10:56 02.04.2022
4474 Clear -2 1018 79 10000 0 0 08:49 02.04.2022
4475 Clear -9 1018 92 10000 0 0 06:49 02.04.2022
4476 Clear -6 1018 89 10000 0.51 280 03:39 02.04.2022
4477 Clear -5 1019 82 10000 1.03 290 23:55 01.04.2022
4478 Clear -4 1019 81 10000 1.03 290 23:18 01.04.2022
4479 Clear -2 1019 72 10000 2.57 70 21:33 01.04.2022
4480 Clouds -1 1018 69 10000 3.6 60 20:51 01.04.2022
4481 Clouds -1 1018 74 10000 2.06 80 19:57 01.04.2022
4482 Clouds 0 1018 78 10000 0.51 0 19:31 01.04.2022
4483 Clouds 0 1018 75 10000 2.12 90 18:45 01.04.2022
4484 Clouds 1 1018 73 10000 3.6 320 17:46 01.04.2022
4485 Clouds 1 1018 67 10000 3.09 60 16:48 01.04.2022
4486 Clouds 2 1018 64 10000 1.54 50 15:36 01.04.2022
4487 Clouds 2 1018 62 10000 2.06 110 14:20 01.04.2022
4488 Clouds 2 1018 70 10000 1.54 50 13:33 01.04.2022
4489 Clouds 1 1018 75 10000 4.63 90 12:32 01.04.2022
4490 Clouds 1 1018 75 10000 4.63 90 12:32 01.04.2022
4491 Clouds 1 1018 71 10000 3.09 70 11:40 01.04.2022
4492 Clouds 1 1017 78 10000 2.57 70 10:19 01.04.2022
4493 Clouds -2 1017 85 10000 0 0 08:47 01.04.2022
4494 Clouds -5 1016 91 10000 1.54 340 06:54 01.04.2022
4495 Clouds -4 1016 86 10000 1.03 0 04:50 01.04.2022
4496 Clouds -5 1016 88 10000 1.03 300 04:31 01.04.2022
4497 Clouds -5 1015 90 10000 0 0 01:56 01.04.2022
4498 Clouds -3 1014 79 10000 1.03 270 22:58 31.03.2022
4499 Clear -3 1014 77 10000 1.03 0 21:51 31.03.2022
4500 Clouds -2 1014 76 10000 1.54 140 21:32 31.03.2022
4501 Clouds -1 1013 72 10000 1.54 110 20:29 31.03.2022
4502 Clouds 0 1013 69 10000 2.57 60 19:49 31.03.2022
4503 Clouds 1 1012 65 10000 1.54 110 18:46 31.03.2022
4504 Clouds 2 1010 57 10000 3.09 160 17:50 31.03.2022
4505 Clouds 2 1010 56 10000 4.12 170 16:38 31.03.2022
4506 Clouds 3 1010 49 10000 3.09 70 15:45 31.03.2022
4507 Clouds 3 1010 45 10000 2.57 30 15:19 31.03.2022
4508 Clouds 3 1009 43 10000 3.6 20 14:36 31.03.2022
4509 Clouds 3 1009 44 10000 2.57 330 12:19 31.03.2022
4510 Clouds 2 1009 48 10000 1.54 0 11:22 31.03.2022
4511 Clear 1 1009 64 10000 0 0 09:45 31.03.2022
4512 Clear 1 1009 64 10000 0 0 09:45 31.03.2022
4513 Clear -3 1008 85 10000 0 0 08:20 31.03.2022
4514 Clouds -7 1009 89 10000 0 0 05:42 31.03.2022
4515 Clouds -5 1008 80 10000 0 0 23:58 30.03.2022
4516 Clouds -4 1008 72 10000 0 0 22:43 30.03.2022
4517 Clear -3 1006 68 10000 0 0 21:39 30.03.2022
4518 Clear -2 1006 64 10000 1.54 260 20:54 30.03.2022
4519 Clear -1 1006 61 10000 3.09 310 20:20 30.03.2022
4520 Clear 0 1006 54 10000 2.06 300 19:28 30.03.2022
4521 Clouds 1 1005 50 10000 4.63 330 18:19 30.03.2022
4522 Clear 2 1005 46 10000 3.09 340 17:45 30.03.2022
4523 Clear 2 1005 43 10000 4.63 320 16:56 30.03.2022
4524 Clear 2 1005 42 10000 4.63 330 16:32 30.03.2022
4525 Clear 2 1005 39 10000 6.69 290 14:59 30.03.2022
4526 Clear 2 1005 46 10000 4.63 290 13:42 30.03.2022
4527 Clear 1 1005 49 10000 7.2 280 12:47 30.03.2022
4528 Clear -1 1005 53 10000 3.6 310 10:58 30.03.2022
4529 Clear -2 1005 54 10000 4.12 290 09:59 30.03.2022
4530 Clear -3 1005 56 10000 4.63 290 09:23 30.03.2022
4531 Clear -5 1005 68 10000 3.09 260 07:32 30.03.2022
4532 Clear -6 1006 69 10000 3.09 260 05:40 30.03.2022
4533 Clear -7 1008 79 10000 1.03 0 03:39 30.03.2022
4534 Clear -8 1008 79 10000 0 0 00:31 30.03.2022
4535 Clear -6 1008 68 10000 1.03 270 22:20 29.03.2022
4536 Clear -5 1007 68 10000 2.06 350 21:44 29.03.2022
4537 Clouds -4 1007 63 10000 2.06 40 20:52 29.03.2022
4538 Clear -2 1007 58 10000 3.09 340 19:53 29.03.2022
4539 Clear -1 1006 49 10000 3.6 340 18:55 29.03.2022
4540 Clear -1 1006 44 10000 3.6 350 18:19 29.03.2022
4541 Clouds -1 1006 47 10000 5.14 340 17:21 29.03.2022
4542 Clouds 0 1006 50 10000 5.14 320 16:56 29.03.2022
4543 Clouds 0 1006 53 10000 5.66 320 15:57 29.03.2022
4544 Clouds -1 1006 66 10000 5.14 340 14:48 29.03.2022
4545 Clouds -1 1006 72 10000 4.12 320 13:53 29.03.2022
4546 Clouds -1 1006 71 3300 5.66 350 12:47 29.03.2022
4547 Clouds 0 1006 64 10000 3.6 340 11:31 29.03.2022
4548 Clouds -1 1006 74 10000 3.6 360 10:27 29.03.2022
4549 Clouds -2 1005 73 10000 3.6 340 09:23 29.03.2022
4550 Clouds -2 1004 78 10000 3.6 350 06:55 29.03.2022
4551 Clouds -2 1004 80 10000 2.57 310 03:49 29.03.2022
4552 Clouds 0 1003 72 10000 4.12 350 23:54 28.03.2022
4553 Clouds 1 1003 69 10000 4.63 340 23:19 28.03.2022
4554 Clouds 2 1003 66 10000 5.66 340 22:47 28.03.2022
4555 Clear 2 1002 63 10000 5.14 340 22:22 28.03.2022
4556 Clear 6 1002 33 10000 8.23 310 20:53 28.03.2022
4557 Clear 7 1002 33 10000 7.2 320 19:59 28.03.2022
4558 Clear 7 1002 33 10000 7.2 320 19:40 28.03.2022
4559 Clear 7 999 35 10000 11.32 310 18:52 28.03.2022
4560 Clear 8 1000 39 10000 9.26 310 18:19 28.03.2022
4561 Clouds 9 998 41 10000 4.92 293 17:30 28.03.2022
4562 Clear 11 997 33 10000 12.35 300 15:54 28.03.2022
4563 Clear 11 997 33 10000 10.8 290 14:27 28.03.2022
4564 Clear 11 998 37 10000 12.86 300 13:35 28.03.2022
4565 Clear 9 998 59 10000 9.26 280 11:57 28.03.2022
4566 Clear 8 998 60 10000 8.75 280 10:49 28.03.2022
4567 Clear 8 999 59 10000 8.75 280 09:38 28.03.2022
4568 Clear 8 1001 60 10000 8.75 270 08:49 28.03.2022
4569 Clear 8 1001 61 10000 8.75 270 08:21 28.03.2022
4570 Clear 7 1002 63 10000 7.72 270 07:27 28.03.2022
4571 Clouds 8 1006 63 10000 7.2 280 02:48 28.03.2022
4572 Clouds 8 1010 65 10000 6.17 260 22:59 27.03.2022
4573 Clear 8 1011 64 10000 6.69 260 22:22 27.03.2022
4574 Clear 8 1011 61 10000 6.69 260 21:40 27.03.2022
4575 Clear 7 1012 64 10000 6.17 260 20:53 27.03.2022
4576 Clear 7 1013 60 10000 4.12 240 19:44 27.03.2022
4577 Clouds 7 1015 60 10000 5.41 259 18:47 27.03.2022
4578 Clouds 7 1015 60 10000 5.4 259 18:47 27.03.2022
4579 Clear 7 1015 56 10000 4.12 250 18:25 27.03.2022
4580 Clear 7 1016 54 10000 5.66 250 17:37 27.03.2022
4581 Clear 7 1019 48 10000 5.66 240 15:57 27.03.2022
4582 Clear 8 1021 51 10000 4.12 210 14:22 27.03.2022
4583 Clear 7 1022 50 10000 4.12 190 13:42 27.03.2022
4584 Clear 5 1025 63 10000 3.09 190 11:46 27.03.2022
4585 Clouds 3 1026 69 10000 3.09 200 10:23 27.03.2022
4586 Clouds 0 1028 69 10000 1.03 0 07:55 27.03.2022
4587 Clouds -2 1029 72 10000 1.03 190 05:19 27.03.2022
4588 Clouds -2 1030 70 10000 1.03 260 00:37 27.03.2022
4589 Clouds -2 1030 65 10000 1.03 250 22:58 26.03.2022
4590 Clouds -2 1030 63 10000 0.51 0 22:27 26.03.2022
4591 Clouds -1 1029 59 10000 2.06 20 21:31 26.03.2022
4592 Clouds 1 1029 55 10000 3.09 10 19:45 26.03.2022
4593 Clouds 3 1028 54 10000 4.63 350 18:56 26.03.2022
4594 Clouds 4 1027 51 10000 4.63 20 17:44 26.03.2022
4595 Clouds 4 1027 52 10000 4.63 20 17:44 26.03.2022
4596 Clear 6 1025 46 10000 6.69 350 16:47 26.03.2022
4597 Clear 7 1024 41 10000 7.72 330 15:52 26.03.2022
4598 Clear 7 1023 39 10000 9.77 330 14:21 26.03.2022
4599 Clear 7 1022 38 10000 9.77 320 13:51 26.03.2022
4600 Clear 7 1021 37 10000 10.8 330 12:36 26.03.2022
4601 Clear 7 1020 37 10000 11.32 320 11:18 26.03.2022
4602 Clear 6 1018 44 10000 12.35 310 09:22 26.03.2022
4603 Clear 5 1016 55 10000 9.77 300 07:36 26.03.2022
4604 Clouds 4 1015 56 10000 8.75 290 05:52 26.03.2022
4605 Clouds 5 1013 47 10000 9.26 310 03:32 26.03.2022
4606 Clouds 8 1010 68 10000 7.2 280 22:57 25.03.2022
4607 Clear 9 1011 65 10000 5.66 270 20:58 25.03.2022
4608 Clear 10 1011 64 10000 5.66 270 20:37 25.03.2022
4609 Clear 10 1012 63 10000 6.17 270 19:21 25.03.2022
4610 Clear 10 1012 65 10000 6.69 260 18:37 25.03.2022
4611 Clear 10 1012 63 10000 5.66 260 17:34 25.03.2022
4612 Clear 10 1012 63 10000 5.66 260 17:34 25.03.2022
4613 Clear 11 1013 61 10000 5.66 260 16:38 25.03.2022
4614 Clear 11 1014 60 10000 5.14 260 15:46 25.03.2022
4615 Clear 12 1015 57 10000 6.69 270 13:32 25.03.2022
4616 Clear 11 1015 61 10000 5.66 260 11:49 25.03.2022
4617 Clear 7 1017 74 10000 3.6 260 09:46 25.03.2022
4618 Clear 6 1017 79 10000 2.57 260 08:59 25.03.2022
4619 Clear 5 1017 85 10000 3.09 250 07:47 25.03.2022
4620 Clear 4 1018 87 10000 3.6 240 07:20 25.03.2022
4621 Clouds 3 1019 88 10000 1.54 240 03:58 25.03.2022
4622 Clouds 5 1021 77 10000 1.54 250 23:54 24.03.2022
4623 Clear 7 1021 72 10000 2.06 260 22:24 24.03.2022
4624 Clear 8 1021 69 10000 3.09 250 21:29 24.03.2022
4625 Clear 9 1021 63 10000 2.06 250 19:50 24.03.2022
4626 Clear 10 1021 62 10000 2.57 270 18:46 24.03.2022
4627 Clear 12 1021 58 10000 2.57 270 17:38 24.03.2022
4628 Clear 13 1021 54 10000 4.12 280 16:39 24.03.2022
4629 Clear 12 1022 54 10000 4.63 260 14:58 24.03.2022
4630 Clear 12 1022 54 10000 4.63 260 14:39 24.03.2022
4631 Clear 12 1022 54 10000 4.12 260 13:36 24.03.2022
4632 Clear 11 1023 55 10000 4.63 270 12:35 24.03.2022
4633 Clear 8 1023 61 10000 4.12 250 11:31 24.03.2022
4634 Clear 6 1023 64 10000 5.14 260 09:34 24.03.2022
4635 Clear 4 1023 70 10000 3.6 260 08:39 24.03.2022
4636 Clear 1 1025 81 10000 3.6 264 05:45 24.03.2022
4637 Clear 3 1025 73 10000 1.54 240 00:47 24.03.2022
4638 Clear 4 1026 68 10000 1.54 260 22:23 23.03.2022
4639 Clear 5 1026 64 10000 2.57 260 21:24 23.03.2022
4640 Clear 5 1026 62 10000 2.57 250 20:45 23.03.2022
4641 Clear 6 1026 57 10000 2.06 240 19:33 23.03.2022
4642 Clear 9 1026 50 10000 2.57 280 18:19 23.03.2022
4643 Clear 10 1026 47 10000 5.66 290 17:26 23.03.2022
4644 Clear 11 1026 46 10000 5.66 300 16:18 23.03.2022
4645 Clear 10 1027 47 10000 6.69 290 14:49 23.03.2022
4646 Clear 9 1026 48 10000 6.69 290 13:34 23.03.2022
4647 Clear 8 1027 61 10000 7.2 290 11:38 23.03.2022
4648 Clear 4 1027 76 10000 5.66 280 08:49 23.03.2022
4649 Clouds 1 1027 83 10000 4.63 270 06:26 23.03.2022
4650 Clouds 2 1027 81 10000 3.6 270 03:52 23.03.2022
4651 Clouds 3 1028 75 10000 3.6 250 00:28 23.03.2022
4652 Clear 4 1028 67 10000 3.09 250 21:56 22.03.2022
4653 Clear 5 1028 66 10000 3.6 260 21:26 22.03.2022
4654 Clouds 5 1028 63 10000 0.45 270 20:30 22.03.2022
4655 Clear 6 1028 59 10000 2.57 250 19:27 22.03.2022
4656 Clear 7 1028 57 10000 3.09 260 18:54 22.03.2022
4657 Clear 9 1030 49 10000 4.63 280 17:44 22.03.2022
4658 Clear 11 1028 46 10000 3.6 260 17:18 22.03.2022
4659 Clear 11 1029 42 10000 3.6 210 15:49 22.03.2022
4660 Clear 12 1029 42 10000 3.09 190 15:21 22.03.2022
4661 Clear 11 1029 44 10000 3.6 210 14:45 22.03.2022
4662 Clear 11 1030 45 10000 3.6 190 14:24 22.03.2022
4663 Clear 10 1031 46 10000 3.6 190 12:41 22.03.2022
4664 Clear 9 1032 48 10000 3.09 170 11:26 22.03.2022
4665 Clear 6 1033 56 10000 2.57 170 09:55 22.03.2022
4666 Clear 1 1035 76 10000 1.54 140 07:48 22.03.2022
4667 Clear -2 1036 84 10000 1.03 150 05:19 22.03.2022
4668 Clear -1 1036 82 10000 1.03 130 03:38 22.03.2022
4669 Clear 1 1037 74 10000 1.54 210 23:40 21.03.2022
4670 Clear 2 1036 67 10000 2.06 200 21:51 21.03.2022
4671 Clear 2 1036 67 10000 2.06 200 21:51 21.03.2022
4672 Clear 3 1036 60 10000 2.57 190 20:45 21.03.2022
4673 Clear 3 1036 58 10000 2.57 180 20:26 21.03.2022
4674 Clear 4 1036 56 10000 2.06 160 19:53 21.03.2022
4675 Clear 5 1036 54 10000 2.06 160 19:23 21.03.2022
4676 Clear 8 1036 44 10000 4.12 190 17:45 21.03.2022
4677 Clear 9 1037 41 10000 4.12 200 17:18 21.03.2022
4678 Clear 10 1038 41 10000 5.14 200 16:37 21.03.2022
4679 Clear 11 1037 40 10000 5.14 190 15:46 21.03.2022
4680 Clear 11 1038 42 10000 3.6 190 14:48 21.03.2022
4681 Clear 11 1038 43 10000 2.57 210 13:43 21.03.2022
4682 Clear 10 1039 43 10000 2.57 200 12:33 21.03.2022
4683 Clear 9 1039 46 10000 3.09 260 11:44 21.03.2022
4684 Clear 7 1040 52 10000 3.09 190 10:20 21.03.2022
4685 Clear 3 1040 76 10000 2.57 220 08:26 21.03.2022
4686 Clear 0 1040 86 10000 1.54 220 06:31 21.03.2022
4687 Clear 0 1040 84 10000 1.03 200 02:40 21.03.2022
4688 Clear 3 1041 73 10000 1.54 210 23:40 20.03.2022
4689 Clear 3 1041 65 10000 1.03 0 22:43 20.03.2022
4690 Clear 3 1041 59 10000 1.54 170 21:50 20.03.2022
4691 Clear 4 1041 55 10000 1.54 160 21:20 20.03.2022
4692 Clear 4 1041 53 10000 1.03 0 20:43 20.03.2022
4693 Clear 6 1041 53 10000 1.54 190 19:57 20.03.2022
4694 Clear 7 1041 52 10000 2.06 190 19:26 20.03.2022
4695 Clear 10 1041 48 10000 3.09 210 17:52 20.03.2022
4696 Clear 11 1043 47 10000 3.6 200 17:30 20.03.2022
4697 Clear 13 1043 41 10000 3.6 210 16:52 20.03.2022
4698 Clear 14 1044 44 10000 2.06 190 15:28 20.03.2022
4699 Clear 13 1044 45 10000 2.06 250 14:23 20.03.2022
4700 Clear 12 1044 48 10000 1.54 240 12:29 20.03.2022
4701 Clouds 10 1044 53 10000 3.09 270 10:55 20.03.2022
4702 Clouds 6 1044 61 10000 0 0 08:59 20.03.2022
4703 Clouds 0 1046 80 10000 0 0 07:26 20.03.2022
4704 Clouds 0 1045 79 10000 0 0 04:23 20.03.2022
4705 Clouds 1 1046 73 10000 0 0 01:29 20.03.2022
4706 Clear 2 1046 71 10000 0 0 00:39 20.03.2022
4707 Clouds 2 1046 69 10000 0 0 23:19 19.03.2022
4708 Clouds 3 1045 67 10000 1.03 0 21:27 19.03.2022
4709 Clouds 4 1045 64 10000 1.54 230 20:39 19.03.2022
4710 Clear 7 1044 53 10000 2.06 260 18:58 19.03.2022
4711 Clear 8 1044 49 10000 2.06 250 18:23 19.03.2022
4712 Clear 10 1045 45 10000 3.09 260 17:35 19.03.2022
4713 Clear 12 1044 42 10000 5.14 270 15:44 19.03.2022
4714 Clear 11 1045 42 10000 5.14 250 14:44 19.03.2022
4715 Clear 11 1046 45 10000 5.14 250 13:19 19.03.2022
4716 Clear 10 1046 46 10000 5.14 240 12:40 19.03.2022
4717 Clear 10 1047 48 10000 3.6 230 11:54 19.03.2022
4718 Clear 10 1047 48 10000 3.6 230 11:54 19.03.2022
4719 Clear 8 1047 63 10000 2.57 230 10:47 19.03.2022
4720 Clear -3 1048 93 10000 0 0 06:51 19.03.2022
4721 Clear -1 1047 89 10000 0 0 03:24 19.03.2022
4722 Clear -1 1046 86 10000 0 0 02:29 19.03.2022
4723 Clouds 1 1044 81 10000 2.06 300 23:45 18.03.2022
4724 Clear 3 1043 79 10000 3.09 300 22:28 18.03.2022
4725 Clear 4 1042 77 10000 3.09 290 21:45 18.03.2022
4726 Clouds 5 1040 78 10000 3.09 300 19:52 18.03.2022
4727 Clouds 5 1040 78 10000 3.09 300 19:52 18.03.2022
4728 Clouds 5 1039 77 10000 4.12 290 19:21 18.03.2022
4729 Clouds 6 1037 75 10000 5.66 280 17:52 18.03.2022
4730 Clouds 6 1036 78 10000 5.14 300 16:49 18.03.2022
4731 Clouds 7 1035 81 10000 4.63 250 15:32 18.03.2022
4732 Drizzle 7 1035 82 9000 4.63 240 14:23 18.03.2022
4733 Clouds 8 1034 74 10000 6.17 240 12:36 18.03.2022
4734 Clouds 7 1034 77 10000 5.14 250 10:53 18.03.2022
4735 Clouds 7 1033 75 10000 6.17 240 09:30 18.03.2022
4736 Clear 6 1033 80 10000 5.66 240 08:42 18.03.2022
4737 Clouds 5 1031 85 10000 3.6 220 06:37 18.03.2022
4738 Clouds 5 1030 79 10000 4.63 180 03:19 18.03.2022
4739 Clouds 5 1031 68 10000 4.63 150 00:39 18.03.2022
4740 Clouds 4 1031 67 10000 5.14 150 23:38 17.03.2022
4741 Clear 4 1032 71 10000 5.66 150 22:25 17.03.2022
4742 Clear 3 1032 72 10000 5.66 150 21:48 17.03.2022
4743 Clear 3 1032 72 10000 5.14 160 21:26 17.03.2022
4744 Clear 3 1032 73 10000 5.14 150 20:45 17.03.2022
4745 Clear 3 1032 73 10000 5.66 140 19:50 17.03.2022
4746 Clear 3 1032 72 10000 4.63 130 19:29 17.03.2022
4747 Clear 4 1033 72 10000 4.63 140 18:46 17.03.2022
4748 Clear 5 1033 71 10000 5.14 140 17:18 17.03.2022
4749 Clear 6 1033 70 10000 5.66 130 15:44 17.03.2022
4750 Clear 6 1034 70 10000 6.17 130 15:26 17.03.2022
4751 Clear 7 1034 69 10000 6.17 140 14:38 17.03.2022
4752 Clear 8 1034 65 10000 5.66 140 12:55 17.03.2022
4753 Clear 7 1034 67 10000 4.63 130 12:25 17.03.2022
4754 Clear 5 1035 76 10000 4.12 120 11:29 17.03.2022
4755 Clear 4 1035 80 10000 3.09 120 10:32 17.03.2022
4756 Clouds -1 1035 100 7000 2.57 130 08:40 17.03.2022
4757 Mist -2 1035 93 3000 1.54 170 07:36 17.03.2022
4758 Fog -3 1034 93 800 1.54 130 05:47 17.03.2022
4759 Clear -2 1034 91 9000 1.54 160 01:37 17.03.2022
4760 Clear -1 1034 92 9000 1.54 140 23:56 16.03.2022
4761 Clear -1 1034 87 10000 1.54 140 22:50 16.03.2022
4762 Clear -1 1034 87 10000 1.03 150 22:32 16.03.2022
4763 Clear 1 1033 84 10000 1.54 0 21:42 16.03.2022
4764 Clear 2 1033 80 10000 1.54 0 20:26 16.03.2022
4765 Clear 3 1032 75 10000 1.54 150 19:21 16.03.2022
4766 Clear 4 1032 73 10000 1.03 0 18:38 16.03.2022
4767 Clear 6 1032 69 10000 1.03 0 17:43 16.03.2022
4768 Clear 7 1032 67 10000 1.54 230 17:20 16.03.2022
4769 Clear 8 1031 65 10000 1.54 0 15:55 16.03.2022
4770 Clear 8 1031 67 10000 2.57 250 14:28 16.03.2022
4771 Clear 7 1031 69 10000 2.06 260 13:32 16.03.2022
4772 Clear 6 1031 73 10000 2.06 240 11:57 16.03.2022
4773 Clear 6 1030 75 10000 1.54 0 11:21 16.03.2022
4774 Clear 4 1030 81 10000 0.51 0 10:23 16.03.2022
4775 Clear 3 1029 86 7000 0 0 08:53 16.03.2022
4776 Mist -3 1028 94 4400 0.51 290 06:27 16.03.2022
4777 Mist -1 1027 92 5000 0.51 150 01:56 16.03.2022
4778 Clear 0 1026 87 8000 1.54 100 22:41 15.03.2022
4779 Clear 0 1026 86 8000 2.06 120 22:18 15.03.2022
4780 Clear 1 1026 83 10000 2.57 130 20:33 15.03.2022
4781 Clear 3 1026 74 10000 4.12 130 18:58 15.03.2022
4782 Clear 6 1026 61 10000 3.6 150 17:24 15.03.2022
4783 Clear 8 1026 52 10000 3.6 120 16:32 15.03.2022
4784 Clear 8 1026 50 10000 4.12 130 15:21 15.03.2022
4785 Clear 9 1026 51 10000 4.12 130 14:45 15.03.2022
4786 Clear 8 1026 54 10000 3.09 140 13:46 15.03.2022
4787 Clear 7 1027 59 10000 4.63 160 12:24 15.03.2022
4788 Clear 6 1028 71 10000 5.14 140 11:31 15.03.2022
4789 Clear 4 1028 80 9000 3.6 140 09:46 15.03.2022
4790 Clear 2 1028 88 8000 2.57 130 08:42 15.03.2022
4791 Clear 0 1028 96 7000 1.03 0 07:52 15.03.2022
4792 Clear -1 1028 96 7000 1.03 0 07:34 15.03.2022
4793 Mist -3 1029 94 3800 0 0 04:20 15.03.2022
4794 Clear -1 1030 88 10000 1.03 130 23:57 14.03.2022
4795 Clear 0 1030 86 10000 1.54 130 23:24 14.03.2022
4796 Clear 0 1030 79 10000 2.06 140 22:30 14.03.2022
4797 Clear 0 1030 75 10000 1.03 130 21:30 14.03.2022
4798 Clear 1 1030 73 10000 1.54 150 20:48 14.03.2022
4799 Clear 2 1030 70 10000 1.54 150 20:20 14.03.2022
4800 Clear 4 1030 62 10000 2.06 150 18:55 14.03.2022
4801 Clear 6 1030 54 10000 2.57 200 17:54 14.03.2022
4802 Clear 7 1030 54 10000 3.09 220 17:23 14.03.2022
4803 Clear 9 1030 46 10000 3.09 200 15:56 14.03.2022
4804 Clear 10 1030 46 10000 4.12 200 14:40 14.03.2022
4805 Clear 9 1031 44 10000 3.6 170 12:29 14.03.2022
4806 Clear 7 1031 46 10000 2.57 130 10:54 14.03.2022
4807 Clear 4 1031 53 10000 1.54 120 09:52 14.03.2022
4808 Clear 3 1031 53 10000 1.03 0 09:22 14.03.2022
4809 Clear 2 1031 68 10000 0.51 0 08:55 14.03.2022
4810 Clear -2 1031 83 10000 0 0 07:32 14.03.2022
4811 Clouds -3 1031 84 10000 0 0 05:45 14.03.2022
4812 Clouds -3 1030 77 10000 0 0 01:55 14.03.2022
4813 Clouds -2 1030 74 10000 1.03 120 01:28 14.03.2022
4814 Clouds -1 1030 60 10000 1.03 140 22:44 13.03.2022
4815 Clear 0 1030 49 10000 1.54 130 21:31 13.03.2022
4816 Clear 1 1030 44 10000 1.54 130 20:56 13.03.2022
4817 Clear 1 1029 38 10000 1.54 160 20:31 13.03.2022
4818 Clear 2 1029 37 10000 2.06 180 19:49 13.03.2022
4819 Clear 3 1029 35 10000 2.06 160 19:28 13.03.2022
4820 Clear 4 1029 34 10000 2.06 180 18:59 13.03.2022
4821 Clear 4 1029 35 10000 2.06 180 18:35 13.03.2022
4822 Clear 7 1029 31 10000 2.06 180 17:46 13.03.2022
4823 Clear 8 1029 29 10000 2.06 200 17:19 13.03.2022
4824 Clear 10 1029 33 10000 2.57 200 16:30 13.03.2022
4825 Clear 10 1029 33 10000 2.57 170 15:47 13.03.2022
4826 Clear 10 1029 32 10000 3.09 200 14:56 13.03.2022
4827 Clear 10 1029 34 10000 1.54 180 13:45 13.03.2022
4828 Clear 9 1029 40 10000 2.57 240 12:55 13.03.2022
4829 Clouds 8 1029 48 10000 1.03 0 11:53 13.03.2022
4830 Clouds 7 1029 50 10000 1.54 250 11:32 13.03.2022
4831 Clouds 6 1029 58 10000 1.03 0 10:47 13.03.2022
4832 Clouds 5 1029 63 10000 1.54 260 10:24 13.03.2022
4833 Clouds 4 1029 63 10000 0.51 0 09:41 13.03.2022
4834 Clouds 2 1029 75 10000 1.03 0 08:46 13.03.2022
4835 Clouds -2 1028 90 9000 0.51 120 07:42 13.03.2022
4836 Clouds -4 1028 95 7000 0 0 05:41 13.03.2022
4837 Clouds -3 1028 88 10000 1.03 130 02:43 13.03.2022
4838 Clouds -2 1028 78 10000 0 0 23:59 12.03.2022
4839 Clouds -1 1028 67 10000 0 0 22:31 12.03.2022
4840 Clouds 0 1028 58 10000 0.51 0 20:48 12.03.2022
4841 Clouds 2 1028 52 10000 2.06 200 19:48 12.03.2022
4842 Clouds 2 1027 52 10000 1.54 200 19:27 12.03.2022
4843 Clouds 4 1027 44 10000 1.54 210 18:23 12.03.2022
4844 Clear 6 1028 39 10000 1.03 230 17:31 12.03.2022
4845 Clear 8 1028 34 10000 1.54 0 16:24 12.03.2022
4846 Clear 9 1028 34 10000 1.54 0 15:23 12.03.2022
4847 Clear 9 1028 34 10000 2.06 260 14:40 12.03.2022
4848 Clear 7 1027 37 10000 2.57 280 12:56 12.03.2022
4849 Clear 6 1027 40 10000 3.09 250 11:56 12.03.2022
4850 Clear 6 1028 39 10000 3.09 250 11:35 12.03.2022
4851 Clear 5 1028 42 10000 3.09 280 10:58 12.03.2022
4852 Clear 3 1028 54 10000 2.06 250 09:45 12.03.2022
4853 Clear 1 1028 64 10000 0.45 293 08:56 12.03.2022
4854 Clouds -3 1029 85 10000 0 0 07:20 12.03.2022
4855 Clouds -3 1029 87 10000 0 0 02:36 12.03.2022
4856 Clouds -2 1028 84 10000 0 0 23:56 11.03.2022
4857 Clouds -2 1028 84 10000 0 0 23:56 11.03.2022
4858 Clouds -2 1028 86 10000 0.51 190 23:18 11.03.2022
4859 Clear -1 1028 82 10000 1.03 220 21:35 11.03.2022
4860 Clear 0 1028 79 10000 1.03 170 20:55 11.03.2022
4861 Clear 0 1028 79 10000 1.03 170 20:34 11.03.2022
4862 Clear 0 1028 77 10000 1.54 220 19:49 11.03.2022
4863 Clear 1 1028 74 10000 2.57 220 19:22 11.03.2022
4864 Clear 5 1028 60 10000 3.09 200 17:30 11.03.2022
4865 Clouds 6 1028 53 10000 0.89 248 16:27 11.03.2022
4866 Clear 6 1029 47 10000 4.63 250 15:53 11.03.2022
4867 Clear 6 1029 49 10000 4.12 230 14:19 11.03.2022
4868 Clear 5 1030 61 10000 4.63 240 12:44 11.03.2022
4869 Clear 5 1030 67 10000 4.12 240 12:21 11.03.2022
4870 Clear 4 1030 70 10000 4.63 250 11:51 11.03.2022
4871 Clear 1 1031 79 10000 3.09 240 09:50 11.03.2022
4872 Clear 0 1031 82 10000 3.6 240 08:56 11.03.2022
4873 Clear -1 1031 82 10000 3.6 230 08:24 11.03.2022
4874 Clear -2 1031 85 10000 2.57 230 07:45 11.03.2022
4875 Clouds -2 1031 84 10000 3.09 210 05:44 11.03.2022
4876 Clouds -2 1031 83 10000 3.6 220 03:41 11.03.2022
4877 Clouds 0 1031 86 10000 3.6 210 23:36 10.03.2022
4878 Clear 0 1032 87 10000 3.09 200 22:30 10.03.2022
4879 Clear 0 1032 86 10000 3.6 190 21:27 10.03.2022
4880 Clear 0 1032 86 10000 3.09 190 20:55 10.03.2022
4881 Clear 0 1032 84 10000 2.57 190 19:43 10.03.2022
4882 Clear 1 1032 83 10000 2.57 190 18:40 10.03.2022
4883 Clouds 2 1031 78 10000 4.12 190 17:19 10.03.2022
4884 Clouds 3 1032 75 10000 5.14 180 15:50 10.03.2022
4885 Clouds 3 1032 73 10000 5.66 190 14:39 10.03.2022
4886 Clouds 3 1033 75 10000 5.14 180 13:19 10.03.2022
4887 Clouds 3 1033 77 10000 5.14 190 11:57 10.03.2022
4888 Clouds 3 1032 76 10000 3.6 200 10:50 10.03.2022
4889 Clouds 3 1033 80 10000 3.6 180 08:55 10.03.2022
4890 Clouds 2 1033 87 10000 2.57 170 06:58 10.03.2022
4891 Clouds 1 1033 88 10000 2.57 160 04:18 10.03.2022
4892 Clouds 2 1033 85 10000 3.6 160 01:40 10.03.2022
4893 Clouds 2 1031 89 10000 3.09 160 22:46 09.03.2022
4894 Clouds 2 1031 87 10000 4.12 140 21:49 09.03.2022
4895 Clouds 2 1031 88 10000 5.14 140 21:27 09.03.2022
4896 Clouds 2 1030 88 10000 5.66 120 19:43 09.03.2022
4897 Clouds 2 1030 88 10000 4.12 120 18:29 09.03.2022
4898 Clouds 2 1028 88 10000 4.63 110 17:26 09.03.2022
4899 Clouds 2 1028 88 10000 4.63 110 17:26 09.03.2022
4900 Clouds 2 1028 88 10000 4.63 110 17:26 09.03.2022
4901 Clouds 3 1029 86 10000 5.14 130 16:30 09.03.2022
4902 Clear 3 1028 83 10000 4.63 110 14:59 09.03.2022
4903 Clear 5 1028 76 10000 3.6 60 13:53 09.03.2022
4904 Clear 6 1029 72 10000 2.06 80 12:45 09.03.2022
4905 Clear 7 1027 64 10000 1.03 0 11:53 09.03.2022
4906 Clear 6 1027 66 10000 1.03 0 11:35 09.03.2022
4907 Clear 3 1025 76 10000 1.54 290 09:50 09.03.2022
4908 Clear 0 1027 83 10000 0 0 08:49 09.03.2022
4909 Clear -3 1026 90 10000 1.03 270 07:27 09.03.2022
4910 Clear -2 1024 87 10000 0 0 02:42 09.03.2022
4911 Clouds -2 1024 89 10000 0 0 00:28 09.03.2022
4912 Clouds -1 1024 87 10000 1.03 260 22:47 08.03.2022
4913 Clear -1 1023 81 10000 0 0 21:55 08.03.2022
4914 Clear -1 1023 82 10000 0 0 21:22 08.03.2022
4915 Clear 0 1023 80 10000 1.03 290 20:29 08.03.2022
4916 Clear 1 1021 76 10000 2.06 290 19:30 08.03.2022
4917 Clear 3 1021 72 10000 2.06 280 18:41 08.03.2022
4918 Clear 5 1020 64 10000 3.6 280 17:26 08.03.2022
4919 Clear 7 1020 59 10000 3.09 270 15:19 08.03.2022
4920 Clear 7 1020 59 10000 3.09 290 14:18 08.03.2022
4921 Clear 6 1020 64 10000 2.57 260 12:41 08.03.2022
4922 Clear 5 1020 67 10000 3.6 270 11:44 08.03.2022
4923 Clear 4 1020 71 10000 2.57 290 10:41 08.03.2022
4924 Clear 2 1020 75 10000 2.06 260 09:37 08.03.2022
4925 Clear -2 1020 89 10000 1.03 260 06:34 08.03.2022
4926 Clouds -1 1021 87 10000 1.03 250 04:25 08.03.2022
4927 Clouds 2 1019 78 10000 1.03 0 23:36 07.03.2022
4928 Clear 3 1020 76 10000 2.06 260 21:50 07.03.2022
4929 Clear 3 1019 76 10000 0 0 21:31 07.03.2022
4930 Clear 3 1019 75 10000 1.03 260 20:39 07.03.2022
4931 Clouds 4 1019 75 10000 2.57 240 19:55 07.03.2022
4932 Clouds 4 1020 74 10000 1.54 240 19:29 07.03.2022
4933 Clouds 4 1019 71 10000 1.03 0 18:40 07.03.2022
4934 Clouds 5 1019 68 10000 1.54 240 17:41 07.03.2022
4935 Clouds 6 1019 66 10000 4.12 280 16:55 07.03.2022
4936 Clouds 6 1020 66 10000 4.63 290 15:27 07.03.2022
4937 Clear 6 1020 63 10000 2.06 280 12:54 07.03.2022
4938 Clear 6 1020 62 10000 3.6 330 12:21 07.03.2022
4939 Clear 4 1020 68 10000 3.09 340 10:36 07.03.2022
4940 Clear 1 1020 80 10000 3.09 310 08:39 07.03.2022
4941 Clouds 0 1018 78 10000 0.45 270 03:41 07.03.2022
4942 Clear 1 1017 72 10000 0.89 270 00:22 07.03.2022
4943 Clear 1 1017 70 10000 0.89 270 23:29 06.03.2022
4944 Clear 2 1017 67 10000 2.57 260 22:37 06.03.2022
4945 Clear 2 1017 65 10000 3.09 260 21:45 06.03.2022
4946 Clear 2 1016 66 10000 0.89 248 20:30 06.03.2022
4947 Clear 3 1016 64 10000 0.45 248 19:51 06.03.2022
4948 Clear 3 1017 61 10000 3.09 260 18:51 06.03.2022
4949 Clouds 4 1016 60 10000 0.45 270 17:57 06.03.2022
4950 Clear 5 1017 57 10000 5.14 290 17:21 06.03.2022
4951 Clear 5 1017 54 10000 7.2 290 16:41 06.03.2022
4952 Clear 6 1018 53 10000 7.2 300 15:45 06.03.2022
4953 Clear 6 1018 54 10000 5.14 290 14:49 06.03.2022
4954 Clear 5 1018 55 10000 7.2 290 14:30 06.03.2022
4955 Clear 5 1018 59 10000 5.66 270 12:44 06.03.2022
4956 Clear 4 1019 64 10000 4.63 270 11:56 06.03.2022
4957 Clear 2 1019 69 10000 4.63 280 10:52 06.03.2022
4958 Clear 1 1019 74 10000 4.12 300 09:43 06.03.2022
4959 Clear -1 1019 80 10000 2.57 280 08:29 06.03.2022
4960 Clear -2 1019 83 10000 2.57 280 07:34 06.03.2022
4961 Clouds -1 1019 85 10000 2.06 270 04:46 06.03.2022
4962 Clouds -1 1019 86 10000 2.57 270 00:44 06.03.2022
4963 Clouds -1 1019 86 10000 1.54 280 00:25 06.03.2022
4964 Clouds -1 1019 85 10000 1.54 260 23:20 05.03.2022
4965 Clouds -1 1019 82 10000 2.06 250 22:43 05.03.2022
4966 Clouds 0 1019 79 10000 2.57 240 21:45 05.03.2022
4967 Clouds 0 1020 77 10000 2.06 240 21:19 05.03.2022
4968 Clouds 1 1020 68 10000 3.09 240 19:24 05.03.2022
4969 Clouds 1 1020 65 10000 3.6 250 18:51 05.03.2022
4970 Clouds 2 1021 60 10000 2.06 240 17:43 05.03.2022
4971 Clear 4 1021 53 10000 5.66 270 16:20 05.03.2022
4972 Clear 4 1021 53 10000 5.14 240 15:30 05.03.2022
4973 Clear 4 1021 54 10000 5.66 250 14:44 05.03.2022
4974 Clear 4 1021 55 10000 6.17 260 14:24 05.03.2022
4975 Clear 4 1022 56 10000 6.17 240 12:59 05.03.2022
4976 Clear 3 1023 62 10000 3.6 220 11:43 05.03.2022
4977 Clear 2 1023 67 10000 3.6 240 11:18 05.03.2022
4978 Clear 0 1024 77 10000 3.09 240 09:58 05.03.2022
4979 Clear -2 1023 80 10000 2.06 220 08:49 05.03.2022
4980 Clouds -4 1023 87 10000 2.57 220 07:37 05.03.2022
4981 Clouds -5 1024 86 10000 1.03 0 05:42 05.03.2022
4982 Clouds -5 1027 80 10000 1.03 200 01:30 05.03.2022
4983 Clear -4 1026 79 10000 1.54 220 23:35 04.03.2022
4984 Clear -4 1026 78 10000 1.54 200 22:41 04.03.2022
4985 Clear -3 1026 78 10000 1.54 210 21:47 04.03.2022
4986 Clear -3 1026 75 10000 0 0 20:51 04.03.2022
4987 Clear -3 1026 74 10000 1.03 0 20:21 04.03.2022
4988 Clear -2 1026 71 10000 0 0 19:35 04.03.2022
4989 Clear -1 1026 68 10000 0 0 18:37 04.03.2022
4990 Clear 1 1026 59 10000 2.06 280 17:30 04.03.2022
4991 Clear 3 1028 53 10000 2.06 280 16:43 04.03.2022
4992 Clear 4 1026 52 10000 1.03 0 15:28 04.03.2022
4993 Clear 4 1027 53 10000 1.54 0 13:53 04.03.2022
4994 Clear 3 1027 58 10000 1.03 0 12:54 04.03.2022
4995 Clear 2 1027 63 10000 1.54 80 11:38 04.03.2022
4996 Clear 1 1027 70 10000 1.54 60 10:42 04.03.2022
4997 Clear -1 1027 86 10000 1.03 0 09:28 04.03.2022
4998 Clear -3 1027 89 10000 1.03 340 08:31 04.03.2022
4999 Clear -5 1027 92 10000 1.54 360 06:59 04.03.2022
5000 Clear -4 1026 89 10000 2.06 350 03:43 04.03.2022
5001 Clear -2 1026 83 10000 2.06 330 00:22 04.03.2022
5002 Clear -2 1024 80 10000 2.57 340 22:21 03.03.2022
5003 Clear -2 1024 77 10000 2.06 350 21:39 03.03.2022
5004 Clear -1 1023 76 10000 2.57 350 20:59 03.03.2022
5005 Clear 0 1023 71 10000 2.57 340 19:48 03.03.2022
5006 Clear 1 1023 68 10000 3.6 350 18:51 03.03.2022
5007 Clear 1 1022 68 10000 3.6 360 18:22 03.03.2022
5008 Clear 2 1022 66 10000 4.12 350 17:27 03.03.2022
5009 Clouds 4 1022 62 10000 5.14 350 15:48 03.03.2022
5010 Clouds 4 1021 61 10000 6.17 330 14:59 03.03.2022
5011 Clouds 5 1021 61 10000 6.17 330 14:33 03.03.2022
5012 Clouds 5 1021 64 10000 5.66 340 13:18 03.03.2022
5013 Clouds 5 1021 64 10000 5.66 340 13:18 03.03.2022
5014 Clouds 5 1021 64 10000 5.66 340 13:18 03.03.2022
5015 Clear 4 1021 70 10000 5.14 350 11:45 03.03.2022
5016 Clear 3 1021 73 10000 5.14 350 10:41 03.03.2022
5017 Clouds 2 1020 79 10000 4.63 350 08:52 03.03.2022
5018 Clouds 0 1020 85 10000 3.6 330 07:25 03.03.2022
5019 Clear -1 1019 84 10000 2.57 320 06:34 03.03.2022
5020 Clouds 0 1019 79 10000 2.57 290 01:45 03.03.2022
5021 Clouds 1 1019 77 10000 3.09 300 23:29 02.03.2022
5022 Clouds 1 1019 80 10000 2.57 290 22:50 02.03.2022
5023 Clouds 1 1019 80 10000 2.57 290 22:50 02.03.2022
5024 Clear 0 1019 84 10000 1.54 290 21:29 02.03.2022
5025 Clear 1 1019 81 10000 2.57 290 20:45 02.03.2022
5026 Clear 1 1019 81 10000 1.54 280 20:22 02.03.2022
5027 Clear 1 1019 81 10000 2.57 260 19:34 02.03.2022
5028 Clear 1 1019 80 10000 1.54 250 18:44 02.03.2022
5029 Clear 3 1019 74 10000 2.57 280 17:59 02.03.2022
5030 Clear 4 1019 72 10000 3.09 280 17:23 02.03.2022
5031 Clear 4 1020 68 10000 4.12 280 16:45 02.03.2022
5032 Clear 4 1020 68 10000 4.12 280 16:45 02.03.2022
5033 Clear 5 1019 69 10000 4.12 290 14:44 02.03.2022
5034 Clear 5 1020 72 10000 5.14 290 13:24 02.03.2022
5035 Clear 4 1020 74 10000 4.63 280 12:42 02.03.2022
5036 Clouds 3 1021 80 10000 5.14 280 11:40 02.03.2022
5037 Clouds 2 1021 83 10000 3.6 280 11:22 02.03.2022
5038 Clouds 1 1021 89 10000 4.12 270 09:42 02.03.2022
5039 Clouds 1 1021 90 10000 3.6 270 08:55 02.03.2022
5040 Clouds 0 1021 91 10000 2.57 260 07:38 02.03.2022
5041 Clear -1 1021 91 10000 3.09 230 06:51 02.03.2022
5042 Clouds 1 1023 85 10000 2.06 230 02:35 02.03.2022
5043 Clouds 2 1024 83 10000 4.12 250 23:55 01.03.2022
5044 Clouds 3 1024 81 10000 4.63 260 22:46 01.03.2022
5045 Clouds 3 1024 80 10000 3.6 250 22:19 01.03.2022
5046 Clouds 3 1024 78 10000 3.09 250 21:25 01.03.2022
5047 Clouds 3 1024 76 10000 2.57 210 20:30 01.03.2022
5048 Clouds 3 1024 76 10000 2.57 210 20:30 01.03.2022
5049 Clouds 3 1024 76 10000 2.57 210 20:30 01.03.2022
5050 Clouds 3 1024 76 10000 2.57 210 20:30 01.03.2022
5051 Clouds 3 1024 76 10000 2.57 210 19:38 01.03.2022
5052 Clouds 3 1024 74 10000 3.09 200 18:49 01.03.2022
5053 Clouds 3 1024 74 10000 3.09 200 18:20 01.03.2022
5054 Rain 4 1024 69 10000 4.12 210 17:30 01.03.2022
5055 Clear 4 1025 64 10000 3.09 220 16:34 01.03.2022
5056 Clear 5 1025 59 10000 3.09 190 15:41 01.03.2022
5057 Clear 6 1025 53 10000 4.63 240 14:39 01.03.2022
5058 Clear 6 1025 51 10000 5.66 230 13:58 01.03.2022
5059 Clear 6 1025 49 10000 5.14 220 13:25 01.03.2022
5060 Clear 6 1025 49 10000 5.14 250 12:33 01.03.2022
5061 Clear 4 1026 61 10000 5.14 200 10:37 01.03.2022
5062 Clear 1 1027 68 10000 3.6 210 08:45 01.03.2022
5063 Clear 0 1027 70 10000 3.6 210 07:54 01.03.2022
5064 Clouds -1 1027 70 10000 2.57 200 06:20 01.03.2022
5065 Clouds 0 1028 75 10000 3.09 210 02:44 01.03.2022
5066 Clouds 0 1029 73 10000 4.63 210 00:36 01.03.2022
5067 Clouds 1 1029 72 10000 4.12 210 23:31 28.02.2022
5068 Clear 1 1029 76 10000 2.57 210 22:18 28.02.2022
5069 Clear 0 1030 80 10000 2.06 210 21:39 28.02.2022
5070 Clear 1 1030 81 10000 2.06 180 19:59 28.02.2022
5071 Clear 1 1030 80 10000 2.06 180 19:40 28.02.2022
5072 Clear 1 1030 78 10000 2.06 170 18:44 28.02.2022
5073 Clear 2 1030 74 10000 3.09 220 17:33 28.02.2022
5074 Clear 3 1030 70 10000 3.09 220 16:43 28.02.2022
5075 Clear 4 1033 67 10000 4.12 230 15:27 28.02.2022
5076 Clear 3 1033 67 10000 4.63 240 14:32 28.02.2022
5077 Clear 4 1033 64 10000 4.63 240 13:48 28.02.2022
5078 Clear 3 1034 66 10000 3.6 250 12:50 28.02.2022
5079 Clear 3 1034 67 10000 3.6 230 11:58 28.02.2022
5080 Clear 2 1034 73 10000 4.63 230 11:18 28.02.2022
5081 Clear 1 1033 74 10000 3.6 220 10:21 28.02.2022
5082 Clear 0 1033 76 10000 3.6 230 09:36 28.02.2022
5083 Clear -1 1033 77 10000 2.57 220 08:44 28.02.2022
5084 Clear -2 1033 80 10000 3.09 220 07:43 28.02.2022
5085 Clear -2 1033 79 10000 2.06 140 05:25 28.02.2022
5086 Clear -1 1033 78 10000 1.54 220 04:27 28.02.2022
5087 Clouds 2 1033 74 10000 4.12 250 23:45 27.02.2022
5088 Clouds 2 1033 73 10000 4.63 250 22:36 27.02.2022
5089 Clear 3 1033 73 10000 4.63 230 21:52 27.02.2022
5090 Clear 2 1033 73 10000 4.63 230 21:27 27.02.2022
5091 Clear 2 1034 73 10000 3.6 230 20:37 27.02.2022
5092 Clear 3 1034 73 10000 3.09 240 19:58 27.02.2022
5093 Clear 3 1034 70 10000 3.09 240 19:27 27.02.2022
5094 Clear 3 1034 70 10000 3.09 240 19:27 27.02.2022
5095 Clear 4 1034 70 10000 2.57 240 18:48 27.02.2022
5096 Clear 4 1034 70 10000 3.09 220 17:57 27.02.2022
5097 Clear 5 1033 67 10000 2.57 230 17:20 27.02.2022
5098 Clear 6 1034 63 10000 3.6 230 16:22 27.02.2022
5099 Clear 6 1034 62 10000 5.14 230 13:40 27.02.2022
5100 Clouds 5 1035 74 10000 4.9 233 12:33 27.02.2022
5101 Clouds 4 1034 70 10000 6.17 250 11:28 27.02.2022
5102 Clouds 4 1034 67 10000 5.14 260 10:24 27.02.2022
5103 Clouds 3 1035 69 10000 5.14 250 09:51 27.02.2022
5104 Clouds 2 1034 68 10000 5.14 240 09:21 27.02.2022
5105 Clouds 2 1034 69 10000 3.09 230 08:31 27.02.2022
5106 Clouds 1 1034 70 10000 4.12 230 05:41 27.02.2022
5107 Clouds 0 1034 71 10000 3.09 220 02:45 27.02.2022
5108 Clouds -1 1035 75 10000 3.09 190 23:36 26.02.2022
5109 Clouds -1 1035 75 10000 2.57 210 22:34 26.02.2022
5110 Clouds -1 1034 74 10000 3.09 190 21:19 26.02.2022
5111 Clouds -1 1034 72 10000 2.06 170 20:37 26.02.2022
5112 Clouds -2 1034 72 10000 1.54 180 19:52 26.02.2022
5113 Clouds -2 1034 74 10000 1.54 180 19:33 26.02.2022
5114 Clouds -1 1033 66 10000 1.03 160 17:58 26.02.2022
5115 Clear 1 1033 60 10000 1.03 230 17:30 26.02.2022
5116 Clear 2 1033 61 10000 2.06 240 16:36 26.02.2022
5117 Clear 3 1032 58 10000 1.54 250 15:27 26.02.2022
5118 Clear 2 1032 60 10000 2.06 290 14:58 26.02.2022
5119 Clear 2 1032 60 10000 2.06 290 14:39 26.02.2022
5120 Clear 2 1032 59 10000 2.57 250 13:46 26.02.2022
5121 Clear 1 1032 62 10000 2.06 260 12:53 26.02.2022
5122 Clear 1 1031 65 10000 2.57 270 11:45 26.02.2022
5123 Clear 1 1031 66 10000 2.06 290 11:24 26.02.2022
5124 Clear -1 1029 71 10000 3.09 300 09:28 26.02.2022
5125 Clear -2 1027 74 10000 3.09 290 08:21 26.02.2022
5126 Clear -2 1022 75 10000 3.6 310 04:22 26.02.2022
5127 Clouds 0 1014 78 10000 3.6 300 23:35 25.02.2022
5128 Clear 0 1012 78 10000 2.57 300 22:31 25.02.2022
5129 Clear 1 1011 76 10000 3.6 290 21:30 25.02.2022
5130 Clear 1 1009 79 10000 2.57 280 20:34 25.02.2022
5131 Clear 1 1008 80 10000 3.6 270 19:56 25.02.2022
5132 Clear 2 1004 78 10000 4.12 270 17:54 25.02.2022
5133 Clear 3 1002 76 10000 5.14 280 16:47 25.02.2022
5134 Clear 4 999 77 10000 6.69 280 15:50 25.02.2022
5135 Clouds 4 998 78 10000 5.66 270 15:23 25.02.2022
5136 Clouds 3 998 81 10000 4.12 270 14:50 25.02.2022
5137 Clouds 3 997 84 10000 5.14 270 14:19 25.02.2022
5138 Clouds 2 996 87 10000 4.63 260 13:23 25.02.2022
5139 Rain 1 995 90 10000 5.14 260 11:56 25.02.2022
5140 Clouds 1 994 91 10000 5.66 260 11:20 25.02.2022
5141 Clouds 1 993 91 10000 5.14 260 10:23 25.02.2022
5142 Clouds 1 993 93 10000 5.14 270 09:42 25.02.2022
5143 Clouds 0 991 94 10000 4.63 280 07:53 25.02.2022
5144 Clouds 0 990 95 10000 3.09 280 06:54 25.02.2022
5145 Clouds 0 989 95 10000 2.06 290 05:41 25.02.2022
5146 Snow 0 989 95 1100 1.03 310 02:43 25.02.2022
5147 Rain 1 992 93 5000 2.06 150 22:37 24.02.2022
5148 Rain 2 993 93 10000 2.06 160 21:50 24.02.2022
5149 Drizzle 2 993 93 10000 2.57 150 21:30 24.02.2022
5150 Rain 2 993 92 10000 2.57 160 20:44 24.02.2022
5151 Drizzle 3 994 91 10000 4.12 190 19:31 24.02.2022
5152 Clouds 3 994 92 10000 1.54 190 18:20 24.02.2022
5153 Clouds 3 995 93 10000 2.57 210 17:54 24.02.2022
5154 Clouds 3 995 92 10000 3.09 210 17:20 24.02.2022
5155 Rain 3 995 92 9000 4.12 180 16:28 24.02.2022
5156 Drizzle 3 996 91 10000 3.09 200 15:43 24.02.2022
5157 Drizzle 4 996 87 10000 4.12 220 14:45 24.02.2022
5158 Clouds 4 995 87 10000 5.14 190 13:59 24.02.2022
5159 Clouds 4 997 85 10000 5.14 190 13:38 24.02.2022
5160 Clouds 4 997 85 10000 6.69 190 11:41 24.02.2022
5161 Clouds 5 997 83 10000 7.72 190 10:32 24.02.2022
5162 Clouds 4 996 82 10000 7.2 190 08:43 24.02.2022
5163 Clouds 4 996 83 10000 7.2 200 07:22 24.02.2022
5164 Clouds 4 997 84 10000 7.72 200 05:43 24.02.2022
5165 Clouds 2 1002 89 10000 4.63 200 00:32 24.02.2022
5166 Clear 2 1004 91 10000 4.63 190 22:25 23.02.2022
5167 Clouds 1 1005 93 10000 3.6 190 20:48 23.02.2022
5168 Clouds 1 1006 93 10000 4.63 190 20:28 23.02.2022
5169 Clouds 0 1006 92 10000 4.12 190 19:35 23.02.2022
5170 Clear 0 1007 89 10000 2.57 180 18:27 23.02.2022
5171 Clouds 1 1007 87 10000 3.6 240 16:33 23.02.2022
5172 Clouds 1 1006 86 10000 3.6 210 14:33 23.02.2022
5173 Clouds 1 1006 87 10000 3.6 220 12:37 23.02.2022
5174 Clouds 0 1006 87 8000 2.06 190 11:23 23.02.2022
5175 Clouds -2 1005 90 4700 1.03 0 10:24 23.02.2022
5176 Clear -3 1004 89 10000 1.03 150 08:56 23.02.2022
5177 Clear -4 1003 90 10000 0 0 07:56 23.02.2022
5178 Clouds -9 1003 100 10000 0 0 03:47 23.02.2022
5179 Clouds -7 1004 92 10000 0 0 00:19 23.02.2022
5180 Clouds -7 1002 92 10000 1.03 150 23:34 22.02.2022
5181 Clear -7 1002 91 10000 1.54 0 22:28 22.02.2022
5182 Clear -8 1002 91 10000 0.51 150 21:48 22.02.2022
5183 Clear -8 1002 91 10000 0 0 21:25 22.02.2022
5184 Clear -7 1002 91 10000 1.03 100 20:49 22.02.2022
5185 Clear -8 1002 91 10000 0 0 20:29 22.02.2022
5186 Clear -8 1002 90 10000 0 0 19:34 22.02.2022
5187 Clear -7 1003 89 10000 0 0 18:58 22.02.2022
5188 Clear -6 1002 84 10000 1.54 0 17:40 22.02.2022
5189 Clear -5 1002 82 10000 1.54 290 17:19 22.02.2022
5190 Clear -4 1002 81 10000 2.57 300 16:36 22.02.2022
5191 Clouds -4 1002 80 10000 3.09 310 15:37 22.02.2022
5192 Clouds -4 1001 83 10000 5.66 290 14:42 22.02.2022
5193 Clouds -4 1000 85 10000 5.66 310 11:54 22.02.2022
5194 Clouds -4 999 83 10000 6.17 320 10:24 22.02.2022
5195 Clouds -4 996 86 10000 6.17 340 07:47 22.02.2022
5196 Clouds -4 995 85 10000 6.69 340 07:25 22.02.2022
5197 Clouds -4 995 85 10000 6.69 340 07:25 22.02.2022
5198 Clouds -2 988 90 8000 8.75 340 02:52 22.02.2022
5199 Clouds -2 984 91 5000 8.75 340 00:48 22.02.2022
5200 Snow -1 980 94 9000 9.26 350 22:38 21.02.2022
5201 Clouds -1 977 96 4200 9.77 350 21:25 21.02.2022
5202 Clouds -1 974 96 2000 8.23 360 20:29 21.02.2022
5203 Snow -1 971 96 1200 7.2 360 18:41 21.02.2022
5204 Drizzle 1 967 94 3000 5.14 20 16:48 21.02.2022
5205 Rain 2 964 96 1900 3.6 50 14:24 21.02.2022
5206 Mist 2 964 96 2700 4.12 40 13:59 21.02.2022
5207 Mist 2 964 96 2500 4.12 50 12:59 21.02.2022
5208 Drizzle 1 964 96 2500 5.66 60 12:22 21.02.2022
5209 Rain 1 964 96 3500 5.66 70 10:45 21.02.2022
5210 Snow 0 969 96 2500 6.17 90 08:44 21.02.2022
5211 Clouds 1 978 93 10000 6.69 110 02:58 21.02.2022
5212 Clouds -1 984 91 10000 3.09 120 23:29 20.02.2022
5213 Clear -2 986 92 10000 2.57 130 22:19 20.02.2022
5214 Clear -2 987 90 10000 2.57 150 21:41 20.02.2022
5215 Clear -3 988 92 10000 2.06 140 20:52 20.02.2022
5216 Clear -3 988 90 10000 1.54 150 20:22 20.02.2022
5217 Clear -3 989 89 10000 2.57 190 19:29 20.02.2022
5218 Clear -3 989 89 10000 2.06 190 18:49 20.02.2022
5219 Clear -3 990 89 10000 1.54 170 18:31 20.02.2022
5220 Clear -2 990 87 10000 1.54 160 17:34 20.02.2022
5221 Clear 0 991 80 10000 3.09 240 15:30 20.02.2022
5222 Clear 0 991 81 10000 3.6 240 14:39 20.02.2022
5223 Clouds 0 992 84 10000 3.6 240 13:22 20.02.2022
5224 Clouds -1 992 89 10000 4.12 260 12:20 20.02.2022
5225 Clouds -3 992 94 10000 4.12 260 10:21 20.02.2022
5226 Clouds -3 992 94 10000 3.6 250 09:53 20.02.2022
5227 Clouds -3 991 95 10000 3.09 270 06:46 20.02.2022
5228 Clouds -4 992 94 10000 3.09 220 00:34 20.02.2022
5229 Clouds -3 992 92 10000 3.09 210 23:42 19.02.2022
5230 Clouds -3 992 93 10000 3.09 230 22:25 19.02.2022
5231 Clouds -3 992 92 10000 2.57 230 21:54 19.02.2022
5232 Clear -2 992 91 10000 3.09 240 20:48 19.02.2022
5233 Clear -2 991 93 10000 3.09 240 19:41 19.02.2022
5234 Clouds -2 991 92 10000 2.06 240 18:41 19.02.2022
5235 Clouds -1 991 92 10000 3.6 240 18:19 19.02.2022
5236 Clouds -1 990 91 10000 3.6 260 17:33 19.02.2022
5237 Clear 0 989 86 10000 4.12 270 16:21 19.02.2022
5238 Clouds 0 987 88 10000 4.63 280 14:56 19.02.2022
5239 Clouds 0 985 91 10000 4.63 300 13:59 19.02.2022
5240 Clouds 0 982 93 10000 4.12 320 11:59 19.02.2022
5241 Clouds 1 981 93 10000 4.12 320 11:36 19.02.2022
5242 Clouds 0 977 95 10000 4.12 330 09:34 19.02.2022
5243 Snow 0 974 95 1200 2.57 350 06:52 19.02.2022
5244 Snow 1 975 89 10000 1.54 100 01:39 19.02.2022
5245 Clouds 1 978 86 10000 2.06 140 22:54 18.02.2022
5246 Clear 0 980 84 10000 1.54 150 21:28 18.02.2022
5247 Clear -1 980 82 10000 0 0 20:31 18.02.2022
5248 Clear 0 982 81 10000 1.54 170 19:51 18.02.2022
5249 Clear 1 983 76 10000 2.06 220 18:39 18.02.2022
5250 Clear 1 984 74 10000 2.06 220 18:19 18.02.2022
5251 Clear 2 983 73 10000 2.57 240 17:21 18.02.2022
5252 Clear 4 984 68 10000 6.17 250 14:39 18.02.2022
5253 Clear 4 984 68 10000 6.69 260 13:47 18.02.2022
5254 Clear 3 984 73 10000 6.17 260 12:51 18.02.2022
5255 Clear 2 984 75 10000 7.2 270 11:58 18.02.2022
5256 Clear 1 983 82 10000 6.17 250 10:58 18.02.2022
5257 Clear 0 983 86 10000 4.63 250 09:29 18.02.2022
5258 Clear -2 981 89 10000 4.12 240 06:50 18.02.2022
5259 Clouds -2 981 89 10000 3.09 260 05:36 18.02.2022
5260 Clouds 0 977 83 10000 5.66 290 22:43 17.02.2022
5261 Clouds 0 976 82 10000 5.66 290 21:42 17.02.2022
5262 Clear 0 976 82 10000 5.66 290 20:52 17.02.2022
5263 Clear 0 976 82 10000 5.66 290 20:33 17.02.2022
5264 Clear 0 975 81 10000 5.14 290 19:43 17.02.2022
5265 Clear 0 975 84 10000 5.14 280 18:34 17.02.2022
5266 Clear 0 974 83 10000 6.17 290 17:46 17.02.2022
5267 Clouds 1 973 85 10000 7.72 290 16:20 17.02.2022
5268 Clouds 1 972 86 10000 6.17 310 14:39 17.02.2022
5269 Clouds 1 971 87 10000 7.2 310 13:47 17.02.2022
5270 Clouds 1 968 91 10000 7.72 320 11:57 17.02.2022
5271 Drizzle 1 968 93 9000 6.69 320 11:21 17.02.2022
5272 Clouds 0 966 94 3500 4.63 360 08:37 17.02.2022
5273 Rain 1 971 94 9000 3.09 60 00:20 17.02.2022
5274 Drizzle 2 972 93 10000 3.6 90 22:38 16.02.2022
5275 Clouds 2 977 91 10000 3.09 140 20:32 16.02.2022
5276 Clouds 2 979 89 10000 2.57 160 19:27 16.02.2022
5277 Clouds 2 981 86 10000 3.09 160 18:35 16.02.2022
5278 Clouds 3 981 87 10000 3.97 190 17:27 16.02.2022
5279 Clouds 4 983 85 10000 3.6 190 15:24 16.02.2022
5280 Clouds 4 984 86 10000 4.12 190 14:29 16.02.2022
5281 Clouds 3 985 89 10000 4.63 220 12:31 16.02.2022
5282 Clouds 3 985 92 10000 4.12 220 11:46 16.02.2022
5283 Drizzle 3 986 93 10000 4.12 210 10:35 16.02.2022
5284 Drizzle 3 986 94 8000 3.6 190 09:54 16.02.2022
5285 Rain 3 989 91 8000 5.14 170 06:44 16.02.2022
5286 Clouds 3 993 85 10000 4.12 160 03:41 16.02.2022
5287 Clouds 2 996 82 10000 4.63 220 22:35 15.02.2022
5288 Clear 2 996 80 10000 4.63 220 21:52 15.02.2022
5289 Clear 2 996 79 10000 2.06 190 21:31 15.02.2022
5290 Clouds 3 996 77 10000 3.6 230 20:58 15.02.2022
5291 Clouds 3 995 77 10000 3.6 230 20:38 15.02.2022
5292 Clouds 3 994 83 10000 0.45 248 19:48 15.02.2022
5293 Clouds 3 995 83 10000 6.69 240 18:28 15.02.2022
5294 Clouds 4 995 84 10000 3.6 210 17:57 15.02.2022
5295 Rain 4 994 84 10000 3.6 210 17:38 15.02.2022
5296 Clouds 4 993 87 10000 4.12 200 16:20 15.02.2022
5297 Drizzle 5 993 87 10000 5.14 190 14:35 15.02.2022
5298 Clouds 5 992 86 10000 5.14 190 13:26 15.02.2022
5299 Clouds 5 994 87 10000 4.12 140 11:43 15.02.2022
5300 Clouds 5 995 90 10000 3.09 140 10:32 15.02.2022
5301 Clouds 4 995 92 10000 3.09 140 09:23 15.02.2022
5302 Clouds 3 996 91 10000 2.57 160 06:47 15.02.2022
5303 Clouds 3 996 93 10000 3.09 200 00:26 15.02.2022
5304 Clouds 3 996 94 10000 2.57 170 21:59 14.02.2022
5305 Mist 3 996 95 4600 2.06 170 20:57 14.02.2022
5306 Drizzle 3 996 95 4500 1.54 160 20:19 14.02.2022
5307 Drizzle 3 996 95 5000 2.06 150 19:30 14.02.2022
5308 Clouds 3 995 93 8000 1.54 160 18:24 14.02.2022
5309 Drizzle 3 995 93 8000 1.54 160 17:37 14.02.2022
5310 Mist 3 995 93 6000 1.54 170 17:18 14.02.2022
5311 Rain 3 995 93 7000 1.54 170 15:52 14.02.2022
5312 Rain 3 995 93 10000 2.57 210 13:37 14.02.2022
5313 Drizzle 3 995 93 10000 2.57 200 12:59 14.02.2022
5314 Clouds 2 995 93 7000 3.09 200 12:32 14.02.2022
5315 Rain 2 995 93 8000 4.12 190 11:43 14.02.2022
5316 Rain 1 995 94 7000 3.09 170 10:22 14.02.2022
5317 Rain 1 995 91 8000 3.6 170 08:32 14.02.2022
5318 Snow 2 996 92 10000 2.57 170 07:26 14.02.2022
5319 Clouds 3 998 86 10000 0.89 225 23:19 13.02.2022
5320 Clouds 3 998 86 10000 0.89 270 22:41 13.02.2022
5321 Clouds 4 998 85 10000 5.14 210 22:22 13.02.2022
5322 Clouds 4 999 86 10000 4.63 210 21:24 13.02.2022
5323 Clouds 4 999 86 10000 5.66 210 20:30 13.02.2022
5324 Clouds 4 999 86 10000 6.69 220 19:23 13.02.2022
5325 Clouds 4 999 85 10000 5.66 220 18:41 13.02.2022
5326 Clouds 4 998 85 10000 6.17 210 17:52 13.02.2022
5327 Clouds 4 999 81 10000 5.66 220 15:53 13.02.2022
5328 Clouds 4 999 79 10000 5.66 220 14:57 13.02.2022
5329 Clouds 4 1000 78 10000 5.14 220 13:42 13.02.2022
5330 Clouds 4 1000 77 10000 5.66 210 12:49 13.02.2022
5331 Clouds 3 1000 77 10000 4.63 220 11:24 13.02.2022
5332 Clouds 2 1001 77 10000 5.66 210 10:28 13.02.2022
5333 Clouds 2 1001 77 10000 6.17 210 09:36 13.02.2022
5334 Clouds 1 1003 79 10000 6.17 200 06:22 13.02.2022
5335 Clouds 2 1009 80 10000 5.14 210 00:35 13.02.2022
5336 Clouds 2 1010 82 10000 5.14 220 22:59 12.02.2022
5337 Clouds 2 1010 81 10000 5.14 220 22:33 12.02.2022
5338 Clouds 2 1010 74 10000 5.14 220 21:19 12.02.2022
5339 Clouds 3 1011 74 10000 5.66 220 20:32 12.02.2022
5340 Clouds 3 1012 74 10000 5.66 220 19:21 12.02.2022
5341 Clouds 3 1012 74 10000 5.66 220 18:50 12.02.2022
5342 Clouds 3 1012 75 10000 6.17 230 18:32 12.02.2022
5343 Clouds 3 1011 76 10000 2.24 248 16:55 12.02.2022
5344 Clouds 4 1012 73 10000 6.17 240 16:25 12.02.2022
5345 Clouds 4 1013 73 10000 6.17 240 15:50 12.02.2022
5346 Clouds 4 1013 72 10000 5.66 250 14:31 12.02.2022
5347 Clouds 5 1013 70 10000 7.72 260 12:55 12.02.2022
5348 Clear 3 1014 77 10000 7.72 240 10:40 12.02.2022
5349 Clear 2 1013 82 10000 3.09 230 09:39 12.02.2022
5350 Clear 1 1013 84 10000 4.63 220 08:50 12.02.2022
5351 Clouds 0 1013 85 10000 4.63 230 07:53 12.02.2022
5352 Clouds -1 1013 78 10000 4.12 230 05:33 12.02.2022
5353 Clouds -2 1014 75 10000 5.66 240 04:27 12.02.2022
5354 Clouds -2 1014 68 10000 5.66 240 02:18 12.02.2022
5355 Clear -2 1016 63 10000 3.6 250 22:28 11.02.2022
5356 Clear -2 1016 62 10000 3.6 260 21:51 11.02.2022
5357 Clear -2 1016 62 10000 3.09 250 20:40 11.02.2022
5358 Clear -2 1015 63 10000 4.12 260 19:46 11.02.2022
5359 Clear -2 1015 65 10000 3.09 270 19:27 11.02.2022
5360 Clear -1 1014 65 10000 2.57 270 17:55 11.02.2022
5361 Clear -1 1014 63 10000 4.63 280 17:25 11.02.2022
5362 Clear 0 1013 61 10000 5.14 280 16:22 11.02.2022
5363 Clear 1 1012 60 10000 6.69 280 14:43 11.02.2022
5364 Clear 1 1011 61 10000 5.14 280 14:21 11.02.2022
5365 Clear 0 1011 63 10000 5.14 270 13:59 11.02.2022
5366 Clear 0 1011 64 10000 5.66 290 13:39 11.02.2022
5367 Clear -1 1010 68 10000 4.12 310 11:42 11.02.2022
5368 Clear -2 1007 74 10000 3.6 270 09:58 11.02.2022
5369 Clear -3 1006 82 10000 0.89 270 08:49 11.02.2022
5370 Clear -3 1007 82 10000 2.57 280 08:26 11.02.2022
5371 Clear -3 1006 85 10000 2.06 270 07:18 11.02.2022
5372 Clouds -2 1003 88 10000 1.03 0 02:26 11.02.2022
5373 Clouds -1 1003 86 10000 3.6 260 00:52 11.02.2022
5374 Clouds 1 1002 81 10000 3.09 260 22:53 10.02.2022
5375 Clear 1 1001 79 10000 4.12 240 21:50 10.02.2022
5376 Clear 1 1001 77 10000 4.12 240 21:18 10.02.2022
5377 Clear 2 1001 76 10000 4.12 240 20:38 10.02.2022
5378 Clear 2 1000 73 10000 5.14 260 19:26 10.02.2022
5379 Clear 2 1000 73 10000 5.14 260 18:46 10.02.2022
5380 Clear 3 1000 70 10000 5.14 260 17:26 10.02.2022
5381 Clear 4 1000 68 10000 4.63 250 16:50 10.02.2022
5382 Clear 4 1000 65 10000 6.17 250 15:51 10.02.2022
5383 Clear 5 1000 65 10000 5.66 270 15:30 10.02.2022
5384 Clear 5 1000 64 10000 6.69 260 14:48 10.02.2022
5385 Clear 5 1000 64 10000 6.17 260 14:24 10.02.2022
5386 Clear 5 1000 63 10000 7.72 260 13:29 10.02.2022
5387 Clear 5 999 65 10000 8.75 250 12:50 10.02.2022
5388 Clear 4 1000 71 10000 7.72 250 11:34 10.02.2022
5389 Clear 4 999 73 10000 7.72 240 10:55 10.02.2022
5390 Clear 3 1000 76 10000 7.72 250 09:59 10.02.2022
5391 Clear 3 999 77 10000 6.69 250 09:24 10.02.2022
5392 Clear 2 999 78 10000 7.72 250 07:36 10.02.2022
5393 Clouds 2 999 77 10000 6.69 250 04:58 10.02.2022
5394 Clear 2 1000 73 10000 5.66 260 01:51 10.02.2022
5395 Clear 2 1000 72 10000 7.2 260 00:49 10.02.2022
5396 Clear 2 1000 71 10000 6.69 260 00:28 10.02.2022
5397 Clear 3 999 73 10000 6.69 260 23:24 09.02.2022
5398 Clear 3 999 74 10000 7.2 260 22:36 09.02.2022
5399 Clear 3 999 73 10000 7.2 250 21:52 09.02.2022
5400 Clear 3 999 72 10000 8.75 250 21:29 09.02.2022
5401 Clear 3 998 72 10000 7.2 260 20:48 09.02.2022
5402 Clear 4 998 73 10000 7.2 260 20:29 09.02.2022
5403 Clear 4 997 73 10000 6.17 260 19:54 09.02.2022
5404 Clear 4 997 74 10000 6.69 250 19:31 09.02.2022
5405 Clouds 5 997 80 10000 5.14 240 17:37 09.02.2022
5406 Clouds 5 996 80 10000 6.17 240 16:52 09.02.2022
5407 Clouds 6 996 79 10000 5.66 240 15:51 09.02.2022
5408 Clouds 6 997 78 10000 6.69 240 14:42 09.02.2022
5409 Clouds 5 999 82 10000 4.12 230 12:28 09.02.2022
5410 Clouds 3 1000 85 10000 5.14 220 10:54 09.02.2022
5411 Clouds 3 1000 87 10000 4.63 230 10:30 09.02.2022
5412 Clear 2 1001 89 10000 4.63 230 09:40 09.02.2022
5413 Clear 2 1001 90 10000 4.63 230 09:19 09.02.2022
5414 Clear 0 1002 92 10000 3.6 220 07:55 09.02.2022
5415 Clouds 0 1003 89 10000 4.63 220 05:30 09.02.2022
5416 Clouds 0 1004 87 10000 3.09 230 03:50 09.02.2022
5417 Clear 1 1003 85 10000 3.6 240 00:44 09.02.2022
5418 Clear 1 1003 84 10000 2.57 240 23:33 08.02.2022
5419 Clear 1 1003 83 10000 3.09 250 22:46 08.02.2022
5420 Clear 1 1003 85 10000 2.57 250 22:21 08.02.2022
5421 Clear 1 1002 86 10000 1.54 250 21:42 08.02.2022
5422 Clear 1 1002 87 10000 2.06 230 21:21 08.02.2022
5423 Clear 2 1002 85 10000 2.57 250 20:44 08.02.2022
5424 Clear 2 1001 87 10000 2.57 240 19:46 08.02.2022
5425 Clear 2 1000 86 10000 4.63 250 18:38 08.02.2022
5426 Clear 3 999 87 10000 3.09 260 17:42 08.02.2022
5427 Clear 4 998 87 10000 5.14 290 16:30 08.02.2022
5428 Clouds 4 997 87 10000 7.2 280 15:30 08.02.2022
5429 Clouds 4 997 87 10000 7.2 280 15:30 08.02.2022
5430 Clouds 4 996 89 10000 6.69 280 14:36 08.02.2022
5431 Clouds 4 995 92 10000 4.63 270 13:20 08.02.2022
5432 Clouds 2 994 95 3900 4.12 230 11:33 08.02.2022
5433 Mist 1 995 94 3800 4.12 220 10:23 08.02.2022
5434 Mist 1 995 93 5000 3.6 200 09:44 08.02.2022
5435 Snow 1 997 91 10000 4.12 190 07:53 08.02.2022
5436 Clouds 0 1000 80 10000 4.12 190 05:41 08.02.2022
5437 Clouds -1 1002 81 10000 3.6 200 04:39 08.02.2022
5438 Clouds -1 1002 82 10000 1.54 180 04:21 08.02.2022
5439 Clouds -2 1003 86 10000 2.06 190 03:36 08.02.2022
5440 Clouds -3 1003 87 10000 2.06 190 03:18 08.02.2022
5441 Clouds -3 1004 87 10000 2.06 180 02:58 08.02.2022
5442 Clouds -4 1004 87 10000 2.06 180 02:36 08.02.2022
5443 Clouds -4 1005 86 10000 2.06 220 02:18 08.02.2022
5444 Clouds -3 1005 86 10000 1.54 210 01:44 08.02.2022
5445 Clouds -3 1005 85 10000 1.54 220 01:24 08.02.2022
5446 Clouds -2 1005 83 10000 2.57 260 00:54 08.02.2022
5447 Clear -2 1005 84 10000 2.57 260 23:55 07.02.2022
5448 Clear -2 1005 84 10000 2.57 260 23:37 07.02.2022
5449 Clear -2 1005 84 10000 1.03 0 23:18 07.02.2022
5450 Clear -2 1004 81 10000 3.09 270 22:20 07.02.2022
5451 Clear -1 1004 80 10000 3.6 280 21:55 07.02.2022
5452 Clear -1 1004 81 10000 3.09 290 21:29 07.02.2022
5453 Clear -1 1004 80 10000 3.09 290 20:59 07.02.2022
5454 Clear -1 1003 80 10000 3.09 290 20:40 07.02.2022
5455 Clear -1 1003 78 10000 3.6 280 19:51 07.02.2022
5456 Clear -1 1003 78 10000 3.6 280 19:33 07.02.2022
5457 Clear -1 1002 78 10000 3.6 290 18:18 07.02.2022
5458 Clouds 0 999 77 10000 0.45 293 16:53 07.02.2022
5459 Clouds 1 997 75 10000 5.14 330 15:49 07.02.2022
5460 Clear 2 995 72 10000 6.69 320 14:56 07.02.2022
5461 Clear 1 992 72 10000 6.17 290 13:28 07.02.2022
5462 Clear 1 992 73 10000 4.63 290 12:52 07.02.2022
5463 Clear 1 991 75 10000 5.66 270 11:58 07.02.2022
5464 Clear 0 990 76 10000 5.66 270 11:36 07.02.2022
5465 Clear 0 989 81 10000 4.63 270 10:51 07.02.2022
5466 Clear 0 989 83 10000 4.12 260 10:31 07.02.2022
5467 Clear -1 988 88 10000 2.57 260 09:53 07.02.2022
5468 Clear -2 988 90 10000 3.6 260 09:18 07.02.2022
5469 Clear -2 987 92 10000 2.57 260 08:38 07.02.2022
5470 Clear -2 985 92 10000 3.09 260 06:58 07.02.2022
5471 Clear -2 985 92 10000 3.09 260 06:34 07.02.2022
5472 Clouds -2 982 91 10000 2.06 200 02:59 07.02.2022
5473 Clouds 0 981 87 10000 2.06 240 00:45 07.02.2022
5474 Clouds 0 980 87 10000 2.06 240 23:48 06.02.2022
5475 Clouds 0 980 87 10000 1.54 230 22:48 06.02.2022
5476 Clear 0 980 87 10000 2.57 190 21:56 06.02.2022
5477 Clear 0 979 87 10000 2.57 190 21:35 06.02.2022
5478 Clear 0 979 83 10000 3.09 210 20:55 06.02.2022
5479 Clear 0 979 83 10000 3.09 210 20:55 06.02.2022
5480 Clear 0 979 83 10000 3.09 220 20:31 06.02.2022
5481 Clear 1 979 83 10000 3.09 200 19:38 06.02.2022
5482 Clear 1 979 80 10000 3.09 220 18:40 06.02.2022
5483 Clouds 2 979 79 10000 2.06 210 17:56 06.02.2022
5484 Clouds 2 979 79 10000 2.57 230 17:21 06.02.2022
5485 Clouds 2 979 78 10000 4.12 220 16:47 06.02.2022
5486 Clouds 3 979 75 10000 5.14 230 15:49 06.02.2022
5487 Clouds 3 979 75 10000 4.12 230 15:27 06.02.2022
5488 Clouds 3 979 75 10000 5.14 240 14:46 06.02.2022
5489 Clouds 4 979 76 10000 5.66 240 13:28 06.02.2022
5490 Clouds 3 979 77 10000 5.66 240 12:58 06.02.2022
5491 Clouds 3 980 81 10000 6.17 240 11:35 06.02.2022
5492 Clouds 3 980 81 10000 4.63 240 10:31 06.02.2022
5493 Clouds 3 980 84 10000 5.14 230 09:25 06.02.2022
5494 Drizzle 2 980 88 10000 4.63 230 08:30 06.02.2022
5495 Clouds 2 980 92 10000 5.14 190 05:33 06.02.2022
5496 Rain 2 984 92 8000 5.66 170 03:18 06.02.2022
5497 Rain 2 985 91 10000 5.14 180 02:24 06.02.2022
5498 Clouds 1 988 89 10000 4.12 190 00:29 06.02.2022
5499 Clouds 0 991 89 10000 2.06 190 22:36 05.02.2022
5500 Clouds 0 991 88 10000 2.06 210 21:32 05.02.2022
5501 Clouds 0 992 86 10000 2.06 220 20:25 05.02.2022
5502 Clouds 1 992 86 10000 3.6 230 19:48 05.02.2022
5503 Clear 1 992 85 10000 2.57 230 18:59 05.02.2022
5504 Clear 1 992 82 10000 2.06 230 17:45 05.02.2022
5505 Clear 2 992 82 10000 3.09 240 17:25 05.02.2022
5506 Clear 3 992 76 10000 5.14 250 15:40 05.02.2022
5507 Clear 3 991 76 10000 4.63 250 15:21 05.02.2022
5508 Clear 3 990 82 10000 6.17 260 12:54 05.02.2022
5509 Clear 2 990 84 10000 6.17 250 12:31 05.02.2022
5510 Clouds 1 990 89 10000 4.63 240 10:52 05.02.2022
5511 Clouds 1 990 91 10000 4.12 240 10:22 05.02.2022
5512 Clouds 0 989 91 10000 4.12 230 09:44 05.02.2022
5513 Clouds 0 988 93 10000 4.12 240 07:54 05.02.2022
5514 Clouds 0 988 91 10000 5.14 250 06:57 05.02.2022
5515 Clouds 1 987 94 10000 3.09 230 04:30 05.02.2022
5516 Clouds 1 987 96 10000 2.06 220 01:19 05.02.2022
5517 Clouds 1 987 96 10000 1.54 220 00:53 05.02.2022
5518 Clouds 1 987 96 10000 2.57 210 23:46 04.02.2022
5519 Clouds 1 988 95 10000 2.06 190 23:28 04.02.2022
5520 Snow 2 989 93 6000 1.54 230 21:59 04.02.2022
5521 Snow 2 989 93 6000 1.54 230 21:36 04.02.2022
5522 Snow 2 989 94 8000 2.57 250 21:18 04.02.2022
5523 Rain 3 989 95 7000 3.09 200 20:20 04.02.2022
5524 Rain 3 989 95 10000 0.89 248 17:43 04.02.2022
5525 Clouds 3 992 94 10000 4.63 170 15:42 04.02.2022
5526 Drizzle 3 992 93 10000 5.66 170 14:55 04.02.2022
5527 Clouds 3 993 94 10000 5.14 170 13:39 04.02.2022
5528 Clouds 3 994 94 10000 5.14 150 12:43 04.02.2022
5529 Clouds 3 995 96 10000 3.6 180 11:42 04.02.2022
5530 Clouds 3 995 96 10000 3.6 180 11:42 04.02.2022
5531 Clouds 3 996 96 10000 5.14 150 10:36 04.02.2022
5532 Mist 2 997 94 4500 5.66 150 08:42 04.02.2022
5533 Clouds 2 999 94 5000 6.17 150 06:57 04.02.2022
5534 Clouds 1 1002 92 7000 5.14 140 02:46 04.02.2022
5535 Clouds 1 1003 92 10000 5.66 140 01:56 04.02.2022
5536 Clouds 0 1005 87 10000 4.63 120 23:29 03.02.2022
5537 Clouds -1 1006 86 10000 4.12 120 22:40 03.02.2022
5538 Clouds -1 1006 86 10000 3.6 130 21:49 03.02.2022
5539 Clouds -2 1007 88 10000 2.57 120 20:39 03.02.2022
5540 Clouds -3 1007 87 10000 3.09 120 20:19 03.02.2022
5541 Clouds -3 1008 88 10000 4.12 110 19:32 03.02.2022
5542 Clouds -3 1008 88 10000 3.6 120 18:38 03.02.2022
5543 Clouds -3 1009 86 10000 3.6 140 17:35 03.02.2022
5544 Clouds -4 1009 87 10000 3.09 120 16:35 03.02.2022
5545 Clouds -3 1009 84 10000 1.54 90 14:49 03.02.2022
5546 Clouds -3 1010 86 10000 1.54 0 12:58 03.02.2022
5547 Clouds -3 1010 85 10000 1.03 0 11:23 03.02.2022
5548 Clouds -4 1009 92 10000 1.03 0 08:37 03.02.2022
5549 Clouds -4 1007 91 10000 0 0 05:26 03.02.2022
5550 Clouds -5 1007 86 10000 1.03 210 00:32 03.02.2022
5551 Clouds -6 1007 86 10000 1.54 170 23:43 02.02.2022
5552 Clouds -7 1007 90 10000 1.03 150 22:19 02.02.2022
5553 Clouds -7 1008 87 10000 0.51 0 21:34 02.02.2022
5554 Clouds -8 1007 88 10000 0 0 20:49 02.02.2022
5555 Clear -7 1007 85 10000 1.03 0 19:58 02.02.2022
5556 Clear -6 1007 83 10000 1.03 240 19:27 02.02.2022
5557 Clear -6 1007 82 10000 1.54 280 18:45 02.02.2022
5558 Clear -6 1006 81 10000 2.06 280 17:57 02.02.2022
5559 Clear -6 1006 79 10000 3.09 270 17:19 02.02.2022
5560 Clear -5 1005 77 10000 3.6 300 16:42 02.02.2022
5561 Clouds -4 1003 85 10000 4.12 320 13:28 02.02.2022
5562 Clouds -4 1002 86 10000 4.12 330 12:20 02.02.2022
5563 Clouds -5 1002 88 10000 3.09 330 11:34 02.02.2022
5564 Clouds -5 1001 89 8000 2.57 320 10:22 02.02.2022
5565 Clouds -6 998 92 10000 3.09 320 07:35 02.02.2022
5566 Clouds -6 995 88 10000 2.06 10 22:52 01.02.2022
5567 Clouds -5 995 89 10000 1.03 0 21:50 01.02.2022
5568 Clouds -6 994 89 10000 1.54 50 20:35 01.02.2022
5569 Clear -7 993 85 10000 1.54 30 17:44 01.02.2022
5570 Clear -5 995 82 10000 1.54 0 16:39 01.02.2022
5571 Clear -5 995 82 10000 1.54 0 16:39 01.02.2022
5572 Clear -3 994 77 10000 1.54 0 14:24 01.02.2022
5573 Clear -4 996 80 10000 0 0 12:45 01.02.2022
5574 Clouds -5 997 85 10000 1.54 300 11:30 01.02.2022
5575 Clouds -5 1000 84 10000 3.09 300 04:53 01.02.2022
5576 Clouds -4 1002 81 10000 4.63 310 23:42 31.01.2022
5577 Clouds -4 1002 81 10000 4.63 310 23:42 31.01.2022
5578 Clouds -4 1002 81 10000 4.63 300 23:21 31.01.2022
5579 Clouds -4 1002 80 10000 4.12 300 21:42 31.01.2022
5580 Clouds -4 1003 80 10000 4.63 300 21:19 31.01.2022
5581 Clouds -4 1003 79 10000 5.14 300 20:32 31.01.2022
5582 Clouds -4 1003 78 10000 4.63 320 19:35 31.01.2022
5583 Clouds -3 1003 76 10000 4.12 350 18:26 31.01.2022
5584 Clouds -3 1003 76 10000 4.63 340 17:41 31.01.2022
5585 Clouds -3 1003 76 10000 4.63 340 16:38 31.01.2022
5586 Clouds -3 1002 75 10000 5.66 340 15:41 31.01.2022
5587 Clouds -2 1002 75 10000 4.63 350 14:22 31.01.2022
5588 Clouds -2 1001 76 10000 5.66 340 12:39 31.01.2022
5589 Clouds -2 1001 76 10000 5.66 340 11:56 31.01.2022
5590 Clouds -2 1001 77 10000 4.63 350 10:50 31.01.2022
5591 Clouds -2 1001 79 10000 4.63 330 10:30 31.01.2022
5592 Clouds -2 1001 81 10000 4.12 310 09:26 31.01.2022
5593 Clouds -3 1001 83 10000 3.6 300 08:50 31.01.2022
5594 Clouds -2 1001 82 10000 4.12 320 08:20 31.01.2022
5595 Clouds -2 1001 82 10000 3.6 310 06:18 31.01.2022
5596 Clouds -1 1001 79 10000 6.17 320 02:18 31.01.2022
5597 Clouds 0 1001 77 10000 6.17 320 23:18 30.01.2022
5598 Clouds 0 1001 78 10000 7.2 320 22:29 30.01.2022
5599 Clouds 0 1001 78 10000 6.69 320 21:42 30.01.2022
5600 Clouds 0 1001 78 10000 7.2 320 21:19 30.01.2022
5601 Clouds 0 1001 79 10000 8.23 320 20:47 30.01.2022
5602 Clouds 0 1001 81 10000 7.72 320 20:28 30.01.2022
5603 Clouds -1 1000 81 10000 7.72 320 19:52 30.01.2022
5604 Clear -2 1000 79 10000 7.72 320 18:44 30.01.2022
5605 Clouds -2 1000 78 10000 8.75 330 18:20 30.01.2022
5606 Clouds -1 999 83 10000 8.75 330 17:27 30.01.2022
5607 Clouds -2 998 83 8000 9.26 330 16:40 30.01.2022
5608 Snow -2 998 85 6000 8.75 330 16:22 30.01.2022
5609 Clouds -2 997 84 10000 10.29 330 15:50 30.01.2022
5610 Snow -2 996 83 10000 9.26 330 15:32 30.01.2022
5611 Clouds -2 996 84 10000 9.26 320 14:46 30.01.2022
5612 Clouds -1 992 85 10000 8.23 340 12:47 30.01.2022
5613 Clouds -1 991 85 10000 8.75 330 12:25 30.01.2022
5614 Clouds -1 987 85 10000 9.77 330 10:36 30.01.2022
5615 Clouds -1 986 88 10000 9.77 330 09:56 30.01.2022
5616 Clouds -1 984 89 7000 12.35 330 08:58 30.01.2022
5617 Clouds 0 981 89 7000 10.8 330 07:55 30.01.2022
5618 Rain 1 966 93 2400 9.26 300 02:29 30.01.2022
5619 Rain 2 965 93 3900 8.23 310 01:39 30.01.2022
5620 Clouds 5 962 92 10000 5.66 260 23:21 29.01.2022
5621 Clouds 5 962 95 7000 5.14 260 21:59 29.01.2022
5622 Rain 5 962 96 3600 5.14 240 21:26 29.01.2022
5623 Rain 5 964 95 7000 4.12 210 20:36 29.01.2022
5624 Rain 5 966 94 4400 4.63 210 19:36 29.01.2022
5625 Rain 5 967 95 9000 3.6 190 18:59 29.01.2022
5626 Drizzle 5 968 95 3500 4.63 210 18:30 29.01.2022
5627 Drizzle 4 970 94 6000 4.12 180 17:41 29.01.2022
5628 Clouds 3 975 96 3000 4.63 160 16:38 29.01.2022
5629 Rain 2 980 95 6000 4.12 190 14:33 29.01.2022
5630 Rain 2 982 95 7000 4.12 180 13:45 29.01.2022
5631 Rain 2 984 93 6000 4.12 180 13:25 29.01.2022
5632 Rain 2 986 93 6000 4.63 180 12:36 29.01.2022
5633 Rain 2 988 93 5000 5.14 180 11:38 29.01.2022
5634 Snow 1 992 92 6000 5.66 180 10:21 29.01.2022
5635 Clouds 1 999 86 10000 6.17 190 06:57 29.01.2022
5636 Clouds -1 1010 72 10000 3.6 220 00:50 29.01.2022
5637 Clouds -1 1010 73 10000 3.09 210 00:31 29.01.2022
5638 Clouds -1 1012 76 10000 2.57 240 22:52 28.01.2022
5639 Clear -2 1013 76 10000 2.57 230 22:27 28.01.2022
5640 Clear -2 1013 76 10000 3.09 240 21:53 28.01.2022
5641 Clear -1 1014 74 10000 4.12 290 20:31 28.01.2022
5642 Clear -1 1014 74 10000 5.14 290 19:44 28.01.2022
5643 Clear 0 1015 73 10000 6.17 290 18:48 28.01.2022
5644 Clear 0 1015 70 10000 6.17 290 17:43 28.01.2022
5645 Clear 1 1014 66 10000 6.17 310 15:28 28.01.2022
5646 Clear 2 1013 64 10000 5.66 320 13:59 28.01.2022
5647 Clear 2 1012 64 10000 8.23 330 12:32 28.01.2022
5648 Clear 1 1011 68 10000 7.72 330 11:36 28.01.2022
5649 Clouds 1 1009 76 10000 7.72 320 09:59 28.01.2022
5650 Clouds 1 1007 81 10000 7.2 320 08:41 28.01.2022
5651 Clouds 1 1005 82 10000 6.69 320 07:36 28.01.2022
5652 Clouds 1 1002 89 10000 7.2 320 05:23 28.01.2022
5653 Clouds 1 999 90 10000 6.17 320 03:45 28.01.2022
5654 Clouds 0 998 92 9000 6.17 340 02:22 28.01.2022
5655 Clouds 0 997 94 6000 5.14 330 01:33 28.01.2022
5656 Clouds 1 992 93 8000 5.66 340 23:30 27.01.2022
5657 Drizzle 1 990 93 9000 6.17 350 21:49 27.01.2022
5658 Drizzle 1 989 93 10000 5.14 340 21:29 27.01.2022
5659 Clouds 1 988 95 8000 5.66 330 20:44 27.01.2022
5660 Clouds 2 985 93 10000 4.63 350 18:55 27.01.2022
5661 Drizzle 3 984 95 8000 3.6 350 17:56 27.01.2022
5662 Clouds 4 985 93 10000 1.54 230 15:18 27.01.2022
5663 Rain 4 984 94 10000 2.06 190 13:36 27.01.2022
5664 Drizzle 4 985 93 10000 2.06 180 12:45 27.01.2022
5665 Clouds 3 988 93 10000 3.09 160 10:24 27.01.2022
5666 Rain 2 992 91 10000 3.09 180 08:57 27.01.2022
5667 Clouds 2 992 90 10000 3.09 180 08:34 27.01.2022
5668 Clouds 2 996 90 10000 3.09 210 05:59 27.01.2022
5669 Clouds 0 998 88 10000 2.57 220 02:43 27.01.2022
5670 Clouds 0 1001 89 10000 1.54 230 23:32 26.01.2022
5671 Clear 1 1002 87 10000 2.06 250 21:59 26.01.2022
5672 Clear 1 1002 87 10000 2.06 250 21:35 26.01.2022
5673 Clear 2 1002 88 10000 4.63 260 20:36 26.01.2022
5674 Clear 2 1002 88 10000 4.63 260 20:36 26.01.2022
5675 Clear 2 1003 88 10000 2.57 240 19:59 26.01.2022
5676 Clouds 3 1002 88 10000 2.57 260 19:20 26.01.2022
5677 Clouds 3 1002 87 10000 3.6 270 18:45 26.01.2022
5678 Clouds 3 1002 90 10000 3.09 260 17:50 26.01.2022
5679 Clouds 3 1002 91 10000 2.57 260 17:22 26.01.2022
5680 Clouds 3 1002 93 10000 2.06 210 16:31 26.01.2022
5681 Clouds 3 1002 93 10000 2.57 220 15:49 26.01.2022
5682 Clouds 3 1003 93 10000 1.54 0 13:58 26.01.2022
5683 Clouds 2 1005 95 10000 3.09 200 11:48 26.01.2022
5684 Clouds 1 1006 95 7000 4.12 210 10:28 26.01.2022
5685 Mist 1 1007 95 4300 3.6 190 09:46 26.01.2022
5686 Clouds 0 1009 91 7000 4.12 190 07:44 26.01.2022
5687 Clouds -3 1015 89 10000 1.54 180 01:54 26.01.2022
5688 Clouds -4 1020 91 10000 1.54 190 23:56 25.01.2022
5689 Clouds -4 1021 91 10000 0 0 22:56 25.01.2022
5690 Clear -5 1022 95 10000 1.03 0 22:21 25.01.2022
5691 Clear -4 1022 93 10000 0 0 21:52 25.01.2022
5692 Clear -4 1023 91 10000 0 0 20:46 25.01.2022
5693 Clear -4 1023 91 10000 0 0 20:46 25.01.2022
5694 Clear -4 1023 90 10000 0 0 20:23 25.01.2022
5695 Clear -4 1023 90 10000 0 0 19:50 25.01.2022
5696 Clear -3 1024 88 10000 1.03 0 18:32 25.01.2022
5697 Clear -3 1022 86 10000 1.03 240 17:43 25.01.2022
5698 Clear -1 1022 81 10000 1.54 260 16:35 25.01.2022
5699 Clear 0 1022 78 10000 2.57 290 15:49 25.01.2022
5700 Clear 0 1022 76 10000 3.09 290 15:31 25.01.2022
5701 Clear 1 1022 75 10000 3.6 290 14:57 25.01.2022
5702 Clear 1 1022 76 10000 4.12 300 13:40 25.01.2022
5703 Clear 0 1021 89 10000 2.06 290 10:39 25.01.2022
5704 Clear -2 1021 96 10000 1.03 290 08:37 25.01.2022
5705 Clear -1 1020 96 10000 1.54 250 07:29 25.01.2022
5706 Clear -1 1020 96 10000 2.06 300 06:47 25.01.2022
5707 Fog -1 1019 95 250 1.03 280 05:22 25.01.2022
5708 Clouds 2 1017 92 10000 3.09 260 23:37 24.01.2022
5709 Clouds 2 1017 91 10000 4.12 270 23:18 24.01.2022
5710 Clouds 2 1017 91 10000 4.12 260 22:59 24.01.2022
5711 Clouds 2 1017 91 10000 4.12 260 22:41 24.01.2022
5712 Clouds 2 1017 90 10000 2.57 260 21:52 24.01.2022
5713 Clouds 2 1017 90 10000 2.57 270 21:28 24.01.2022
5714 Clear 3 1017 88 10000 4.12 260 20:29 24.01.2022
5715 Clear 3 1017 87 10000 4.12 270 19:44 24.01.2022
5716 Clear 3 1016 87 10000 4.12 270 19:24 24.01.2022
5717 Clear 4 1016 85 10000 4.63 260 17:45 24.01.2022
5718 Clear 4 1016 85 10000 5.14 270 17:23 24.01.2022
5719 Clear 4 1016 83 10000 5.66 260 16:41 24.01.2022
5720 Clear 4 1016 83 10000 5.66 250 16:18 24.01.2022
5721 Clear 5 1015 82 10000 4.12 250 14:35 24.01.2022
5722 Clouds 5 1016 83 10000 5.14 260 12:40 24.01.2022
5723 Clouds 5 1016 83 10000 5.14 260 12:22 24.01.2022
5724 Clouds 4 1017 87 10000 6.17 260 10:27 24.01.2022
5725 Clouds 4 1017 87 10000 5.66 260 09:48 24.01.2022
5726 Clouds 4 1017 89 10000 5.14 250 08:30 24.01.2022
5727 Mist 2 1019 96 5000 3.6 240 04:50 24.01.2022
5728 Mist 1 1020 94 5000 4.12 240 01:30 24.01.2022
5729 Clouds 1 1020 94 8000 3.6 240 00:35 24.01.2022
5730 Clouds 0 1019 95 7000 3.6 240 23:49 23.01.2022
5731 Clouds 0 1021 95 5000 4.12 240 22:28 23.01.2022
5732 Clouds 0 1021 95 5000 4.63 250 21:46 23.01.2022
5733 Clouds 0 1021 95 6000 3.09 240 21:25 23.01.2022
5734 Clouds 0 1021 95 6000 2.06 230 20:44 23.01.2022
5735 Mist 0 1022 95 3000 2.06 230 19:43 23.01.2022
5736 Fog 0 1022 93 900 3.09 240 18:50 23.01.2022
5737 Mist 0 1021 92 3000 3.09 250 17:34 23.01.2022
5738 Clear 0 1022 91 10000 1.54 220 16:45 23.01.2022
5739 Clear 1 1022 88 10000 2.57 250 14:59 23.01.2022
5740 Clear 1 1022 87 10000 2.57 270 14:25 23.01.2022
5741 Clear 1 1022 88 10000 3.6 270 12:54 23.01.2022
5742 Clear 1 1022 91 10000 2.57 250 12:22 23.01.2022
5743 Clouds 1 1022 92 10000 2.57 260 11:52 23.01.2022
5744 Clouds 0 1022 91 10000 2.57 250 11:18 23.01.2022
5745 Clouds 0 1022 92 10000 3.6 250 10:27 23.01.2022
5746 Clouds 0 1022 92 10000 3.09 240 09:51 23.01.2022
5747 Clouds -1 1022 92 10000 3.09 240 08:53 23.01.2022
5748 Clouds -2 1021 88 10000 2.57 240 05:56 23.01.2022
5749 Clouds -4 1021 87 10000 1.54 190 01:52 23.01.2022
5750 Clouds -4 1023 85 10000 1.54 210 01:26 23.01.2022
5751 Clouds -5 1022 80 10000 2.06 240 00:23 23.01.2022
5752 Clouds -5 1022 80 10000 1.54 230 23:44 22.01.2022
5753 Clouds -6 1022 79 10000 1.03 0 22:40 22.01.2022
5754 Clouds -5 1022 74 10000 0.51 200 21:36 22.01.2022
5755 Clouds -3 1021 68 10000 1.54 210 19:51 22.01.2022
5756 Clouds -3 1021 70 10000 2.06 230 18:49 22.01.2022
5757 Clouds -3 1021 70 10000 2.57 190 18:18 22.01.2022
5758 Clouds -3 1020 71 10000 2.06 170 17:40 22.01.2022
5759 Clouds -3 1021 72 10000 2.06 220 16:56 22.01.2022
5760 Clouds -3 1022 74 10000 1.54 230 15:50 22.01.2022
5761 Clouds -3 1022 75 10000 2.57 250 15:26 22.01.2022
5762 Clouds -3 1022 75 10000 1.54 250 13:46 22.01.2022
5763 Clear -3 1022 77 10000 2.06 280 12:52 22.01.2022
5764 Clear -4 1022 78 10000 1.54 280 12:29 22.01.2022
5765 Clear -4 1022 77 10000 1.54 270 11:31 22.01.2022
5766 Clear -6 1022 80 10000 2.06 310 10:29 22.01.2022
5767 Clear -6 1022 80 10000 3.09 310 09:59 22.01.2022
5768 Clear -6 1021 82 10000 2.57 290 08:53 22.01.2022
5769 Clouds -6 1021 83 10000 3.09 280 07:39 22.01.2022
5770 Clouds -5 1020 74 10000 3.6 320 04:53 22.01.2022
5771 Clouds -5 1018 71 10000 4.63 320 01:49 22.01.2022
5772 Clear -4 1016 67 10000 5.14 320 23:46 21.01.2022
5773 Clear -4 1017 70 10000 4.12 310 22:36 21.01.2022
5774 Clear -4 1015 71 10000 4.63 320 20:32 21.01.2022
5775 Clear -3 1014 69 10000 6.17 320 18:40 21.01.2022
5776 Clear -3 1014 68 10000 6.17 320 17:41 21.01.2022
5777 Clear -3 1012 65 10000 6.17 330 15:44 21.01.2022
5778 Clear -2 1011 65 10000 6.17 320 13:55 21.01.2022
5779 Clear -2 1013 65 10000 7.72 310 12:39 21.01.2022
5780 Clear -3 1011 66 10000 5.66 300 11:28 21.01.2022
5781 Clear -4 1010 71 10000 5.66 300 10:20 21.01.2022
5782 Clear -3 1009 71 10000 4.63 310 08:25 21.01.2022
5783 Clear -4 1009 71 10000 5.14 310 07:19 21.01.2022
5784 Clouds -2 1004 70 10000 7.2 310 23:54 20.01.2022
5785 Clouds -1 1003 73 10000 6.69 310 22:44 20.01.2022
5786 Clear -1 1002 75 10000 6.69 310 21:47 20.01.2022
5787 Clouds -1 1002 77 10000 6.17 310 20:56 20.01.2022
5788 Clear -2 999 75 10000 6.69 310 19:21 20.01.2022
5789 Clear -2 999 73 10000 7.2 310 18:51 20.01.2022
5790 Clear -3 998 75 10000 7.72 310 17:31 20.01.2022
5791 Clear -3 997 71 10000 9.26 310 15:46 20.01.2022
5792 Clear -3 997 71 10000 9.26 310 15:25 20.01.2022
5793 Clear -2 996 73 10000 9.77 320 13:42 20.01.2022
5794 Clear -2 994 76 10000 10.29 310 12:43 20.01.2022
5795 Clouds -2 994 77 10000 9.26 310 12:21 20.01.2022
5796 Clouds -3 992 80 10000 9.26 310 10:55 20.01.2022
5797 Clouds -3 991 85 10000 8.75 310 09:43 20.01.2022
5798 Clouds -3 989 87 10000 7.72 310 08:35 20.01.2022
5799 Clouds -3 989 87 10000 7.72 310 08:35 20.01.2022
5800 Clouds -4 988 94 1200 8.75 310 06:18 20.01.2022
5801 Rain 2 983 92 4300 3.6 210 23:52 19.01.2022
5802 Rain 3 984 91 10000 4.12 200 22:37 19.01.2022
5803 Rain 4 986 89 10000 5.14 190 21:24 19.01.2022
5804 Drizzle 4 987 88 10000 5.14 210 20:53 19.01.2022
5805 Drizzle 5 988 88 10000 5.14 210 20:22 19.01.2022
5806 Clouds 5 990 84 10000 6.17 230 18:49 19.01.2022
5807 Clouds 5 990 84 10000 6.17 230 18:49 19.01.2022
5808 Clouds 6 992 83 10000 6.17 230 17:50 19.01.2022
5809 Clouds 6 993 83 10000 7.2 240 16:59 19.01.2022
5810 Clouds 6 996 84 10000 7.72 250 14:43 19.01.2022
5811 Clouds 5 999 84 10000 6.17 240 12:53 19.01.2022
5812 Clouds 5 1000 84 10000 7.2 230 11:54 19.01.2022
5813 Clouds 5 1003 84 10000 6.17 240 10:52 19.01.2022
5814 Clear 4 1004 87 10000 4.12 230 09:35 19.01.2022
5815 Clear 3 1006 87 10000 7.2 240 07:34 19.01.2022
5816 Clouds 3 1009 90 10000 4.63 240 05:19 19.01.2022
5817 Clouds 1 1013 89 10000 3.09 230 23:53 18.01.2022
5818 Clouds 1 1014 90 10000 3.6 250 23:18 18.01.2022
5819 Clear 1 1015 89 10000 2.57 260 21:43 18.01.2022
5820 Clear 1 1016 87 10000 3.6 250 20:21 18.01.2022
5821 Clear 1 1017 84 10000 3.6 260 19:39 18.01.2022
5822 Clear 1 1017 84 10000 4.12 260 19:21 18.01.2022
5823 Clear 2 1017 80 10000 4.63 260 18:18 18.01.2022
5824 Clear 1 1018 76 10000 5.14 250 17:29 18.01.2022
5825 Clear 2 1018 70 10000 4.12 240 15:56 18.01.2022
5826 Clear 2 1019 67 10000 4.63 250 15:24 18.01.2022
5827 Clear 2 1019 62 10000 2.57 240 14:18 18.01.2022
5828 Clear 0 1022 70 10000 5.14 250 11:20 18.01.2022
5829 Clear -1 1023 75 10000 3.09 240 09:58 18.01.2022
5830 Clouds -1 1022 78 10000 0.45 248 08:29 18.01.2022
5831 Clear -1 1023 76 10000 2.57 270 07:42 18.01.2022
5832 Clouds 0 1019 72 10000 4.63 310 00:38 18.01.2022
5833 Clouds 1 1017 73 10000 5.66 310 22:39 17.01.2022
5834 Clear 1 1015 72 10000 6.17 310 21:41 17.01.2022
5835 Clear 1 1014 71 10000 4.63 290 20:39 17.01.2022
5836 Clear 0 1013 70 10000 5.14 290 18:46 17.01.2022
5837 Clear 0 1012 69 10000 4.63 290 18:24 17.01.2022
5838 Clear 0 1011 67 10000 5.14 280 17:19 17.01.2022
5839 Clear 0 1010 59 10000 4.63 290 15:47 17.01.2022
5840 Clear 1 1009 56 10000 5.14 320 14:58 17.01.2022
5841 Clear 1 1008 56 10000 6.69 320 14:22 17.01.2022
5842 Clear 1 1006 60 10000 7.72 320 13:18 17.01.2022
5843 Clouds 1 1002 62 10000 8.23 330 11:51 17.01.2022
5844 Clear 1 1000 61 10000 7.2 330 10:47 17.01.2022
5845 Clouds 1 997 63 10000 8.75 320 09:35 17.01.2022
5846 Clouds 0 994 68 10000 8.23 310 08:43 17.01.2022
5847 Clouds 0 990 61 10000 11.83 310 07:20 17.01.2022
5848 Clouds 4 984 69 10000 9.77 270 00:58 17.01.2022
5849 Rain 3 985 82 10000 5.14 230 23:27 16.01.2022
5850 Clear 2 991 89 10000 5.14 250 20:50 16.01.2022
5851 Clear 3 992 90 10000 4.63 250 19:55 16.01.2022
5852 Clear 3 994 91 10000 4.12 260 18:45 16.01.2022
5853 Clear 4 994 90 10000 4.12 260 17:46 16.01.2022
5854 Clouds 4 994 90 10000 6.69 260 16:52 16.01.2022
5855 Clouds 4 994 92 10000 5.14 240 15:39 16.01.2022
5856 Clouds 4 995 92 5000 6.17 250 14:29 16.01.2022
5857 Clouds 4 995 92 5000 6.17 250 14:29 16.01.2022
5858 Clouds 5 996 86 10000 6.17 240 12:57 16.01.2022
5859 Clouds 5 997 87 10000 5.66 230 11:49 16.01.2022
5860 Clouds 4 998 87 10000 6.69 230 11:27 16.01.2022
5861 Clouds 4 999 89 10000 6.17 240 10:27 16.01.2022
5862 Clouds 4 999 88 10000 5.66 240 09:57 16.01.2022
5863 Clouds 4 1000 89 10000 5.66 230 09:23 16.01.2022
5864 Clouds 4 1001 89 10000 5.14 230 08:52 16.01.2022
5865 Clouds 1 1005 89 10000 3.09 210 05:35 16.01.2022
5866 Clouds -1 1012 81 10000 2.57 230 23:51 15.01.2022
5867 Clouds -1 1013 79 10000 2.57 230 22:37 15.01.2022
5868 Clouds -1 1013 77 10000 2.06 220 21:21 15.01.2022
5869 Clouds -2 1014 76 10000 3.09 220 20:43 15.01.2022
5870 Clouds -2 1015 80 10000 1.03 230 19:52 15.01.2022
5871 Clouds -2 1016 78 10000 1.54 230 19:19 15.01.2022
5872 Clouds -1 1017 76 10000 2.57 230 17:35 15.01.2022
5873 Clear -1 1018 76 10000 2.57 230 16:37 15.01.2022
5874 Clear 1 1019 68 10000 4.63 290 13:57 15.01.2022
5875 Clear 1 1019 68 10000 6.17 290 12:20 15.01.2022
5876 Clear 0 1019 72 10000 5.14 280 10:43 15.01.2022
5877 Clear 0 1018 72 10000 5.14 300 08:32 15.01.2022
5878 Clear 2 1015 66 10000 6.69 270 00:35 15.01.2022
5879 Clear 3 1013 63 10000 7.2 280 21:56 14.01.2022
5880 Clear 3 1012 62 10000 7.2 280 20:41 14.01.2022
5881 Clear 3 1012 61 10000 7.72 290 20:21 14.01.2022
5882 Clear 3 1011 61 10000 7.72 290 18:49 14.01.2022
5883 Clear 3 1010 59 10000 9.26 290 18:20 14.01.2022
5884 Clear 3 1009 58 10000 9.26 300 16:50 14.01.2022
5885 Clear 4 1008 57 10000 8.75 300 15:39 14.01.2022
5886 Clear 4 1007 57 10000 10.29 300 14:42 14.01.2022
5887 Clear 4 1006 55 10000 11.83 290 13:36 14.01.2022
5888 Clear 4 1005 56 10000 11.83 300 12:28 14.01.2022
5889 Clear 3 1004 56 10000 10.8 300 10:56 14.01.2022
5890 Clear 3 1002 57 10000 10.8 290 09:44 14.01.2022
5891 Clear 3 1002 59 10000 10.8 300 08:44 14.01.2022
5892 Clouds 3 1000 68 10000 9.77 300 06:45 14.01.2022
5893 Clouds 7 997 78 10000 6.17 250 01:20 14.01.2022
5894 Clouds 7 1001 78 10000 6.17 260 22:52 13.01.2022
5895 Clear 6 1003 79 10000 8.23 260 21:31 13.01.2022
5896 Clear 6 1003 79 10000 9.77 270 20:57 13.01.2022
5897 Clear 6 1002 79 10000 9.26 260 19:40 13.01.2022
5898 Clear 6 1003 79 10000 9.26 260 19:22 13.01.2022
5899 Clear 6 1004 79 10000 6.69 260 17:52 13.01.2022
5900 Clear 7 1004 78 10000 7.72 270 16:21 13.01.2022
5901 Clear 7 1005 78 10000 8.23 270 15:37 13.01.2022
5902 Clear 7 1005 76 10000 6.69 260 14:46 13.01.2022
5903 Clear 7 1006 78 10000 6.17 260 12:44 13.01.2022
5904 Clear 6 1008 80 10000 6.69 260 10:25 13.01.2022
5905 Clear 7 1008 80 10000 7.72 260 08:58 13.01.2022
5906 Clear 6 1009 81 10000 6.17 260 08:26 13.01.2022
5907 Clear 6 1008 81 10000 7.2 260 07:23 13.01.2022
5908 Clouds 6 1009 85 10000 8.23 260 05:59 13.01.2022
5909 Clouds 6 1009 86 10000 7.72 270 05:19 13.01.2022
5910 Clouds 5 1010 90 10000 5.66 250 01:58 13.01.2022
5911 Clouds 5 1010 91 10000 5.14 260 00:54 13.01.2022
5912 Clouds 5 1011 92 10000 5.14 270 23:49 12.01.2022
5913 Clouds 5 1011 92 10000 5.14 250 23:19 12.01.2022
5914 Clouds 4 1012 93 10000 3.6 250 21:57 12.01.2022
5915 Clouds 4 1013 93 10000 4.63 240 21:22 12.01.2022
5916 Clouds 4 1013 93 10000 4.63 240 21:22 12.01.2022
5917 Clouds 4 1013 92 10000 5.14 240 20:56 12.01.2022
5918 Clouds 4 1014 92 10000 5.66 240 19:43 12.01.2022
5919 Clouds 4 1015 92 10000 4.63 250 18:42 12.01.2022
5920 Clouds 3 1016 93 10000 4.63 240 17:21 12.01.2022
5921 Clouds 3 1016 92 10000 3.6 230 16:32 12.01.2022
5922 Clouds 2 1018 92 10000 4.12 230 14:48 12.01.2022
5923 Rain 2 1018 92 10000 3.6 230 13:24 12.01.2022
5924 Clouds 1 1021 93 10000 4.12 220 10:56 12.01.2022
5925 Mist 1 1022 94 3600 4.12 220 08:43 12.01.2022
5926 Clouds 1 1022 94 7000 3.09 190 07:50 12.01.2022
5927 Clouds 1 1023 94 7000 3.09 210 07:31 12.01.2022
5928 Clouds 0 1026 92 3500 3.09 200 23:53 11.01.2022
5929 Snow 0 1026 90 2100 3.6 210 22:56 11.01.2022
5930 Snow 0 1027 90 10000 4.12 210 22:23 11.01.2022
5931 Clouds 0 1027 89 10000 3.6 210 21:25 11.01.2022
5932 Clouds 0 1027 88 10000 5.14 210 20:21 11.01.2022
5933 Clouds 0 1028 87 10000 5.14 190 18:43 11.01.2022
5934 Clouds 0 1028 87 10000 3.6 210 17:35 11.01.2022
5935 Clear 0 1028 88 10000 5.14 180 16:38 11.01.2022
5936 Clear -1 1029 88 10000 4.12 190 15:56 11.01.2022
5937 Clear 0 1029 86 10000 4.12 190 14:43 11.01.2022
5938 Clear 0 1029 85 10000 3.6 180 13:56 11.01.2022
5939 Clear 0 1030 85 10000 3.6 180 13:36 11.01.2022
5940 Clouds 0 1030 85 10000 3.09 190 12:51 11.01.2022
5941 Clouds 0 1030 87 10000 3.6 190 12:20 11.01.2022
5942 Clouds -1 1032 88 10000 3.09 170 09:58 11.01.2022
5943 Clouds -2 1032 91 10000 2.06 150 07:18 11.01.2022
5944 Fog -7 1034 100 1200 1.03 110 00:43 11.01.2022
5945 Clouds -6 1034 97 2900 1.03 130 00:21 11.01.2022
5946 Clouds -4 1034 93 10000 1.54 120 23:28 10.01.2022
5947 Clouds -3 1033 89 10000 1.03 80 22:19 10.01.2022
5948 Clouds -3 1033 88 10000 1.54 80 21:54 10.01.2022
5949 Clouds -3 1033 88 10000 1.03 0 21:31 10.01.2022
5950 Clouds -2 1032 87 10000 1.54 300 20:58 10.01.2022
5951 Clouds -2 1032 87 10000 1.03 0 20:29 10.01.2022
5952 Clouds -2 1032 88 10000 1.54 0 19:45 10.01.2022
5953 Clouds -2 1031 89 10000 1.03 360 19:21 10.01.2022
5954 Clouds -2 1031 89 10000 1.54 20 18:50 10.01.2022
5955 Clouds -2 1031 89 10000 0.51 20 18:31 10.01.2022
5956 Clouds -2 1030 90 10000 1.54 320 16:42 10.01.2022
5957 Clouds -2 1029 90 10000 1.54 0 15:50 10.01.2022
5958 Clouds -2 1028 89 10000 2.06 20 14:39 10.01.2022
5959 Clouds -2 1027 91 10000 3.09 20 12:31 10.01.2022
5960 Clouds -1 1026 90 10000 2.57 20 11:25 10.01.2022
5961 Clouds -1 1026 91 10000 2.06 20 10:21 10.01.2022
5962 Clouds -1 1024 91 10000 2.06 20 08:22 10.01.2022
5963 Clouds -1 1021 91 10000 2.57 360 05:50 10.01.2022
5964 Clouds -1 1017 91 10000 2.57 30 01:33 10.01.2022
5965 Clouds -1 1017 91 10000 2.57 30 01:33 10.01.2022
5966 Clouds -1 1016 92 10000 2.57 40 00:33 10.01.2022
5967 Clouds -1 1015 92 10000 1.54 50 23:54 09.01.2022
5968 Clouds -1 1014 92 10000 1.54 0 22:43 09.01.2022
5969 Clouds -2 1013 92 10000 1.54 0 21:47 09.01.2022
5970 Clouds -2 1013 91 10000 1.54 20 21:25 09.01.2022
5971 Clouds -1 1012 91 10000 1.54 50 20:55 09.01.2022
5972 Clouds -1 1011 91 10000 1.54 50 20:37 09.01.2022
5973 Clouds -1 1011 91 10000 3.6 60 20:18 09.01.2022
5974 Clouds -1 1012 87 10000 3.09 30 19:37 09.01.2022
5975 Clouds -1 1009 90 10000 2.57 50 19:18 09.01.2022
5976 Clouds -1 1008 91 10000 3.6 60 18:37 09.01.2022
5977 Clouds -1 1009 91 10000 4.12 30 17:48 09.01.2022
5978 Clouds -1 1008 91 10000 3.09 30 17:26 09.01.2022
5979 Clouds 0 1008 92 10000 3.09 20 16:40 09.01.2022
5980 Clouds 0 1007 93 10000 2.06 50 15:40 09.01.2022
5981 Clouds 0 1006 94 10000 3.09 50 14:50 09.01.2022
5982 Clouds 0 1005 95 10000 4.63 60 14:23 09.01.2022
5983 Clouds 0 1005 96 9000 4.63 50 13:48 09.01.2022
5984 Clouds 0 1003 96 1900 2.57 30 11:56 09.01.2022
5985 Mist 0 1003 96 600 2.06 50 11:26 09.01.2022
5986 Clouds -1 1002 96 8000 1.03 0 09:55 09.01.2022
5987 Clouds -1 1002 96 6000 1.54 10 08:59 09.01.2022
5988 Fog -1 999 96 250 2.06 70 06:56 09.01.2022
5989 Clouds 0 998 96 10000 0.51 0 01:29 09.01.2022
5990 Clouds 0 998 96 10000 1.54 0 00:37 09.01.2022
5991 Mist 0 998 96 3100 0 0 23:31 08.01.2022
5992 Mist 0 998 96 4100 0 0 22:48 08.01.2022
5993 Clouds 0 998 96 2800 0.51 0 21:28 08.01.2022
5994 Fog 0 998 96 450 1.03 110 20:43 08.01.2022
5995 Mist 0 998 96 2200 0 0 20:22 08.01.2022
5996 Mist 0 998 96 4400 1.54 140 19:22 08.01.2022
5997 Clouds 0 999 96 6000 1.03 0 17:31 08.01.2022
5998 Clouds 0 999 96 7000 1.03 0 16:42 08.01.2022
5999 Clouds 0 999 96 6000 1.03 0 15:28 08.01.2022
6000 Clouds 0 999 96 7000 1.54 220 13:58 08.01.2022
6001 Clouds 0 1000 96 9000 2.06 210 11:40 08.01.2022
6002 Clouds 0 1001 96 10000 1.03 0 10:33 08.01.2022
6003 Clouds 0 1001 96 10000 1.54 160 09:57 08.01.2022
6004 Clouds 0 1001 96 10000 1.54 160 09:33 08.01.2022
6005 Snow 0 1002 96 2400 3.6 100 05:51 08.01.2022
6006 Snow -1 1004 94 2900 4.63 80 01:24 08.01.2022
6007 Snow -2 1005 93 3500 5.14 90 23:30 07.01.2022
6008 Snow -2 1006 89 4800 4.12 100 21:47 07.01.2022
6009 Snow -3 1006 86 9000 4.12 80 20:32 07.01.2022
6010 Snow -4 1006 86 10000 4.12 100 19:27 07.01.2022
6011 Clouds -4 1006 87 10000 4.12 90 18:49 07.01.2022
6012 Clouds -4 1006 87 10000 3.6 100 18:21 07.01.2022
6013 Clouds -5 1007 87 10000 3.09 90 17:23 07.01.2022
6014 Clear -6 1007 86 10000 1.54 70 14:55 07.01.2022
6015 Clear -7 1007 87 10000 1.54 40 13:52 07.01.2022
6016 Clear -7 1009 87 10000 0 0 12:51 07.01.2022
6017 Clear -8 1009 92 10000 1.03 0 11:22 07.01.2022
6018 Clear -10 1008 92 10000 0 0 04:25 07.01.2022
6019 Clear -8 1008 86 10000 3.6 270 02:46 07.01.2022
6020 Clear -8 1008 79 10000 2.57 280 01:48 07.01.2022
6021 Clear -8 1008 79 10000 2.57 280 01:48 07.01.2022
6022 Clear -8 1009 86 10000 3.09 270 01:25 07.01.2022
6023 Clear -8 1008 86 10000 3.6 260 00:30 07.01.2022
6024 Clear -8 1008 86 10000 3.6 260 00:30 07.01.2022
6025 Clear -7 1006 85 10000 5.14 260 22:33 06.01.2022
6026 Clear -7 1006 83 10000 3.6 250 20:51 06.01.2022
6027 Clear -7 1005 82 10000 3.6 260 20:18 06.01.2022
6028 Clear -6 1006 84 10000 3.09 260 19:36 06.01.2022
6029 Clear -6 1005 81 10000 3.09 270 17:51 06.01.2022
6030 Clear -6 1005 80 10000 2.57 280 17:27 06.01.2022
6031 Clear -6 1005 82 10000 4.63 290 16:38 06.01.2022
6032 Clear -6 1005 81 10000 3.6 300 15:44 06.01.2022
6033 Clear -6 1004 80 10000 5.14 290 15:22 06.01.2022
6034 Clear -6 1005 80 10000 5.14 290 14:20 06.01.2022
6035 Clear -6 1004 80 10000 4.63 290 13:39 06.01.2022
6036 Clear -6 1003 80 10000 5.14 300 12:21 06.01.2022
6037 Clear -6 1003 82 10000 4.12 300 11:30 06.01.2022
6038 Clear -7 1005 81 10000 4.12 290 10:50 06.01.2022
6039 Clear -7 999 83 10000 4.12 300 06:38 06.01.2022
6040 Snow -5 994 90 10000 5.14 320 00:34 06.01.2022
6041 Clouds -5 993 90 10000 5.66 320 23:33 05.01.2022
6042 Clouds -5 992 89 10000 5.14 310 22:48 05.01.2022
6043 Snow -5 992 90 10000 6.17 310 22:26 05.01.2022
6044 Snow -5 991 91 10000 4.12 310 21:28 05.01.2022
6045 Snow -5 990 91 10000 5.14 320 20:30 05.01.2022
6046 Snow -5 989 91 10000 5.66 320 19:42 05.01.2022
6047 Snow -4 987 94 2000 4.12 320 18:22 05.01.2022
6048 Snow -3 986 94 1800 4.12 320 16:57 05.01.2022
6049 Snow -2 985 94 1500 5.14 340 16:19 05.01.2022
6050 Snow 0 984 93 4500 2.57 330 15:19 05.01.2022
6051 Clouds 0 983 93 10000 2.57 320 13:34 05.01.2022
6052 Clouds 0 982 94 10000 3.09 300 12:30 05.01.2022
6053 Clouds -1 981 93 10000 2.06 170 08:46 05.01.2022
6054 Clouds -1 980 93 10000 2.57 200 06:46 05.01.2022
6055 Clouds -1 981 93 10000 2.06 180 01:49 05.01.2022
6056 Clouds -1 981 91 10000 2.06 190 23:44 04.01.2022
6057 Clouds -1 981 91 10000 2.57 190 23:25 04.01.2022
6058 Clouds -1 982 90 10000 3.09 200 21:50 04.01.2022
6059 Clear -1 982 89 10000 2.57 190 20:45 04.01.2022
6060 Clear 0 982 90 10000 3.6 200 18:44 04.01.2022
6061 Clear 0 982 90 10000 2.57 210 17:34 04.01.2022
6062 Clouds 0 983 89 10000 2.57 220 16:39 04.01.2022
6063 Clear 0 983 88 10000 3.09 210 16:20 04.01.2022
6064 Clear 1 983 87 10000 3.6 220 14:42 04.01.2022
6065 Clear 1 983 86 10000 4.12 250 13:57 04.01.2022
6066 Clear 1 983 87 10000 3.09 230 12:24 04.01.2022
6067 Clear 0 983 88 10000 5.66 240 10:24 04.01.2022
6068 Clear 0 983 90 10000 5.14 230 08:59 04.01.2022
6069 Clouds 1 983 89 10000 4.12 240 06:46 04.01.2022
6070 Clouds 4 984 93 10000 3.6 180 00:44 04.01.2022
6071 Clouds 4 984 93 10000 3.6 170 23:56 03.01.2022
6072 Clouds 4 985 96 10000 3.09 190 22:28 03.01.2022
6073 Clouds 4 986 96 10000 3.09 200 21:41 03.01.2022
6074 Clouds 4 986 94 10000 2.57 180 20:42 03.01.2022
6075 Clouds 4 987 94 6000 2.57 160 19:43 03.01.2022
6076 Rain 4 987 94 10000 2.06 160 18:31 03.01.2022
6077 Clouds 4 988 94 10000 2.06 170 17:34 03.01.2022
6078 Clouds 4 988 94 10000 2.06 180 16:56 03.01.2022
6079 Clouds 4 989 96 6000 2.06 220 14:33 03.01.2022
6080 Drizzle 4 989 95 4000 2.06 200 13:25 03.01.2022
6081 Clouds 4 989 94 10000 1.54 0 12:28 03.01.2022
6082 Clouds 4 990 94 10000 2.06 240 11:30 03.01.2022
6083 Clouds 3 990 92 10000 3.6 270 09:41 03.01.2022
6084 Clouds 4 990 94 10000 3.09 240 08:18 03.01.2022
6085 Clouds 4 990 96 10000 2.57 230 05:21 03.01.2022
6086 Mist 4 993 96 2700 1.54 210 23:44 02.01.2022
6087 Clouds 4 993 96 6000 1.54 200 22:57 02.01.2022
6088 Clouds 4 993 96 6000 1.54 200 22:37 02.01.2022
6089 Mist 4 994 96 5000 2.06 220 21:26 02.01.2022
6090 Mist 4 994 96 4000 2.57 210 20:30 02.01.2022
6091 Mist 4 994 96 4000 2.57 210 19:49 02.01.2022
6092 Mist 4 994 96 6000 2.06 190 19:25 02.01.2022
6093 Drizzle 4 995 96 4000 1.54 180 18:31 02.01.2022
6094 Clouds 3 996 96 3000 1.54 170 17:43 02.01.2022
6095 Drizzle 3 996 96 1100 2.06 180 17:21 02.01.2022
6096 Fog 3 996 96 400 2.06 160 16:33 02.01.2022
6097 Fog 3 995 96 400 1.54 160 15:49 02.01.2022
6098 Fog 3 995 96 400 1.54 160 15:49 02.01.2022
6099 Clouds 3 996 96 4700 2.06 180 13:57 02.01.2022
6100 Mist 2 998 96 4000 2.06 190 12:33 02.01.2022
6101 Clouds 2 998 96 4000 1.54 190 11:56 02.01.2022
6102 Mist 2 999 96 3300 2.06 200 10:56 02.01.2022
6103 Mist 2 1000 96 3600 1.54 170 10:22 02.01.2022
6104 Mist 1 1001 96 3800 3.09 140 07:45 02.01.2022
6105 Snow 0 1010 95 1400 4.63 140 02:58 02.01.2022
6106 Snow -1 1015 87 10000 3.6 120 23:55 01.01.2022
6107 Snow -2 1015 87 10000 3.6 120 23:36 01.01.2022
6108 Snow -2 1016 86 10000 2.57 140 22:41 01.01.2022
6109 Clouds -2 1017 86 10000 2.57 130 22:18 01.01.2022
6110 Clouds -2 1018 86 10000 2.06 140 21:42 01.01.2022
6111 Clouds -2 1019 86 10000 1.03 160 20:51 01.01.2022
6112 Clouds -2 1020 86 10000 0 0 19:55 01.01.2022
6113 Clouds -2 1020 85 10000 0 0 18:53 01.01.2022
6114 Clouds -2 1020 84 10000 1.54 0 17:46 01.01.2022
6115 Clouds -1 1019 81 10000 2.06 240 16:35 01.01.2022
6116 Clouds -2 1019 80 10000 1.03 0 15:57 01.01.2022
6117 Clouds -1 1020 82 10000 2.06 350 14:56 01.01.2022
6118 Clouds -1 1019 82 10000 2.57 360 13:42 01.01.2022
6119 Clouds -1 1019 83 10000 2.57 10 12:43 01.01.2022
6120 Clouds -2 1018 85 10000 3.6 10 11:47 01.01.2022
6121 Clouds -1 1017 83 10000 4.63 350 11:19 01.01.2022
6122 Clouds -1 1016 86 8000 4.12 350 09:49 01.01.2022
6123 Clouds -1 1015 85 10000 4.63 340 09:20 01.01.2022
6124 Clouds -1 1013 86 10000 4.63 350 08:22 01.01.2022
6125 Clouds -1 1012 87 10000 5.14 340 07:41 01.01.2022
6126 Clouds 0 1011 87 10000 5.66 350 06:45 01.01.2022
6127 Clouds 0 1009 92 10000 5.66 340 05:25 01.01.2022
6128 Snow 1 1008 91 10000 4.63 350 04:37 01.01.2022
6129 Mist 1 1003 93 3900 4.63 330 00:37 01.01.2022
6130 Clouds 2 1001 95 10000 4.63 310 22:40 31.12.2021
6131 Clouds 3 1000 93 9000 4.12 300 21:51 31.12.2021
6132 Clouds 3 999 92 10000 4.12 280 20:28 31.12.2021
6133 Clouds 4 999 92 10000 3.6 280 19:28 31.12.2021
6134 Clouds 4 999 100 10000 2.57 280 18:30 31.12.2021
6135 Clouds 4 997 95 9000 4.12 280 17:37 31.12.2021
6136 Clouds 4 997 95 10000 3.09 270 17:18 31.12.2021
6137 Clouds 4 997 95 10000 3.09 250 16:19 31.12.2021
6138 Clouds 4 997 95 10000 3.09 250 15:53 31.12.2021
6139 Clouds 4 997 95 10000 3.09 240 15:28 31.12.2021
6140 Clouds 4 997 91 10000 4.63 260 14:41 31.12.2021
6141 Clouds 5 997 93 10000 3.6 240 13:58 31.12.2021
6142 Clouds 4 997 93 10000 3.6 240 13:35 31.12.2021
6143 Clouds 4 997 94 6000 2.06 230 12:44 31.12.2021
6144 Clouds 4 998 95 10000 2.57 230 11:43 31.12.2021
6145 Clouds 3 998 96 10000 3.09 220 11:20 31.12.2021
6146 Mist 3 997 96 2500 1.54 190 10:30 31.12.2021
6147 Clouds 2 998 96 10000 1.54 200 09:35 31.12.2021
6148 Clouds 1 998 96 10000 0 0 08:56 31.12.2021
6149 Clouds 1 998 93 10000 1.54 240 08:25 31.12.2021
6150 Fog 0 998 95 1100 0 0 07:30 31.12.2021
6151 Mist 5 994 95 4400 4.12 260 23:23 30.12.2021
6152 Clouds 5 994 94 9000 4.12 250 22:33 30.12.2021
6153 Drizzle 5 994 93 3500 4.12 260 21:51 30.12.2021
6154 Clouds 5 994 94 10000 4.12 240 21:33 30.12.2021
6155 Clouds 5 993 94 8000 4.12 230 20:44 30.12.2021
6156 Clouds 5 993 94 10000 4.12 240 20:24 30.12.2021
6157 Clouds 5 993 95 10000 5.14 240 19:43 30.12.2021
6158 Clouds 4 993 95 10000 4.63 230 18:29 30.12.2021
6159 Clouds 4 993 94 10000 4.63 230 17:45 30.12.2021
6160 Mist 3 994 94 5000 3.6 200 15:58 30.12.2021
6161 Mist 3 994 94 5000 3.6 200 15:39 30.12.2021
6162 Clouds 3 994 94 8000 4.12 190 14:37 30.12.2021
6163 Clouds 3 995 94 6000 4.63 190 13:33 30.12.2021
6164 Drizzle 3 996 94 6000 5.14 180 12:29 30.12.2021
6165 Rain 2 998 96 10000 4.12 170 10:58 30.12.2021
6166 Rain 2 998 94 9000 4.12 160 09:58 30.12.2021
6167 Snow 1 999 94 10000 2.57 150 08:56 30.12.2021
6168 Mist 0 1001 95 4500 2.57 160 06:52 30.12.2021
6169 Mist 0 1003 95 3000 2.06 220 03:42 30.12.2021
6170 Mist 0 1003 95 1600 1.03 100 02:47 30.12.2021
6171 Mist 0 1003 95 2600 0 0 23:43 29.12.2021
6172 Drizzle 0 1003 95 1000 0 0 23:22 29.12.2021
6173 Mist 0 1003 95 1700 1.54 300 22:21 29.12.2021
6174 Clouds 0 1004 95 3000 1.03 280 21:33 29.12.2021
6175 Mist 0 1004 95 2300 1.03 250 20:39 29.12.2021
6176 Mist 0 1003 95 3000 0 0 19:48 29.12.2021
6177 Snow 0 1003 95 3400 0.51 280 18:54 29.12.2021
6178 Snow 0 1003 95 3400 0.51 0 17:56 29.12.2021
6179 Snow 0 1003 95 3100 0 0 17:28 29.12.2021
6180 Snow 0 1003 95 3000 0 0 16:41 29.12.2021
6181 Snow 0 1003 95 2000 0 0 15:59 29.12.2021
6182 Snow 1 1003 95 1600 1.03 0 14:24 29.12.2021
6183 Snow 1 1002 95 700 0.51 0 12:42 29.12.2021
6184 Snow 1 1002 95 1500 1.03 160 11:49 29.12.2021
6185 Snow 0 1002 95 2500 1.03 0 09:59 29.12.2021
6186 Snow 0 1001 94 1100 1.03 150 07:52 29.12.2021
6187 Snow 0 1001 94 1100 1.03 150 07:52 29.12.2021
6188 Snow 0 1001 94 1800 1.03 140 06:43 29.12.2021
6189 Snow 0 1001 94 1600 1.03 140 06:23 29.12.2021
6190 Snow 0 1001 94 1100 1.03 140 05:40 29.12.2021
6191 Snow 1 1001 92 3800 2.06 160 03:18 29.12.2021
6192 Clouds 1 1000 91 10000 5.14 160 00:24 29.12.2021
6193 Clouds 1 1001 91 10000 5.14 160 23:45 28.12.2021
6194 Clouds 1 1000 88 10000 3.09 150 22:42 28.12.2021
6195 Clouds 1 1000 87 10000 4.12 140 22:24 28.12.2021
6196 Clouds 1 1000 86 10000 4.12 150 21:52 28.12.2021
6197 Clouds 1 1001 85 10000 3.6 150 20:40 28.12.2021
6198 Clouds 1 1001 85 10000 4.12 160 19:39 28.12.2021
6199 Clouds 1 1001 84 10000 5.14 150 18:44 28.12.2021
6200 Clouds 1 1001 84 10000 5.14 140 18:19 28.12.2021
6201 Clouds 1 1002 84 10000 5.66 150 16:35 28.12.2021
6202 Rain 1 1002 83 10000 5.66 140 15:51 28.12.2021
6203 Clouds 1 1003 82 10000 5.66 140 15:23 28.12.2021
6204 Clouds 1 1003 81 10000 6.17 150 14:50 28.12.2021
6205 Clouds 1 1003 79 10000 5.66 150 14:21 28.12.2021
6206 Clouds 1 1003 79 10000 5.66 150 14:21 28.12.2021
6207 Clouds 1 1004 78 10000 6.69 150 13:51 28.12.2021
6208 Clouds 1 1004 78 10000 5.66 150 13:27 28.12.2021
6209 Clouds 1 1004 78 10000 6.17 150 12:49 28.12.2021
6210 Clouds 1 1005 76 10000 7.2 150 11:51 28.12.2021
6211 Clear -1 1007 83 10000 4.12 150 09:27 28.12.2021
6212 Clear -2 1008 89 10000 2.06 140 07:28 28.12.2021
6213 Clouds -6 1013 89 8000 1.03 100 00:59 28.12.2021
6214 Clouds -5 1014 91 8000 2.06 170 23:26 27.12.2021
6215 Clouds -4 1012 92 10000 2.06 160 21:54 27.12.2021
6216 Clouds -5 1011 83 10000 2.06 200 21:26 27.12.2021
6217 Clouds -5 1011 83 10000 2.57 190 20:24 27.12.2021
6218 Clouds -5 1011 80 10000 1.54 0 19:43 27.12.2021
6219 Clouds -3 1014 93 10000 2.06 230 18:54 27.12.2021
6220 Clouds -3 1014 86 10000 2.06 230 17:50 27.12.2021
6221 Clouds -4 1013 93 10000 2.57 230 17:18 27.12.2021
6222 Clouds -4 1011 93 10000 3.09 250 15:53 27.12.2021
6223 Clouds -4 1010 90 10000 2.57 250 14:34 27.12.2021
6224 Clouds -3 1010 92 10000 3.09 260 13:58 27.12.2021
6225 Clouds -4 1011 92 10000 3.09 240 12:47 27.12.2021
6226 Clouds -4 1010 93 10000 2.57 270 10:36 27.12.2021
6227 Clouds -4 1010 94 10000 3.09 270 10:18 27.12.2021
6228 Clouds -5 1009 93 10000 4.12 270 08:41 27.12.2021
6229 Clouds -6 1009 93 10000 2.06 250 07:33 27.12.2021
6230 Clouds -7 1008 91 10000 2.06 230 02:26 27.12.2021
6231 Clouds -7 1008 91 10000 1.54 200 00:29 27.12.2021
6232 Clouds -7 1008 91 10000 1.54 210 23:42 26.12.2021
6233 Clouds -8 1008 91 10000 1.54 230 22:49 26.12.2021
6234 Clear -8 1010 90 10000 0.51 0 21:30 26.12.2021
6235 Clear -8 1008 91 10000 1.03 220 19:52 26.12.2021
6236 Clear -7 1008 90 10000 1.54 230 18:29 26.12.2021
6237 Clear -7 1008 89 10000 0 0 17:51 26.12.2021
6238 Clear -6 1008 86 10000 2.57 230 15:31 26.12.2021
6239 Clear -5 1007 85 10000 1.54 260 13:43 26.12.2021
6240 Clear -5 1007 85 10000 1.54 270 13:21 26.12.2021
6241 Clear -5 1007 85 10000 2.57 250 12:35 26.12.2021
6242 Clear -6 1007 86 10000 2.06 280 11:18 26.12.2021
6243 Clear -8 1006 88 9000 1.54 270 09:30 26.12.2021
6244 Clear -8 1006 88 10000 1.54 280 08:45 26.12.2021
6245 Clear -7 1006 89 10000 2.06 270 08:23 26.12.2021
6246 Clouds -4 1001 80 10000 4.63 300 01:45 26.12.2021
6247 Clouds -3 1000 80 10000 5.66 290 00:39 26.12.2021
6248 Clouds -4 999 79 10000 5.14 290 23:35 25.12.2021
6249 Clouds -4 999 79 10000 5.14 290 22:29 25.12.2021
6250 Clouds -4 998 81 10000 4.12 290 21:30 25.12.2021
6251 Clouds -4 998 80 10000 6.69 280 20:18 25.12.2021
6252 Clouds -4 998 81 10000 5.66 280 19:18 25.12.2021
6253 Clouds -4 998 81 10000 5.66 280 18:37 25.12.2021
6254 Clouds -5 997 81 10000 5.14 290 16:50 25.12.2021
6255 Clouds -5 997 79 10000 5.14 290 15:34 25.12.2021
6256 Clouds -5 997 78 10000 6.17 280 14:23 25.12.2021
6257 Clouds -6 997 80 10000 5.14 260 12:21 25.12.2021
6258 Clouds -8 998 82 10000 4.12 260 10:46 25.12.2021
6259 Clouds -8 998 84 10000 4.63 260 09:49 25.12.2021
6260 Clear -8 998 77 10000 3.09 270 07:27 25.12.2021
6261 Clear -9 997 76 10000 4.63 300 01:43 25.12.2021
6262 Clouds -9 996 72 10000 5.14 290 00:22 25.12.2021
6263 Clouds -9 996 72 10000 5.14 310 21:59 24.12.2021
6264 Clear -9 994 65 10000 5.66 300 19:27 24.12.2021
6265 Clear -9 994 65 10000 6.17 310 18:56 24.12.2021
6266 Clear -9 993 66 10000 5.14 300 16:49 24.12.2021
6267 Clear -9 993 68 10000 6.17 300 15:52 24.12.2021
6268 Clear -9 993 68 10000 5.66 310 15:32 24.12.2021
6269 Clouds -9 994 70 10000 6.17 310 14:35 24.12.2021
6270 Clouds -9 994 71 10000 5.14 300 13:59 24.12.2021
6271 Clouds -9 994 71 10000 5.14 300 13:32 24.12.2021
6272 Clouds -9 994 71 10000 4.63 300 12:47 24.12.2021
6273 Clouds -9 994 71 10000 5.14 290 11:46 24.12.2021
6274 Clouds -9 994 71 10000 5.66 300 11:24 24.12.2021
6275 Clouds -10 994 72 10000 4.63 310 10:36 24.12.2021
6276 Clear -11 994 74 10000 4.12 300 09:25 24.12.2021
6277 Clouds -10 994 73 10000 5.14 310 08:19 24.12.2021
6278 Clouds -10 994 75 10000 5.14 320 07:44 24.12.2021
6279 Snow -3 992 92 1100 4.12 310 00:48 24.12.2021
6280 Snow -3 992 92 1100 4.63 280 23:54 23.12.2021
6281 Snow -3 992 89 4300 5.66 280 22:54 23.12.2021
6282 Snow -3 992 89 10000 5.66 270 22:26 23.12.2021
6283 Snow -3 993 89 10000 5.66 260 21:50 23.12.2021
6284 Clouds -2 993 88 10000 4.63 250 20:54 23.12.2021
6285 Clouds -2 994 89 10000 5.14 260 19:31 23.12.2021
6286 Clouds -2 995 89 10000 5.66 250 18:32 23.12.2021
6287 Clouds -2 996 88 10000 5.66 260 17:47 23.12.2021
6288 Clouds -2 997 89 10000 5.14 250 16:40 23.12.2021
6289 Clouds -2 997 89 10000 4.63 250 16:20 23.12.2021
6290 Clouds -2 998 89 10000 6.17 250 15:31 23.12.2021
6291 Clouds -1 1000 89 10000 6.17 250 14:42 23.12.2021
6292 Clouds -1 1000 89 10000 5.14 260 14:19 23.12.2021
6293 Clouds -2 1002 89 10000 5.66 260 12:48 23.12.2021
6294 Clouds -2 1005 91 10000 5.14 240 10:43 23.12.2021
6295 Clouds -2 1006 90 8000 4.12 250 09:34 23.12.2021
6296 Clouds -2 1006 89 10000 2.57 240 08:59 23.12.2021
6297 Clouds -2 1008 88 10000 3.6 240 06:48 23.12.2021
6298 Clouds -3 1012 83 10000 3.09 230 03:41 23.12.2021
6299 Clouds -4 1017 87 10000 4.63 240 22:57 22.12.2021
6300 Clear -4 1018 86 10000 3.09 220 22:32 22.12.2021
6301 Clear -4 1018 85 10000 2.06 230 21:53 22.12.2021
6302 Clear -4 1018 86 10000 1.54 0 21:28 22.12.2021
6303 Clear -5 1019 89 10000 1.54 230 20:41 22.12.2021
6304 Clear -5 1019 88 10000 1.03 0 20:20 22.12.2021
6305 Clear -5 1020 89 10000 0.51 270 19:19 22.12.2021
6306 Clear -5 1020 89 10000 1.03 150 17:39 22.12.2021
6307 Clear -5 1022 90 10000 1.03 160 16:36 22.12.2021
6308 Clear -6 1022 90 10000 0.51 160 15:36 22.12.2021
6309 Clear -6 1024 91 10000 0 0 13:23 22.12.2021
6310 Clear -7 1024 92 10000 0 0 12:19 22.12.2021
6311 Clear -12 1027 92 10000 1.03 280 09:53 22.12.2021
6312 Clear -13 1027 92 10000 0 0 09:31 22.12.2021
6313 Clear -13 1026 92 10000 0 0 07:22 22.12.2021
6314 Clouds -12 1026 85 10000 0 0 05:41 22.12.2021
6315 Clouds -13 1026 85 10000 0 0 05:22 22.12.2021
6316 Clouds -12 1027 85 10000 0 0 04:45 22.12.2021
6317 Clouds -12 1027 85 10000 0 0 04:19 22.12.2021
6318 Clouds -13 1026 92 10000 0 0 03:32 22.12.2021
6319 Clouds -12 1026 92 10000 0 0 00:29 22.12.2021
6320 Clouds -9 1026 92 10000 0 0 22:51 21.12.2021
6321 Clear -9 1026 92 10000 0.51 280 22:27 21.12.2021
6322 Clear -9 1026 93 10000 0.51 0 21:43 21.12.2021
6323 Clear -8 1026 92 10000 0 0 20:53 21.12.2021
6324 Clear -8 1026 92 10000 1.03 320 20:20 21.12.2021
6325 Clear -8 1026 93 10000 0 0 19:41 21.12.2021
6326 Clouds -7 1024 91 10000 1.03 270 18:38 21.12.2021
6327 Clouds -7 1025 92 10000 1.03 270 17:59 21.12.2021
6328 Clouds -7 1025 92 10000 1.03 270 17:40 21.12.2021
6329 Snow -6 1023 88 10000 2.06 320 15:46 21.12.2021
6330 Snow -6 1023 88 10000 1.54 300 15:19 21.12.2021
6331 Snow -5 1023 85 10000 2.57 320 13:47 21.12.2021
6332 Snow -5 1023 86 10000 2.06 310 13:29 21.12.2021
6333 Clear -6 1024 86 10000 2.06 320 10:55 21.12.2021
6334 Clear -7 1024 82 10000 3.09 300 09:57 21.12.2021
6335 Clear -8 1024 87 10000 2.57 300 09:18 21.12.2021
6336 Clear -8 1023 87 10000 3.09 290 07:50 21.12.2021
6337 Clear -8 1023 87 10000 2.06 300 07:25 21.12.2021
6338 Clouds -8 1023 80 10000 3.09 300 04:56 21.12.2021
6339 Clouds -7 1021 84 10000 3.6 290 02:39 21.12.2021
6340 Clouds -6 1023 89 10000 2.06 300 23:58 20.12.2021
6341 Clouds -6 1023 90 10000 3.09 320 22:49 20.12.2021
6342 Clouds -6 1023 88 10000 2.57 310 22:28 20.12.2021
6343 Clouds -6 1024 89 10000 2.06 300 21:42 20.12.2021
6344 Clouds -6 1024 88 10000 3.09 310 21:22 20.12.2021
6345 Clear -6 1024 87 10000 2.06 320 20:41 20.12.2021
6346 Clear -5 1023 85 10000 2.06 320 19:48 20.12.2021
6347 Clear -5 1023 85 10000 2.06 340 19:29 20.12.2021
6348 Clear -5 1023 84 10000 2.57 340 18:49 20.12.2021
6349 Clear -4 1023 83 10000 2.06 320 17:52 20.12.2021
6350 Clear -4 1023 84 10000 2.57 320 16:56 20.12.2021
6351 Clear -3 1023 85 10000 2.57 320 16:36 20.12.2021
6352 Snow -3 1023 82 10000 3.09 330 15:47 20.12.2021
6353 Clouds -2 1023 74 10000 4.63 340 14:41 20.12.2021
6354 Clear -2 1022 64 10000 3.09 350 12:44 20.12.2021
6355 Clouds -2 1021 69 10000 4.63 10 10:55 20.12.2021
6356 Clouds -2 1021 81 10000 4.12 340 09:47 20.12.2021
6357 Clouds -2 1020 80 10000 4.12 340 08:57 20.12.2021
6358 Clouds -2 1020 80 10000 4.12 340 08:38 20.12.2021
6359 Snow -2 1020 77 10000 3.6 320 07:46 20.12.2021
6360 Snow -2 1019 75 10000 3.6 320 06:40 20.12.2021
6361 Clouds -1 1017 72 10000 5.14 350 03:41 20.12.2021
6362 Clouds 0 1014 83 10000 6.69 330 23:50 19.12.2021
6363 Clouds 1 1013 84 10000 7.2 350 22:44 19.12.2021
6364 Clouds 1 1012 85 10000 9.26 350 21:49 19.12.2021
6365 Clouds 1 1012 86 10000 7.72 340 21:25 19.12.2021
6366 Rain 2 1010 88 10000 6.69 330 20:29 19.12.2021
6367 Clouds 2 1010 89 10000 7.2 340 19:45 19.12.2021
6368 Rain 2 1009 88 5000 6.17 330 18:57 19.12.2021
6369 Rain 3 1008 83 10000 7.2 320 18:24 19.12.2021
6370 Rain 3 1008 75 10000 6.69 320 17:46 19.12.2021
6371 Clouds 3 1008 69 10000 4.63 300 16:55 19.12.2021
6372 Clouds 3 1007 67 10000 5.14 300 15:58 19.12.2021
6373 Clouds 3 1008 67 10000 6.17 300 15:26 19.12.2021
6374 Clouds 3 1008 67 10000 6.17 300 14:49 19.12.2021
6375 Clear 3 1008 65 10000 6.69 310 13:46 19.12.2021
6376 Clear 3 1008 67 10000 6.69 310 13:21 19.12.2021
6377 Clear 3 1008 66 10000 6.69 310 12:33 19.12.2021
6378 Clear 3 1008 68 10000 7.2 310 11:40 19.12.2021
6379 Clouds 2 1008 70 10000 5.14 310 10:52 19.12.2021
6380 Clouds 2 1008 71 10000 5.66 300 10:23 19.12.2021
6381 Clouds 2 1008 71 10000 6.17 300 09:20 19.12.2021
6382 Clouds 3 1007 70 10000 5.66 300 07:47 19.12.2021
6383 Clouds 5 1010 76 10000 8.23 310 02:35 19.12.2021
6384 Clouds 6 1010 77 10000 6.69 320 00:55 19.12.2021
6385 Clouds 5 1009 77 10000 6.17 310 23:31 18.12.2021
6386 Clouds 6 1010 78 10000 5.66 290 22:30 18.12.2021
6387 Clouds 6 1010 79 10000 5.14 290 21:54 18.12.2021
6388 Clouds 5 1010 80 10000 5.14 290 21:33 18.12.2021
6389 Clouds 5 1011 83 10000 4.63 270 20:43 18.12.2021
6390 Clouds 5 1011 85 10000 4.63 270 19:50 18.12.2021
6391 Clouds 4 1012 85 10000 3.6 260 19:19 18.12.2021
6392 Clouds 4 1013 85 10000 3.09 260 18:18 18.12.2021
6393 Clouds 4 1014 86 10000 3.09 260 17:46 18.12.2021
6394 Clear 6 1015 82 10000 2.06 260 16:22 18.12.2021
6395 Clear 7 1016 79 10000 3.6 270 15:25 18.12.2021
6396 Clear 8 1017 77 10000 5.66 270 14:19 18.12.2021
6397 Clear 8 1018 77 10000 5.14 280 12:38 18.12.2021
6398 Clear 7 1020 80 10000 5.14 280 10:43 18.12.2021
6399 Rain 6 1020 82 10000 4.63 270 09:33 18.12.2021
6400 Clear 6 1021 82 10000 3.6 280 08:37 18.12.2021
6401 Clouds 6 1021 81 10000 4.12 280 08:18 18.12.2021
6402 Clouds 3 1026 81 10000 3.6 270 01:48 18.12.2021
6403 Clouds 3 1026 81 10000 3.6 270 01:48 18.12.2021
6404 Clouds 3 1027 81 10000 4.63 260 00:23 18.12.2021
6405 Clouds 3 1027 82 10000 3.6 260 23:37 17.12.2021
6406 Clear 2 1027 85 10000 3.09 250 21:54 17.12.2021
6407 Clear 2 1027 85 10000 3.6 260 20:50 17.12.2021
6408 Clear 2 1027 85 10000 2.06 260 20:21 17.12.2021
6409 Clear 2 1028 86 10000 1.54 280 18:50 17.12.2021
6410 Clear 1 1028 87 10000 1.54 280 18:19 17.12.2021
6411 Clear 1 1028 85 10000 1.03 260 17:25 17.12.2021
6412 Clear 2 1028 84 10000 1.54 270 16:29 17.12.2021
6413 Clear 2 1028 82 10000 2.06 280 15:51 17.12.2021
6414 Clear 3 1028 82 10000 2.57 290 15:18 17.12.2021
6415 Clear 3 1027 79 10000 2.57 290 14:34 17.12.2021
6416 Clear 4 1028 79 10000 3.6 320 12:38 17.12.2021
6417 Clear 3 1027 82 10000 3.09 300 11:18 17.12.2021
6418 Clear 2 1027 84 10000 3.09 300 09:52 17.12.2021
6419 Clear 2 1027 84 10000 3.6 300 08:58 17.12.2021
6420 Clear 2 1026 83 10000 4.12 290 08:19 17.12.2021
6421 Clear 2 1025 80 10000 4.12 290 05:21 17.12.2021
6422 Clear 2 1024 78 10000 7.2 280 02:52 17.12.2021
6423 Clear 3 1022 77 10000 6.17 270 22:52 16.12.2021
6424 Clear 3 1021 77 10000 4.63 270 22:22 16.12.2021
6425 Clear 3 1021 78 10000 4.12 270 21:44 16.12.2021
6426 Clear 3 1021 77 10000 4.63 270 20:48 16.12.2021
6427 Clear 3 1020 77 10000 5.66 270 20:22 16.12.2021
6428 Clear 3 1020 77 10000 4.63 270 19:31 16.12.2021
6429 Clear 4 1020 75 10000 4.12 270 18:36 16.12.2021
6430 Clear 4 1019 75 10000 5.66 270 17:48 16.12.2021
6431 Clear 4 1018 74 10000 6.69 280 16:37 16.12.2021
6432 Clear 4 1018 74 10000 7.2 280 16:18 16.12.2021
6433 Clear 5 1017 74 10000 6.69 280 14:23 16.12.2021
6434 Clear 5 1015 74 10000 6.17 270 12:30 16.12.2021
6435 Clear 5 1015 75 10000 6.17 270 11:19 16.12.2021
6436 Clear 5 1014 76 10000 6.69 260 10:44 16.12.2021
6437 Clear 4 1014 78 10000 5.66 260 09:50 16.12.2021
6438 Clear 4 1012 80 10000 5.14 260 07:18 16.12.2021
6439 Clouds 5 1011 82 10000 5.14 260 06:18 16.12.2021
6440 Clouds 7 1008 89 10000 7.72 260 00:35 16.12.2021
6441 Clouds 7 1009 90 10000 5.66 260 23:20 15.12.2021
6442 Clouds 7 1009 91 10000 4.63 250 22:21 15.12.2021
6443 Clouds 7 1009 91 10000 5.14 250 21:45 15.12.2021
6444 Clouds 7 1009 90 10000 4.63 250 21:25 15.12.2021
6445 Clouds 7 1010 90 10000 3.6 250 19:54 15.12.2021
6446 Clouds 7 1010 90 10000 3.6 260 19:19 15.12.2021
6447 Clouds 7 1010 91 10000 3.6 260 18:24 15.12.2021
6448 Clouds 7 1010 91 10000 3.09 260 17:46 15.12.2021
6449 Clouds 7 1009 91 10000 4.12 270 17:21 15.12.2021
6450 Clouds 7 1009 91 10000 5.14 270 15:59 15.12.2021
6451 Clouds 7 1009 91 10000 5.14 270 15:41 15.12.2021
6452 Clouds 7 1008 92 10000 6.17 260 15:22 15.12.2021
6453 Clouds 7 1008 93 10000 6.69 260 13:48 15.12.2021
6454 Clouds 6 1008 96 7000 4.12 240 11:52 15.12.2021
6455 Drizzle 5 1008 96 3700 3.09 210 10:22 15.12.2021
6456 Clouds 4 1009 96 5000 3.6 210 08:27 15.12.2021
6457 Mist 4 1010 95 4500 3.6 210 05:54 15.12.2021
6458 Clouds 3 1012 93 10000 2.57 210 00:39 15.12.2021
6459 Clouds 3 1013 92 10000 2.57 220 23:32 14.12.2021
6460 Clouds 2 1013 92 10000 4.12 240 22:45 14.12.2021
6461 Clouds 2 1013 93 10000 3.09 240 21:47 14.12.2021
6462 Clouds 2 1013 94 10000 3.09 250 20:23 14.12.2021
6463 Clouds 2 1013 93 10000 3.6 250 19:37 14.12.2021
6464 Clouds 2 1013 93 10000 3.6 240 18:39 14.12.2021
6465 Clouds 3 1013 91 10000 5.66 260 17:57 14.12.2021
6466 Clouds 3 1013 91 10000 5.14 260 16:49 14.12.2021
6467 Clouds 3 1012 91 10000 4.63 260 16:30 14.12.2021
6468 Clouds 3 1012 91 10000 4.63 270 14:32 14.12.2021
6469 Clouds 4 1012 91 10000 5.14 270 13:22 14.12.2021
6470 Clouds 4 1012 94 10000 4.12 260 11:51 14.12.2021
6471 Clouds 4 1012 94 10000 4.12 260 11:22 14.12.2021
6472 Clouds 4 1011 96 9000 4.63 240 09:55 14.12.2021
6473 Clouds 4 1011 96 7000 3.6 240 09:19 14.12.2021
6474 Clouds 4 1011 96 4000 4.12 250 08:22 14.12.2021
6475 Mist 4 1011 96 3400 3.6 260 07:39 14.12.2021
6476 Drizzle 2 1014 96 2900 3.09 170 23:59 13.12.2021
6477 Clouds 2 1016 94 10000 3.09 170 22:26 13.12.2021
6478 Clouds 2 1016 94 9000 3.09 170 21:44 13.12.2021
6479 Clouds 2 1016 95 10000 3.6 190 20:58 13.12.2021
6480 Clouds 2 1017 95 10000 2.57 200 20:26 13.12.2021
6481 Clouds 2 1017 95 10000 2.06 180 19:49 13.12.2021
6482 Clouds 1 1018 95 10000 1.54 170 17:39 13.12.2021
6483 Clouds 1 1018 95 10000 1.54 180 17:18 13.12.2021
6484 Clouds 1 1018 95 10000 2.06 210 15:47 13.12.2021
6485 Clouds 0 1019 95 10000 2.57 220 14:43 13.12.2021
6486 Clouds 0 1019 95 9000 2.06 190 13:37 13.12.2021
6487 Clouds 0 1019 95 10000 3.09 200 12:40 13.12.2021
6488 Clouds 0 1020 95 10000 1.54 210 11:53 13.12.2021
6489 Clouds 0 1020 95 10000 1.54 210 11:34 13.12.2021
6490 Clouds -1 1020 95 10000 2.06 200 10:41 13.12.2021
6491 Clouds -1 1020 95 10000 2.57 230 08:45 13.12.2021
6492 Clouds -1 1019 95 10000 1.54 200 06:55 13.12.2021
6493 Fog -1 1019 95 800 1.03 0 05:19 13.12.2021
6494 Fog 0 1019 96 150 0 0 00:41 13.12.2021
6495 Fog -1 1018 96 150 0 0 21:59 12.12.2021
6496 Fog -1 1018 96 150 0.51 0 21:29 12.12.2021
6497 Fog -1 1019 96 50 0 0 19:36 12.12.2021
6498 Fog -1 1017 95 10000 0.51 0 18:23 12.12.2021
6499 Clouds 0 1017 95 7000 0 0 16:47 12.12.2021
6500 Clouds 1 1017 95 7000 0 0 16:22 12.12.2021
6501 Clouds 1 1017 95 7000 0 0 15:28 12.12.2021
6502 Clouds 1 1017 95 7000 0 0 14:54 12.12.2021
6503 Clouds 1 1017 95 7000 0 0 14:19 12.12.2021
6504 Clouds 1 1017 95 8000 0 0 12:48 12.12.2021
6505 Clouds 1 1017 95 8000 0 0 12:23 12.12.2021
6506 Clouds 1 1017 95 8000 0 0 12:23 12.12.2021
6507 Clouds 1 1018 95 7000 0.51 0 11:43 12.12.2021
6508 Mist 0 1018 97 3100 0 0 10:44 12.12.2021
6509 Mist 0 1018 97 3100 0 0 10:44 12.12.2021
6510 Mist 0 1018 97 4100 0 0 10:21 12.12.2021
6511 Fog 0 1018 97 2000 0.51 290 08:48 12.12.2021
6512 Fog -1 1018 97 100 0 0 07:28 12.12.2021
6513 Fog 0 1018 97 400 0 0 05:29 12.12.2021
6514 Fog -1 1018 97 150 0 0 04:53 12.12.2021
6515 Mist -1 1015 95 4900 0 0 01:26 12.12.2021
6516 Fog -2 1015 95 450 0.51 0 23:26 11.12.2021
6517 Fog -2 1015 95 100 0 0 22:21 11.12.2021
6518 Fog -1 1014 95 100 0 0 21:36 11.12.2021
6519 Mist 1 1014 94 400 0.51 190 20:20 11.12.2021
6520 Mist 1 1013 95 3600 0.51 210 19:21 11.12.2021
6521 Mist 1 1013 95 4000 1.03 200 18:48 11.12.2021
6522 Clouds 2 1012 95 6000 1.03 0 17:56 11.12.2021
6523 Clouds 2 1012 95 10000 0 0 16:39 11.12.2021
6524 Clouds 2 1011 95 10000 1.03 150 15:46 11.12.2021
6525 Clouds 3 1011 94 10000 1.54 130 14:46 11.12.2021
6526 Clouds 3 1009 94 10000 1.54 120 12:41 11.12.2021
6527 Clouds 2 1009 95 10000 1.03 0 10:58 11.12.2021
6528 Clouds 1 1008 95 10000 1.03 40 09:44 11.12.2021
6529 Rain 2 1006 94 10000 2.57 100 03:58 11.12.2021
6530 Rain 2 1006 95 7000 2.57 90 00:49 11.12.2021
6531 Mist 2 1006 95 4300 2.57 90 23:44 10.12.2021
6532 Mist 2 1006 94 3500 3.09 110 22:50 10.12.2021
6533 Rain 2 1006 94 8000 3.6 110 21:51 10.12.2021
6534 Clouds 2 1005 93 8000 4.63 120 20:32 10.12.2021
6535 Clouds 2 1005 95 8000 5.66 110 19:19 10.12.2021
6536 Clouds 2 1004 95 7000 5.14 120 17:50 10.12.2021
6537 Rain 3 1004 94 5000 5.14 110 16:39 10.12.2021
6538 Drizzle 2 1003 95 8000 5.14 110 15:45 10.12.2021
6539 Rain 2 1004 95 7000 5.66 110 15:27 10.12.2021
6540 Rain 2 1003 95 6000 4.63 100 14:56 10.12.2021
6541 Drizzle 2 1004 95 6000 4.12 110 13:50 10.12.2021
6542 Drizzle 2 1004 93 8000 3.6 110 13:18 10.12.2021
6543 Drizzle 2 1005 93 9000 3.6 110 11:43 10.12.2021
6544 Drizzle 1 1005 95 6000 4.12 100 11:19 10.12.2021
6545 Drizzle 1 1005 95 6000 4.12 100 11:19 10.12.2021
6546 Rain 1 1005 95 10000 3.6 110 09:53 10.12.2021
6547 Rain 1 1005 95 8000 4.63 110 08:23 10.12.2021
6548 Mist 1 1006 93 5000 3.6 110 04:58 10.12.2021
6549 Rain 1 1007 94 8000 3.09 130 02:44 10.12.2021
6550 Drizzle 1 1008 93 3500 3.6 130 23:43 09.12.2021
6551 Snow 1 1009 92 2200 4.63 120 22:44 09.12.2021
6552 Snow 1 1009 92 3400 4.12 110 22:23 09.12.2021
6553 Snow 1 1009 91 5000 4.63 100 21:40 09.12.2021
6554 Snow 1 1010 83 10000 8.75 110 20:38 09.12.2021
6555 Rain 1 1010 78 10000 7.2 110 19:46 09.12.2021
6556 Clouds 1 1010 77 10000 8.23 100 19:21 09.12.2021
6557 Clouds 1 1011 78 10000 7.2 110 18:24 09.12.2021
6558 Clouds 1 1011 80 10000 8.23 110 17:51 09.12.2021
6559 Clouds 1 1011 80 10000 7.72 110 17:25 09.12.2021
6560 Clouds 1 1011 80 10000 7.72 110 17:25 09.12.2021
6561 Snow 0 1012 82 10000 9.77 110 16:43 09.12.2021
6562 Clear 0 1013 79 10000 6.69 110 15:31 09.12.2021
6563 Clear 0 1013 79 10000 7.2 120 14:43 09.12.2021
6564 Clear 0 1014 79 10000 6.17 120 13:18 09.12.2021
6565 Clear 0 1015 79 10000 6.17 120 12:31 09.12.2021
6566 Clear 0 1015 78 10000 6.69 120 10:50 09.12.2021
6567 Clouds 0 1016 83 10000 7.72 120 08:38 09.12.2021
6568 Clouds -1 1015 84 10000 4.63 110 05:54 09.12.2021
6569 Clouds -1 1015 82 10000 3.6 130 01:52 09.12.2021
6570 Clouds -1 1015 82 10000 3.6 120 23:40 08.12.2021
6571 Clouds -1 1015 84 10000 4.12 120 23:20 08.12.2021
6572 Clouds -1 1015 83 10000 4.63 120 22:43 08.12.2021
6573 Clouds -1 1015 82 10000 4.63 110 21:39 08.12.2021
6574 Clouds -1 1015 81 10000 5.14 110 20:58 08.12.2021
6575 Clouds -1 1014 81 10000 5.66 110 19:57 08.12.2021
6576 Clouds -1 1015 81 10000 5.66 110 19:33 08.12.2021
6577 Clouds -1 1014 81 10000 6.17 120 18:30 08.12.2021
6578 Clouds -1 1015 81 10000 4.63 120 17:24 08.12.2021
6579 Clouds -1 1014 84 10000 3.6 120 15:46 08.12.2021
6580 Clouds -2 1015 84 10000 2.57 120 15:23 08.12.2021
6581 Clouds -1 1015 87 10000 2.57 100 14:26 08.12.2021
6582 Clouds -2 1015 88 10000 2.57 90 10:53 08.12.2021
6583 Clouds -3 1015 88 10000 3.6 100 10:28 08.12.2021
6584 Clouds -4 1014 89 10000 3.6 100 08:54 08.12.2021
6585 Clear -6 1015 90 10000 2.06 110 07:21 08.12.2021
6586 Clouds -13 1018 91 10000 0.51 0 01:21 08.12.2021
6587 Clouds -13 1018 86 10000 1.03 350 23:31 07.12.2021
6588 Clear -13 1018 86 10000 0 0 21:26 07.12.2021
6589 Clear -13 1018 86 10000 0.51 350 20:54 07.12.2021
6590 Clear -13 1018 87 10000 0 0 19:50 07.12.2021
6591 Clear -13 1018 87 10000 1.03 250 18:39 07.12.2021
6592 Clear -13 1018 91 10000 0 0 17:27 07.12.2021
6593 Clear -13 1018 91 10000 0 0 17:27 07.12.2021
6594 Clear -13 1018 87 10000 0.51 0 16:58 07.12.2021
6595 Clear -13 1016 91 10000 0.51 260 16:28 07.12.2021
6596 Clear -11 1016 88 10000 1.54 280 14:57 07.12.2021
6597 Clear -10 1016 89 10000 1.03 300 13:49 07.12.2021
6598 Clear -11 1016 90 10000 1.03 290 12:46 07.12.2021
6599 Clear -12 1016 89 10000 0 0 11:25 07.12.2021
6600 Clear -15 1017 87 10000 0 0 09:44 07.12.2021
6601 Clouds -16 1017 87 10000 0 0 07:55 07.12.2021
6602 Clouds -17 1017 86 10000 0 0 05:55 07.12.2021
6603 Clouds -17 1017 86 10000 0 0 05:30 07.12.2021
6604 Snow -16 1018 87 400 0.51 0 23:45 06.12.2021
6605 Clouds -15 1018 88 10000 1.03 240 22:44 06.12.2021
6606 Clouds -15 1018 87 5000 0.51 270 22:18 06.12.2021
6607 Clouds -15 1019 87 6000 1.03 250 21:42 06.12.2021
6608 Clouds -14 1019 87 5000 0 0 20:33 06.12.2021
6609 Clouds -13 1019 87 5000 1.03 340 19:27 06.12.2021
6610 Clouds -13 1019 92 10000 1.03 0 18:57 06.12.2021
6611 Clouds -14 1020 92 10000 2.06 330 17:56 06.12.2021
6612 Clouds -14 1020 91 10000 2.06 330 17:36 06.12.2021
6613 Clear -13 1020 87 10000 1.03 330 16:21 06.12.2021
6614 Clear -12 1019 84 10000 2.06 350 14:54 06.12.2021
6615 Clear -10 1019 81 10000 2.57 20 13:45 06.12.2021
6616 Clear -10 1019 81 10000 2.57 20 13:45 06.12.2021
6617 Clear -10 1019 83 10000 2.57 340 12:39 06.12.2021
6618 Clear -12 1022 81 10000 1.54 310 10:32 06.12.2021
6619 Clear -14 1023 87 10000 1.03 280 08:35 06.12.2021
6620 Clouds -12 1023 84 10000 2.06 20 04:28 06.12.2021
6621 Clouds -8 1021 81 10000 3.09 360 22:30 05.12.2021
6622 Clouds -8 1021 81 10000 2.57 360 21:26 05.12.2021
6623 Clouds -8 1021 81 10000 3.09 360 20:59 05.12.2021
6624 Clouds -7 1021 81 10000 3.09 20 20:19 05.12.2021
6625 Clouds -7 1021 83 10000 3.6 20 19:33 05.12.2021
6626 Clouds -7 1021 84 10000 3.09 360 18:41 05.12.2021
6627 Clouds -7 1020 84 10000 3.6 20 18:19 05.12.2021
6628 Clouds -6 1020 83 10000 3.09 10 17:47 05.12.2021
6629 Clouds -6 1020 84 10000 3.6 20 16:45 05.12.2021
6630 Snow -6 1019 84 10000 3.09 20 16:24 05.12.2021
6631 Snow -6 1019 83 10000 3.6 10 14:49 05.12.2021
6632 Clouds -5 1018 83 10000 4.12 360 14:30 05.12.2021
6633 Clouds -5 1018 83 10000 3.6 360 13:43 05.12.2021
6634 Clouds -5 1018 85 10000 4.12 360 12:55 05.12.2021
6635 Clouds -6 1018 87 10000 3.6 360 12:29 05.12.2021
6636 Clouds -6 1017 88 10000 3.6 350 11:49 05.12.2021
6637 Clouds -6 1018 86 10000 3.6 350 10:51 05.12.2021
6638 Clouds -7 1017 88 10000 3.6 360 09:58 05.12.2021
6639 Clouds -7 1015 87 10000 3.09 360 07:33 05.12.2021
6640 Clouds -5 1012 84 10000 3.6 30 02:25 05.12.2021
6641 Clouds -5 1010 85 10000 3.09 20 23:30 04.12.2021
6642 Clouds -6 1009 88 10000 3.09 20 21:54 04.12.2021
6643 Clouds -6 1010 89 10000 2.57 20 20:50 04.12.2021
6644 Clouds -6 1008 89 10000 2.06 10 19:54 04.12.2021
6645 Clouds -6 1008 89 10000 2.06 360 19:31 04.12.2021
6646 Clouds -7 1007 89 10000 2.06 360 17:58 04.12.2021
6647 Clouds -7 1006 89 10000 2.06 360 17:37 04.12.2021
6648 Clear -6 1006 89 10000 2.06 10 16:48 04.12.2021
6649 Clear -6 1006 89 10000 2.06 10 16:30 04.12.2021
6650 Clear -6 1006 89 10000 2.06 10 16:30 04.12.2021
6651 Clouds -4 1005 86 10000 3.09 20 14:39 04.12.2021
6652 Clouds -5 1003 90 10000 2.06 30 11:47 04.12.2021
6653 Clear -5 1003 90 10000 1.54 20 11:29 04.12.2021
6654 Clear -6 1003 91 10000 1.54 340 10:43 04.12.2021
6655 Clear -8 1004 92 10000 1.03 310 08:45 04.12.2021
6656 Clouds -7 1003 92 10000 1.54 20 06:24 04.12.2021
6657 Clouds -8 1002 91 10000 1.54 350 04:41 04.12.2021
6658 Clouds -6 1000 92 10000 0 0 23:49 03.12.2021
6659 Clouds -6 1000 92 10000 0 0 23:49 03.12.2021
6660 Clouds -6 1000 92 10000 0 0 23:49 03.12.2021
6661 Clouds -6 1000 91 10000 1.54 290 22:57 03.12.2021
6662 Clouds -6 1000 90 10000 1.54 290 22:38 03.12.2021
6663 Clouds -6 1000 92 10000 1.03 310 21:25 03.12.2021
6664 Clouds -6 1000 90 10000 1.54 320 20:46 03.12.2021
6665 Snow -6 1000 92 10000 2.06 300 19:40 03.12.2021
6666 Snow -6 999 92 6000 1.54 320 18:28 03.12.2021
6667 Snow -6 999 90 8000 1.54 320 17:59 03.12.2021
6668 Snow -6 998 89 10000